<?xml version="1.0" encoding="UTF-8"?>
<gpx xmlns="http://www.topografix.com/GPX/1/1" xmlns:dkl="http://www.gpsware.de/DKL/1/1" xmlns:rtx="http://www.bike-gps.de/RTX/1/1" version="1.1" creator="KOMPASS Digital Map" xmlns:xsi="http://www.w3.org/2001/XMLSchema-instance" xsi:schemaLocation="http://www.topografix.com/GPX/1/1 http://www.topografix.com/GPX/1/1/gpx.xsd">
 <metadata>
 <name>KOMPASS Digital Map Track</name>
 <desc> </desc>
 <time>2011-09-13T16:27:49Z</time>
 <bounds minlat="47.576893" minlon="13.100330" maxlat="47.820053" maxlon="13.493678"/>
 </metadata>
 <trk>
 <name>2011_Gg_Postalm_Strobl_Fuschl_Hl</name>
 <cmt>Postalm</cmt>
 <extensions>
 <dkl:dkl>
 <dkl:format_version>1.1</dkl:format_version>
 <dkl:format>
 <dkl:color>FF0000</dkl:color>
 <dkl:style>00000000</dkl:style>
 <dkl:strength>3</dkl:strength>
 <dkl:transparent>0</dkl:transparent>
 </dkl:format>
 <dkl:profile>
 <dkl:mode>0</dkl:mode>
 <dkl:smooth>0</dkl:smooth>
 </dkl:profile>
 </dkl:dkl>
 </extensions>
 <trkseg>
 <trkpt lat="47.600510" lon="13.164439">
 <ele>432.48</ele>
 <time>2011-09-13T07:03:22Z</time>
 </trkpt>
 <trkpt lat="47.600574" lon="13.164515">
 <ele>432.06</ele>
 <time>2011-09-13T07:04:18Z</time>
 </trkpt>
 <trkpt lat="47.600582" lon="13.164524">
 <ele>432.05</ele>
 <time>2011-09-13T07:04:19Z</time>
 </trkpt>
 <trkpt lat="47.600590" lon="13.164570">
 <ele>432.12</ele>
 <time>2011-09-13T07:04:24Z</time>
 </trkpt>
 <trkpt lat="47.600605" lon="13.164694">
 <ele>432.05</ele>
 <time>2011-09-13T07:04:27Z</time>
 </trkpt>
 <trkpt lat="47.600430" lon="13.164770">
 <ele>431.18</ele>
 <time>2011-09-13T07:04:43Z</time>
 </trkpt>
 <trkpt lat="47.600243" lon="13.164850">
 <ele>431.10</ele>
 <time>2011-09-13T07:04:50Z</time>
 </trkpt>
 <trkpt lat="47.600060" lon="13.164930">
 <ele>430.77</ele>
 <time>2011-09-13T07:04:56Z</time>
 </trkpt>
 <trkpt lat="47.599850" lon="13.165022">
 <ele>430.60</ele>
 <time>2011-09-13T07:05:02Z</time>
 </trkpt>
 <trkpt lat="47.599575" lon="13.165139">
 <ele>430.33</ele>
 <time>2011-09-13T07:05:09Z</time>
 </trkpt>
 <trkpt lat="47.599308" lon="13.165264">
 <ele>430.16</ele>
 <time>2011-09-13T07:05:16Z</time>
 </trkpt>
 <trkpt lat="47.599064" lon="13.165385">
 <ele>429.88</ele>
 <time>2011-09-13T07:05:23Z</time>
 </trkpt>
 <trkpt lat="47.598785" lon="13.165530">
 <ele>429.72</ele>
 <time>2011-09-13T07:05:31Z</time>
 </trkpt>
 <trkpt lat="47.598583" lon="13.165635">
 <ele>429.84</ele>
 <time>2011-09-13T07:05:36Z</time>
 </trkpt>
 <trkpt lat="47.598270" lon="13.165828">
 <ele>429.85</ele>
 <time>2011-09-13T07:05:44Z</time>
 </trkpt>
 <trkpt lat="47.597958" lon="13.166025">
 <ele>430.97</ele>
 <time>2011-09-13T07:05:53Z</time>
 </trkpt>
 <trkpt lat="47.597794" lon="13.166127">
 <ele>431.34</ele>
 <time>2011-09-13T07:05:58Z</time>
 </trkpt>
 <trkpt lat="47.597675" lon="13.166287">
 <ele>431.14</ele>
 <time>2011-09-13T07:06:05Z</time>
 </trkpt>
 <trkpt lat="47.597324" lon="13.166030">
 <ele>430.81</ele>
 <time>2011-09-13T07:06:09Z</time>
 </trkpt>
 <trkpt lat="47.597252" lon="13.166038">
 <ele>430.55</ele>
 <time>2011-09-13T07:06:11Z</time>
 </trkpt>
 <trkpt lat="47.596874" lon="13.166082">
 <ele>430.29</ele>
 <time>2011-09-13T07:06:20Z</time>
 </trkpt>
 <trkpt lat="47.596661" lon="13.166281">
 <ele>429.66</ele>
 <time>2011-09-13T07:06:26Z</time>
 </trkpt>
 <trkpt lat="47.596268" lon="13.166686">
 <ele>429.86</ele>
 <time>2011-09-13T07:06:36Z</time>
 </trkpt>
 <trkpt lat="47.595917" lon="13.167051">
 <ele>429.62</ele>
 <time>2011-09-13T07:06:45Z</time>
 </trkpt>
 <trkpt lat="47.595654" lon="13.167322">
 <ele>429.59</ele>
 <time>2011-09-13T07:06:52Z</time>
 </trkpt>
 <trkpt lat="47.595566" lon="13.167595">
 <ele>429.17</ele>
 <time>2011-09-13T07:06:57Z</time>
 </trkpt>
 <trkpt lat="47.595528" lon="13.167985">
 <ele>429.80</ele>
 <time>2011-09-13T07:07:03Z</time>
 </trkpt>
 <trkpt lat="47.595493" lon="13.168317">
 <ele>430.86</ele>
 <time>2011-09-13T07:07:09Z</time>
 </trkpt>
 <trkpt lat="47.595409" lon="13.168940">
 <ele>431.78</ele>
 <time>2011-09-13T07:07:19Z</time>
 </trkpt>
 <trkpt lat="47.595230" lon="13.169674">
 <ele>431.87</ele>
 <time>2011-09-13T07:07:31Z</time>
 </trkpt>
 <trkpt lat="47.595055" lon="13.169975">
 <ele>431.86</ele>
 <time>2011-09-13T07:07:37Z</time>
 </trkpt>
 <trkpt lat="47.594963" lon="13.170076">
 <ele>433.40</ele>
 <time>2011-09-13T07:07:45Z</time>
 </trkpt>
 <trkpt lat="47.594757" lon="13.170309">
 <ele>434.31</ele>
 <time>2011-09-13T07:07:50Z</time>
 </trkpt>
 <trkpt lat="47.594528" lon="13.170575">
 <ele>435.27</ele>
 <time>2011-09-13T07:08:00Z</time>
 </trkpt>
 <trkpt lat="47.594303" lon="13.170891">
 <ele>435.83</ele>
 <time>2011-09-13T07:08:10Z</time>
 </trkpt>
 <trkpt lat="47.594063" lon="13.171288">
 <ele>436.01</ele>
 <time>2011-09-13T07:08:20Z</time>
 </trkpt>
 <trkpt lat="47.593758" lon="13.171729">
 <ele>436.49</ele>
 <time>2011-09-13T07:08:32Z</time>
 </trkpt>
 <trkpt lat="47.593498" lon="13.172126">
 <ele>436.92</ele>
 <time>2011-09-13T07:08:41Z</time>
 </trkpt>
 <trkpt lat="47.593258" lon="13.172522">
 <ele>437.05</ele>
 <time>2011-09-13T07:08:51Z</time>
 </trkpt>
 <trkpt lat="47.593159" lon="13.172693">
 <ele>437.75</ele>
 <time>2011-09-13T07:08:57Z</time>
 </trkpt>
 <trkpt lat="47.593159" lon="13.172693">
 <ele>438.19</ele>
 <time>2011-09-13T07:09:01Z</time>
 </trkpt>
 <trkpt lat="47.593159" lon="13.172693">
 <ele>438.04</ele>
 <time>2011-09-13T07:09:06Z</time>
 </trkpt>
 <trkpt lat="47.592949" lon="13.173072">
 <ele>437.19</ele>
 <time>2011-09-13T07:09:10Z</time>
 </trkpt>
 <trkpt lat="47.592773" lon="13.173386">
 <ele>436.51</ele>
 <time>2011-09-13T07:09:18Z</time>
 </trkpt>
 <trkpt lat="47.592575" lon="13.173744">
 <ele>436.75</ele>
 <time>2011-09-13T07:09:27Z</time>
 </trkpt>
 <trkpt lat="47.592419" lon="13.174031">
 <ele>437.28</ele>
 <time>2011-09-13T07:09:34Z</time>
 </trkpt>
 <trkpt lat="47.592159" lon="13.174551">
 <ele>437.14</ele>
 <time>2011-09-13T07:09:45Z</time>
 </trkpt>
 <trkpt lat="47.591816" lon="13.175182">
 <ele>436.07</ele>
 <time>2011-09-13T07:09:58Z</time>
 </trkpt>
 <trkpt lat="47.591591" lon="13.175607">
 <ele>435.77</ele>
 <time>2011-09-13T07:10:06Z</time>
 </trkpt>
 <trkpt lat="47.591347" lon="13.176065">
 <ele>435.87</ele>
 <time>2011-09-13T07:10:15Z</time>
 </trkpt>
 <trkpt lat="47.591099" lon="13.176528">
 <ele>436.56</ele>
 <time>2011-09-13T07:10:25Z</time>
 </trkpt>
 <trkpt lat="47.590988" lon="13.176743">
 <ele>437.49</ele>
 <time>2011-09-13T07:10:30Z</time>
 </trkpt>
 <trkpt lat="47.590885" lon="13.176944">
 <ele>438.60</ele>
 <time>2011-09-13T07:10:36Z</time>
 </trkpt>
 <trkpt lat="47.590725" lon="13.177248">
 <ele>439.69</ele>
 <time>2011-09-13T07:10:45Z</time>
 </trkpt>
 <trkpt lat="47.590542" lon="13.177657">
 <ele>441.79</ele>
 <time>2011-09-13T07:10:58Z</time>
 </trkpt>
 <trkpt lat="47.590435" lon="13.177942">
 <ele>442.52</ele>
 <time>2011-09-13T07:11:07Z</time>
 </trkpt>
 <trkpt lat="47.590317" lon="13.178254">
 <ele>443.31</ele>
 <time>2011-09-13T07:11:17Z</time>
 </trkpt>
 <trkpt lat="47.590252" lon="13.178602">
 <ele>444.67</ele>
 <time>2011-09-13T07:11:28Z</time>
 </trkpt>
 <trkpt lat="47.590225" lon="13.179039">
 <ele>445.99</ele>
 <time>2011-09-13T07:11:40Z</time>
 </trkpt>
 <trkpt lat="47.590199" lon="13.179472">
 <ele>447.73</ele>
 <time>2011-09-13T07:11:52Z</time>
 </trkpt>
 <trkpt lat="47.590179" lon="13.179802">
 <ele>449.16</ele>
 <time>2011-09-13T07:12:01Z</time>
 </trkpt>
 <trkpt lat="47.590157" lon="13.180204">
 <ele>450.14</ele>
 <time>2011-09-13T07:12:12Z</time>
 </trkpt>
 <trkpt lat="47.590202" lon="13.180527">
 <ele>450.14</ele>
 <time>2011-09-13T07:12:21Z</time>
 </trkpt>
 <trkpt lat="47.590260" lon="13.180929">
 <ele>450.83</ele>
 <time>2011-09-13T07:12:31Z</time>
 </trkpt>
 <trkpt lat="47.590336" lon="13.181454">
 <ele>450.82</ele>
 <time>2011-09-13T07:12:43Z</time>
 </trkpt>
 <trkpt lat="47.590450" lon="13.181894">
 <ele>451.58</ele>
 <time>2011-09-13T07:12:53Z</time>
 </trkpt>
 <trkpt lat="47.590591" lon="13.182418">
 <ele>451.32</ele>
 <time>2011-09-13T07:13:04Z</time>
 </trkpt>
 <trkpt lat="47.590717" lon="13.182985">
 <ele>451.39</ele>
 <time>2011-09-13T07:13:15Z</time>
 </trkpt>
 <trkpt lat="47.590801" lon="13.183588">
 <ele>451.49</ele>
 <time>2011-09-13T07:13:26Z</time>
 </trkpt>
 <trkpt lat="47.590874" lon="13.184092">
 <ele>451.69</ele>
 <time>2011-09-13T07:13:35Z</time>
 </trkpt>
 <trkpt lat="47.590961" lon="13.184805">
 <ele>450.53</ele>
 <time>2011-09-13T07:13:47Z</time>
 </trkpt>
 <trkpt lat="47.590862" lon="13.185547">
 <ele>449.73</ele>
 <time>2011-09-13T07:13:58Z</time>
 </trkpt>
 <trkpt lat="47.590744" lon="13.186143">
 <ele>448.21</ele>
 <time>2011-09-13T07:14:07Z</time>
 </trkpt>
 <trkpt lat="47.590618" lon="13.186782">
 <ele>446.60</ele>
 <time>2011-09-13T07:14:16Z</time>
 </trkpt>
 <trkpt lat="47.590420" lon="13.187611">
 <ele>445.39</ele>
 <time>2011-09-13T07:14:27Z</time>
 </trkpt>
 <trkpt lat="47.590210" lon="13.188459">
 <ele>443.74</ele>
 <time>2011-09-13T07:14:37Z</time>
 </trkpt>
 <trkpt lat="47.590027" lon="13.189239">
 <ele>441.17</ele>
 <time>2011-09-13T07:14:46Z</time>
 </trkpt>
 <trkpt lat="47.590012" lon="13.189934">
 <ele>439.94</ele>
 <time>2011-09-13T07:14:54Z</time>
 </trkpt>
 <trkpt lat="47.590034" lon="13.190485">
 <ele>438.33</ele>
 <time>2011-09-13T07:15:02Z</time>
 </trkpt>
 <trkpt lat="47.590141" lon="13.191014">
 <ele>440.99</ele>
 <time>2011-09-13T07:15:10Z</time>
 </trkpt>
 <trkpt lat="47.590282" lon="13.191732">
 <ele>440.20</ele>
 <time>2011-09-13T07:15:21Z</time>
 </trkpt>
 <trkpt lat="47.590408" lon="13.192355">
 <ele>439.28</ele>
 <time>2011-09-13T07:15:31Z</time>
 </trkpt>
 <trkpt lat="47.590530" lon="13.192980">
 <ele>440.47</ele>
 <time>2011-09-13T07:15:41Z</time>
 </trkpt>
 <trkpt lat="47.590652" lon="13.193794">
 <ele>440.29</ele>
 <time>2011-09-13T07:15:54Z</time>
 </trkpt>
 <trkpt lat="47.590736" lon="13.194505">
 <ele>439.94</ele>
 <time>2011-09-13T07:16:06Z</time>
 </trkpt>
 <trkpt lat="47.590797" lon="13.195026">
 <ele>440.54</ele>
 <time>2011-09-13T07:16:15Z</time>
 </trkpt>
 <trkpt lat="47.590866" lon="13.195657">
 <ele>442.43</ele>
 <time>2011-09-13T07:16:26Z</time>
 </trkpt>
 <trkpt lat="47.590946" lon="13.196398">
 <ele>442.62</ele>
 <time>2011-09-13T07:16:39Z</time>
 </trkpt>
 <trkpt lat="47.591011" lon="13.197095">
 <ele>442.85</ele>
 <time>2011-09-13T07:16:51Z</time>
 </trkpt>
 <trkpt lat="47.591072" lon="13.197796">
 <ele>442.17</ele>
 <time>2011-09-13T07:17:03Z</time>
 </trkpt>
 <trkpt lat="47.591118" lon="13.198355">
 <ele>442.47</ele>
 <time>2011-09-13T07:17:13Z</time>
 </trkpt>
 <trkpt lat="47.591171" lon="13.198986">
 <ele>442.99</ele>
 <time>2011-09-13T07:17:24Z</time>
 </trkpt>
 <trkpt lat="47.591206" lon="13.199714">
 <ele>443.41</ele>
 <time>2011-09-13T07:17:36Z</time>
 </trkpt>
 <trkpt lat="47.591225" lon="13.200292">
 <ele>443.27</ele>
 <time>2011-09-13T07:17:45Z</time>
 </trkpt>
 <trkpt lat="47.591228" lon="13.200420">
 <ele>443.18</ele>
 <time>2011-09-13T07:17:47Z</time>
 </trkpt>
 <trkpt lat="47.591240" lon="13.201047">
 <ele>442.25</ele>
 <time>2011-09-13T07:17:56Z</time>
 </trkpt>
 <trkpt lat="47.591019" lon="13.201740">
 <ele>441.88</ele>
 <time>2011-09-13T07:18:07Z</time>
 </trkpt>
 <trkpt lat="47.590813" lon="13.202367">
 <ele>441.44</ele>
 <time>2011-09-13T07:18:17Z</time>
 </trkpt>
 <trkpt lat="47.590675" lon="13.202791">
 <ele>440.79</ele>
 <time>2011-09-13T07:18:23Z</time>
 </trkpt>
 <trkpt lat="47.590477" lon="13.203412">
 <ele>440.17</ele>
 <time>2011-09-13T07:18:32Z</time>
 </trkpt>
 <trkpt lat="47.590290" lon="13.204008">
 <ele>441.11</ele>
 <time>2011-09-13T07:18:42Z</time>
 </trkpt>
 <trkpt lat="47.590157" lon="13.204564">
 <ele>441.23</ele>
 <time>2011-09-13T07:18:51Z</time>
 </trkpt>
 <trkpt lat="47.590099" lon="13.204804">
 <ele>441.45</ele>
 <time>2011-09-13T07:18:55Z</time>
 </trkpt>
 <trkpt lat="47.590069" lon="13.204923">
 <ele>441.43</ele>
 <time>2011-09-13T07:18:57Z</time>
 </trkpt>
 <trkpt lat="47.589954" lon="13.205404">
 <ele>441.80</ele>
 <time>2011-09-13T07:19:05Z</time>
 </trkpt>
 <trkpt lat="47.589832" lon="13.205906">
 <ele>442.02</ele>
 <time>2011-09-13T07:19:13Z</time>
 </trkpt>
 <trkpt lat="47.589649" lon="13.206675">
 <ele>442.19</ele>
 <time>2011-09-13T07:19:25Z</time>
 </trkpt>
 <trkpt lat="47.589485" lon="13.207289">
 <ele>442.54</ele>
 <time>2011-09-13T07:19:35Z</time>
 </trkpt>
 <trkpt lat="47.589272" lon="13.207908">
 <ele>442.56</ele>
 <time>2011-09-13T07:19:45Z</time>
 </trkpt>
 <trkpt lat="47.589085" lon="13.208444">
 <ele>442.76</ele>
 <time>2011-09-13T07:19:54Z</time>
 </trkpt>
 <trkpt lat="47.588860" lon="13.209083">
 <ele>442.98</ele>
 <time>2011-09-13T07:20:05Z</time>
 </trkpt>
 <trkpt lat="47.588604" lon="13.209807">
 <ele>443.98</ele>
 <time>2011-09-13T07:20:18Z</time>
 </trkpt>
 <trkpt lat="47.588417" lon="13.210337">
 <ele>443.87</ele>
 <time>2011-09-13T07:20:27Z</time>
 </trkpt>
 <trkpt lat="47.588215" lon="13.210913">
 <ele>443.76</ele>
 <time>2011-09-13T07:20:37Z</time>
 </trkpt>
 <trkpt lat="47.588047" lon="13.211389">
 <ele>443.64</ele>
 <time>2011-09-13T07:20:45Z</time>
 </trkpt>
 <trkpt lat="47.587868" lon="13.211901">
 <ele>444.03</ele>
 <time>2011-09-13T07:20:54Z</time>
 </trkpt>
 <trkpt lat="47.587723" lon="13.212381">
 <ele>444.08</ele>
 <time>2011-09-13T07:21:02Z</time>
 </trkpt>
 <trkpt lat="47.587543" lon="13.212982">
 <ele>444.44</ele>
 <time>2011-09-13T07:21:12Z</time>
 </trkpt>
 <trkpt lat="47.587418" lon="13.213406">
 <ele>444.52</ele>
 <time>2011-09-13T07:21:19Z</time>
 </trkpt>
 <trkpt lat="47.587383" lon="13.213525">
 <ele>444.55</ele>
 <time>2011-09-13T07:21:21Z</time>
 </trkpt>
 <trkpt lat="47.587242" lon="13.213998">
 <ele>445.07</ele>
 <time>2011-09-13T07:21:29Z</time>
 </trkpt>
 <trkpt lat="47.587097" lon="13.214485">
 <ele>445.01</ele>
 <time>2011-09-13T07:21:37Z</time>
 </trkpt>
 <trkpt lat="47.587048" lon="13.214911">
 <ele>445.11</ele>
 <time>2011-09-13T07:21:45Z</time>
 </trkpt>
 <trkpt lat="47.586987" lon="13.215480">
 <ele>445.29</ele>
 <time>2011-09-13T07:21:54Z</time>
 </trkpt>
 <trkpt lat="47.586933" lon="13.215999">
 <ele>444.87</ele>
 <time>2011-09-13T07:22:02Z</time>
 </trkpt>
 <trkpt lat="47.586864" lon="13.216638">
 <ele>445.46</ele>
 <time>2011-09-13T07:22:12Z</time>
 </trkpt>
 <trkpt lat="47.586803" lon="13.217209">
 <ele>445.60</ele>
 <time>2011-09-13T07:22:21Z</time>
 </trkpt>
 <trkpt lat="47.586739" lon="13.217831">
 <ele>446.19</ele>
 <time>2011-09-13T07:22:31Z</time>
 </trkpt>
 <trkpt lat="47.586670" lon="13.218489">
 <ele>446.12</ele>
 <time>2011-09-13T07:22:41Z</time>
 </trkpt>
 <trkpt lat="47.586643" lon="13.218727">
 <ele>446.34</ele>
 <time>2011-09-13T07:22:45Z</time>
 </trkpt>
 <trkpt lat="47.586601" lon="13.219239">
 <ele>446.35</ele>
 <time>2011-09-13T07:22:53Z</time>
 </trkpt>
 <trkpt lat="47.586544" lon="13.219881">
 <ele>446.73</ele>
 <time>2011-09-13T07:23:03Z</time>
 </trkpt>
 <trkpt lat="47.586502" lon="13.220373">
 <ele>446.69</ele>
 <time>2011-09-13T07:23:11Z</time>
 </trkpt>
 <trkpt lat="47.586468" lon="13.220774">
 <ele>446.73</ele>
 <time>2011-09-13T07:23:18Z</time>
 </trkpt>
 <trkpt lat="47.586452" lon="13.220955">
 <ele>446.94</ele>
 <time>2011-09-13T07:23:22Z</time>
 </trkpt>
 <trkpt lat="47.586250" lon="13.221439">
 <ele>446.84</ele>
 <time>2011-09-13T07:23:31Z</time>
 </trkpt>
 <trkpt lat="47.586166" lon="13.221844">
 <ele>446.93</ele>
 <time>2011-09-13T07:23:38Z</time>
 </trkpt>
 <trkpt lat="47.586037" lon="13.222454">
 <ele>447.16</ele>
 <time>2011-09-13T07:23:48Z</time>
 </trkpt>
 <trkpt lat="47.585911" lon="13.223065">
 <ele>447.58</ele>
 <time>2011-09-13T07:23:58Z</time>
 </trkpt>
 <trkpt lat="47.585777" lon="13.223685">
 <ele>447.51</ele>
 <time>2011-09-13T07:24:08Z</time>
 </trkpt>
 <trkpt lat="47.585697" lon="13.224066">
 <ele>447.94</ele>
 <time>2011-09-13T07:24:15Z</time>
 </trkpt>
 <trkpt lat="47.585690" lon="13.224109">
 <ele>448.03</ele>
 <time>2011-09-13T07:24:16Z</time>
 </trkpt>
 <trkpt lat="47.585659" lon="13.224264">
 <ele>448.07</ele>
 <time>2011-09-13T07:24:19Z</time>
 </trkpt>
 <trkpt lat="47.585522" lon="13.224915">
 <ele>447.42</ele>
 <time>2011-09-13T07:24:29Z</time>
 </trkpt>
 <trkpt lat="47.585381" lon="13.225586">
 <ele>447.50</ele>
 <time>2011-09-13T07:24:40Z</time>
 </trkpt>
 <trkpt lat="47.585278" lon="13.226065">
 <ele>447.48</ele>
 <time>2011-09-13T07:24:48Z</time>
 </trkpt>
 <trkpt lat="47.585175" lon="13.226559">
 <ele>447.86</ele>
 <time>2011-09-13T07:24:56Z</time>
 </trkpt>
 <trkpt lat="47.584042" lon="13.226777">
 <ele>447.85</ele>
 <time>2011-09-13T07:25:06Z</time>
 </trkpt>
 <trkpt lat="47.583797" lon="13.227250">
 <ele>447.79</ele>
 <time>2011-09-13T07:25:15Z</time>
 </trkpt>
 <trkpt lat="47.583611" lon="13.227612">
 <ele>448.18</ele>
 <time>2011-09-13T07:25:22Z</time>
 </trkpt>
 <trkpt lat="47.583385" lon="13.228026">
 <ele>448.15</ele>
 <time>2011-09-13T07:25:30Z</time>
 </trkpt>
 <trkpt lat="47.583187" lon="13.228281">
 <ele>447.30</ele>
 <time>2011-09-13T07:25:35Z</time>
 </trkpt>
 <trkpt lat="47.583080" lon="13.228454">
 <ele>446.77</ele>
 <time>2011-09-13T07:25:38Z</time>
 </trkpt>
 <trkpt lat="47.582756" lon="13.229063">
 <ele>447.29</ele>
 <time>2011-09-13T07:25:49Z</time>
 </trkpt>
 <trkpt lat="47.582577" lon="13.229453">
 <ele>447.50</ele>
 <time>2011-09-13T07:25:56Z</time>
 </trkpt>
 <trkpt lat="47.582478" lon="13.229677">
 <ele>447.73</ele>
 <time>2011-09-13T07:26:00Z</time>
 </trkpt>
 <trkpt lat="47.582294" lon="13.230300">
 <ele>448.10</ele>
 <time>2011-09-13T07:26:10Z</time>
 </trkpt>
 <trkpt lat="47.582211" lon="13.230918">
 <ele>449.39</ele>
 <time>2011-09-13T07:26:20Z</time>
 </trkpt>
 <trkpt lat="47.582134" lon="13.231624">
 <ele>449.75</ele>
 <time>2011-09-13T07:26:31Z</time>
 </trkpt>
 <trkpt lat="47.582100" lon="13.232187">
 <ele>449.32</ele>
 <time>2011-09-13T07:26:39Z</time>
 </trkpt>
 <trkpt lat="47.582073" lon="13.232784">
 <ele>449.32</ele>
 <time>2011-09-13T07:26:48Z</time>
 </trkpt>
 <trkpt lat="47.582008" lon="13.233420">
 <ele>449.61</ele>
 <time>2011-09-13T07:26:58Z</time>
 </trkpt>
 <trkpt lat="47.581928" lon="13.234052">
 <ele>449.79</ele>
 <time>2011-09-13T07:27:08Z</time>
 </trkpt>
 <trkpt lat="47.581905" lon="13.234460">
 <ele>450.29</ele>
 <time>2011-09-13T07:27:15Z</time>
 </trkpt>
 <trkpt lat="47.581814" lon="13.234723">
 <ele>450.85</ele>
 <time>2011-09-13T07:27:20Z</time>
 </trkpt>
 <trkpt lat="47.581615" lon="13.235118">
 <ele>449.72</ele>
 <time>2011-09-13T07:27:27Z</time>
 </trkpt>
 <trkpt lat="47.581528" lon="13.235266">
 <ele>449.47</ele>
 <time>2011-09-13T07:27:30Z</time>
 </trkpt>
 <trkpt lat="47.581345" lon="13.235783">
 <ele>449.92</ele>
 <time>2011-09-13T07:27:39Z</time>
 </trkpt>
 <trkpt lat="47.581261" lon="13.236061">
 <ele>450.79</ele>
 <time>2011-09-13T07:27:44Z</time>
 </trkpt>
 <trkpt lat="47.581085" lon="13.236507">
 <ele>451.07</ele>
 <time>2011-09-13T07:27:52Z</time>
 </trkpt>
 <trkpt lat="47.580875" lon="13.237010">
 <ele>451.67</ele>
 <time>2011-09-13T07:28:01Z</time>
 </trkpt>
 <trkpt lat="47.580673" lon="13.237418">
 <ele>451.80</ele>
 <time>2011-09-13T07:28:09Z</time>
 </trkpt>
 <trkpt lat="47.580624" lon="13.237516">
 <ele>451.87</ele>
 <time>2011-09-13T07:28:11Z</time>
 </trkpt>
 <trkpt lat="47.580467" lon="13.238003">
 <ele>451.86</ele>
 <time>2011-09-13T07:28:19Z</time>
 </trkpt>
 <trkpt lat="47.580338" lon="13.238499">
 <ele>451.95</ele>
 <time>2011-09-13T07:28:27Z</time>
 </trkpt>
 <trkpt lat="47.580246" lon="13.239095">
 <ele>452.04</ele>
 <time>2011-09-13T07:28:36Z</time>
 </trkpt>
 <trkpt lat="47.580250" lon="13.239302">
 <ele>452.08</ele>
 <time>2011-09-13T07:28:39Z</time>
 </trkpt>
 <trkpt lat="47.580292" lon="13.239565">
 <ele>452.03</ele>
 <time>2011-09-13T07:28:43Z</time>
 </trkpt>
 <trkpt lat="47.580315" lon="13.240052">
 <ele>451.77</ele>
 <time>2011-09-13T07:28:50Z</time>
 </trkpt>
 <trkpt lat="47.580414" lon="13.240445">
 <ele>451.62</ele>
 <time>2011-09-13T07:28:56Z</time>
 </trkpt>
 <trkpt lat="47.580566" lon="13.241009">
 <ele>451.95</ele>
 <time>2011-09-13T07:29:05Z</time>
 </trkpt>
 <trkpt lat="47.580696" lon="13.241581">
 <ele>451.80</ele>
 <time>2011-09-13T07:29:14Z</time>
 </trkpt>
 <trkpt lat="47.580860" lon="13.242195">
 <ele>452.45</ele>
 <time>2011-09-13T07:29:24Z</time>
 </trkpt>
 <trkpt lat="47.580971" lon="13.242643">
 <ele>452.35</ele>
 <time>2011-09-13T07:29:31Z</time>
 </trkpt>
 <trkpt lat="47.581619" lon="13.243451">
 <ele>452.59</ele>
 <time>2011-09-13T07:29:41Z</time>
 </trkpt>
 <trkpt lat="47.581516" lon="13.243940">
 <ele>453.12</ele>
 <time>2011-09-13T07:29:50Z</time>
 </trkpt>
 <trkpt lat="47.581413" lon="13.244429">
 <ele>453.21</ele>
 <time>2011-09-13T07:29:58Z</time>
 </trkpt>
 <trkpt lat="47.581291" lon="13.245004">
 <ele>453.14</ele>
 <time>2011-09-13T07:30:07Z</time>
 </trkpt>
 <trkpt lat="47.581169" lon="13.245579">
 <ele>453.31</ele>
 <time>2011-09-13T07:30:16Z</time>
 </trkpt>
 <trkpt lat="47.581059" lon="13.246103">
 <ele>453.64</ele>
 <time>2011-09-13T07:30:25Z</time>
 </trkpt>
 <trkpt lat="47.580997" lon="13.246408">
 <ele>453.99</ele>
 <time>2011-09-13T07:30:31Z</time>
 </trkpt>
 <trkpt lat="47.580948" lon="13.246636">
 <ele>454.13</ele>
 <time>2011-09-13T07:30:36Z</time>
 </trkpt>
 <trkpt lat="47.579960" lon="13.246609">
 <ele>454.23</ele>
 <time>2011-09-13T07:30:44Z</time>
 </trkpt>
 <trkpt lat="47.579659" lon="13.246864">
 <ele>454.54</ele>
 <time>2011-09-13T07:30:52Z</time>
 </trkpt>
 <trkpt lat="47.579578" lon="13.246929">
 <ele>454.53</ele>
 <time>2011-09-13T07:30:54Z</time>
 </trkpt>
 <trkpt lat="47.579311" lon="13.247207">
 <ele>454.13</ele>
 <time>2011-09-13T07:31:01Z</time>
 </trkpt>
 <trkpt lat="47.579067" lon="13.247597">
 <ele>454.12</ele>
 <time>2011-09-13T07:31:09Z</time>
 </trkpt>
 <trkpt lat="47.578850" lon="13.247942">
 <ele>454.27</ele>
 <time>2011-09-13T07:31:16Z</time>
 </trkpt>
 <trkpt lat="47.578732" lon="13.248152">
 <ele>454.24</ele>
 <time>2011-09-13T07:31:20Z</time>
 </trkpt>
 <trkpt lat="47.578430" lon="13.248880">
 <ele>454.19</ele>
 <time>2011-09-13T07:31:33Z</time>
 </trkpt>
 <trkpt lat="47.578182" lon="13.249481">
 <ele>454.28</ele>
 <time>2011-09-13T07:31:44Z</time>
 </trkpt>
 <trkpt lat="47.578014" lon="13.249994">
 <ele>454.50</ele>
 <time>2011-09-13T07:31:53Z</time>
 </trkpt>
 <trkpt lat="47.577961" lon="13.250301">
 <ele>454.79</ele>
 <time>2011-09-13T07:31:58Z</time>
 </trkpt>
 <trkpt lat="47.577972" lon="13.250643">
 <ele>455.30</ele>
 <time>2011-09-13T07:32:05Z</time>
 </trkpt>
 <trkpt lat="47.578003" lon="13.250786">
 <ele>455.79</ele>
 <time>2011-09-13T07:32:10Z</time>
 </trkpt>
 <trkpt lat="47.578026" lon="13.250902">
 <ele>455.87</ele>
 <time>2011-09-13T07:32:15Z</time>
 </trkpt>
 <trkpt lat="47.578045" lon="13.250995">
 <ele>456.02</ele>
 <time>2011-09-13T07:32:20Z</time>
 </trkpt>
 <trkpt lat="47.578087" lon="13.251004">
 <ele>456.48</ele>
 <time>2011-09-13T07:32:32Z</time>
 </trkpt>
 <trkpt lat="47.578045" lon="13.251025">
 <ele>456.63</ele>
 <time>2011-09-13T07:33:11Z</time>
 </trkpt>
 <trkpt lat="47.578037" lon="13.251033">
 <ele>456.59</ele>
 <time>2011-09-13T07:33:12Z</time>
 </trkpt>
 <trkpt lat="47.578033" lon="13.251041">
 <ele>456.66</ele>
 <time>2011-09-13T07:33:14Z</time>
 </trkpt>
 <trkpt lat="47.578033" lon="13.251054">
 <ele>456.67</ele>
 <time>2011-09-13T07:33:20Z</time>
 </trkpt>
 <trkpt lat="47.578091" lon="13.251274">
 <ele>456.67</ele>
 <time>2011-09-13T07:33:42Z</time>
 </trkpt>
 <trkpt lat="47.578186" lon="13.251620">
 <ele>456.47</ele>
 <time>2011-09-13T07:33:49Z</time>
 </trkpt>
 <trkpt lat="47.578377" lon="13.252208">
 <ele>456.56</ele>
 <time>2011-09-13T07:34:00Z</time>
 </trkpt>
 <trkpt lat="47.578491" lon="13.252542">
 <ele>457.01</ele>
 <time>2011-09-13T07:34:06Z</time>
 </trkpt>
 <trkpt lat="47.578651" lon="13.253063">
 <ele>457.08</ele>
 <time>2011-09-13T07:34:15Z</time>
 </trkpt>
 <trkpt lat="47.579433" lon="13.253836">
 <ele>456.98</ele>
 <time>2011-09-13T07:34:24Z</time>
 </trkpt>
 <trkpt lat="47.579346" lon="13.254250">
 <ele>457.12</ele>
 <time>2011-09-13T07:34:33Z</time>
 </trkpt>
 <trkpt lat="47.579239" lon="13.254745">
 <ele>457.41</ele>
 <time>2011-09-13T07:34:44Z</time>
 </trkpt>
 <trkpt lat="47.579178" lon="13.255042">
 <ele>459.00</ele>
 <time>2011-09-13T07:34:51Z</time>
 </trkpt>
 <trkpt lat="47.579132" lon="13.255256">
 <ele>460.15</ele>
 <time>2011-09-13T07:34:56Z</time>
 </trkpt>
 <trkpt lat="47.579643" lon="13.255814">
 <ele>459.55</ele>
 <time>2011-09-13T07:35:02Z</time>
 </trkpt>
 <trkpt lat="47.579643" lon="13.256332">
 <ele>458.98</ele>
 <time>2011-09-13T07:35:09Z</time>
 </trkpt>
 <trkpt lat="47.579643" lon="13.256728">
 <ele>461.15</ele>
 <time>2011-09-13T07:35:17Z</time>
 </trkpt>
 <trkpt lat="47.579643" lon="13.257204">
 <ele>461.93</ele>
 <time>2011-09-13T07:35:25Z</time>
 </trkpt>
 <trkpt lat="47.579643" lon="13.257787">
 <ele>461.22</ele>
 <time>2011-09-13T07:35:34Z</time>
 </trkpt>
 <trkpt lat="47.579643" lon="13.258308">
 <ele>460.79</ele>
 <time>2011-09-13T07:35:42Z</time>
 </trkpt>
 <trkpt lat="47.579624" lon="13.259110">
 <ele>460.57</ele>
 <time>2011-09-13T07:35:53Z</time>
 </trkpt>
 <trkpt lat="47.579601" lon="13.259765">
 <ele>460.46</ele>
 <time>2011-09-13T07:36:02Z</time>
 </trkpt>
 <trkpt lat="47.579571" lon="13.260654">
 <ele>459.43</ele>
 <time>2011-09-13T07:36:14Z</time>
 </trkpt>
 <trkpt lat="47.579536" lon="13.261718">
 <ele>459.24</ele>
 <time>2011-09-13T07:36:29Z</time>
 </trkpt>
 <trkpt lat="47.579411" lon="13.262530">
 <ele>459.74</ele>
 <time>2011-09-13T07:36:41Z</time>
 </trkpt>
 <trkpt lat="47.579288" lon="13.263256">
 <ele>459.49</ele>
 <time>2011-09-13T07:36:52Z</time>
 </trkpt>
 <trkpt lat="47.579159" lon="13.264043">
 <ele>459.58</ele>
 <time>2011-09-13T07:37:04Z</time>
 </trkpt>
 <trkpt lat="47.579044" lon="13.264734">
 <ele>459.99</ele>
 <time>2011-09-13T07:37:15Z</time>
 </trkpt>
 <trkpt lat="47.578831" lon="13.265369">
 <ele>460.05</ele>
 <time>2011-09-13T07:37:27Z</time>
 </trkpt>
 <trkpt lat="47.578602" lon="13.265703">
 <ele>460.12</ele>
 <time>2011-09-13T07:37:35Z</time>
 </trkpt>
 <trkpt lat="47.578335" lon="13.266090">
 <ele>460.68</ele>
 <time>2011-09-13T07:37:44Z</time>
 </trkpt>
 <trkpt lat="47.578022" lon="13.266447">
 <ele>460.94</ele>
 <time>2011-09-13T07:37:54Z</time>
 </trkpt>
 <trkpt lat="47.577717" lon="13.266742">
 <ele>461.71</ele>
 <time>2011-09-13T07:38:04Z</time>
 </trkpt>
 <trkpt lat="47.577469" lon="13.266975">
 <ele>463.27</ele>
 <time>2011-09-13T07:38:14Z</time>
 </trkpt>
 <trkpt lat="47.577293" lon="13.267130">
 <ele>464.38</ele>
 <time>2011-09-13T07:38:22Z</time>
 </trkpt>
 <trkpt lat="47.577099" lon="13.267436">
 <ele>465.70</ele>
 <time>2011-09-13T07:38:32Z</time>
 </trkpt>
 <trkpt lat="47.576984" lon="13.267730">
 <ele>466.83</ele>
 <time>2011-09-13T07:38:41Z</time>
 </trkpt>
 <trkpt lat="47.576977" lon="13.267905">
 <ele>467.58</ele>
 <time>2011-09-13T07:38:45Z</time>
 </trkpt>
 <trkpt lat="47.576939" lon="13.267789">
 <ele>467.94</ele>
 <time>2011-09-13T07:38:50Z</time>
 </trkpt>
 <trkpt lat="47.576893" lon="13.267779">
 <ele>467.86</ele>
 <time>2011-09-13T07:38:53Z</time>
 </trkpt>
 <trkpt lat="47.576977" lon="13.267913">
 <ele>467.86</ele>
 <time>2011-09-13T07:38:54Z</time>
 </trkpt>
 <trkpt lat="47.577003" lon="13.268119">
 <ele>468.05</ele>
 <time>2011-09-13T07:39:01Z</time>
 </trkpt>
 <trkpt lat="47.577038" lon="13.268347">
 <ele>468.76</ele>
 <time>2011-09-13T07:39:08Z</time>
 </trkpt>
 <trkpt lat="47.577065" lon="13.268532">
 <ele>469.17</ele>
 <time>2011-09-13T07:39:14Z</time>
 </trkpt>
 <trkpt lat="47.577076" lon="13.268597">
 <ele>469.20</ele>
 <time>2011-09-13T07:39:16Z</time>
 </trkpt>
 <trkpt lat="47.577126" lon="13.268885">
 <ele>470.35</ele>
 <time>2011-09-13T07:39:25Z</time>
 </trkpt>
 <trkpt lat="47.577175" lon="13.269172">
 <ele>471.35</ele>
 <time>2011-09-13T07:39:34Z</time>
 </trkpt>
 <trkpt lat="47.577229" lon="13.269480">
 <ele>472.29</ele>
 <time>2011-09-13T07:39:44Z</time>
 </trkpt>
 <trkpt lat="47.577305" lon="13.269704">
 <ele>473.56</ele>
 <time>2011-09-13T07:39:53Z</time>
 </trkpt>
 <trkpt lat="47.577480" lon="13.269869">
 <ele>475.08</ele>
 <time>2011-09-13T07:40:04Z</time>
 </trkpt>
 <trkpt lat="47.577656" lon="13.270033">
 <ele>477.09</ele>
 <time>2011-09-13T07:40:15Z</time>
 </trkpt>
 <trkpt lat="47.577808" lon="13.270177">
 <ele>478.89</ele>
 <time>2011-09-13T07:40:25Z</time>
 </trkpt>
 <trkpt lat="47.577946" lon="13.270308">
 <ele>479.98</ele>
 <time>2011-09-13T07:40:34Z</time>
 </trkpt>
 <trkpt lat="47.578041" lon="13.270393">
 <ele>481.40</ele>
 <time>2011-09-13T07:40:42Z</time>
 </trkpt>
 <trkpt lat="47.578159" lon="13.270436">
 <ele>482.52</ele>
 <time>2011-09-13T07:40:49Z</time>
 </trkpt>
 <trkpt lat="47.578300" lon="13.270487">
 <ele>484.00</ele>
 <time>2011-09-13T07:40:57Z</time>
 </trkpt>
 <trkpt lat="47.578445" lon="13.270540">
 <ele>485.83</ele>
 <time>2011-09-13T07:41:06Z</time>
 </trkpt>
 <trkpt lat="47.578671" lon="13.270622">
 <ele>487.94</ele>
 <time>2011-09-13T07:41:19Z</time>
 </trkpt>
 <trkpt lat="47.578831" lon="13.270593">
 <ele>489.87</ele>
 <time>2011-09-13T07:41:29Z</time>
 </trkpt>
 <trkpt lat="47.579029" lon="13.270472">
 <ele>491.72</ele>
 <time>2011-09-13T07:41:41Z</time>
 </trkpt>
 <trkpt lat="47.579185" lon="13.270378">
 <ele>493.17</ele>
 <time>2011-09-13T07:41:50Z</time>
 </trkpt>
 <trkpt lat="47.579342" lon="13.270282">
 <ele>495.09</ele>
 <time>2011-09-13T07:41:59Z</time>
 </trkpt>
 <trkpt lat="47.579510" lon="13.270182">
 <ele>496.40</ele>
 <time>2011-09-13T07:42:09Z</time>
 </trkpt>
 <trkpt lat="47.579647" lon="13.270097">
 <ele>497.72</ele>
 <time>2011-09-13T07:42:17Z</time>
 </trkpt>
 <trkpt lat="47.579803" lon="13.270003">
 <ele>499.47</ele>
 <time>2011-09-13T07:42:26Z</time>
 </trkpt>
 <trkpt lat="47.579975" lon="13.269897">
 <ele>500.79</ele>
 <time>2011-09-13T07:42:36Z</time>
 </trkpt>
 <trkpt lat="47.580143" lon="13.269784">
 <ele>502.60</ele>
 <time>2011-09-13T07:42:46Z</time>
 </trkpt>
 <trkpt lat="47.580330" lon="13.269661">
 <ele>504.52</ele>
 <time>2011-09-13T07:42:57Z</time>
 </trkpt>
 <trkpt lat="47.580498" lon="13.269549">
 <ele>506.57</ele>
 <time>2011-09-13T07:43:07Z</time>
 </trkpt>
 <trkpt lat="47.580647" lon="13.269448">
 <ele>508.29</ele>
 <time>2011-09-13T07:43:16Z</time>
 </trkpt>
 <trkpt lat="47.580891" lon="13.269313">
 <ele>510.02</ele>
 <time>2011-09-13T07:43:27Z</time>
 </trkpt>
 <trkpt lat="47.581112" lon="13.269294">
 <ele>512.13</ele>
 <time>2011-09-13T07:43:39Z</time>
 </trkpt>
 <trkpt lat="47.581291" lon="13.269279">
 <ele>513.84</ele>
 <time>2011-09-13T07:43:49Z</time>
 </trkpt>
 <trkpt lat="47.581425" lon="13.269268">
 <ele>515.41</ele>
 <time>2011-09-13T07:43:57Z</time>
 </trkpt>
 <trkpt lat="47.581577" lon="13.269254">
 <ele>516.80</ele>
 <time>2011-09-13T07:44:06Z</time>
 </trkpt>
 <trkpt lat="47.581726" lon="13.269242">
 <ele>518.26</ele>
 <time>2011-09-13T07:44:15Z</time>
 </trkpt>
 <trkpt lat="47.581898" lon="13.269227">
 <ele>520.15</ele>
 <time>2011-09-13T07:44:25Z</time>
 </trkpt>
 <trkpt lat="47.582066" lon="13.269212">
 <ele>521.95</ele>
 <time>2011-09-13T07:44:35Z</time>
 </trkpt>
 <trkpt lat="47.582230" lon="13.269199">
 <ele>523.06</ele>
 <time>2011-09-13T07:44:44Z</time>
 </trkpt>
 <trkpt lat="47.582474" lon="13.269230">
 <ele>524.67</ele>
 <time>2011-09-13T07:44:54Z</time>
 </trkpt>
 <trkpt lat="47.582581" lon="13.269265">
 <ele>525.42</ele>
 <time>2011-09-13T07:45:00Z</time>
 </trkpt>
 <trkpt lat="47.582787" lon="13.269333">
 <ele>526.74</ele>
 <time>2011-09-13T07:45:11Z</time>
 </trkpt>
 <trkpt lat="47.582939" lon="13.269384">
 <ele>527.62</ele>
 <time>2011-09-13T07:45:19Z</time>
 </trkpt>
 <trkpt lat="47.583118" lon="13.269443">
 <ele>529.10</ele>
 <time>2011-09-13T07:45:29Z</time>
 </trkpt>
 <trkpt lat="47.583309" lon="13.269505">
 <ele>529.98</ele>
 <time>2011-09-13T07:45:39Z</time>
 </trkpt>
 <trkpt lat="47.583385" lon="13.269531">
 <ele>530.78</ele>
 <time>2011-09-13T07:45:45Z</time>
 </trkpt>
 <trkpt lat="47.583504" lon="13.269569">
 <ele>531.72</ele>
 <time>2011-09-13T07:45:52Z</time>
 </trkpt>
 <trkpt lat="47.583630" lon="13.269610">
 <ele>532.79</ele>
 <time>2011-09-13T07:46:02Z</time>
 </trkpt>
 <trkpt lat="47.583809" lon="13.269669">
 <ele>533.53</ele>
 <time>2011-09-13T07:46:10Z</time>
 </trkpt>
 <trkpt lat="47.583946" lon="13.269693">
 <ele>534.17</ele>
 <time>2011-09-13T07:46:18Z</time>
 </trkpt>
 <trkpt lat="47.584118" lon="13.269638">
 <ele>534.21</ele>
 <time>2011-09-13T07:46:25Z</time>
 </trkpt>
 <trkpt lat="47.584255" lon="13.269593">
 <ele>534.53</ele>
 <time>2011-09-13T07:46:31Z</time>
 </trkpt>
 <trkpt lat="47.584446" lon="13.269532">
 <ele>534.49</ele>
 <time>2011-09-13T07:46:37Z</time>
 </trkpt>
 <trkpt lat="47.584705" lon="13.269449">
 <ele>534.07</ele>
 <time>2011-09-13T07:46:43Z</time>
 </trkpt>
 <trkpt lat="47.585037" lon="13.269342">
 <ele>533.05</ele>
 <time>2011-09-13T07:46:50Z</time>
 </trkpt>
 <trkpt lat="47.585445" lon="13.269201">
 <ele>531.78</ele>
 <time>2011-09-13T07:46:58Z</time>
 </trkpt>
 <trkpt lat="47.585808" lon="13.269074">
 <ele>529.95</ele>
 <time>2011-09-13T07:47:04Z</time>
 </trkpt>
 <trkpt lat="47.585941" lon="13.269027">
 <ele>529.23</ele>
 <time>2011-09-13T07:47:06Z</time>
 </trkpt>
 <trkpt lat="47.586449" lon="13.268901">
 <ele>527.25</ele>
 <time>2011-09-13T07:47:12Z</time>
 </trkpt>
 <trkpt lat="47.586922" lon="13.269258">
 <ele>524.13</ele>
 <time>2011-09-13T07:47:18Z</time>
 </trkpt>
 <trkpt lat="47.587177" lon="13.269448">
 <ele>522.22</ele>
 <time>2011-09-13T07:47:21Z</time>
 </trkpt>
 <trkpt lat="47.587513" lon="13.269701">
 <ele>518.69</ele>
 <time>2011-09-13T07:47:25Z</time>
 </trkpt>
 <trkpt lat="47.587925" lon="13.270595">
 <ele>512.67</ele>
 <time>2011-09-13T07:47:32Z</time>
 </trkpt>
 <trkpt lat="47.588360" lon="13.271344">
 <ele>507.99</ele>
 <time>2011-09-13T07:47:38Z</time>
 </trkpt>
 <trkpt lat="47.588795" lon="13.271966">
 <ele>504.42</ele>
 <time>2011-09-13T07:47:44Z</time>
 </trkpt>
 <trkpt lat="47.589035" lon="13.272308">
 <ele>502.36</ele>
 <time>2011-09-13T07:47:47Z</time>
 </trkpt>
 <trkpt lat="47.589264" lon="13.272997">
 <ele>499.54</ele>
 <time>2011-09-13T07:47:52Z</time>
 </trkpt>
 <trkpt lat="47.589272" lon="13.273322">
 <ele>498.46</ele>
 <time>2011-09-13T07:47:54Z</time>
 </trkpt>
 <trkpt lat="47.589283" lon="13.273815">
 <ele>497.22</ele>
 <time>2011-09-13T07:47:57Z</time>
 </trkpt>
 <trkpt lat="47.589291" lon="13.274578">
 <ele>494.30</ele>
 <time>2011-09-13T07:48:02Z</time>
 </trkpt>
 <trkpt lat="47.589233" lon="13.275437">
 <ele>492.99</ele>
 <time>2011-09-13T07:48:08Z</time>
 </trkpt>
 <trkpt lat="47.589184" lon="13.276203">
 <ele>493.09</ele>
 <time>2011-09-13T07:48:14Z</time>
 </trkpt>
 <trkpt lat="47.589134" lon="13.276948">
 <ele>494.08</ele>
 <time>2011-09-13T07:48:21Z</time>
 </trkpt>
 <trkpt lat="47.589081" lon="13.277748">
 <ele>495.30</ele>
 <time>2011-09-13T07:48:30Z</time>
 </trkpt>
 <trkpt lat="47.589027" lon="13.278514">
 <ele>496.11</ele>
 <time>2011-09-13T07:48:40Z</time>
 </trkpt>
 <trkpt lat="47.588966" lon="13.279438">
 <ele>497.83</ele>
 <time>2011-09-13T07:48:53Z</time>
 </trkpt>
 <trkpt lat="47.588936" lon="13.280133">
 <ele>498.26</ele>
 <time>2011-09-13T07:49:03Z</time>
 </trkpt>
 <trkpt lat="47.588955" lon="13.281009">
 <ele>499.25</ele>
 <time>2011-09-13T07:49:17Z</time>
 </trkpt>
 <trkpt lat="47.588970" lon="13.281813">
 <ele>499.88</ele>
 <time>2011-09-13T07:49:30Z</time>
 </trkpt>
 <trkpt lat="47.588989" lon="13.282729">
 <ele>500.64</ele>
 <time>2011-09-13T07:49:44Z</time>
 </trkpt>
 <trkpt lat="47.588997" lon="13.283050">
 <ele>501.33</ele>
 <time>2011-09-13T07:49:52Z</time>
 </trkpt>
 <trkpt lat="47.589020" lon="13.283868">
 <ele>501.99</ele>
 <time>2011-09-13T07:50:01Z</time>
 </trkpt>
 <trkpt lat="47.589035" lon="13.284574">
 <ele>502.92</ele>
 <time>2011-09-13T07:50:12Z</time>
 </trkpt>
 <trkpt lat="47.589043" lon="13.284824">
 <ele>503.15</ele>
 <time>2011-09-13T07:50:16Z</time>
 </trkpt>
 <trkpt lat="47.589077" lon="13.285194">
 <ele>503.64</ele>
 <time>2011-09-13T07:50:22Z</time>
 </trkpt>
 <trkpt lat="47.589130" lon="13.285748">
 <ele>504.01</ele>
 <time>2011-09-13T07:50:31Z</time>
 </trkpt>
 <trkpt lat="47.589180" lon="13.286299">
 <ele>504.49</ele>
 <time>2011-09-13T07:50:40Z</time>
 </trkpt>
 <trkpt lat="47.589237" lon="13.286914">
 <ele>504.78</ele>
 <time>2011-09-13T07:50:50Z</time>
 </trkpt>
 <trkpt lat="47.589302" lon="13.287592">
 <ele>504.62</ele>
 <time>2011-09-13T07:51:00Z</time>
 </trkpt>
 <trkpt lat="47.589504" lon="13.288202">
 <ele>504.47</ele>
 <time>2011-09-13T07:51:10Z</time>
 </trkpt>
 <trkpt lat="47.589565" lon="13.288386">
 <ele>504.32</ele>
 <time>2011-09-13T07:51:13Z</time>
 </trkpt>
 <trkpt lat="47.589668" lon="13.288685">
 <ele>504.41</ele>
 <time>2011-09-13T07:51:18Z</time>
 </trkpt>
 <trkpt lat="47.589977" lon="13.289616">
 <ele>504.68</ele>
 <time>2011-09-13T07:51:33Z</time>
 </trkpt>
 <trkpt lat="47.590218" lon="13.290197">
 <ele>505.17</ele>
 <time>2011-09-13T07:51:43Z</time>
 </trkpt>
 <trkpt lat="47.590504" lon="13.290566">
 <ele>505.22</ele>
 <time>2011-09-13T07:51:51Z</time>
 </trkpt>
 <trkpt lat="47.590862" lon="13.291032">
 <ele>505.29</ele>
 <time>2011-09-13T07:52:01Z</time>
 </trkpt>
 <trkpt lat="47.591366" lon="13.291374">
 <ele>505.23</ele>
 <time>2011-09-13T07:52:12Z</time>
 </trkpt>
 <trkpt lat="47.591694" lon="13.291596">
 <ele>505.55</ele>
 <time>2011-09-13T07:52:19Z</time>
 </trkpt>
 <trkpt lat="47.591972" lon="13.291787">
 <ele>505.84</ele>
 <time>2011-09-13T07:52:25Z</time>
 </trkpt>
 <trkpt lat="47.592102" lon="13.291874">
 <ele>505.67</ele>
 <time>2011-09-13T07:52:28Z</time>
 </trkpt>
 <trkpt lat="47.592407" lon="13.292084">
 <ele>505.43</ele>
 <time>2011-09-13T07:52:35Z</time>
 </trkpt>
 <trkpt lat="47.592777" lon="13.292546">
 <ele>506.08</ele>
 <time>2011-09-13T07:52:45Z</time>
 </trkpt>
 <trkpt lat="47.593143" lon="13.293003">
 <ele>506.60</ele>
 <time>2011-09-13T07:52:55Z</time>
 </trkpt>
 <trkpt lat="47.593185" lon="13.293052">
 <ele>506.55</ele>
 <time>2011-09-13T07:52:56Z</time>
 </trkpt>
 <trkpt lat="47.593567" lon="13.293531">
 <ele>506.59</ele>
 <time>2011-09-13T07:53:06Z</time>
 </trkpt>
 <trkpt lat="47.593697" lon="13.293699">
 <ele>506.76</ele>
 <time>2011-09-13T07:53:10Z</time>
 </trkpt>
 <trkpt lat="47.593857" lon="13.294234">
 <ele>507.10</ele>
 <time>2011-09-13T07:53:19Z</time>
 </trkpt>
 <trkpt lat="47.593983" lon="13.294667">
 <ele>507.21</ele>
 <time>2011-09-13T07:53:26Z</time>
 </trkpt>
 <trkpt lat="47.594105" lon="13.295088">
 <ele>507.52</ele>
 <time>2011-09-13T07:53:33Z</time>
 </trkpt>
 <trkpt lat="47.594116" lon="13.295295">
 <ele>507.96</ele>
 <time>2011-09-13T07:53:37Z</time>
 </trkpt>
 <trkpt lat="47.594143" lon="13.295778">
 <ele>508.48</ele>
 <time>2011-09-13T07:53:46Z</time>
 </trkpt>
 <trkpt lat="47.594173" lon="13.296280">
 <ele>508.47</ele>
 <time>2011-09-13T07:53:55Z</time>
 </trkpt>
 <trkpt lat="47.594238" lon="13.296726">
 <ele>508.71</ele>
 <time>2011-09-13T07:54:00Z</time>
 </trkpt>
 <trkpt lat="47.594330" lon="13.296991">
 <ele>508.81</ele>
 <time>2011-09-13T07:54:04Z</time>
 </trkpt>
 <trkpt lat="47.594456" lon="13.297340">
 <ele>508.87</ele>
 <time>2011-09-13T07:54:09Z</time>
 </trkpt>
 <trkpt lat="47.594543" lon="13.297498">
 <ele>508.86</ele>
 <time>2011-09-13T07:54:13Z</time>
 </trkpt>
 <trkpt lat="47.594627" lon="13.297619">
 <ele>508.83</ele>
 <time>2011-09-13T07:54:15Z</time>
 </trkpt>
 <trkpt lat="47.594749" lon="13.297942">
 <ele>508.94</ele>
 <time>2011-09-13T07:54:19Z</time>
 </trkpt>
 <trkpt lat="47.594765" lon="13.298005">
 <ele>508.93</ele>
 <time>2011-09-13T07:54:20Z</time>
 </trkpt>
 <trkpt lat="47.594879" lon="13.298411">
 <ele>508.99</ele>
 <time>2011-09-13T07:54:26Z</time>
 </trkpt>
 <trkpt lat="47.594933" lon="13.298606">
 <ele>508.99</ele>
 <time>2011-09-13T07:54:29Z</time>
 </trkpt>
 <trkpt lat="47.594971" lon="13.298745">
 <ele>508.94</ele>
 <time>2011-09-13T07:54:31Z</time>
 </trkpt>
 <trkpt lat="47.595020" lon="13.299027">
 <ele>508.74</ele>
 <time>2011-09-13T07:54:35Z</time>
 </trkpt>
 <trkpt lat="47.594986" lon="13.299423">
 <ele>508.66</ele>
 <time>2011-09-13T07:54:41Z</time>
 </trkpt>
 <trkpt lat="47.594948" lon="13.299913">
 <ele>509.28</ele>
 <time>2011-09-13T07:54:49Z</time>
 </trkpt>
 <trkpt lat="47.594894" lon="13.300618">
 <ele>509.89</ele>
 <time>2011-09-13T07:55:00Z</time>
 </trkpt>
 <trkpt lat="47.594883" lon="13.300745">
 <ele>510.11</ele>
 <time>2011-09-13T07:55:02Z</time>
 </trkpt>
 <trkpt lat="47.594837" lon="13.301350">
 <ele>510.80</ele>
 <time>2011-09-13T07:55:12Z</time>
 </trkpt>
 <trkpt lat="47.594788" lon="13.301757">
 <ele>511.70</ele>
 <time>2011-09-13T07:55:21Z</time>
 </trkpt>
 <trkpt lat="47.594719" lon="13.302021">
 <ele>511.90</ele>
 <time>2011-09-13T07:55:28Z</time>
 </trkpt>
 <trkpt lat="47.594650" lon="13.302287">
 <ele>512.41</ele>
 <time>2011-09-13T07:55:34Z</time>
 </trkpt>
 <trkpt lat="47.594624" lon="13.302366">
 <ele>513.00</ele>
 <time>2011-09-13T07:55:40Z</time>
 </trkpt>
 <trkpt lat="47.594509" lon="13.302683">
 <ele>513.48</ele>
 <time>2011-09-13T07:55:47Z</time>
 </trkpt>
 <trkpt lat="47.594391" lon="13.303017">
 <ele>514.20</ele>
 <time>2011-09-13T07:55:54Z</time>
 </trkpt>
 <trkpt lat="47.594303" lon="13.303432">
 <ele>514.73</ele>
 <time>2011-09-13T07:56:01Z</time>
 </trkpt>
 <trkpt lat="47.594238" lon="13.303752">
 <ele>515.17</ele>
 <time>2011-09-13T07:56:06Z</time>
 </trkpt>
 <trkpt lat="47.594158" lon="13.304135">
 <ele>515.35</ele>
 <time>2011-09-13T07:56:12Z</time>
 </trkpt>
 <trkpt lat="47.594078" lon="13.304525">
 <ele>516.14</ele>
 <time>2011-09-13T07:56:19Z</time>
 </trkpt>
 <trkpt lat="47.594002" lon="13.304889">
 <ele>516.89</ele>
 <time>2011-09-13T07:56:27Z</time>
 </trkpt>
 <trkpt lat="47.593983" lon="13.305269">
 <ele>517.42</ele>
 <time>2011-09-13T07:56:33Z</time>
 </trkpt>
 <trkpt lat="47.593998" lon="13.305699">
 <ele>518.51</ele>
 <time>2011-09-13T07:56:40Z</time>
 </trkpt>
 <trkpt lat="47.594013" lon="13.306141">
 <ele>518.59</ele>
 <time>2011-09-13T07:56:47Z</time>
 </trkpt>
 <trkpt lat="47.594025" lon="13.306431">
 <ele>519.38</ele>
 <time>2011-09-13T07:56:52Z</time>
 </trkpt>
 <trkpt lat="47.594044" lon="13.306962">
 <ele>520.54</ele>
 <time>2011-09-13T07:57:01Z</time>
 </trkpt>
 <trkpt lat="47.594059" lon="13.307420">
 <ele>520.84</ele>
 <time>2011-09-13T07:57:08Z</time>
 </trkpt>
 <trkpt lat="47.594086" lon="13.307999">
 <ele>521.22</ele>
 <time>2011-09-13T07:57:17Z</time>
 </trkpt>
 <trkpt lat="47.594086" lon="13.308696">
 <ele>521.31</ele>
 <time>2011-09-13T07:57:28Z</time>
 </trkpt>
 <trkpt lat="47.594040" lon="13.309364">
 <ele>521.54</ele>
 <time>2011-09-13T07:57:39Z</time>
 </trkpt>
 <trkpt lat="47.594013" lon="13.309735">
 <ele>521.89</ele>
 <time>2011-09-13T07:57:45Z</time>
 </trkpt>
 <trkpt lat="47.593983" lon="13.310125">
 <ele>522.04</ele>
 <time>2011-09-13T07:57:52Z</time>
 </trkpt>
 <trkpt lat="47.593964" lon="13.310400">
 <ele>522.12</ele>
 <time>2011-09-13T07:57:57Z</time>
 </trkpt>
 <trkpt lat="47.593891" lon="13.310728">
 <ele>522.24</ele>
 <time>2011-09-13T07:58:02Z</time>
 </trkpt>
 <trkpt lat="47.593826" lon="13.310943">
 <ele>522.15</ele>
 <time>2011-09-13T07:58:06Z</time>
 </trkpt>
 <trkpt lat="47.593758" lon="13.311144">
 <ele>522.21</ele>
 <time>2011-09-13T07:58:10Z</time>
 </trkpt>
 <trkpt lat="47.593788" lon="13.311264">
 <ele>522.21</ele>
 <time>2011-09-13T07:58:11Z</time>
 </trkpt>
 <trkpt lat="47.593990" lon="13.311524">
 <ele>523.08</ele>
 <time>2011-09-13T07:58:18Z</time>
 </trkpt>
 <trkpt lat="47.594223" lon="13.311819">
 <ele>522.38</ele>
 <time>2011-09-13T07:58:25Z</time>
 </trkpt>
 <trkpt lat="47.594398" lon="13.312045">
 <ele>521.74</ele>
 <time>2011-09-13T07:58:30Z</time>
 </trkpt>
 <trkpt lat="47.594444" lon="13.312103">
 <ele>522.26</ele>
 <time>2011-09-13T07:58:36Z</time>
 </trkpt>
 <trkpt lat="47.594444" lon="13.312103">
 <ele>522.52</ele>
 <time>2011-09-13T07:58:38Z</time>
 </trkpt>
 <trkpt lat="47.594440" lon="13.311999">
 <ele>523.68</ele>
 <time>2011-09-13T08:01:09Z</time>
 </trkpt>
 <trkpt lat="47.594479" lon="13.311835">
 <ele>523.19</ele>
 <time>2011-09-13T08:01:15Z</time>
 </trkpt>
 <trkpt lat="47.594543" lon="13.311544">
 <ele>523.18</ele>
 <time>2011-09-13T08:01:23Z</time>
 </trkpt>
 <trkpt lat="47.594601" lon="13.311306">
 <ele>523.10</ele>
 <time>2011-09-13T08:01:30Z</time>
 </trkpt>
 <trkpt lat="47.594677" lon="13.310918">
 <ele>522.51</ele>
 <time>2011-09-13T08:01:38Z</time>
 </trkpt>
 <trkpt lat="47.594749" lon="13.310466">
 <ele>522.63</ele>
 <time>2011-09-13T08:01:47Z</time>
 </trkpt>
 <trkpt lat="47.594845" lon="13.310005">
 <ele>522.30</ele>
 <time>2011-09-13T08:01:56Z</time>
 </trkpt>
 <trkpt lat="47.594955" lon="13.309443">
 <ele>522.31</ele>
 <time>2011-09-13T08:02:07Z</time>
 </trkpt>
 <trkpt lat="47.594982" lon="13.309017">
 <ele>522.41</ele>
 <time>2011-09-13T08:02:15Z</time>
 </trkpt>
 <trkpt lat="47.594982" lon="13.308618">
 <ele>522.35</ele>
 <time>2011-09-13T08:02:22Z</time>
 </trkpt>
 <trkpt lat="47.594948" lon="13.308250">
 <ele>522.41</ele>
 <time>2011-09-13T08:02:29Z</time>
 </trkpt>
 <trkpt lat="47.594887" lon="13.308036">
 <ele>523.14</ele>
 <time>2011-09-13T08:02:36Z</time>
 </trkpt>
 <trkpt lat="47.594906" lon="13.307960">
 <ele>524.12</ele>
 <time>2011-09-13T08:02:41Z</time>
 </trkpt>
 <trkpt lat="47.594959" lon="13.307739">
 <ele>525.11</ele>
 <time>2011-09-13T08:02:49Z</time>
 </trkpt>
 <trkpt lat="47.594952" lon="13.307507">
 <ele>526.33</ele>
 <time>2011-09-13T08:02:58Z</time>
 </trkpt>
 <trkpt lat="47.594948" lon="13.307291">
 <ele>527.95</ele>
 <time>2011-09-13T08:03:07Z</time>
 </trkpt>
 <trkpt lat="47.594944" lon="13.307195">
 <ele>528.78</ele>
 <time>2011-09-13T08:03:12Z</time>
 </trkpt>
 <trkpt lat="47.595093" lon="13.306800">
 <ele>529.50</ele>
 <time>2011-09-13T08:03:19Z</time>
 </trkpt>
 <trkpt lat="47.595219" lon="13.306851">
 <ele>530.86</ele>
 <time>2011-09-13T08:03:28Z</time>
 </trkpt>
 <trkpt lat="47.595364" lon="13.307162">
 <ele>532.40</ele>
 <time>2011-09-13T08:03:38Z</time>
 </trkpt>
 <trkpt lat="47.595512" lon="13.307232">
 <ele>533.80</ele>
 <time>2011-09-13T08:03:47Z</time>
 </trkpt>
 <trkpt lat="47.595642" lon="13.307294">
 <ele>535.72</ele>
 <time>2011-09-13T08:03:55Z</time>
 </trkpt>
 <trkpt lat="47.595795" lon="13.307230">
 <ele>537.53</ele>
 <time>2011-09-13T08:04:05Z</time>
 </trkpt>
 <trkpt lat="47.595898" lon="13.307184">
 <ele>538.08</ele>
 <time>2011-09-13T08:04:11Z</time>
 </trkpt>
 <trkpt lat="47.596027" lon="13.307059">
 <ele>538.11</ele>
 <time>2011-09-13T08:04:18Z</time>
 </trkpt>
 <trkpt lat="47.596188" lon="13.306886">
 <ele>537.31</ele>
 <time>2011-09-13T08:04:23Z</time>
 </trkpt>
 <trkpt lat="47.596355" lon="13.306705">
 <ele>536.70</ele>
 <time>2011-09-13T08:04:28Z</time>
 </trkpt>
 <trkpt lat="47.596443" lon="13.306470">
 <ele>537.10</ele>
 <time>2011-09-13T08:04:33Z</time>
 </trkpt>
 <trkpt lat="47.596481" lon="13.306174">
 <ele>538.74</ele>
 <time>2011-09-13T08:04:41Z</time>
 </trkpt>
 <trkpt lat="47.596569" lon="13.305934">
 <ele>539.81</ele>
 <time>2011-09-13T08:04:49Z</time>
 </trkpt>
 <trkpt lat="47.596703" lon="13.305812">
 <ele>540.00</ele>
 <time>2011-09-13T08:04:55Z</time>
 </trkpt>
 <trkpt lat="47.596909" lon="13.305729">
 <ele>540.21</ele>
 <time>2011-09-13T08:05:03Z</time>
 </trkpt>
 <trkpt lat="47.597107" lon="13.305675">
 <ele>540.47</ele>
 <time>2011-09-13T08:05:11Z</time>
 </trkpt>
 <trkpt lat="47.597301" lon="13.305575">
 <ele>541.34</ele>
 <time>2011-09-13T08:05:20Z</time>
 </trkpt>
 <trkpt lat="47.597466" lon="13.305444">
 <ele>542.43</ele>
 <time>2011-09-13T08:05:29Z</time>
 </trkpt>
 <trkpt lat="47.597618" lon="13.305228">
 <ele>543.60</ele>
 <time>2011-09-13T08:05:39Z</time>
 </trkpt>
 <trkpt lat="47.597694" lon="13.304995">
 <ele>544.80</ele>
 <time>2011-09-13T08:05:48Z</time>
 </trkpt>
 <trkpt lat="47.597717" lon="13.304759">
 <ele>546.27</ele>
 <time>2011-09-13T08:05:58Z</time>
 </trkpt>
 <trkpt lat="47.597736" lon="13.304584">
 <ele>547.54</ele>
 <time>2011-09-13T08:06:06Z</time>
 </trkpt>
 <trkpt lat="47.597755" lon="13.304342">
 <ele>549.31</ele>
 <time>2011-09-13T08:06:17Z</time>
 </trkpt>
 <trkpt lat="47.597832" lon="13.304099">
 <ele>551.10</ele>
 <time>2011-09-13T08:06:28Z</time>
 </trkpt>
 <trkpt lat="47.597977" lon="13.303933">
 <ele>553.35</ele>
 <time>2011-09-13T08:06:41Z</time>
 </trkpt>
 <trkpt lat="47.598114" lon="13.303745">
 <ele>554.88</ele>
 <time>2011-09-13T08:06:53Z</time>
 </trkpt>
 <trkpt lat="47.598194" lon="13.303526">
 <ele>556.53</ele>
 <time>2011-09-13T08:07:04Z</time>
 </trkpt>
 <trkpt lat="47.598263" lon="13.303342">
 <ele>557.30</ele>
 <time>2011-09-13T08:07:13Z</time>
 </trkpt>
 <trkpt lat="47.598267" lon="13.303041">
 <ele>558.48</ele>
 <time>2011-09-13T08:07:24Z</time>
 </trkpt>
 <trkpt lat="47.598267" lon="13.302825">
 <ele>559.48</ele>
 <time>2011-09-13T08:07:33Z</time>
 </trkpt>
 <trkpt lat="47.598267" lon="13.302568">
 <ele>560.57</ele>
 <time>2011-09-13T08:07:44Z</time>
 </trkpt>
 <trkpt lat="47.598251" lon="13.302307">
 <ele>562.22</ele>
 <time>2011-09-13T08:07:55Z</time>
 </trkpt>
 <trkpt lat="47.598232" lon="13.302054">
 <ele>563.77</ele>
 <time>2011-09-13T08:08:06Z</time>
 </trkpt>
 <trkpt lat="47.598221" lon="13.301854">
 <ele>564.91</ele>
 <time>2011-09-13T08:08:15Z</time>
 </trkpt>
 <trkpt lat="47.598202" lon="13.301609">
 <ele>566.47</ele>
 <time>2011-09-13T08:08:26Z</time>
 </trkpt>
 <trkpt lat="47.598183" lon="13.301343">
 <ele>568.12</ele>
 <time>2011-09-13T08:08:38Z</time>
 </trkpt>
 <trkpt lat="47.598164" lon="13.301104">
 <ele>569.90</ele>
 <time>2011-09-13T08:08:49Z</time>
 </trkpt>
 <trkpt lat="47.598148" lon="13.300898">
 <ele>571.10</ele>
 <time>2011-09-13T08:08:58Z</time>
 </trkpt>
 <trkpt lat="47.598133" lon="13.300714">
 <ele>572.45</ele>
 <time>2011-09-13T08:09:06Z</time>
 </trkpt>
 <trkpt lat="47.598110" lon="13.300493">
 <ele>574.13</ele>
 <time>2011-09-13T08:09:16Z</time>
 </trkpt>
 <trkpt lat="47.598087" lon="13.300248">
 <ele>575.79</ele>
 <time>2011-09-13T08:09:27Z</time>
 </trkpt>
 <trkpt lat="47.598068" lon="13.300027">
 <ele>577.77</ele>
 <time>2011-09-13T08:09:37Z</time>
 </trkpt>
 <trkpt lat="47.598072" lon="13.299808">
 <ele>579.46</ele>
 <time>2011-09-13T08:09:47Z</time>
 </trkpt>
 <trkpt lat="47.598125" lon="13.299647">
 <ele>580.95</ele>
 <time>2011-09-13T08:09:55Z</time>
 </trkpt>
 <trkpt lat="47.598179" lon="13.299476">
 <ele>582.15</ele>
 <time>2011-09-13T08:10:04Z</time>
 </trkpt>
 <trkpt lat="47.598274" lon="13.299313">
 <ele>583.29</ele>
 <time>2011-09-13T08:10:12Z</time>
 </trkpt>
 <trkpt lat="47.598412" lon="13.299246">
 <ele>584.81</ele>
 <time>2011-09-13T08:10:22Z</time>
 </trkpt>
 <trkpt lat="47.598450" lon="13.299229">
 <ele>585.22</ele>
 <time>2011-09-13T08:10:25Z</time>
 </trkpt>
 <trkpt lat="47.598549" lon="13.299179">
 <ele>586.20</ele>
 <time>2011-09-13T08:10:32Z</time>
 </trkpt>
 <trkpt lat="47.598660" lon="13.299127">
 <ele>586.86</ele>
 <time>2011-09-13T08:10:38Z</time>
 </trkpt>
 <trkpt lat="47.598763" lon="13.299077">
 <ele>587.05</ele>
 <time>2011-09-13T08:10:43Z</time>
 </trkpt>
 <trkpt lat="47.598877" lon="13.299037">
 <ele>586.84</ele>
 <time>2011-09-13T08:10:48Z</time>
 </trkpt>
 <trkpt lat="47.599045" lon="13.298990">
 <ele>586.62</ele>
 <time>2011-09-13T08:10:54Z</time>
 </trkpt>
 <trkpt lat="47.599182" lon="13.298950">
 <ele>586.56</ele>
 <time>2011-09-13T08:10:59Z</time>
 </trkpt>
 <trkpt lat="47.599331" lon="13.298909">
 <ele>586.41</ele>
 <time>2011-09-13T08:11:03Z</time>
 </trkpt>
 <trkpt lat="47.599556" lon="13.298845">
 <ele>586.34</ele>
 <time>2011-09-13T08:11:07Z</time>
 </trkpt>
 <trkpt lat="47.599728" lon="13.298796">
 <ele>586.07</ele>
 <time>2011-09-13T08:11:11Z</time>
 </trkpt>
 <trkpt lat="47.600033" lon="13.298522">
 <ele>585.46</ele>
 <time>2011-09-13T08:11:18Z</time>
 </trkpt>
 <trkpt lat="47.600101" lon="13.298448">
 <ele>585.21</ele>
 <time>2011-09-13T08:11:20Z</time>
 </trkpt>
 <trkpt lat="47.600197" lon="13.298199">
 <ele>585.02</ele>
 <time>2011-09-13T08:11:23Z</time>
 </trkpt>
 <trkpt lat="47.600208" lon="13.298161">
 <ele>584.97</ele>
 <time>2011-09-13T08:11:27Z</time>
 </trkpt>
 <trkpt lat="47.600216" lon="13.298207">
 <ele>584.85</ele>
 <time>2011-09-13T08:11:46Z</time>
 </trkpt>
 <trkpt lat="47.600258" lon="13.298229">
 <ele>584.91</ele>
 <time>2011-09-13T08:11:48Z</time>
 </trkpt>
 <trkpt lat="47.600296" lon="13.298250">
 <ele>585.03</ele>
 <time>2011-09-13T08:11:50Z</time>
 </trkpt>
 <trkpt lat="47.600384" lon="13.298304">
 <ele>585.15</ele>
 <time>2011-09-13T08:11:55Z</time>
 </trkpt>
 <trkpt lat="47.600399" lon="13.298314">
 <ele>585.18</ele>
 <time>2011-09-13T08:11:56Z</time>
 </trkpt>
 <trkpt lat="47.600639" lon="13.298371">
 <ele>584.90</ele>
 <time>2011-09-13T08:12:02Z</time>
 </trkpt>
 <trkpt lat="47.600864" lon="13.298322">
 <ele>584.77</ele>
 <time>2011-09-13T08:12:06Z</time>
 </trkpt>
 <trkpt lat="47.601086" lon="13.298172">
 <ele>584.88</ele>
 <time>2011-09-13T08:12:11Z</time>
 </trkpt>
 <trkpt lat="47.601208" lon="13.298071">
 <ele>584.88</ele>
 <time>2011-09-13T08:12:15Z</time>
 </trkpt>
 <trkpt lat="47.601303" lon="13.298007">
 <ele>584.72</ele>
 <time>2011-09-13T08:12:18Z</time>
 </trkpt>
 <trkpt lat="47.601418" lon="13.297954">
 <ele>584.55</ele>
 <time>2011-09-13T08:12:22Z</time>
 </trkpt>
 <trkpt lat="47.601692" lon="13.297390">
 <ele>584.03</ele>
 <time>2011-09-13T08:12:28Z</time>
 </trkpt>
 <trkpt lat="47.601818" lon="13.297345">
 <ele>583.84</ele>
 <time>2011-09-13T08:12:32Z</time>
 </trkpt>
 <trkpt lat="47.601952" lon="13.297277">
 <ele>583.64</ele>
 <time>2011-09-13T08:12:37Z</time>
 </trkpt>
 <trkpt lat="47.602169" lon="13.297162">
 <ele>583.20</ele>
 <time>2011-09-13T08:12:43Z</time>
 </trkpt>
 <trkpt lat="47.602409" lon="13.297049">
 <ele>582.79</ele>
 <time>2011-09-13T08:12:49Z</time>
 </trkpt>
 <trkpt lat="47.602592" lon="13.296918">
 <ele>582.33</ele>
 <time>2011-09-13T08:12:53Z</time>
 </trkpt>
 <trkpt lat="47.602837" lon="13.296815">
 <ele>582.16</ele>
 <time>2011-09-13T08:12:57Z</time>
 </trkpt>
 <trkpt lat="47.603001" lon="13.296796">
 <ele>581.97</ele>
 <time>2011-09-13T08:13:01Z</time>
 </trkpt>
 <trkpt lat="47.603207" lon="13.296774">
 <ele>581.79</ele>
 <time>2011-09-13T08:13:05Z</time>
 </trkpt>
 <trkpt lat="47.606434" lon="13.296678">
 <ele>589.47</ele>
 <time>2011-09-13T08:14:52Z</time>
 </trkpt>
 <trkpt lat="47.606842" lon="13.296578">
 <ele>593.06</ele>
 <time>2011-09-13T08:15:43Z</time>
 </trkpt>
 <trkpt lat="47.607239" lon="13.296823">
 <ele>594.26</ele>
 <time>2011-09-13T08:15:51Z</time>
 </trkpt>
 <trkpt lat="47.607414" lon="13.297032">
 <ele>595.29</ele>
 <time>2011-09-13T08:15:57Z</time>
 </trkpt>
 <trkpt lat="47.607502" lon="13.297261">
 <ele>596.46</ele>
 <time>2011-09-13T08:16:05Z</time>
 </trkpt>
 <trkpt lat="47.607555" lon="13.297462">
 <ele>597.39</ele>
 <time>2011-09-13T08:16:12Z</time>
 </trkpt>
 <trkpt lat="47.607613" lon="13.297647">
 <ele>598.34</ele>
 <time>2011-09-13T08:16:19Z</time>
 </trkpt>
 <trkpt lat="47.607708" lon="13.297737">
 <ele>598.58</ele>
 <time>2011-09-13T08:16:25Z</time>
 </trkpt>
 <trkpt lat="47.607800" lon="13.297838">
 <ele>599.36</ele>
 <time>2011-09-13T08:16:31Z</time>
 </trkpt>
 <trkpt lat="47.607903" lon="13.297923">
 <ele>600.04</ele>
 <time>2011-09-13T08:16:37Z</time>
 </trkpt>
 <trkpt lat="47.608044" lon="13.298049">
 <ele>600.78</ele>
 <time>2011-09-13T08:16:44Z</time>
 </trkpt>
 <trkpt lat="47.608147" lon="13.298255">
 <ele>601.70</ele>
 <time>2011-09-13T08:16:52Z</time>
 </trkpt>
 <trkpt lat="47.608227" lon="13.298494">
 <ele>603.01</ele>
 <time>2011-09-13T08:17:00Z</time>
 </trkpt>
 <trkpt lat="47.608242" lon="13.298745">
 <ele>603.59</ele>
 <time>2011-09-13T08:17:07Z</time>
 </trkpt>
 <trkpt lat="47.608261" lon="13.299003">
 <ele>604.37</ele>
 <time>2011-09-13T08:17:15Z</time>
 </trkpt>
 <trkpt lat="47.608315" lon="13.299219">
 <ele>605.45</ele>
 <time>2011-09-13T08:17:23Z</time>
 </trkpt>
 <trkpt lat="47.608360" lon="13.299372">
 <ele>606.51</ele>
 <time>2011-09-13T08:17:29Z</time>
 </trkpt>
 <trkpt lat="47.608402" lon="13.299515">
 <ele>607.23</ele>
 <time>2011-09-13T08:17:35Z</time>
 </trkpt>
 <trkpt lat="47.608459" lon="13.299615">
 <ele>607.40</ele>
 <time>2011-09-13T08:17:39Z</time>
 </trkpt>
 <trkpt lat="47.608421" lon="13.299786">
 <ele>607.77</ele>
 <time>2011-09-13T08:17:45Z</time>
 </trkpt>
 <trkpt lat="47.608433" lon="13.299899">
 <ele>608.17</ele>
 <time>2011-09-13T08:17:50Z</time>
 </trkpt>
 <trkpt lat="47.608429" lon="13.299937">
 <ele>608.39</ele>
 <time>2011-09-13T08:17:52Z</time>
 </trkpt>
 <trkpt lat="47.608421" lon="13.300075">
 <ele>608.70</ele>
 <time>2011-09-13T08:17:58Z</time>
 </trkpt>
 <trkpt lat="47.608471" lon="13.300235">
 <ele>609.19</ele>
 <time>2011-09-13T08:18:05Z</time>
 </trkpt>
 <trkpt lat="47.608551" lon="13.300450">
 <ele>609.89</ele>
 <time>2011-09-13T08:18:12Z</time>
 </trkpt>
 <trkpt lat="47.608616" lon="13.300701">
 <ele>610.59</ele>
 <time>2011-09-13T08:18:19Z</time>
 </trkpt>
 <trkpt lat="47.608715" lon="13.301003">
 <ele>611.45</ele>
 <time>2011-09-13T08:18:28Z</time>
 </trkpt>
 <trkpt lat="47.608791" lon="13.301214">
 <ele>611.70</ele>
 <time>2011-09-13T08:18:35Z</time>
 </trkpt>
 <trkpt lat="47.608841" lon="13.301377">
 <ele>611.90</ele>
 <time>2011-09-13T08:18:41Z</time>
 </trkpt>
 <trkpt lat="47.608894" lon="13.301504">
 <ele>612.34</ele>
 <time>2011-09-13T08:18:46Z</time>
 </trkpt>
 <trkpt lat="47.609043" lon="13.301573">
 <ele>612.86</ele>
 <time>2011-09-13T08:18:51Z</time>
 </trkpt>
 <trkpt lat="47.609192" lon="13.301580">
 <ele>612.93</ele>
 <time>2011-09-13T08:18:53Z</time>
 </trkpt>
 <trkpt lat="47.609470" lon="13.301620">
 <ele>613.05</ele>
 <time>2011-09-13T08:18:59Z</time>
 </trkpt>
 <trkpt lat="47.609718" lon="13.301752">
 <ele>613.74</ele>
 <time>2011-09-13T08:19:07Z</time>
 </trkpt>
 <trkpt lat="47.609837" lon="13.301834">
 <ele>614.27</ele>
 <time>2011-09-13T08:19:12Z</time>
 </trkpt>
 <trkpt lat="47.609993" lon="13.301953">
 <ele>614.88</ele>
 <time>2011-09-13T08:19:19Z</time>
 </trkpt>
 <trkpt lat="47.610012" lon="13.301967">
 <ele>614.88</ele>
 <time>2011-09-13T08:19:20Z</time>
 </trkpt>
 <trkpt lat="47.610184" lon="13.302054">
 <ele>615.10</ele>
 <time>2011-09-13T08:19:27Z</time>
 </trkpt>
 <trkpt lat="47.610435" lon="13.302229">
 <ele>614.92</ele>
 <time>2011-09-13T08:19:34Z</time>
 </trkpt>
 <trkpt lat="47.610661" lon="13.302377">
 <ele>614.90</ele>
 <time>2011-09-13T08:19:39Z</time>
 </trkpt>
 <trkpt lat="47.610806" lon="13.302553">
 <ele>614.98</ele>
 <time>2011-09-13T08:19:44Z</time>
 </trkpt>
 <trkpt lat="47.611023" lon="13.302808">
 <ele>614.76</ele>
 <time>2011-09-13T08:19:51Z</time>
 </trkpt>
 <trkpt lat="47.611195" lon="13.303070">
 <ele>614.90</ele>
 <time>2011-09-13T08:19:58Z</time>
 </trkpt>
 <trkpt lat="47.611279" lon="13.303207">
 <ele>614.89</ele>
 <time>2011-09-13T08:20:02Z</time>
 </trkpt>
 <trkpt lat="47.611504" lon="13.303405">
 <ele>615.03</ele>
 <time>2011-09-13T08:20:09Z</time>
 </trkpt>
 <trkpt lat="47.611614" lon="13.303546">
 <ele>614.85</ele>
 <time>2011-09-13T08:20:13Z</time>
 </trkpt>
 <trkpt lat="47.611782" lon="13.303915">
 <ele>614.10</ele>
 <time>2011-09-13T08:20:21Z</time>
 </trkpt>
 <trkpt lat="47.611893" lon="13.304220">
 <ele>614.39</ele>
 <time>2011-09-13T08:20:28Z</time>
 </trkpt>
 <trkpt lat="47.612000" lon="13.304540">
 <ele>614.03</ele>
 <time>2011-09-13T08:20:35Z</time>
 </trkpt>
 <trkpt lat="47.612041" lon="13.304760">
 <ele>613.82</ele>
 <time>2011-09-13T08:20:39Z</time>
 </trkpt>
 <trkpt lat="47.612103" lon="13.305102">
 <ele>613.62</ele>
 <time>2011-09-13T08:20:45Z</time>
 </trkpt>
 <trkpt lat="47.612148" lon="13.305386">
 <ele>613.50</ele>
 <time>2011-09-13T08:20:50Z</time>
 </trkpt>
 <trkpt lat="47.612209" lon="13.305798">
 <ele>613.42</ele>
 <time>2011-09-13T08:20:57Z</time>
 </trkpt>
 <trkpt lat="47.612286" lon="13.306024">
 <ele>613.22</ele>
 <time>2011-09-13T08:21:01Z</time>
 </trkpt>
 <trkpt lat="47.612411" lon="13.306345">
 <ele>612.94</ele>
 <time>2011-09-13T08:21:07Z</time>
 </trkpt>
 <trkpt lat="47.612549" lon="13.306689">
 <ele>612.53</ele>
 <time>2011-09-13T08:21:13Z</time>
 </trkpt>
 <trkpt lat="47.612946" lon="13.306903">
 <ele>612.35</ele>
 <time>2011-09-13T08:21:19Z</time>
 </trkpt>
 <trkpt lat="47.613068" lon="13.307191">
 <ele>612.42</ele>
 <time>2011-09-13T08:21:25Z</time>
 </trkpt>
 <trkpt lat="47.613182" lon="13.307376">
 <ele>612.83</ele>
 <time>2011-09-13T08:21:30Z</time>
 </trkpt>
 <trkpt lat="47.613220" lon="13.307415">
 <ele>612.86</ele>
 <time>2011-09-13T08:21:31Z</time>
 </trkpt>
 <trkpt lat="47.613689" lon="13.307506">
 <ele>612.82</ele>
 <time>2011-09-13T08:21:36Z</time>
 </trkpt>
 <trkpt lat="47.613811" lon="13.307543">
 <ele>612.66</ele>
 <time>2011-09-13T08:21:38Z</time>
 </trkpt>
 <trkpt lat="47.614017" lon="13.307599">
 <ele>612.43</ele>
 <time>2011-09-13T08:21:43Z</time>
 </trkpt>
 <trkpt lat="47.614342" lon="13.307685">
 <ele>612.33</ele>
 <time>2011-09-13T08:21:49Z</time>
 </trkpt>
 <trkpt lat="47.614620" lon="13.307831">
 <ele>612.55</ele>
 <time>2011-09-13T08:21:54Z</time>
 </trkpt>
 <trkpt lat="47.614716" lon="13.307902">
 <ele>612.85</ele>
 <time>2011-09-13T08:21:56Z</time>
 </trkpt>
 <trkpt lat="47.614700" lon="13.308117">
 <ele>613.10</ele>
 <time>2011-09-13T08:22:00Z</time>
 </trkpt>
 <trkpt lat="47.614765" lon="13.308284">
 <ele>613.11</ele>
 <time>2011-09-13T08:22:03Z</time>
 </trkpt>
 <trkpt lat="47.614731" lon="13.308807">
 <ele>613.15</ele>
 <time>2011-09-13T08:22:11Z</time>
 </trkpt>
 <trkpt lat="47.614719" lon="13.309090">
 <ele>613.41</ele>
 <time>2011-09-13T08:22:16Z</time>
 </trkpt>
 <trkpt lat="47.614788" lon="13.309454">
 <ele>614.30</ele>
 <time>2011-09-13T08:22:23Z</time>
 </trkpt>
 <trkpt lat="47.614918" lon="13.309864">
 <ele>614.68</ele>
 <time>2011-09-13T08:22:31Z</time>
 </trkpt>
 <trkpt lat="47.615005" lon="13.310145">
 <ele>615.09</ele>
 <time>2011-09-13T08:22:37Z</time>
 </trkpt>
 <trkpt lat="47.615856" lon="13.319391">
 <ele>621.21</ele>
 <time>2011-09-13T08:25:28Z</time>
 </trkpt>
 <trkpt lat="47.615860" lon="13.319454">
 <ele>621.24</ele>
 <time>2011-09-13T08:25:29Z</time>
 </trkpt>
 <trkpt lat="47.615971" lon="13.319507">
 <ele>621.27</ele>
 <time>2011-09-13T08:25:30Z</time>
 </trkpt>
 <trkpt lat="47.615974" lon="13.319628">
 <ele>621.25</ele>
 <time>2011-09-13T08:25:32Z</time>
 </trkpt>
 <trkpt lat="47.616165" lon="13.320134">
 <ele>621.28</ele>
 <time>2011-09-13T08:25:41Z</time>
 </trkpt>
 <trkpt lat="47.616230" lon="13.320535">
 <ele>621.73</ele>
 <time>2011-09-13T08:25:48Z</time>
 </trkpt>
 <trkpt lat="47.616249" lon="13.320594">
 <ele>621.78</ele>
 <time>2011-09-13T08:25:49Z</time>
 </trkpt>
 <trkpt lat="47.615463" lon="13.320992">
 <ele>622.08</ele>
 <time>2011-09-13T08:25:56Z</time>
 </trkpt>
 <trkpt lat="47.615520" lon="13.321228">
 <ele>622.32</ele>
 <time>2011-09-13T08:26:00Z</time>
 </trkpt>
 <trkpt lat="47.615574" lon="13.321643">
 <ele>622.56</ele>
 <time>2011-09-13T08:26:07Z</time>
 </trkpt>
 <trkpt lat="47.615608" lon="13.322048">
 <ele>623.13</ele>
 <time>2011-09-13T08:26:14Z</time>
 </trkpt>
 <trkpt lat="47.615669" lon="13.322368">
 <ele>623.75</ele>
 <time>2011-09-13T08:26:20Z</time>
 </trkpt>
 <trkpt lat="47.615669" lon="13.322647">
 <ele>624.16</ele>
 <time>2011-09-13T08:26:25Z</time>
 </trkpt>
 <trkpt lat="47.615692" lon="13.323037">
 <ele>624.68</ele>
 <time>2011-09-13T08:26:32Z</time>
 </trkpt>
 <trkpt lat="47.615738" lon="13.323253">
 <ele>625.08</ele>
 <time>2011-09-13T08:26:36Z</time>
 </trkpt>
 <trkpt lat="47.615704" lon="13.323528">
 <ele>625.84</ele>
 <time>2011-09-13T08:26:41Z</time>
 </trkpt>
 <trkpt lat="47.615555" lon="13.323733">
 <ele>626.58</ele>
 <time>2011-09-13T08:26:46Z</time>
 </trkpt>
 <trkpt lat="47.615681" lon="13.323971">
 <ele>627.16</ele>
 <time>2011-09-13T08:26:51Z</time>
 </trkpt>
 <trkpt lat="47.615864" lon="13.324391">
 <ele>627.80</ele>
 <time>2011-09-13T08:26:59Z</time>
 </trkpt>
 <trkpt lat="47.615963" lon="13.324706">
 <ele>627.74</ele>
 <time>2011-09-13T08:27:05Z</time>
 </trkpt>
 <trkpt lat="47.616013" lon="13.324876">
 <ele>627.63</ele>
 <time>2011-09-13T08:27:09Z</time>
 </trkpt>
 <trkpt lat="47.616077" lon="13.325097">
 <ele>627.46</ele>
 <time>2011-09-13T08:27:13Z</time>
 </trkpt>
 <trkpt lat="47.616093" lon="13.325155">
 <ele>627.44</ele>
 <time>2011-09-13T08:27:14Z</time>
 </trkpt>
 <trkpt lat="47.616199" lon="13.325594">
 <ele>627.08</ele>
 <time>2011-09-13T08:27:22Z</time>
 </trkpt>
 <trkpt lat="47.616291" lon="13.325935">
 <ele>627.41</ele>
 <time>2011-09-13T08:27:29Z</time>
 </trkpt>
 <trkpt lat="47.616371" lon="13.326287">
 <ele>627.99</ele>
 <time>2011-09-13T08:27:36Z</time>
 </trkpt>
 <trkpt lat="47.616405" lon="13.326529">
 <ele>628.46</ele>
 <time>2011-09-13T08:27:41Z</time>
 </trkpt>
 <trkpt lat="47.616421" lon="13.326855">
 <ele>628.82</ele>
 <time>2011-09-13T08:27:48Z</time>
 </trkpt>
 <trkpt lat="47.616421" lon="13.327096">
 <ele>629.13</ele>
 <time>2011-09-13T08:27:53Z</time>
 </trkpt>
 <trkpt lat="47.616421" lon="13.327359">
 <ele>629.44</ele>
 <time>2011-09-13T08:27:58Z</time>
 </trkpt>
 <trkpt lat="47.616421" lon="13.327662">
 <ele>629.96</ele>
 <time>2011-09-13T08:28:04Z</time>
 </trkpt>
 <trkpt lat="47.616421" lon="13.328050">
 <ele>630.49</ele>
 <time>2011-09-13T08:28:12Z</time>
 </trkpt>
 <trkpt lat="47.616421" lon="13.328261">
 <ele>630.77</ele>
 <time>2011-09-13T08:28:16Z</time>
 </trkpt>
 <trkpt lat="47.616520" lon="13.328645">
 <ele>631.20</ele>
 <time>2011-09-13T08:28:23Z</time>
 </trkpt>
 <trkpt lat="47.616653" lon="13.328707">
 <ele>631.81</ele>
 <time>2011-09-13T08:28:28Z</time>
 </trkpt>
 <trkpt lat="47.616825" lon="13.328722">
 <ele>632.27</ele>
 <time>2011-09-13T08:28:34Z</time>
 </trkpt>
 <trkpt lat="47.617104" lon="13.328696">
 <ele>632.43</ele>
 <time>2011-09-13T08:28:41Z</time>
 </trkpt>
 <trkpt lat="47.617397" lon="13.328747">
 <ele>632.23</ele>
 <time>2011-09-13T08:28:48Z</time>
 </trkpt>
 <trkpt lat="47.617695" lon="13.328843">
 <ele>632.38</ele>
 <time>2011-09-13T08:28:55Z</time>
 </trkpt>
 <trkpt lat="47.618015" lon="13.328994">
 <ele>632.99</ele>
 <time>2011-09-13T08:29:03Z</time>
 </trkpt>
 <trkpt lat="47.618374" lon="13.329064">
 <ele>633.58</ele>
 <time>2011-09-13T08:29:11Z</time>
 </trkpt>
 <trkpt lat="47.618916" lon="13.329390">
 <ele>634.06</ele>
 <time>2011-09-13T08:29:25Z</time>
 </trkpt>
 <trkpt lat="47.619083" lon="13.329608">
 <ele>634.27</ele>
 <time>2011-09-13T08:29:29Z</time>
 </trkpt>
 <trkpt lat="47.619118" lon="13.329671">
 <ele>634.41</ele>
 <time>2011-09-13T08:29:31Z</time>
 </trkpt>
 <trkpt lat="47.619324" lon="13.330069">
 <ele>634.84</ele>
 <time>2011-09-13T08:29:40Z</time>
 </trkpt>
 <trkpt lat="47.619431" lon="13.330319">
 <ele>635.51</ele>
 <time>2011-09-13T08:29:45Z</time>
 </trkpt>
 <trkpt lat="47.619621" lon="13.330794">
 <ele>636.11</ele>
 <time>2011-09-13T08:29:55Z</time>
 </trkpt>
 <trkpt lat="47.619743" lon="13.331103">
 <ele>636.31</ele>
 <time>2011-09-13T08:30:02Z</time>
 </trkpt>
 <trkpt lat="47.619843" lon="13.331346">
 <ele>636.59</ele>
 <time>2011-09-13T08:30:08Z</time>
 </trkpt>
 <trkpt lat="47.619961" lon="13.331558">
 <ele>636.77</ele>
 <time>2011-09-13T08:30:14Z</time>
 </trkpt>
 <trkpt lat="47.620171" lon="13.331961">
 <ele>637.20</ele>
 <time>2011-09-13T08:30:24Z</time>
 </trkpt>
 <trkpt lat="47.620277" lon="13.332281">
 <ele>637.48</ele>
 <time>2011-09-13T08:30:31Z</time>
 </trkpt>
 <trkpt lat="47.620380" lon="13.332623">
 <ele>637.75</ele>
 <time>2011-09-13T08:30:38Z</time>
 </trkpt>
 <trkpt lat="47.620518" lon="13.332920">
 <ele>638.16</ele>
 <time>2011-09-13T08:30:45Z</time>
 </trkpt>
 <trkpt lat="47.620705" lon="13.333213">
 <ele>638.55</ele>
 <time>2011-09-13T08:30:53Z</time>
 </trkpt>
 <trkpt lat="47.620930" lon="13.333489">
 <ele>639.21</ele>
 <time>2011-09-13T08:31:01Z</time>
 </trkpt>
 <trkpt lat="47.621162" lon="13.333718">
 <ele>639.91</ele>
 <time>2011-09-13T08:31:10Z</time>
 </trkpt>
 <trkpt lat="47.621384" lon="13.333943">
 <ele>640.20</ele>
 <time>2011-09-13T08:31:18Z</time>
 </trkpt>
 <trkpt lat="47.621658" lon="13.334142">
 <ele>640.52</ele>
 <time>2011-09-13T08:31:27Z</time>
 </trkpt>
 <trkpt lat="47.621799" lon="13.334274">
 <ele>641.03</ele>
 <time>2011-09-13T08:31:32Z</time>
 </trkpt>
 <trkpt lat="47.621941" lon="13.334389">
 <ele>642.29</ele>
 <time>2011-09-13T08:31:38Z</time>
 </trkpt>
 <trkpt lat="47.622185" lon="13.334518">
 <ele>643.65</ele>
 <time>2011-09-13T08:31:48Z</time>
 </trkpt>
 <trkpt lat="47.622375" lon="13.334647">
 <ele>644.33</ele>
 <time>2011-09-13T08:31:56Z</time>
 </trkpt>
 <trkpt lat="47.622597" lon="13.334845">
 <ele>644.96</ele>
 <time>2011-09-13T08:32:05Z</time>
 </trkpt>
 <trkpt lat="47.622715" lon="13.334978">
 <ele>645.64</ele>
 <time>2011-09-13T08:32:12Z</time>
 </trkpt>
 <trkpt lat="47.622971" lon="13.335264">
 <ele>645.90</ele>
 <time>2011-09-13T08:32:22Z</time>
 </trkpt>
 <trkpt lat="47.623100" lon="13.335571">
 <ele>646.13</ele>
 <time>2011-09-13T08:32:30Z</time>
 </trkpt>
 <trkpt lat="47.623215" lon="13.335888">
 <ele>646.58</ele>
 <time>2011-09-13T08:32:38Z</time>
 </trkpt>
 <trkpt lat="47.623402" lon="13.336333">
 <ele>646.77</ele>
 <time>2011-09-13T08:32:49Z</time>
 </trkpt>
 <trkpt lat="47.623592" lon="13.336667">
 <ele>647.07</ele>
 <time>2011-09-13T08:32:59Z</time>
 </trkpt>
 <trkpt lat="47.623718" lon="13.336860">
 <ele>648.38</ele>
 <time>2011-09-13T08:33:07Z</time>
 </trkpt>
 <trkpt lat="47.623817" lon="13.336995">
 <ele>649.91</ele>
 <time>2011-09-13T08:33:14Z</time>
 </trkpt>
 <trkpt lat="47.623936" lon="13.337157">
 <ele>650.97</ele>
 <time>2011-09-13T08:33:23Z</time>
 </trkpt>
 <trkpt lat="47.624058" lon="13.337318">
 <ele>651.84</ele>
 <time>2011-09-13T08:33:31Z</time>
 </trkpt>
 <trkpt lat="47.624199" lon="13.337510">
 <ele>652.42</ele>
 <time>2011-09-13T08:33:40Z</time>
 </trkpt>
 <trkpt lat="47.624336" lon="13.337743">
 <ele>653.66</ele>
 <time>2011-09-13T08:33:50Z</time>
 </trkpt>
 <trkpt lat="47.624493" lon="13.337881">
 <ele>654.65</ele>
 <time>2011-09-13T08:33:59Z</time>
 </trkpt>
 <trkpt lat="47.624660" lon="13.337946">
 <ele>655.12</ele>
 <time>2011-09-13T08:34:07Z</time>
 </trkpt>
 <trkpt lat="47.624805" lon="13.337951">
 <ele>655.88</ele>
 <time>2011-09-13T08:34:15Z</time>
 </trkpt>
 <trkpt lat="47.624805" lon="13.337951">
 <ele>655.91</ele>
 <time>2011-09-13T08:34:16Z</time>
 </trkpt>
 <trkpt lat="47.624905" lon="13.337942">
 <ele>655.78</ele>
 <time>2011-09-13T08:34:32Z</time>
 </trkpt>
 <trkpt lat="47.625050" lon="13.337939">
 <ele>656.16</ele>
 <time>2011-09-13T08:34:39Z</time>
 </trkpt>
 <trkpt lat="47.625210" lon="13.337929">
 <ele>656.90</ele>
 <time>2011-09-13T08:34:46Z</time>
 </trkpt>
 <trkpt lat="47.625370" lon="13.337917">
 <ele>657.06</ele>
 <time>2011-09-13T08:34:53Z</time>
 </trkpt>
 <trkpt lat="47.625591" lon="13.337938">
 <ele>657.36</ele>
 <time>2011-09-13T08:34:59Z</time>
 </trkpt>
 <trkpt lat="47.625713" lon="13.337960">
 <ele>657.93</ele>
 <time>2011-09-13T08:35:04Z</time>
 </trkpt>
 <trkpt lat="47.625904" lon="13.337965">
 <ele>658.67</ele>
 <time>2011-09-13T08:35:10Z</time>
 </trkpt>
 <trkpt lat="47.626022" lon="13.337991">
 <ele>659.28</ele>
 <time>2011-09-13T08:35:16Z</time>
 </trkpt>
 <trkpt lat="47.626152" lon="13.338051">
 <ele>659.90</ele>
 <time>2011-09-13T08:35:21Z</time>
 </trkpt>
 <trkpt lat="47.626263" lon="13.338119">
 <ele>660.65</ele>
 <time>2011-09-13T08:35:26Z</time>
 </trkpt>
 <trkpt lat="47.626369" lon="13.338185">
 <ele>661.25</ele>
 <time>2011-09-13T08:35:31Z</time>
 </trkpt>
 <trkpt lat="47.626476" lon="13.338232">
 <ele>662.03</ele>
 <time>2011-09-13T08:35:37Z</time>
 </trkpt>
 <trkpt lat="47.626637" lon="13.338305">
 <ele>662.70</ele>
 <time>2011-09-13T08:35:44Z</time>
 </trkpt>
 <trkpt lat="47.626827" lon="13.338618">
 <ele>663.46</ele>
 <time>2011-09-13T08:35:50Z</time>
 </trkpt>
 <trkpt lat="47.626972" lon="13.338900">
 <ele>665.03</ele>
 <time>2011-09-13T08:36:00Z</time>
 </trkpt>
 <trkpt lat="47.627029" lon="13.339031">
 <ele>665.83</ele>
 <time>2011-09-13T08:36:05Z</time>
 </trkpt>
 <trkpt lat="47.627041" lon="13.339048">
 <ele>665.99</ele>
 <time>2011-09-13T08:36:06Z</time>
 </trkpt>
 <trkpt lat="47.627132" lon="13.339122">
 <ele>667.65</ele>
 <time>2011-09-13T08:36:15Z</time>
 </trkpt>
 <trkpt lat="47.627262" lon="13.339238">
 <ele>669.24</ele>
 <time>2011-09-13T08:36:24Z</time>
 </trkpt>
 <trkpt lat="47.627392" lon="13.339391">
 <ele>670.39</ele>
 <time>2011-09-13T08:36:31Z</time>
 </trkpt>
 <trkpt lat="47.627407" lon="13.339408">
 <ele>670.54</ele>
 <time>2011-09-13T08:36:32Z</time>
 </trkpt>
 <trkpt lat="47.627472" lon="13.339490">
 <ele>671.39</ele>
 <time>2011-09-13T08:36:36Z</time>
 </trkpt>
 <trkpt lat="47.627499" lon="13.339563">
 <ele>671.76</ele>
 <time>2011-09-13T08:36:38Z</time>
 </trkpt>
 <trkpt lat="47.627613" lon="13.339755">
 <ele>673.06</ele>
 <time>2011-09-13T08:36:44Z</time>
 </trkpt>
 <trkpt lat="47.627686" lon="13.339801">
 <ele>674.61</ele>
 <time>2011-09-13T08:36:53Z</time>
 </trkpt>
 <trkpt lat="47.627773" lon="13.339839">
 <ele>676.40</ele>
 <time>2011-09-13T08:37:02Z</time>
 </trkpt>
 <trkpt lat="47.627892" lon="13.339868">
 <ele>677.74</ele>
 <time>2011-09-13T08:37:10Z</time>
 </trkpt>
 <trkpt lat="47.627998" lon="13.340003">
 <ele>679.14</ele>
 <time>2011-09-13T08:37:20Z</time>
 </trkpt>
 <trkpt lat="47.628056" lon="13.340071">
 <ele>680.35</ele>
 <time>2011-09-13T08:37:27Z</time>
 </trkpt>
 <trkpt lat="47.628086" lon="13.340106">
 <ele>681.02</ele>
 <time>2011-09-13T08:37:31Z</time>
 </trkpt>
 <trkpt lat="47.628197" lon="13.340230">
 <ele>682.73</ele>
 <time>2011-09-13T08:37:41Z</time>
 </trkpt>
 <trkpt lat="47.628227" lon="13.340260">
 <ele>683.02</ele>
 <time>2011-09-13T08:37:44Z</time>
 </trkpt>
 <trkpt lat="47.628319" lon="13.340352">
 <ele>684.37</ele>
 <time>2011-09-13T08:37:53Z</time>
 </trkpt>
 <trkpt lat="47.628330" lon="13.340367">
 <ele>685.70</ele>
 <time>2011-09-13T08:37:59Z</time>
 </trkpt>
 <trkpt lat="47.628365" lon="13.340409">
 <ele>686.57</ele>
 <time>2011-09-13T08:38:05Z</time>
 </trkpt>
 <trkpt lat="47.628410" lon="13.340473">
 <ele>687.50</ele>
 <time>2011-09-13T08:38:11Z</time>
 </trkpt>
 <trkpt lat="47.628456" lon="13.340531">
 <ele>688.16</ele>
 <time>2011-09-13T08:38:15Z</time>
 </trkpt>
 <trkpt lat="47.628487" lon="13.340572">
 <ele>688.98</ele>
 <time>2011-09-13T08:38:19Z</time>
 </trkpt>
 <trkpt lat="47.628517" lon="13.340610">
 <ele>689.86</ele>
 <time>2011-09-13T08:38:24Z</time>
 </trkpt>
 <trkpt lat="47.628517" lon="13.340610">
 <ele>690.65</ele>
 <time>2011-09-13T08:38:28Z</time>
 </trkpt>
 <trkpt lat="47.628601" lon="13.340720">
 <ele>691.52</ele>
 <time>2011-09-13T08:38:33Z</time>
 </trkpt>
 <trkpt lat="47.628651" lon="13.340758">
 <ele>692.15</ele>
 <time>2011-09-13T08:38:36Z</time>
 </trkpt>
 <trkpt lat="47.628677" lon="13.340777">
 <ele>693.00</ele>
 <time>2011-09-13T08:38:41Z</time>
 </trkpt>
 <trkpt lat="47.628769" lon="13.340846">
 <ele>693.87</ele>
 <time>2011-09-13T08:38:46Z</time>
 </trkpt>
 <trkpt lat="47.628769" lon="13.340846">
 <ele>694.13</ele>
 <time>2011-09-13T08:38:47Z</time>
 </trkpt>
 <trkpt lat="47.628769" lon="13.340846">
 <ele>695.63</ele>
 <time>2011-09-13T08:38:56Z</time>
 </trkpt>
 <trkpt lat="47.628906" lon="13.340998">
 <ele>696.04</ele>
 <time>2011-09-13T08:38:58Z</time>
 </trkpt>
 <trkpt lat="47.628990" lon="13.341051">
 <ele>697.35</ele>
 <time>2011-09-13T08:39:06Z</time>
 </trkpt>
 <trkpt lat="47.629055" lon="13.341091">
 <ele>698.45</ele>
 <time>2011-09-13T08:39:12Z</time>
 </trkpt>
 <trkpt lat="47.629112" lon="13.341126">
 <ele>698.95</ele>
 <time>2011-09-13T08:39:16Z</time>
 </trkpt>
 <trkpt lat="47.629147" lon="13.341148">
 <ele>699.82</ele>
 <time>2011-09-13T08:39:22Z</time>
 </trkpt>
 <trkpt lat="47.629208" lon="13.341187">
 <ele>700.29</ele>
 <time>2011-09-13T08:39:26Z</time>
 </trkpt>
 <trkpt lat="47.629269" lon="13.341240">
 <ele>700.97</ele>
 <time>2011-09-13T08:39:30Z</time>
 </trkpt>
 <trkpt lat="47.629345" lon="13.341315">
 <ele>702.16</ele>
 <time>2011-09-13T08:39:36Z</time>
 </trkpt>
 <trkpt lat="47.629410" lon="13.341435">
 <ele>703.59</ele>
 <time>2011-09-13T08:39:42Z</time>
 </trkpt>
 <trkpt lat="47.629440" lon="13.341511">
 <ele>704.11</ele>
 <time>2011-09-13T08:39:46Z</time>
 </trkpt>
 <trkpt lat="47.629482" lon="13.341602">
 <ele>704.55</ele>
 <time>2011-09-13T08:39:51Z</time>
 </trkpt>
 <trkpt lat="47.629532" lon="13.341653">
 <ele>705.47</ele>
 <time>2011-09-13T08:39:56Z</time>
 </trkpt>
 <trkpt lat="47.629608" lon="13.341727">
 <ele>706.97</ele>
 <time>2011-09-13T08:40:03Z</time>
 </trkpt>
 <trkpt lat="47.629658" lon="13.341764">
 <ele>707.84</ele>
 <time>2011-09-13T08:40:08Z</time>
 </trkpt>
 <trkpt lat="47.629700" lon="13.341788">
 <ele>708.71</ele>
 <time>2011-09-13T08:40:14Z</time>
 </trkpt>
 <trkpt lat="47.629700" lon="13.341788">
 <ele>708.81</ele>
 <time>2011-09-13T08:40:15Z</time>
 </trkpt>
 <trkpt lat="47.629822" lon="13.341860">
 <ele>709.96</ele>
 <time>2011-09-13T08:40:23Z</time>
 </trkpt>
 <trkpt lat="47.629883" lon="13.341890">
 <ele>711.07</ele>
 <time>2011-09-13T08:40:30Z</time>
 </trkpt>
 <trkpt lat="47.629990" lon="13.341961">
 <ele>712.64</ele>
 <time>2011-09-13T08:40:37Z</time>
 </trkpt>
 <trkpt lat="47.630051" lon="13.342021">
 <ele>713.46</ele>
 <time>2011-09-13T08:40:43Z</time>
 </trkpt>
 <trkpt lat="47.630127" lon="13.342093">
 <ele>714.27</ele>
 <time>2011-09-13T08:40:49Z</time>
 </trkpt>
 <trkpt lat="47.630230" lon="13.342165">
 <ele>715.62</ele>
 <time>2011-09-13T08:40:56Z</time>
 </trkpt>
 <trkpt lat="47.630322" lon="13.342194">
 <ele>717.09</ele>
 <time>2011-09-13T08:41:03Z</time>
 </trkpt>
 <trkpt lat="47.630444" lon="13.342208">
 <ele>718.43</ele>
 <time>2011-09-13T08:41:12Z</time>
 </trkpt>
 <trkpt lat="47.630531" lon="13.342218">
 <ele>719.34</ele>
 <time>2011-09-13T08:41:19Z</time>
 </trkpt>
 <trkpt lat="47.630627" lon="13.342228">
 <ele>720.24</ele>
 <time>2011-09-13T08:41:26Z</time>
 </trkpt>
 <trkpt lat="47.630707" lon="13.342253">
 <ele>720.84</ele>
 <time>2011-09-13T08:41:32Z</time>
 </trkpt>
 <trkpt lat="47.630718" lon="13.342258">
 <ele>721.14</ele>
 <time>2011-09-13T08:41:35Z</time>
 </trkpt>
 <trkpt lat="47.630718" lon="13.342258">
 <ele>721.37</ele>
 <time>2011-09-13T08:41:39Z</time>
 </trkpt>
 <trkpt lat="47.630718" lon="13.342258">
 <ele>721.38</ele>
 <time>2011-09-13T08:41:40Z</time>
 </trkpt>
 <trkpt lat="47.630718" lon="13.342258">
 <ele>721.51</ele>
 <time>2011-09-13T08:41:46Z</time>
 </trkpt>
 <trkpt lat="47.630718" lon="13.342258">
 <ele>721.36</ele>
 <time>2011-09-13T08:42:02Z</time>
 </trkpt>
 <trkpt lat="47.630718" lon="13.342258">
 <ele>721.41</ele>
 <time>2011-09-13T08:42:03Z</time>
 </trkpt>
 <trkpt lat="47.630718" lon="13.342258">
 <ele>721.48</ele>
 <time>2011-09-13T08:42:07Z</time>
 </trkpt>
 <trkpt lat="47.630814" lon="13.342293">
 <ele>721.83</ele>
 <time>2011-09-13T08:42:13Z</time>
 </trkpt>
 <trkpt lat="47.630890" lon="13.342295">
 <ele>722.60</ele>
 <time>2011-09-13T08:42:18Z</time>
 </trkpt>
 <trkpt lat="47.631016" lon="13.342291">
 <ele>723.27</ele>
 <time>2011-09-13T08:42:26Z</time>
 </trkpt>
 <trkpt lat="47.631104" lon="13.342274">
 <ele>723.44</ele>
 <time>2011-09-13T08:42:32Z</time>
 </trkpt>
 <trkpt lat="47.631119" lon="13.342272">
 <ele>723.47</ele>
 <time>2011-09-13T08:42:33Z</time>
 </trkpt>
 <trkpt lat="47.631264" lon="13.342306">
 <ele>723.53</ele>
 <time>2011-09-13T08:42:39Z</time>
 </trkpt>
 <trkpt lat="47.631363" lon="13.342484">
 <ele>723.64</ele>
 <time>2011-09-13T08:42:45Z</time>
 </trkpt>
 <trkpt lat="47.631374" lon="13.342527">
 <ele>723.58</ele>
 <time>2011-09-13T08:42:46Z</time>
 </trkpt>
 <trkpt lat="47.631416" lon="13.342704">
 <ele>723.76</ele>
 <time>2011-09-13T08:42:51Z</time>
 </trkpt>
 <trkpt lat="47.631310" lon="13.342928">
 <ele>724.87</ele>
 <time>2011-09-13T08:42:59Z</time>
 </trkpt>
 <trkpt lat="47.631290" lon="13.343048">
 <ele>725.81</ele>
 <time>2011-09-13T08:43:06Z</time>
 </trkpt>
 <trkpt lat="47.631290" lon="13.343266">
 <ele>726.28</ele>
 <time>2011-09-13T08:43:13Z</time>
 </trkpt>
 <trkpt lat="47.631348" lon="13.343419">
 <ele>726.74</ele>
 <time>2011-09-13T08:43:19Z</time>
 </trkpt>
 <trkpt lat="47.631397" lon="13.343637">
 <ele>727.76</ele>
 <time>2011-09-13T08:43:27Z</time>
 </trkpt>
 <trkpt lat="47.631432" lon="13.343865">
 <ele>728.76</ele>
 <time>2011-09-13T08:43:35Z</time>
 </trkpt>
 <trkpt lat="47.631462" lon="13.344059">
 <ele>729.40</ele>
 <time>2011-09-13T08:43:43Z</time>
 </trkpt>
 <trkpt lat="47.631439" lon="13.344217">
 <ele>730.17</ele>
 <time>2011-09-13T08:43:49Z</time>
 </trkpt>
 <trkpt lat="47.631390" lon="13.344394">
 <ele>730.60</ele>
 <time>2011-09-13T08:43:55Z</time>
 </trkpt>
 <trkpt lat="47.631237" lon="13.344539">
 <ele>731.31</ele>
 <time>2011-09-13T08:44:03Z</time>
 </trkpt>
 <trkpt lat="47.631161" lon="13.344638">
 <ele>732.07</ele>
 <time>2011-09-13T08:44:10Z</time>
 </trkpt>
 <trkpt lat="47.631050" lon="13.344802">
 <ele>733.15</ele>
 <time>2011-09-13T08:44:18Z</time>
 </trkpt>
 <trkpt lat="47.631020" lon="13.345002">
 <ele>734.01</ele>
 <time>2011-09-13T08:44:26Z</time>
 </trkpt>
 <trkpt lat="47.631039" lon="13.345211">
 <ele>735.18</ele>
 <time>2011-09-13T08:44:34Z</time>
 </trkpt>
 <trkpt lat="47.631088" lon="13.345429">
 <ele>736.46</ele>
 <time>2011-09-13T08:44:42Z</time>
 </trkpt>
 <trkpt lat="47.631153" lon="13.345640">
 <ele>737.44</ele>
 <time>2011-09-13T08:44:48Z</time>
 </trkpt>
 <trkpt lat="47.631207" lon="13.345795">
 <ele>737.96</ele>
 <time>2011-09-13T08:44:54Z</time>
 </trkpt>
 <trkpt lat="47.631226" lon="13.345859">
 <ele>738.56</ele>
 <time>2011-09-13T08:44:59Z</time>
 </trkpt>
 <trkpt lat="47.631214" lon="13.345942">
 <ele>739.01</ele>
 <time>2011-09-13T08:45:03Z</time>
 </trkpt>
 <trkpt lat="47.631180" lon="13.346199">
 <ele>740.18</ele>
 <time>2011-09-13T08:45:12Z</time>
 </trkpt>
 <trkpt lat="47.631176" lon="13.346261">
 <ele>740.43</ele>
 <time>2011-09-13T08:45:14Z</time>
 </trkpt>
 <trkpt lat="47.631165" lon="13.346427">
 <ele>741.16</ele>
 <time>2011-09-13T08:45:20Z</time>
 </trkpt>
 <trkpt lat="47.631149" lon="13.346624">
 <ele>742.22</ele>
 <time>2011-09-13T08:45:27Z</time>
 </trkpt>
 <trkpt lat="47.631138" lon="13.346742">
 <ele>742.97</ele>
 <time>2011-09-13T08:45:32Z</time>
 </trkpt>
 <trkpt lat="47.631046" lon="13.346857">
 <ele>743.54</ele>
 <time>2011-09-13T08:45:37Z</time>
 </trkpt>
 <trkpt lat="47.631012" lon="13.346901">
 <ele>743.64</ele>
 <time>2011-09-13T08:45:39Z</time>
 </trkpt>
 <trkpt lat="47.630936" lon="13.346936">
 <ele>744.51</ele>
 <time>2011-09-13T08:45:47Z</time>
 </trkpt>
 <trkpt lat="47.630802" lon="13.346968">
 <ele>746.06</ele>
 <time>2011-09-13T08:45:57Z</time>
 </trkpt>
 <trkpt lat="47.630707" lon="13.347062">
 <ele>746.82</ele>
 <time>2011-09-13T08:46:03Z</time>
 </trkpt>
 <trkpt lat="47.630657" lon="13.347220">
 <ele>747.83</ele>
 <time>2011-09-13T08:46:10Z</time>
 </trkpt>
 <trkpt lat="47.630657" lon="13.347393">
 <ele>748.99</ele>
 <time>2011-09-13T08:46:16Z</time>
 </trkpt>
 <trkpt lat="47.630753" lon="13.347514">
 <ele>750.09</ele>
 <time>2011-09-13T08:46:23Z</time>
 </trkpt>
 <trkpt lat="47.630817" lon="13.347606">
 <ele>751.06</ele>
 <time>2011-09-13T08:46:28Z</time>
 </trkpt>
 <trkpt lat="47.630875" lon="13.347705">
 <ele>752.06</ele>
 <time>2011-09-13T08:46:34Z</time>
 </trkpt>
 <trkpt lat="47.630939" lon="13.347874">
 <ele>753.80</ele>
 <time>2011-09-13T08:46:42Z</time>
 </trkpt>
 <trkpt lat="47.630978" lon="13.348070">
 <ele>754.85</ele>
 <time>2011-09-13T08:46:48Z</time>
 </trkpt>
 <trkpt lat="47.631023" lon="13.348207">
 <ele>756.04</ele>
 <time>2011-09-13T08:46:54Z</time>
 </trkpt>
 <trkpt lat="47.631069" lon="13.348316">
 <ele>757.59</ele>
 <time>2011-09-13T08:47:03Z</time>
 </trkpt>
 <trkpt lat="47.631069" lon="13.348316">
 <ele>757.74</ele>
 <time>2011-09-13T08:47:04Z</time>
 </trkpt>
 <trkpt lat="47.631073" lon="13.348320">
 <ele>758.55</ele>
 <time>2011-09-13T08:47:10Z</time>
 </trkpt>
 <trkpt lat="47.631142" lon="13.348377">
 <ele>759.45</ele>
 <time>2011-09-13T08:47:15Z</time>
 </trkpt>
 <trkpt lat="47.631207" lon="13.348438">
 <ele>760.17</ele>
 <time>2011-09-13T08:47:21Z</time>
 </trkpt>
 <trkpt lat="47.631268" lon="13.348546">
 <ele>761.36</ele>
 <time>2011-09-13T08:47:28Z</time>
 </trkpt>
 <trkpt lat="47.631313" lon="13.348657">
 <ele>762.20</ele>
 <time>2011-09-13T08:47:33Z</time>
 </trkpt>
 <trkpt lat="47.631325" lon="13.348783">
 <ele>762.71</ele>
 <time>2011-09-13T08:47:37Z</time>
 </trkpt>
 <trkpt lat="47.631329" lon="13.348862">
 <ele>763.31</ele>
 <time>2011-09-13T08:47:40Z</time>
 </trkpt>
 <trkpt lat="47.631332" lon="13.348925">
 <ele>764.25</ele>
 <time>2011-09-13T08:47:47Z</time>
 </trkpt>
 <trkpt lat="47.631245" lon="13.349026">
 <ele>764.88</ele>
 <time>2011-09-13T08:47:51Z</time>
 </trkpt>
 <trkpt lat="47.631371" lon="13.349076">
 <ele>765.98</ele>
 <time>2011-09-13T08:47:59Z</time>
 </trkpt>
 <trkpt lat="47.631371" lon="13.349336">
 <ele>766.64</ele>
 <time>2011-09-13T08:48:06Z</time>
 </trkpt>
 <trkpt lat="47.631367" lon="13.349375">
 <ele>766.68</ele>
 <time>2011-09-13T08:48:08Z</time>
 </trkpt>
 <trkpt lat="47.631344" lon="13.349521">
 <ele>766.73</ele>
 <time>2011-09-13T08:48:15Z</time>
 </trkpt>
 <trkpt lat="47.631340" lon="13.349543">
 <ele>766.74</ele>
 <time>2011-09-13T08:48:16Z</time>
 </trkpt>
 <trkpt lat="47.631313" lon="13.349719">
 <ele>768.72</ele>
 <time>2011-09-13T08:48:24Z</time>
 </trkpt>
 <trkpt lat="47.631290" lon="13.349858">
 <ele>770.28</ele>
 <time>2011-09-13T08:48:30Z</time>
 </trkpt>
 <trkpt lat="47.631283" lon="13.349921">
 <ele>770.62</ele>
 <time>2011-09-13T08:48:33Z</time>
 </trkpt>
 <trkpt lat="47.631268" lon="13.350034">
 <ele>771.34</ele>
 <time>2011-09-13T08:48:39Z</time>
 </trkpt>
 <trkpt lat="47.631252" lon="13.350135">
 <ele>772.27</ele>
 <time>2011-09-13T08:48:44Z</time>
 </trkpt>
 <trkpt lat="47.631245" lon="13.350196">
 <ele>773.06</ele>
 <time>2011-09-13T08:48:47Z</time>
 </trkpt>
 <trkpt lat="47.631226" lon="13.350312">
 <ele>774.28</ele>
 <time>2011-09-13T08:48:53Z</time>
 </trkpt>
 <trkpt lat="47.631207" lon="13.350451">
 <ele>774.72</ele>
 <time>2011-09-13T08:49:00Z</time>
 </trkpt>
 <trkpt lat="47.631176" lon="13.350530">
 <ele>775.41</ele>
 <time>2011-09-13T08:49:06Z</time>
 </trkpt>
 <trkpt lat="47.631168" lon="13.350544">
 <ele>775.60</ele>
 <time>2011-09-13T08:49:07Z</time>
 </trkpt>
 <trkpt lat="47.631092" lon="13.350718">
 <ele>776.97</ele>
 <time>2011-09-13T08:49:14Z</time>
 </trkpt>
 <trkpt lat="47.631073" lon="13.350837">
 <ele>778.02</ele>
 <time>2011-09-13T08:49:20Z</time>
 </trkpt>
 <trkpt lat="47.631058" lon="13.350972">
 <ele>778.53</ele>
 <time>2011-09-13T08:49:25Z</time>
 </trkpt>
 <trkpt lat="47.631081" lon="13.351137">
 <ele>779.34</ele>
 <time>2011-09-13T08:49:31Z</time>
 </trkpt>
 <trkpt lat="47.631088" lon="13.351199">
 <ele>779.74</ele>
 <time>2011-09-13T08:49:34Z</time>
 </trkpt>
 <trkpt lat="47.631111" lon="13.351350">
 <ele>780.45</ele>
 <time>2011-09-13T08:49:43Z</time>
 </trkpt>
 <trkpt lat="47.631130" lon="13.351484">
 <ele>781.56</ele>
 <time>2011-09-13T08:49:51Z</time>
 </trkpt>
 <trkpt lat="47.631153" lon="13.351635">
 <ele>782.29</ele>
 <time>2011-09-13T08:49:58Z</time>
 </trkpt>
 <trkpt lat="47.631168" lon="13.351751">
 <ele>783.23</ele>
 <time>2011-09-13T08:50:05Z</time>
 </trkpt>
 <trkpt lat="47.631184" lon="13.351870">
 <ele>784.13</ele>
 <time>2011-09-13T08:50:12Z</time>
 </trkpt>
 <trkpt lat="47.631199" lon="13.351985">
 <ele>784.89</ele>
 <time>2011-09-13T08:50:18Z</time>
 </trkpt>
 <trkpt lat="47.631222" lon="13.352157">
 <ele>786.36</ele>
 <time>2011-09-13T08:50:27Z</time>
 </trkpt>
 <trkpt lat="47.631207" lon="13.352317">
 <ele>787.69</ele>
 <time>2011-09-13T08:50:35Z</time>
 </trkpt>
 <trkpt lat="47.631195" lon="13.352395">
 <ele>788.21</ele>
 <time>2011-09-13T08:50:39Z</time>
 </trkpt>
 <trkpt lat="47.631187" lon="13.352494">
 <ele>788.94</ele>
 <time>2011-09-13T08:50:44Z</time>
 </trkpt>
 <trkpt lat="47.631191" lon="13.352558">
 <ele>789.36</ele>
 <time>2011-09-13T08:50:47Z</time>
 </trkpt>
 <trkpt lat="47.631203" lon="13.352687">
 <ele>790.54</ele>
 <time>2011-09-13T08:50:54Z</time>
 </trkpt>
 <trkpt lat="47.631218" lon="13.352839">
 <ele>791.66</ele>
 <time>2011-09-13T08:51:01Z</time>
 </trkpt>
 <trkpt lat="47.631226" lon="13.352918">
 <ele>792.18</ele>
 <time>2011-09-13T08:51:05Z</time>
 </trkpt>
 <trkpt lat="47.631233" lon="13.352995">
 <ele>792.86</ele>
 <time>2011-09-13T08:51:09Z</time>
 </trkpt>
 <trkpt lat="47.631241" lon="13.353085">
 <ele>793.89</ele>
 <time>2011-09-13T08:51:14Z</time>
 </trkpt>
 <trkpt lat="47.631248" lon="13.353196">
 <ele>794.71</ele>
 <time>2011-09-13T08:51:19Z</time>
 </trkpt>
 <trkpt lat="47.631248" lon="13.353241">
 <ele>794.99</ele>
 <time>2011-09-13T08:51:21Z</time>
 </trkpt>
 <trkpt lat="47.631248" lon="13.353313">
 <ele>795.72</ele>
 <time>2011-09-13T08:51:25Z</time>
 </trkpt>
 <trkpt lat="47.631248" lon="13.353431">
 <ele>796.51</ele>
 <time>2011-09-13T08:51:32Z</time>
 </trkpt>
 <trkpt lat="47.631252" lon="13.353489">
 <ele>797.07</ele>
 <time>2011-09-13T08:51:36Z</time>
 </trkpt>
 <trkpt lat="47.631268" lon="13.353684">
 <ele>798.34</ele>
 <time>2011-09-13T08:51:45Z</time>
 </trkpt>
 <trkpt lat="47.631271" lon="13.353704">
 <ele>798.53</ele>
 <time>2011-09-13T08:51:46Z</time>
 </trkpt>
 <trkpt lat="47.631287" lon="13.353795">
 <ele>799.34</ele>
 <time>2011-09-13T08:51:51Z</time>
 </trkpt>
 <trkpt lat="47.631329" lon="13.354009">
 <ele>800.58</ele>
 <time>2011-09-13T08:52:01Z</time>
 </trkpt>
 <trkpt lat="47.631382" lon="13.354202">
 <ele>801.81</ele>
 <time>2011-09-13T08:52:09Z</time>
 </trkpt>
 <trkpt lat="47.631401" lon="13.354278">
 <ele>802.40</ele>
 <time>2011-09-13T08:52:14Z</time>
 </trkpt>
 <trkpt lat="47.631428" lon="13.354394">
 <ele>803.25</ele>
 <time>2011-09-13T08:52:20Z</time>
 </trkpt>
 <trkpt lat="47.631458" lon="13.354489">
 <ele>803.74</ele>
 <time>2011-09-13T08:52:24Z</time>
 </trkpt>
 <trkpt lat="47.631493" lon="13.354589">
 <ele>805.21</ele>
 <time>2011-09-13T08:52:33Z</time>
 </trkpt>
 <trkpt lat="47.631527" lon="13.354697">
 <ele>806.63</ele>
 <time>2011-09-13T08:52:41Z</time>
 </trkpt>
 <trkpt lat="47.631584" lon="13.354862">
 <ele>807.63</ele>
 <time>2011-09-13T08:52:49Z</time>
 </trkpt>
 <trkpt lat="47.631645" lon="13.354982">
 <ele>809.45</ele>
 <time>2011-09-13T08:52:59Z</time>
 </trkpt>
 <trkpt lat="47.631683" lon="13.355042">
 <ele>810.27</ele>
 <time>2011-09-13T08:53:03Z</time>
 </trkpt>
 <trkpt lat="47.631767" lon="13.355171">
 <ele>811.10</ele>
 <time>2011-09-13T08:53:12Z</time>
 </trkpt>
 <trkpt lat="47.631767" lon="13.355171">
 <ele>813.29</ele>
 <time>2011-09-13T08:53:27Z</time>
 </trkpt>
 <trkpt lat="47.631760" lon="13.355634">
 <ele>814.74</ele>
 <time>2011-09-13T08:53:37Z</time>
 </trkpt>
 <trkpt lat="47.631744" lon="13.355778">
 <ele>815.81</ele>
 <time>2011-09-13T08:53:43Z</time>
 </trkpt>
 <trkpt lat="47.631752" lon="13.355979">
 <ele>817.00</ele>
 <time>2011-09-13T08:53:52Z</time>
 </trkpt>
 <trkpt lat="47.631756" lon="13.355995">
 <ele>817.17</ele>
 <time>2011-09-13T08:53:53Z</time>
 </trkpt>
 <trkpt lat="47.631763" lon="13.356092">
 <ele>817.98</ele>
 <time>2011-09-13T08:53:58Z</time>
 </trkpt>
 <trkpt lat="47.631763" lon="13.356153">
 <ele>818.18</ele>
 <time>2011-09-13T08:54:01Z</time>
 </trkpt>
 <trkpt lat="47.631763" lon="13.356270">
 <ele>819.07</ele>
 <time>2011-09-13T08:54:08Z</time>
 </trkpt>
 <trkpt lat="47.631763" lon="13.356355">
 <ele>819.59</ele>
 <time>2011-09-13T08:54:12Z</time>
 </trkpt>
 <trkpt lat="47.631767" lon="13.356451">
 <ele>820.48</ele>
 <time>2011-09-13T08:54:17Z</time>
 </trkpt>
 <trkpt lat="47.631783" lon="13.356620">
 <ele>821.80</ele>
 <time>2011-09-13T08:54:27Z</time>
 </trkpt>
 <trkpt lat="47.631794" lon="13.356761">
 <ele>822.84</ele>
 <time>2011-09-13T08:54:34Z</time>
 </trkpt>
 <trkpt lat="47.631805" lon="13.356934">
 <ele>823.95</ele>
 <time>2011-09-13T08:54:43Z</time>
 </trkpt>
 <trkpt lat="47.631805" lon="13.357077">
 <ele>824.87</ele>
 <time>2011-09-13T08:54:50Z</time>
 </trkpt>
 <trkpt lat="47.631805" lon="13.357185">
 <ele>825.66</ele>
 <time>2011-09-13T08:54:56Z</time>
 </trkpt>
 <trkpt lat="47.631805" lon="13.357363">
 <ele>826.82</ele>
 <time>2011-09-13T08:55:05Z</time>
 </trkpt>
 <trkpt lat="47.631805" lon="13.357516">
 <ele>827.91</ele>
 <time>2011-09-13T08:55:13Z</time>
 </trkpt>
 <trkpt lat="47.631805" lon="13.357622">
 <ele>828.73</ele>
 <time>2011-09-13T08:55:19Z</time>
 </trkpt>
 <trkpt lat="47.631805" lon="13.357673">
 <ele>829.23</ele>
 <time>2011-09-13T08:55:22Z</time>
 </trkpt>
 <trkpt lat="47.631809" lon="13.357778">
 <ele>830.03</ele>
 <time>2011-09-13T08:55:27Z</time>
 </trkpt>
 <trkpt lat="47.631824" lon="13.357961">
 <ele>830.98</ele>
 <time>2011-09-13T08:55:35Z</time>
 </trkpt>
 <trkpt lat="47.631828" lon="13.358018">
 <ele>831.32</ele>
 <time>2011-09-13T08:55:38Z</time>
 </trkpt>
 <trkpt lat="47.631832" lon="13.358095">
 <ele>831.66</ele>
 <time>2011-09-13T08:55:41Z</time>
 </trkpt>
 <trkpt lat="47.631847" lon="13.358261">
 <ele>832.38</ele>
 <time>2011-09-13T08:55:49Z</time>
 </trkpt>
 <trkpt lat="47.631847" lon="13.358281">
 <ele>832.50</ele>
 <time>2011-09-13T08:55:50Z</time>
 </trkpt>
 <trkpt lat="47.631824" lon="13.358378">
 <ele>832.99</ele>
 <time>2011-09-13T08:55:57Z</time>
 </trkpt>
 <trkpt lat="47.631783" lon="13.358561">
 <ele>833.82</ele>
 <time>2011-09-13T08:56:06Z</time>
 </trkpt>
 <trkpt lat="47.631767" lon="13.358653">
 <ele>834.31</ele>
 <time>2011-09-13T08:56:11Z</time>
 </trkpt>
 <trkpt lat="47.631756" lon="13.358735">
 <ele>834.86</ele>
 <time>2011-09-13T08:56:15Z</time>
 </trkpt>
 <trkpt lat="47.631741" lon="13.358837">
 <ele>835.70</ele>
 <time>2011-09-13T08:56:20Z</time>
 </trkpt>
 <trkpt lat="47.631729" lon="13.358944">
 <ele>836.23</ele>
 <time>2011-09-13T08:56:25Z</time>
 </trkpt>
 <trkpt lat="47.631721" lon="13.359033">
 <ele>836.73</ele>
 <time>2011-09-13T08:56:29Z</time>
 </trkpt>
 <trkpt lat="47.631721" lon="13.359130">
 <ele>837.35</ele>
 <time>2011-09-13T08:56:34Z</time>
 </trkpt>
 <trkpt lat="47.631721" lon="13.359317">
 <ele>838.51</ele>
 <time>2011-09-13T08:56:43Z</time>
 </trkpt>
 <trkpt lat="47.631710" lon="13.359419">
 <ele>839.26</ele>
 <time>2011-09-13T08:56:49Z</time>
 </trkpt>
 <trkpt lat="47.631699" lon="13.359493">
 <ele>839.84</ele>
 <time>2011-09-13T08:56:53Z</time>
 </trkpt>
 <trkpt lat="47.631680" lon="13.359620">
 <ele>840.23</ele>
 <time>2011-09-13T08:57:00Z</time>
 </trkpt>
 <trkpt lat="47.631660" lon="13.359676">
 <ele>840.48</ele>
 <time>2011-09-13T08:57:03Z</time>
 </trkpt>
 <trkpt lat="47.631611" lon="13.359810">
 <ele>841.46</ele>
 <time>2011-09-13T08:57:11Z</time>
 </trkpt>
 <trkpt lat="47.631569" lon="13.359956">
 <ele>842.31</ele>
 <time>2011-09-13T08:57:19Z</time>
 </trkpt>
 <trkpt lat="47.631531" lon="13.360106">
 <ele>843.29</ele>
 <time>2011-09-13T08:57:27Z</time>
 </trkpt>
 <trkpt lat="47.631481" lon="13.360249">
 <ele>844.62</ele>
 <time>2011-09-13T08:57:35Z</time>
 </trkpt>
 <trkpt lat="47.631477" lon="13.360266">
 <ele>844.86</ele>
 <time>2011-09-13T08:57:36Z</time>
 </trkpt>
 <trkpt lat="47.631435" lon="13.360383">
 <ele>845.80</ele>
 <time>2011-09-13T08:57:43Z</time>
 </trkpt>
 <trkpt lat="47.631416" lon="13.360432">
 <ele>846.10</ele>
 <time>2011-09-13T08:57:46Z</time>
 </trkpt>
 <trkpt lat="47.631401" lon="13.360483">
 <ele>846.41</ele>
 <time>2011-09-13T08:57:49Z</time>
 </trkpt>
 <trkpt lat="47.631359" lon="13.360602">
 <ele>847.29</ele>
 <time>2011-09-13T08:57:56Z</time>
 </trkpt>
 <trkpt lat="47.631344" lon="13.360649">
 <ele>847.47</ele>
 <time>2011-09-13T08:57:58Z</time>
 </trkpt>
 <trkpt lat="47.631290" lon="13.360779">
 <ele>848.67</ele>
 <time>2011-09-13T08:58:06Z</time>
 </trkpt>
 <trkpt lat="47.631233" lon="13.360888">
 <ele>849.39</ele>
 <time>2011-09-13T08:58:14Z</time>
 </trkpt>
 <trkpt lat="47.631168" lon="13.360982">
 <ele>850.21</ele>
 <time>2011-09-13T08:58:20Z</time>
 </trkpt>
 <trkpt lat="47.631119" lon="13.361039">
 <ele>850.99</ele>
 <time>2011-09-13T08:58:26Z</time>
 </trkpt>
 <trkpt lat="47.631065" lon="13.361064">
 <ele>851.57</ele>
 <time>2011-09-13T08:58:31Z</time>
 </trkpt>
 <trkpt lat="47.631054" lon="13.361070">
 <ele>851.77</ele>
 <time>2011-09-13T08:58:32Z</time>
 </trkpt>
 <trkpt lat="47.630947" lon="13.361160">
 <ele>852.74</ele>
 <time>2011-09-13T08:58:40Z</time>
 </trkpt>
 <trkpt lat="47.630898" lon="13.361281">
 <ele>853.66</ele>
 <time>2011-09-13T08:58:47Z</time>
 </trkpt>
 <trkpt lat="47.630859" lon="13.361371">
 <ele>854.34</ele>
 <time>2011-09-13T08:58:53Z</time>
 </trkpt>
 <trkpt lat="47.630836" lon="13.361470">
 <ele>854.96</ele>
 <time>2011-09-13T08:58:58Z</time>
 </trkpt>
 <trkpt lat="47.630829" lon="13.361511">
 <ele>855.24</ele>
 <time>2011-09-13T08:59:00Z</time>
 </trkpt>
 <trkpt lat="47.630810" lon="13.361593">
 <ele>855.69</ele>
 <time>2011-09-13T08:59:05Z</time>
 </trkpt>
 <trkpt lat="47.630810" lon="13.361729">
 <ele>856.84</ele>
 <time>2011-09-13T08:59:13Z</time>
 </trkpt>
 <trkpt lat="47.630737" lon="13.361789">
 <ele>857.34</ele>
 <time>2011-09-13T08:59:16Z</time>
 </trkpt>
 <trkpt lat="47.630833" lon="13.361837">
 <ele>857.63</ele>
 <time>2011-09-13T08:59:19Z</time>
 </trkpt>
 <trkpt lat="47.630852" lon="13.361962">
 <ele>858.00</ele>
 <time>2011-09-13T08:59:23Z</time>
 </trkpt>
 <trkpt lat="47.630856" lon="13.362014">
 <ele>858.35</ele>
 <time>2011-09-13T08:59:26Z</time>
 </trkpt>
 <trkpt lat="47.630875" lon="13.362147">
 <ele>859.08</ele>
 <time>2011-09-13T08:59:34Z</time>
 </trkpt>
 <trkpt lat="47.630894" lon="13.362306">
 <ele>860.36</ele>
 <time>2011-09-13T08:59:42Z</time>
 </trkpt>
 <trkpt lat="47.630894" lon="13.362521">
 <ele>861.69</ele>
 <time>2011-09-13T08:59:51Z</time>
 </trkpt>
 <trkpt lat="47.630894" lon="13.362544">
 <ele>861.70</ele>
 <time>2011-09-13T08:59:52Z</time>
 </trkpt>
 <trkpt lat="47.630882" lon="13.362680">
 <ele>862.71</ele>
 <time>2011-09-13T08:59:59Z</time>
 </trkpt>
 <trkpt lat="47.630882" lon="13.362855">
 <ele>863.60</ele>
 <time>2011-09-13T09:00:08Z</time>
 </trkpt>
 <trkpt lat="47.630878" lon="13.362954">
 <ele>864.14</ele>
 <time>2011-09-13T09:00:12Z</time>
 </trkpt>
 <trkpt lat="47.630871" lon="13.363056">
 <ele>864.78</ele>
 <time>2011-09-13T09:00:17Z</time>
 </trkpt>
 <trkpt lat="47.630871" lon="13.363095">
 <ele>864.97</ele>
 <time>2011-09-13T09:00:19Z</time>
 </trkpt>
 <trkpt lat="47.630863" lon="13.363205">
 <ele>865.58</ele>
 <time>2011-09-13T09:00:24Z</time>
 </trkpt>
 <trkpt lat="47.630871" lon="13.363283">
 <ele>865.92</ele>
 <time>2011-09-13T09:00:27Z</time>
 </trkpt>
 <trkpt lat="47.630878" lon="13.363380">
 <ele>866.66</ele>
 <time>2011-09-13T09:00:32Z</time>
 </trkpt>
 <trkpt lat="47.630878" lon="13.363515">
 <ele>867.36</ele>
 <time>2011-09-13T09:00:39Z</time>
 </trkpt>
 <trkpt lat="47.630867" lon="13.363654">
 <ele>867.76</ele>
 <time>2011-09-13T09:00:46Z</time>
 </trkpt>
 <trkpt lat="47.630863" lon="13.363767">
 <ele>869.02</ele>
 <time>2011-09-13T09:00:55Z</time>
 </trkpt>
 <trkpt lat="47.630749" lon="13.363933">
 <ele>869.92</ele>
 <time>2011-09-13T09:01:01Z</time>
 </trkpt>
 <trkpt lat="47.630745" lon="13.364074">
 <ele>871.05</ele>
 <time>2011-09-13T09:01:09Z</time>
 </trkpt>
 <trkpt lat="47.630898" lon="13.364203">
 <ele>871.68</ele>
 <time>2011-09-13T09:01:15Z</time>
 </trkpt>
 <trkpt lat="47.630894" lon="13.364223">
 <ele>871.89</ele>
 <time>2011-09-13T09:01:16Z</time>
 </trkpt>
 <trkpt lat="47.630886" lon="13.364272">
 <ele>872.25</ele>
 <time>2011-09-13T09:01:18Z</time>
 </trkpt>
 <trkpt lat="47.630867" lon="13.364405">
 <ele>873.46</ele>
 <time>2011-09-13T09:01:24Z</time>
 </trkpt>
 <trkpt lat="47.630852" lon="13.364506">
 <ele>874.15</ele>
 <time>2011-09-13T09:01:30Z</time>
 </trkpt>
 <trkpt lat="47.630844" lon="13.364565">
 <ele>874.38</ele>
 <time>2011-09-13T09:01:33Z</time>
 </trkpt>
 <trkpt lat="47.630825" lon="13.364734">
 <ele>874.79</ele>
 <time>2011-09-13T09:01:40Z</time>
 </trkpt>
 <trkpt lat="47.630814" lon="13.364819">
 <ele>874.79</ele>
 <time>2011-09-13T09:01:44Z</time>
 </trkpt>
 <trkpt lat="47.630806" lon="13.364907">
 <ele>875.49</ele>
 <time>2011-09-13T09:01:49Z</time>
 </trkpt>
 <trkpt lat="47.630798" lon="13.364994">
 <ele>876.88</ele>
 <time>2011-09-13T09:01:54Z</time>
 </trkpt>
 <trkpt lat="47.630791" lon="13.365066">
 <ele>877.23</ele>
 <time>2011-09-13T09:01:58Z</time>
 </trkpt>
 <trkpt lat="47.630787" lon="13.365095">
 <ele>877.84</ele>
 <time>2011-09-13T09:02:02Z</time>
 </trkpt>
 <trkpt lat="47.630775" lon="13.365229">
 <ele>878.72</ele>
 <time>2011-09-13T09:02:08Z</time>
 </trkpt>
 <trkpt lat="47.630775" lon="13.365324">
 <ele>879.46</ele>
 <time>2011-09-13T09:02:13Z</time>
 </trkpt>
 <trkpt lat="47.630775" lon="13.365370">
 <ele>879.68</ele>
 <time>2011-09-13T09:02:15Z</time>
 </trkpt>
 <trkpt lat="47.630775" lon="13.365455">
 <ele>880.41</ele>
 <time>2011-09-13T09:02:21Z</time>
 </trkpt>
 <trkpt lat="47.630783" lon="13.365579">
 <ele>881.53</ele>
 <time>2011-09-13T09:02:30Z</time>
 </trkpt>
 <trkpt lat="47.630791" lon="13.365704">
 <ele>882.24</ele>
 <time>2011-09-13T09:02:37Z</time>
 </trkpt>
 <trkpt lat="47.630775" lon="13.365891">
 <ele>883.55</ele>
 <time>2011-09-13T09:02:45Z</time>
 </trkpt>
 <trkpt lat="47.630772" lon="13.365933">
 <ele>883.83</ele>
 <time>2011-09-13T09:02:47Z</time>
 </trkpt>
 <trkpt lat="47.630756" lon="13.366013">
 <ele>884.40</ele>
 <time>2011-09-13T09:02:51Z</time>
 </trkpt>
 <trkpt lat="47.630768" lon="13.366162">
 <ele>885.68</ele>
 <time>2011-09-13T09:03:00Z</time>
 </trkpt>
 <trkpt lat="47.630764" lon="13.366316">
 <ele>886.31</ele>
 <time>2011-09-13T09:03:07Z</time>
 </trkpt>
 <trkpt lat="47.630730" lon="13.366483">
 <ele>887.25</ele>
 <time>2011-09-13T09:03:15Z</time>
 </trkpt>
 <trkpt lat="47.630707" lon="13.366604">
 <ele>887.96</ele>
 <time>2011-09-13T09:03:20Z</time>
 </trkpt>
 <trkpt lat="47.630699" lon="13.366694">
 <ele>888.52</ele>
 <time>2011-09-13T09:03:24Z</time>
 </trkpt>
 <trkpt lat="47.630695" lon="13.366875">
 <ele>889.61</ele>
 <time>2011-09-13T09:03:32Z</time>
 </trkpt>
 <trkpt lat="47.630695" lon="13.366906">
 <ele>889.76</ele>
 <time>2011-09-13T09:03:33Z</time>
 </trkpt>
 <trkpt lat="47.630711" lon="13.367129">
 <ele>890.84</ele>
 <time>2011-09-13T09:03:42Z</time>
 </trkpt>
 <trkpt lat="47.630711" lon="13.367175">
 <ele>890.99</ele>
 <time>2011-09-13T09:03:44Z</time>
 </trkpt>
 <trkpt lat="47.630711" lon="13.367262">
 <ele>891.51</ele>
 <time>2011-09-13T09:03:49Z</time>
 </trkpt>
 <trkpt lat="47.630711" lon="13.367299">
 <ele>891.85</ele>
 <time>2011-09-13T09:03:51Z</time>
 </trkpt>
 <trkpt lat="47.630726" lon="13.367474">
 <ele>892.60</ele>
 <time>2011-09-13T09:03:58Z</time>
 </trkpt>
 <trkpt lat="47.630733" lon="13.367518">
 <ele>892.70</ele>
 <time>2011-09-13T09:04:00Z</time>
 </trkpt>
 <trkpt lat="47.630741" lon="13.367584">
 <ele>892.90</ele>
 <time>2011-09-13T09:04:05Z</time>
 </trkpt>
 <trkpt lat="47.630753" lon="13.367735">
 <ele>893.96</ele>
 <time>2011-09-13T09:04:12Z</time>
 </trkpt>
 <trkpt lat="47.630753" lon="13.367751">
 <ele>894.08</ele>
 <time>2011-09-13T09:04:13Z</time>
 </trkpt>
 <trkpt lat="47.630753" lon="13.367885">
 <ele>894.89</ele>
 <time>2011-09-13T09:04:20Z</time>
 </trkpt>
 <trkpt lat="47.630760" lon="13.368000">
 <ele>895.62</ele>
 <time>2011-09-13T09:04:25Z</time>
 </trkpt>
 <trkpt lat="47.630775" lon="13.368055">
 <ele>895.97</ele>
 <time>2011-09-13T09:04:28Z</time>
 </trkpt>
 <trkpt lat="47.630787" lon="13.368105">
 <ele>896.62</ele>
 <time>2011-09-13T09:04:35Z</time>
 </trkpt>
 <trkpt lat="47.630836" lon="13.368288">
 <ele>897.31</ele>
 <time>2011-09-13T09:04:40Z</time>
 </trkpt>
 <trkpt lat="47.630901" lon="13.368505">
 <ele>898.20</ele>
 <time>2011-09-13T09:04:48Z</time>
 </trkpt>
 <trkpt lat="47.630932" lon="13.368580">
 <ele>898.96</ele>
 <time>2011-09-13T09:04:53Z</time>
 </trkpt>
 <trkpt lat="47.630981" lon="13.368705">
 <ele>899.61</ele>
 <time>2011-09-13T09:05:00Z</time>
 </trkpt>
 <trkpt lat="47.630997" lon="13.368732">
 <ele>900.16</ele>
 <time>2011-09-13T09:05:04Z</time>
 </trkpt>
 <trkpt lat="47.631054" lon="13.368815">
 <ele>900.52</ele>
 <time>2011-09-13T09:05:07Z</time>
 </trkpt>
 <trkpt lat="47.631081" lon="13.368854">
 <ele>900.95</ele>
 <time>2011-09-13T09:05:11Z</time>
 </trkpt>
 <trkpt lat="47.631111" lon="13.368899">
 <ele>901.73</ele>
 <time>2011-09-13T09:05:17Z</time>
 </trkpt>
 <trkpt lat="47.631165" lon="13.368959">
 <ele>902.03</ele>
 <time>2011-09-13T09:05:22Z</time>
 </trkpt>
 <trkpt lat="47.631222" lon="13.369022">
 <ele>902.73</ele>
 <time>2011-09-13T09:05:28Z</time>
 </trkpt>
 <trkpt lat="47.631271" lon="13.369153">
 <ele>903.23</ele>
 <time>2011-09-13T09:05:32Z</time>
 </trkpt>
 <trkpt lat="47.631302" lon="13.369274">
 <ele>904.04</ele>
 <time>2011-09-13T09:05:38Z</time>
 </trkpt>
 <trkpt lat="47.631325" lon="13.369334">
 <ele>904.78</ele>
 <time>2011-09-13T09:05:43Z</time>
 </trkpt>
 <trkpt lat="47.631371" lon="13.369421">
 <ele>905.24</ele>
 <time>2011-09-13T09:05:48Z</time>
 </trkpt>
 <trkpt lat="47.631428" lon="13.369524">
 <ele>906.03</ele>
 <time>2011-09-13T09:05:54Z</time>
 </trkpt>
 <trkpt lat="47.631489" lon="13.369664">
 <ele>906.68</ele>
 <time>2011-09-13T09:06:01Z</time>
 </trkpt>
 <trkpt lat="47.631523" lon="13.369748">
 <ele>907.48</ele>
 <time>2011-09-13T09:06:06Z</time>
 </trkpt>
 <trkpt lat="47.631580" lon="13.369882">
 <ele>908.13</ele>
 <time>2011-09-13T09:06:13Z</time>
 </trkpt>
 <trkpt lat="47.631641" lon="13.370008">
 <ele>909.13</ele>
 <time>2011-09-13T09:06:20Z</time>
 </trkpt>
 <trkpt lat="47.631718" lon="13.370123">
 <ele>910.16</ele>
 <time>2011-09-13T09:06:28Z</time>
 </trkpt>
 <trkpt lat="47.631798" lon="13.370221">
 <ele>911.02</ele>
 <time>2011-09-13T09:06:35Z</time>
 </trkpt>
 <trkpt lat="47.631836" lon="13.370255">
 <ele>911.78</ele>
 <time>2011-09-13T09:06:40Z</time>
 </trkpt>
 <trkpt lat="47.631882" lon="13.370292">
 <ele>912.47</ele>
 <time>2011-09-13T09:06:45Z</time>
 </trkpt>
 <trkpt lat="47.631969" lon="13.370400">
 <ele>913.11</ele>
 <time>2011-09-13T09:06:51Z</time>
 </trkpt>
 <trkpt lat="47.632046" lon="13.370553">
 <ele>913.81</ele>
 <time>2011-09-13T09:06:59Z</time>
 </trkpt>
 <trkpt lat="47.632061" lon="13.370610">
 <ele>914.04</ele>
 <time>2011-09-13T09:07:02Z</time>
 </trkpt>
 <trkpt lat="47.632133" lon="13.370837">
 <ele>914.93</ele>
 <time>2011-09-13T09:07:10Z</time>
 </trkpt>
 <trkpt lat="47.632210" lon="13.370980">
 <ele>915.76</ele>
 <time>2011-09-13T09:07:18Z</time>
 </trkpt>
 <trkpt lat="47.632263" lon="13.371097">
 <ele>916.73</ele>
 <time>2011-09-13T09:07:27Z</time>
 </trkpt>
 <trkpt lat="47.632320" lon="13.371232">
 <ele>917.84</ele>
 <time>2011-09-13T09:07:35Z</time>
 </trkpt>
 <trkpt lat="47.632359" lon="13.371443">
 <ele>918.99</ele>
 <time>2011-09-13T09:07:45Z</time>
 </trkpt>
 <trkpt lat="47.632420" lon="13.371575">
 <ele>919.90</ele>
 <time>2011-09-13T09:07:52Z</time>
 </trkpt>
 <trkpt lat="47.632462" lon="13.371651">
 <ele>920.67</ele>
 <time>2011-09-13T09:07:58Z</time>
 </trkpt>
 <trkpt lat="47.632492" lon="13.371700">
 <ele>921.13</ele>
 <time>2011-09-13T09:08:02Z</time>
 </trkpt>
 <trkpt lat="47.632565" lon="13.371790">
 <ele>922.03</ele>
 <time>2011-09-13T09:08:10Z</time>
 </trkpt>
 <trkpt lat="47.632648" lon="13.371909">
 <ele>923.01</ele>
 <time>2011-09-13T09:08:19Z</time>
 </trkpt>
 <trkpt lat="47.632717" lon="13.372024">
 <ele>924.01</ele>
 <time>2011-09-13T09:08:27Z</time>
 </trkpt>
 <trkpt lat="47.632778" lon="13.372121">
 <ele>924.84</ele>
 <time>2011-09-13T09:08:34Z</time>
 </trkpt>
 <trkpt lat="47.632874" lon="13.372267">
 <ele>925.97</ele>
 <time>2011-09-13T09:08:44Z</time>
 </trkpt>
 <trkpt lat="47.632942" lon="13.372334">
 <ele>926.78</ele>
 <time>2011-09-13T09:08:52Z</time>
 </trkpt>
 <trkpt lat="47.633011" lon="13.372402">
 <ele>927.81</ele>
 <time>2011-09-13T09:09:01Z</time>
 </trkpt>
 <trkpt lat="47.633095" lon="13.372502">
 <ele>928.66</ele>
 <time>2011-09-13T09:09:09Z</time>
 </trkpt>
 <trkpt lat="47.633141" lon="13.372560">
 <ele>929.77</ele>
 <time>2011-09-13T09:09:16Z</time>
 </trkpt>
 <trkpt lat="47.633163" lon="13.372589">
 <ele>930.39</ele>
 <time>2011-09-13T09:09:20Z</time>
 </trkpt>
 <trkpt lat="47.633175" lon="13.372602">
 <ele>930.57</ele>
 <time>2011-09-13T09:09:22Z</time>
 </trkpt>
 <trkpt lat="47.633186" lon="13.372619">
 <ele>931.43</ele>
 <time>2011-09-13T09:09:27Z</time>
 </trkpt>
 <trkpt lat="47.633247" lon="13.372690">
 <ele>931.85</ele>
 <time>2011-09-13T09:09:31Z</time>
 </trkpt>
 <trkpt lat="47.633282" lon="13.372728">
 <ele>932.09</ele>
 <time>2011-09-13T09:09:34Z</time>
 </trkpt>
 <trkpt lat="47.633369" lon="13.372819">
 <ele>933.16</ele>
 <time>2011-09-13T09:09:41Z</time>
 </trkpt>
 <trkpt lat="47.633423" lon="13.372852">
 <ele>934.08</ele>
 <time>2011-09-13T09:09:46Z</time>
 </trkpt>
 <trkpt lat="47.633450" lon="13.372871">
 <ele>934.52</ele>
 <time>2011-09-13T09:09:50Z</time>
 </trkpt>
 <trkpt lat="47.633495" lon="13.372898">
 <ele>935.15</ele>
 <time>2011-09-13T09:09:54Z</time>
 </trkpt>
 <trkpt lat="47.633537" lon="13.372943">
 <ele>935.87</ele>
 <time>2011-09-13T09:09:59Z</time>
 </trkpt>
 <trkpt lat="47.633537" lon="13.372943">
 <ele>936.01</ele>
 <time>2011-09-13T09:10:00Z</time>
 </trkpt>
 <trkpt lat="47.633575" lon="13.373019">
 <ele>937.48</ele>
 <time>2011-09-13T09:10:09Z</time>
 </trkpt>
 <trkpt lat="47.633583" lon="13.373036">
 <ele>938.46</ele>
 <time>2011-09-13T09:10:15Z</time>
 </trkpt>
 <trkpt lat="47.633595" lon="13.373061">
 <ele>939.05</ele>
 <time>2011-09-13T09:10:18Z</time>
 </trkpt>
 <trkpt lat="47.633595" lon="13.373061">
 <ele>939.50</ele>
 <time>2011-09-13T09:10:21Z</time>
 </trkpt>
 <trkpt lat="47.633671" lon="13.373190">
 <ele>940.16</ele>
 <time>2011-09-13T09:10:25Z</time>
 </trkpt>
 <trkpt lat="47.633816" lon="13.373356">
 <ele>940.85</ele>
 <time>2011-09-13T09:10:31Z</time>
 </trkpt>
 <trkpt lat="47.633919" lon="13.373414">
 <ele>942.03</ele>
 <time>2011-09-13T09:10:38Z</time>
 </trkpt>
 <trkpt lat="47.633919" lon="13.373414">
 <ele>943.25</ele>
 <time>2011-09-13T09:10:47Z</time>
 </trkpt>
 <trkpt lat="47.633999" lon="13.373453">
 <ele>944.24</ele>
 <time>2011-09-13T09:10:53Z</time>
 </trkpt>
 <trkpt lat="47.634007" lon="13.373678">
 <ele>944.55</ele>
 <time>2011-09-13T09:10:55Z</time>
 </trkpt>
 <trkpt lat="47.634132" lon="13.373538">
 <ele>944.97</ele>
 <time>2011-09-13T09:10:59Z</time>
 </trkpt>
 <trkpt lat="47.634178" lon="13.373579">
 <ele>946.25</ele>
 <time>2011-09-13T09:11:04Z</time>
 </trkpt>
 <trkpt lat="47.634312" lon="13.373738">
 <ele>947.18</ele>
 <time>2011-09-13T09:11:11Z</time>
 </trkpt>
 <trkpt lat="47.634357" lon="13.373802">
 <ele>948.15</ele>
 <time>2011-09-13T09:11:18Z</time>
 </trkpt>
 <trkpt lat="47.634357" lon="13.373802">
 <ele>948.29</ele>
 <time>2011-09-13T09:11:20Z</time>
 </trkpt>
 <trkpt lat="47.634380" lon="13.373838">
 <ele>949.05</ele>
 <time>2011-09-13T09:11:26Z</time>
 </trkpt>
 <trkpt lat="47.634464" lon="13.373952">
 <ele>949.92</ele>
 <time>2011-09-13T09:11:32Z</time>
 </trkpt>
 <trkpt lat="47.634510" lon="13.374009">
 <ele>950.64</ele>
 <time>2011-09-13T09:11:37Z</time>
 </trkpt>
 <trkpt lat="47.634674" lon="13.374173">
 <ele>953.52</ele>
 <time>2011-09-13T09:12:00Z</time>
 </trkpt>
 <trkpt lat="47.634724" lon="13.374225">
 <ele>954.43</ele>
 <time>2011-09-13T09:12:07Z</time>
 </trkpt>
 <trkpt lat="47.634941" lon="13.374683">
 <ele>956.23</ele>
 <time>2011-09-13T09:12:30Z</time>
 </trkpt>
 <trkpt lat="47.634983" lon="13.374785">
 <ele>956.33</ele>
 <time>2011-09-13T09:12:40Z</time>
 </trkpt>
 <trkpt lat="47.635044" lon="13.374852">
 <ele>956.83</ele>
 <time>2011-09-13T09:13:51Z</time>
 </trkpt>
 <trkpt lat="47.635033" lon="13.374842">
 <ele>956.62</ele>
 <time>2011-09-13T09:13:55Z</time>
 </trkpt>
 <trkpt lat="47.635033" lon="13.374842">
 <ele>956.68</ele>
 <time>2011-09-13T09:14:07Z</time>
 </trkpt>
 <trkpt lat="47.634739" lon="13.375228">
 <ele>956.81</ele>
 <time>2011-09-13T09:14:14Z</time>
 </trkpt>
 <trkpt lat="47.634773" lon="13.375261">
 <ele>957.28</ele>
 <time>2011-09-13T09:14:17Z</time>
 </trkpt>
 <trkpt lat="47.634689" lon="13.375226">
 <ele>957.64</ele>
 <time>2011-09-13T09:14:23Z</time>
 </trkpt>
 <trkpt lat="47.634689" lon="13.375231">
 <ele>957.78</ele>
 <time>2011-09-13T09:14:24Z</time>
 </trkpt>
 <trkpt lat="47.634933" lon="13.375400">
 <ele>958.67</ele>
 <time>2011-09-13T09:14:40Z</time>
 </trkpt>
 <trkpt lat="47.634960" lon="13.375427">
 <ele>958.71</ele>
 <time>2011-09-13T09:14:43Z</time>
 </trkpt>
 <trkpt lat="47.634968" lon="13.375436">
 <ele>958.72</ele>
 <time>2011-09-13T09:14:44Z</time>
 </trkpt>
 <trkpt lat="47.634998" lon="13.375482">
 <ele>959.14</ele>
 <time>2011-09-13T09:15:01Z</time>
 </trkpt>
 <trkpt lat="47.635128" lon="13.375584">
 <ele>959.74</ele>
 <time>2011-09-13T09:15:29Z</time>
 </trkpt>
 <trkpt lat="47.635132" lon="13.375587">
 <ele>959.72</ele>
 <time>2011-09-13T09:15:30Z</time>
 </trkpt>
 <trkpt lat="47.635136" lon="13.375590">
 <ele>959.73</ele>
 <time>2011-09-13T09:15:31Z</time>
 </trkpt>
 <trkpt lat="47.635147" lon="13.375604">
 <ele>959.81</ele>
 <time>2011-09-13T09:15:34Z</time>
 </trkpt>
 <trkpt lat="47.635223" lon="13.375688">
 <ele>959.83</ele>
 <time>2011-09-13T09:15:45Z</time>
 </trkpt>
 <trkpt lat="47.635235" lon="13.375706">
 <ele>959.88</ele>
 <time>2011-09-13T09:15:49Z</time>
 </trkpt>
 <trkpt lat="47.635113" lon="13.375693">
 <ele>959.74</ele>
 <time>2011-09-13T09:16:03Z</time>
 </trkpt>
 <trkpt lat="47.635052" lon="13.375708">
 <ele>960.11</ele>
 <time>2011-09-13T09:16:09Z</time>
 </trkpt>
 <trkpt lat="47.635029" lon="13.375714">
 <ele>960.34</ele>
 <time>2011-09-13T09:16:12Z</time>
 </trkpt>
 <trkpt lat="47.634998" lon="13.375722">
 <ele>960.86</ele>
 <time>2011-09-13T09:16:17Z</time>
 </trkpt>
 <trkpt lat="47.634930" lon="13.375731">
 <ele>961.53</ele>
 <time>2011-09-13T09:16:25Z</time>
 </trkpt>
 <trkpt lat="47.634857" lon="13.375740">
 <ele>962.57</ele>
 <time>2011-09-13T09:16:33Z</time>
 </trkpt>
 <trkpt lat="47.634781" lon="13.375746">
 <ele>963.44</ele>
 <time>2011-09-13T09:16:41Z</time>
 </trkpt>
 <trkpt lat="47.634686" lon="13.375734">
 <ele>964.67</ele>
 <time>2011-09-13T09:16:49Z</time>
 </trkpt>
 <trkpt lat="47.634567" lon="13.375721">
 <ele>966.00</ele>
 <time>2011-09-13T09:16:59Z</time>
 </trkpt>
 <trkpt lat="47.634506" lon="13.375714">
 <ele>966.76</ele>
 <time>2011-09-13T09:17:05Z</time>
 </trkpt>
 <trkpt lat="47.634399" lon="13.375715">
 <ele>967.93</ele>
 <time>2011-09-13T09:17:13Z</time>
 </trkpt>
 <trkpt lat="47.634396" lon="13.375718">
 <ele>968.42</ele>
 <time>2011-09-13T09:17:16Z</time>
 </trkpt>
 <trkpt lat="47.634342" lon="13.375746">
 <ele>969.27</ele>
 <time>2011-09-13T09:17:25Z</time>
 </trkpt>
 <trkpt lat="47.634209" lon="13.375760">
 <ele>970.22</ele>
 <time>2011-09-13T09:17:33Z</time>
 </trkpt>
 <trkpt lat="47.634102" lon="13.375684">
 <ele>971.31</ele>
 <time>2011-09-13T09:17:42Z</time>
 </trkpt>
 <trkpt lat="47.633980" lon="13.375596">
 <ele>971.85</ele>
 <time>2011-09-13T09:17:52Z</time>
 </trkpt>
 <trkpt lat="47.633862" lon="13.375566">
 <ele>972.76</ele>
 <time>2011-09-13T09:18:02Z</time>
 </trkpt>
 <trkpt lat="47.633797" lon="13.375558">
 <ele>973.45</ele>
 <time>2011-09-13T09:18:07Z</time>
 </trkpt>
 <trkpt lat="47.633713" lon="13.375549">
 <ele>974.39</ele>
 <time>2011-09-13T09:18:13Z</time>
 </trkpt>
 <trkpt lat="47.633663" lon="13.375544">
 <ele>974.77</ele>
 <time>2011-09-13T09:18:17Z</time>
 </trkpt>
 <trkpt lat="47.633537" lon="13.375536">
 <ele>975.69</ele>
 <time>2011-09-13T09:18:27Z</time>
 </trkpt>
 <trkpt lat="47.633400" lon="13.375551">
 <ele>977.19</ele>
 <time>2011-09-13T09:18:38Z</time>
 </trkpt>
 <trkpt lat="47.633305" lon="13.375571">
 <ele>977.91</ele>
 <time>2011-09-13T09:18:46Z</time>
 </trkpt>
 <trkpt lat="47.633183" lon="13.375599">
 <ele>978.83</ele>
 <time>2011-09-13T09:18:56Z</time>
 </trkpt>
 <trkpt lat="47.633068" lon="13.375612">
 <ele>979.87</ele>
 <time>2011-09-13T09:19:06Z</time>
 </trkpt>
 <trkpt lat="47.632977" lon="13.375622">
 <ele>980.75</ele>
 <time>2011-09-13T09:19:14Z</time>
 </trkpt>
 <trkpt lat="47.632889" lon="13.375633">
 <ele>981.54</ele>
 <time>2011-09-13T09:19:21Z</time>
 </trkpt>
 <trkpt lat="47.632820" lon="13.375644">
 <ele>982.34</ele>
 <time>2011-09-13T09:19:27Z</time>
 </trkpt>
 <trkpt lat="47.632706" lon="13.375668">
 <ele>983.07</ele>
 <time>2011-09-13T09:19:37Z</time>
 </trkpt>
 <trkpt lat="47.632584" lon="13.375676">
 <ele>984.22</ele>
 <time>2011-09-13T09:19:47Z</time>
 </trkpt>
 <trkpt lat="47.632465" lon="13.375659">
 <ele>985.16</ele>
 <time>2011-09-13T09:19:57Z</time>
 </trkpt>
 <trkpt lat="47.632385" lon="13.375618">
 <ele>986.20</ele>
 <time>2011-09-13T09:20:04Z</time>
 </trkpt>
 <trkpt lat="47.632286" lon="13.375565">
 <ele>987.46</ele>
 <time>2011-09-13T09:20:13Z</time>
 </trkpt>
 <trkpt lat="47.632175" lon="13.375482">
 <ele>988.53</ele>
 <time>2011-09-13T09:20:22Z</time>
 </trkpt>
 <trkpt lat="47.632099" lon="13.375423">
 <ele>989.66</ele>
 <time>2011-09-13T09:20:29Z</time>
 </trkpt>
 <trkpt lat="47.632011" lon="13.375346">
 <ele>990.48</ele>
 <time>2011-09-13T09:20:36Z</time>
 </trkpt>
 <trkpt lat="47.631916" lon="13.375249">
 <ele>991.44</ele>
 <time>2011-09-13T09:20:43Z</time>
 </trkpt>
 <trkpt lat="47.631855" lon="13.375178">
 <ele>992.11</ele>
 <time>2011-09-13T09:20:50Z</time>
 </trkpt>
 <trkpt lat="47.631809" lon="13.375124">
 <ele>992.78</ele>
 <time>2011-09-13T09:20:56Z</time>
 </trkpt>
 <trkpt lat="47.631767" lon="13.375077">
 <ele>993.23</ele>
 <time>2011-09-13T09:21:02Z</time>
 </trkpt>
 <trkpt lat="47.631741" lon="13.375046">
 <ele>993.66</ele>
 <time>2011-09-13T09:21:08Z</time>
 </trkpt>
 <trkpt lat="47.631683" lon="13.374984">
 <ele>994.55</ele>
 <time>2011-09-13T09:21:16Z</time>
 </trkpt>
 <trkpt lat="47.631573" lon="13.374924">
 <ele>995.64</ele>
 <time>2011-09-13T09:21:25Z</time>
 </trkpt>
 <trkpt lat="47.631462" lon="13.374926">
 <ele>995.97</ele>
 <time>2011-09-13T09:21:28Z</time>
 </trkpt>
 <trkpt lat="47.631351" lon="13.375019">
 <ele>996.82</ele>
 <time>2011-09-13T09:21:36Z</time>
 </trkpt>
 <trkpt lat="47.631306" lon="13.375118">
 <ele>997.29</ele>
 <time>2011-09-13T09:21:41Z</time>
 </trkpt>
 <trkpt lat="47.631290" lon="13.375254">
 <ele>997.57</ele>
 <time>2011-09-13T09:21:44Z</time>
 </trkpt>
 <trkpt lat="47.631290" lon="13.375254">
 <ele>998.21</ele>
 <time>2011-09-13T09:21:52Z</time>
 </trkpt>
 <trkpt lat="47.631290" lon="13.375254">
 <ele>998.83</ele>
 <time>2011-09-13T09:21:57Z</time>
 </trkpt>
 <trkpt lat="47.631130" lon="13.375544">
 <ele>999.33</ele>
 <time>2011-09-13T09:22:04Z</time>
 </trkpt>
 <trkpt lat="47.631107" lon="13.375551">
 <ele>999.62</ele>
 <time>2011-09-13T09:22:07Z</time>
 </trkpt>
 <trkpt lat="47.631069" lon="13.375564">
 <ele>1000.07</ele>
 <time>2011-09-13T09:22:12Z</time>
 </trkpt>
 <trkpt lat="47.630951" lon="13.375576">
 <ele>1000.82</ele>
 <time>2011-09-13T09:22:20Z</time>
 </trkpt>
 <trkpt lat="47.630836" lon="13.375578">
 <ele>1001.79</ele>
 <time>2011-09-13T09:22:28Z</time>
 </trkpt>
 <trkpt lat="47.630791" lon="13.375583">
 <ele>1002.67</ele>
 <time>2011-09-13T09:22:34Z</time>
 </trkpt>
 <trkpt lat="47.630714" lon="13.375592">
 <ele>1003.02</ele>
 <time>2011-09-13T09:22:38Z</time>
 </trkpt>
 <trkpt lat="47.630642" lon="13.375627">
 <ele>1003.77</ele>
 <time>2011-09-13T09:22:45Z</time>
 </trkpt>
 <trkpt lat="47.630569" lon="13.375710">
 <ele>1004.42</ele>
 <time>2011-09-13T09:22:52Z</time>
 </trkpt>
 <trkpt lat="47.630520" lon="13.375769">
 <ele>1005.26</ele>
 <time>2011-09-13T09:22:59Z</time>
 </trkpt>
 <trkpt lat="47.630520" lon="13.375865">
 <ele>1006.15</ele>
 <time>2011-09-13T09:23:04Z</time>
 </trkpt>
 <trkpt lat="47.630520" lon="13.375914">
 <ele>1007.17</ele>
 <time>2011-09-13T09:23:10Z</time>
 </trkpt>
 <trkpt lat="47.630520" lon="13.375914">
 <ele>1007.30</ele>
 <time>2011-09-13T09:23:11Z</time>
 </trkpt>
 <trkpt lat="47.630520" lon="13.376000">
 <ele>1007.76</ele>
 <time>2011-09-13T09:23:15Z</time>
 </trkpt>
 <trkpt lat="47.630524" lon="13.376033">
 <ele>1008.04</ele>
 <time>2011-09-13T09:23:19Z</time>
 </trkpt>
 <trkpt lat="47.630569" lon="13.376113">
 <ele>1008.47</ele>
 <time>2011-09-13T09:23:23Z</time>
 </trkpt>
 <trkpt lat="47.630634" lon="13.376222">
 <ele>1009.34</ele>
 <time>2011-09-13T09:23:31Z</time>
 </trkpt>
 <trkpt lat="47.630665" lon="13.376311">
 <ele>1009.70</ele>
 <time>2011-09-13T09:23:36Z</time>
 </trkpt>
 <trkpt lat="47.630688" lon="13.376384">
 <ele>1010.11</ele>
 <time>2011-09-13T09:23:39Z</time>
 </trkpt>
 <trkpt lat="47.630684" lon="13.376598">
 <ele>1010.67</ele>
 <time>2011-09-13T09:23:46Z</time>
 </trkpt>
 <trkpt lat="47.630672" lon="13.376640">
 <ele>1010.82</ele>
 <time>2011-09-13T09:23:49Z</time>
 </trkpt>
 <trkpt lat="47.630657" lon="13.376828">
 <ele>1011.72</ele>
 <time>2011-09-13T09:23:56Z</time>
 </trkpt>
 <trkpt lat="47.630669" lon="13.376880">
 <ele>1012.10</ele>
 <time>2011-09-13T09:24:00Z</time>
 </trkpt>
 <trkpt lat="47.630695" lon="13.377031">
 <ele>1012.77</ele>
 <time>2011-09-13T09:24:08Z</time>
 </trkpt>
 <trkpt lat="47.630703" lon="13.377045">
 <ele>1013.05</ele>
 <time>2011-09-13T09:24:13Z</time>
 </trkpt>
 <trkpt lat="47.630730" lon="13.377099">
 <ele>1013.55</ele>
 <time>2011-09-13T09:24:16Z</time>
 </trkpt>
 <trkpt lat="47.630791" lon="13.377232">
 <ele>1014.61</ele>
 <time>2011-09-13T09:24:23Z</time>
 </trkpt>
 <trkpt lat="47.630821" lon="13.377308">
 <ele>1014.99</ele>
 <time>2011-09-13T09:24:27Z</time>
 </trkpt>
 <trkpt lat="47.630829" lon="13.377327">
 <ele>1015.08</ele>
 <time>2011-09-13T09:24:28Z</time>
 </trkpt>
 <trkpt lat="47.630890" lon="13.377478">
 <ele>1015.60</ele>
 <time>2011-09-13T09:24:35Z</time>
 </trkpt>
 <trkpt lat="47.630920" lon="13.377536">
 <ele>1016.24</ele>
 <time>2011-09-13T09:24:39Z</time>
 </trkpt>
 <trkpt lat="47.630955" lon="13.377594">
 <ele>1016.67</ele>
 <time>2011-09-13T09:24:42Z</time>
 </trkpt>
 <trkpt lat="47.630970" lon="13.377625">
 <ele>1017.31</ele>
 <time>2011-09-13T09:24:48Z</time>
 </trkpt>
 <trkpt lat="47.631035" lon="13.377731">
 <ele>1017.82</ele>
 <time>2011-09-13T09:24:52Z</time>
 </trkpt>
 <trkpt lat="47.631058" lon="13.377767">
 <ele>1018.60</ele>
 <time>2011-09-13T09:24:59Z</time>
 </trkpt>
 <trkpt lat="47.631168" lon="13.377948">
 <ele>1019.39</ele>
 <time>2011-09-13T09:25:05Z</time>
 </trkpt>
 <trkpt lat="47.631199" lon="13.378008">
 <ele>1019.99</ele>
 <time>2011-09-13T09:25:10Z</time>
 </trkpt>
 <trkpt lat="47.631210" lon="13.378032">
 <ele>1020.28</ele>
 <time>2011-09-13T09:25:12Z</time>
 </trkpt>
 <trkpt lat="47.631271" lon="13.378154">
 <ele>1021.67</ele>
 <time>2011-09-13T09:25:20Z</time>
 </trkpt>
 <trkpt lat="47.631336" lon="13.378284">
 <ele>1022.52</ele>
 <time>2011-09-13T09:25:27Z</time>
 </trkpt>
 <trkpt lat="47.631424" lon="13.378437">
 <ele>1023.55</ele>
 <time>2011-09-13T09:25:35Z</time>
 </trkpt>
 <trkpt lat="47.631508" lon="13.378556">
 <ele>1023.99</ele>
 <time>2011-09-13T09:25:41Z</time>
 </trkpt>
 <trkpt lat="47.631584" lon="13.378614">
 <ele>1024.73</ele>
 <time>2011-09-13T09:25:47Z</time>
 </trkpt>
 <trkpt lat="47.631611" lon="13.378631">
 <ele>1025.09</ele>
 <time>2011-09-13T09:25:51Z</time>
 </trkpt>
 <trkpt lat="47.631657" lon="13.378708">
 <ele>1025.58</ele>
 <time>2011-09-13T09:25:58Z</time>
 </trkpt>
 <trkpt lat="47.631676" lon="13.378937">
 <ele>1026.20</ele>
 <time>2011-09-13T09:26:05Z</time>
 </trkpt>
 <trkpt lat="47.631668" lon="13.379060">
 <ele>1026.56</ele>
 <time>2011-09-13T09:26:09Z</time>
 </trkpt>
 <trkpt lat="47.631657" lon="13.379280">
 <ele>1027.23</ele>
 <time>2011-09-13T09:26:17Z</time>
 </trkpt>
 <trkpt lat="47.631657" lon="13.379306">
 <ele>1027.41</ele>
 <time>2011-09-13T09:26:18Z</time>
 </trkpt>
 <trkpt lat="47.631657" lon="13.379453">
 <ele>1027.97</ele>
 <time>2011-09-13T09:26:24Z</time>
 </trkpt>
 <trkpt lat="47.631626" lon="13.379672">
 <ele>1028.43</ele>
 <time>2011-09-13T09:26:31Z</time>
 </trkpt>
 <trkpt lat="47.631622" lon="13.379842">
 <ele>1029.31</ele>
 <time>2011-09-13T09:26:38Z</time>
 </trkpt>
 <trkpt lat="47.631630" lon="13.379890">
 <ele>1029.53</ele>
 <time>2011-09-13T09:26:40Z</time>
 </trkpt>
 <trkpt lat="47.631645" lon="13.379995">
 <ele>1029.92</ele>
 <time>2011-09-13T09:26:44Z</time>
 </trkpt>
 <trkpt lat="47.631668" lon="13.380232">
 <ele>1030.51</ele>
 <time>2011-09-13T09:26:52Z</time>
 </trkpt>
 <trkpt lat="47.631672" lon="13.380421">
 <ele>1030.84</ele>
 <time>2011-09-13T09:26:58Z</time>
 </trkpt>
 <trkpt lat="47.631664" lon="13.380506">
 <ele>1031.12</ele>
 <time>2011-09-13T09:27:01Z</time>
 </trkpt>
 <trkpt lat="47.631657" lon="13.380603">
 <ele>1031.63</ele>
 <time>2011-09-13T09:27:05Z</time>
 </trkpt>
 <trkpt lat="47.631630" lon="13.380809">
 <ele>1032.93</ele>
 <time>2011-09-13T09:27:12Z</time>
 </trkpt>
 <trkpt lat="47.631607" lon="13.381013">
 <ele>1033.67</ele>
 <time>2011-09-13T09:27:20Z</time>
 </trkpt>
 <trkpt lat="47.631592" lon="13.381248">
 <ele>1034.85</ele>
 <time>2011-09-13T09:27:28Z</time>
 </trkpt>
 <trkpt lat="47.631618" lon="13.381494">
 <ele>1035.77</ele>
 <time>2011-09-13T09:27:36Z</time>
 </trkpt>
 <trkpt lat="47.631683" lon="13.381649">
 <ele>1036.79</ele>
 <time>2011-09-13T09:27:43Z</time>
 </trkpt>
 <trkpt lat="47.631741" lon="13.381802">
 <ele>1037.76</ele>
 <time>2011-09-13T09:27:50Z</time>
 </trkpt>
 <trkpt lat="47.631813" lon="13.382005">
 <ele>1038.44</ele>
 <time>2011-09-13T09:27:59Z</time>
 </trkpt>
 <trkpt lat="47.631889" lon="13.382173">
 <ele>1039.65</ele>
 <time>2011-09-13T09:28:07Z</time>
 </trkpt>
 <trkpt lat="47.631958" lon="13.382287">
 <ele>1040.44</ele>
 <time>2011-09-13T09:28:13Z</time>
 </trkpt>
 <trkpt lat="47.632057" lon="13.382420">
 <ele>1041.40</ele>
 <time>2011-09-13T09:28:21Z</time>
 </trkpt>
 <trkpt lat="47.632133" lon="13.382530">
 <ele>1042.07</ele>
 <time>2011-09-13T09:28:28Z</time>
 </trkpt>
 <trkpt lat="47.632214" lon="13.382653">
 <ele>1043.11</ele>
 <time>2011-09-13T09:28:36Z</time>
 </trkpt>
 <trkpt lat="47.632317" lon="13.382822">
 <ele>1044.58</ele>
 <time>2011-09-13T09:28:46Z</time>
 </trkpt>
 <trkpt lat="47.632385" lon="13.383022">
 <ele>1045.70</ele>
 <time>2011-09-13T09:28:55Z</time>
 </trkpt>
 <trkpt lat="47.632412" lon="13.383169">
 <ele>1046.31</ele>
 <time>2011-09-13T09:29:02Z</time>
 </trkpt>
 <trkpt lat="47.632427" lon="13.383359">
 <ele>1047.50</ele>
 <time>2011-09-13T09:29:11Z</time>
 </trkpt>
 <trkpt lat="47.632427" lon="13.383539">
 <ele>1048.48</ele>
 <time>2011-09-13T09:29:19Z</time>
 </trkpt>
 <trkpt lat="47.632435" lon="13.383755">
 <ele>1049.48</ele>
 <time>2011-09-13T09:29:29Z</time>
 </trkpt>
 <trkpt lat="47.632450" lon="13.383935">
 <ele>1050.61</ele>
 <time>2011-09-13T09:29:39Z</time>
 </trkpt>
 <trkpt lat="47.632450" lon="13.384111">
 <ele>1051.55</ele>
 <time>2011-09-13T09:29:47Z</time>
 </trkpt>
 <trkpt lat="47.632439" lon="13.384341">
 <ele>1052.84</ele>
 <time>2011-09-13T09:29:57Z</time>
 </trkpt>
 <trkpt lat="47.632412" lon="13.384550">
 <ele>1053.89</ele>
 <time>2011-09-13T09:30:05Z</time>
 </trkpt>
 <trkpt lat="47.632389" lon="13.384647">
 <ele>1054.80</ele>
 <time>2011-09-13T09:30:09Z</time>
 </trkpt>
 <trkpt lat="47.632362" lon="13.384779">
 <ele>1055.45</ele>
 <time>2011-09-13T09:30:15Z</time>
 </trkpt>
 <trkpt lat="47.632362" lon="13.384916">
 <ele>1056.35</ele>
 <time>2011-09-13T09:30:22Z</time>
 </trkpt>
 <trkpt lat="47.632362" lon="13.384991">
 <ele>1056.47</ele>
 <time>2011-09-13T09:30:25Z</time>
 </trkpt>
 <trkpt lat="47.632385" lon="13.385154">
 <ele>1057.16</ele>
 <time>2011-09-13T09:30:32Z</time>
 </trkpt>
 <trkpt lat="47.632401" lon="13.385346">
 <ele>1058.34</ele>
 <time>2011-09-13T09:30:40Z</time>
 </trkpt>
 <trkpt lat="47.632385" lon="13.385531">
 <ele>1058.92</ele>
 <time>2011-09-13T09:30:47Z</time>
 </trkpt>
 <trkpt lat="47.632366" lon="13.385740">
 <ele>1059.47</ele>
 <time>2011-09-13T09:30:55Z</time>
 </trkpt>
 <trkpt lat="47.632351" lon="13.385979">
 <ele>1060.66</ele>
 <time>2011-09-13T09:31:04Z</time>
 </trkpt>
 <trkpt lat="47.632355" lon="13.386176">
 <ele>1061.31</ele>
 <time>2011-09-13T09:31:12Z</time>
 </trkpt>
 <trkpt lat="47.632385" lon="13.386363">
 <ele>1061.44</ele>
 <time>2011-09-13T09:31:19Z</time>
 </trkpt>
 <trkpt lat="47.632397" lon="13.386654">
 <ele>1061.97</ele>
 <time>2011-09-13T09:31:26Z</time>
 </trkpt>
 <trkpt lat="47.632481" lon="13.387033">
 <ele>1062.14</ele>
 <time>2011-09-13T09:31:36Z</time>
 </trkpt>
 <trkpt lat="47.632557" lon="13.387378">
 <ele>1062.19</ele>
 <time>2011-09-13T09:31:45Z</time>
 </trkpt>
 <trkpt lat="47.632614" lon="13.387661">
 <ele>1062.77</ele>
 <time>2011-09-13T09:31:53Z</time>
 </trkpt>
 <trkpt lat="47.632679" lon="13.388055">
 <ele>1063.10</ele>
 <time>2011-09-13T09:32:04Z</time>
 </trkpt>
 <trkpt lat="47.632736" lon="13.388327">
 <ele>1063.73</ele>
 <time>2011-09-13T09:32:12Z</time>
 </trkpt>
 <trkpt lat="47.632782" lon="13.388609">
 <ele>1064.21</ele>
 <time>2011-09-13T09:32:20Z</time>
 </trkpt>
 <trkpt lat="47.632813" lon="13.388770">
 <ele>1064.63</ele>
 <time>2011-09-13T09:32:25Z</time>
 </trkpt>
 <trkpt lat="47.632874" lon="13.389094">
 <ele>1065.04</ele>
 <time>2011-09-13T09:32:33Z</time>
 </trkpt>
 <trkpt lat="47.632935" lon="13.389405">
 <ele>1065.75</ele>
 <time>2011-09-13T09:32:41Z</time>
 </trkpt>
 <trkpt lat="47.633018" lon="13.389716">
 <ele>1065.97</ele>
 <time>2011-09-13T09:32:49Z</time>
 </trkpt>
 <trkpt lat="47.633095" lon="13.390033">
 <ele>1066.33</ele>
 <time>2011-09-13T09:32:57Z</time>
 </trkpt>
 <trkpt lat="47.633186" lon="13.390355">
 <ele>1066.52</ele>
 <time>2011-09-13T09:33:05Z</time>
 </trkpt>
 <trkpt lat="47.633266" lon="13.390720">
 <ele>1067.11</ele>
 <time>2011-09-13T09:33:15Z</time>
 </trkpt>
 <trkpt lat="47.633331" lon="13.391002">
 <ele>1067.58</ele>
 <time>2011-09-13T09:33:23Z</time>
 </trkpt>
 <trkpt lat="47.633358" lon="13.391392">
 <ele>1068.45</ele>
 <time>2011-09-13T09:33:33Z</time>
 </trkpt>
 <trkpt lat="47.633373" lon="13.391671">
 <ele>1069.36</ele>
 <time>2011-09-13T09:33:40Z</time>
 </trkpt>
 <trkpt lat="47.633373" lon="13.391885">
 <ele>1069.74</ele>
 <time>2011-09-13T09:33:46Z</time>
 </trkpt>
 <trkpt lat="47.633389" lon="13.392167">
 <ele>1070.17</ele>
 <time>2011-09-13T09:33:54Z</time>
 </trkpt>
 <trkpt lat="47.633427" lon="13.392543">
 <ele>1070.82</ele>
 <time>2011-09-13T09:34:03Z</time>
 </trkpt>
 <trkpt lat="47.633366" lon="13.392977">
 <ele>1072.14</ele>
 <time>2011-09-13T09:34:14Z</time>
 </trkpt>
 <trkpt lat="47.633293" lon="13.393231">
 <ele>1072.61</ele>
 <time>2011-09-13T09:34:21Z</time>
 </trkpt>
 <trkpt lat="47.633213" lon="13.393503">
 <ele>1073.79</ele>
 <time>2011-09-13T09:34:29Z</time>
 </trkpt>
 <trkpt lat="47.633179" lon="13.393752">
 <ele>1074.38</ele>
 <time>2011-09-13T09:34:36Z</time>
 </trkpt>
 <trkpt lat="47.633179" lon="13.394042">
 <ele>1075.17</ele>
 <time>2011-09-13T09:34:44Z</time>
 </trkpt>
 <trkpt lat="47.633221" lon="13.394318">
 <ele>1075.89</ele>
 <time>2011-09-13T09:34:52Z</time>
 </trkpt>
 <trkpt lat="47.633343" lon="13.394529">
 <ele>1076.29</ele>
 <time>2011-09-13T09:34:59Z</time>
 </trkpt>
 <trkpt lat="47.633511" lon="13.394732">
 <ele>1076.59</ele>
 <time>2011-09-13T09:35:07Z</time>
 </trkpt>
 <trkpt lat="47.633633" lon="13.394942">
 <ele>1076.66</ele>
 <time>2011-09-13T09:35:14Z</time>
 </trkpt>
 <trkpt lat="47.633720" lon="13.395273">
 <ele>1077.36</ele>
 <time>2011-09-13T09:35:23Z</time>
 </trkpt>
 <trkpt lat="47.633755" lon="13.395581">
 <ele>1077.83</ele>
 <time>2011-09-13T09:35:31Z</time>
 </trkpt>
 <trkpt lat="47.633793" lon="13.395927">
 <ele>1078.68</ele>
 <time>2011-09-13T09:35:40Z</time>
 </trkpt>
 <trkpt lat="47.633835" lon="13.396370">
 <ele>1079.39</ele>
 <time>2011-09-13T09:35:51Z</time>
 </trkpt>
 <trkpt lat="47.633884" lon="13.396691">
 <ele>1080.48</ele>
 <time>2011-09-13T09:36:00Z</time>
 </trkpt>
 <trkpt lat="47.633926" lon="13.396974">
 <ele>1080.99</ele>
 <time>2011-09-13T09:36:08Z</time>
 </trkpt>
 <trkpt lat="47.633987" lon="13.397305">
 <ele>1081.37</ele>
 <time>2011-09-13T09:36:17Z</time>
 </trkpt>
 <trkpt lat="47.634041" lon="13.397535">
 <ele>1081.73</ele>
 <time>2011-09-13T09:36:23Z</time>
 </trkpt>
 <trkpt lat="47.634148" lon="13.397904">
 <ele>1082.25</ele>
 <time>2011-09-13T09:36:33Z</time>
 </trkpt>
 <trkpt lat="47.634235" lon="13.398256">
 <ele>1082.75</ele>
 <time>2011-09-13T09:36:42Z</time>
 </trkpt>
 <trkpt lat="47.634327" lon="13.398638">
 <ele>1083.71</ele>
 <time>2011-09-13T09:36:52Z</time>
 </trkpt>
 <trkpt lat="47.634399" lon="13.398944">
 <ele>1084.13</ele>
 <time>2011-09-13T09:37:00Z</time>
 </trkpt>
 <trkpt lat="47.634491" lon="13.399258">
 <ele>1085.53</ele>
 <time>2011-09-13T09:37:09Z</time>
 </trkpt>
 <trkpt lat="47.634552" lon="13.399556">
 <ele>1086.01</ele>
 <time>2011-09-13T09:37:17Z</time>
 </trkpt>
 <trkpt lat="47.634647" lon="13.399953">
 <ele>1087.01</ele>
 <time>2011-09-13T09:37:28Z</time>
 </trkpt>
 <trkpt lat="47.634708" lon="13.400196">
 <ele>1087.74</ele>
 <time>2011-09-13T09:37:35Z</time>
 </trkpt>
 <trkpt lat="47.634773" lon="13.400465">
 <ele>1087.85</ele>
 <time>2011-09-13T09:37:42Z</time>
 </trkpt>
 <trkpt lat="47.634865" lon="13.400860">
 <ele>1088.15</ele>
 <time>2011-09-13T09:37:52Z</time>
 </trkpt>
 <trkpt lat="47.634949" lon="13.401140">
 <ele>1088.28</ele>
 <time>2011-09-13T09:37:59Z</time>
 </trkpt>
 <trkpt lat="47.635036" lon="13.401491">
 <ele>1088.23</ele>
 <time>2011-09-13T09:38:06Z</time>
 </trkpt>
 <trkpt lat="47.635094" lon="13.401821">
 <ele>1088.07</ele>
 <time>2011-09-13T09:38:13Z</time>
 </trkpt>
 <trkpt lat="47.635109" lon="13.402294">
 <ele>1088.52</ele>
 <time>2011-09-13T09:38:23Z</time>
 </trkpt>
 <trkpt lat="47.635040" lon="13.402763">
 <ele>1089.18</ele>
 <time>2011-09-13T09:38:33Z</time>
 </trkpt>
 <trkpt lat="47.634972" lon="13.403133">
 <ele>1089.30</ele>
 <time>2011-09-13T09:38:41Z</time>
 </trkpt>
 <trkpt lat="47.634888" lon="13.403409">
 <ele>1089.80</ele>
 <time>2011-09-13T09:38:48Z</time>
 </trkpt>
 <trkpt lat="47.634811" lon="13.403672">
 <ele>1091.32</ele>
 <time>2011-09-13T09:38:57Z</time>
 </trkpt>
 <trkpt lat="47.634724" lon="13.403938">
 <ele>1092.38</ele>
 <time>2011-09-13T09:39:07Z</time>
 </trkpt>
 <trkpt lat="47.634708" lon="13.404141">
 <ele>1093.20</ele>
 <time>2011-09-13T09:39:14Z</time>
 </trkpt>
 <trkpt lat="47.634689" lon="13.404397">
 <ele>1094.02</ele>
 <time>2011-09-13T09:39:23Z</time>
 </trkpt>
 <trkpt lat="47.634682" lon="13.404640">
 <ele>1095.08</ele>
 <time>2011-09-13T09:39:31Z</time>
 </trkpt>
 <trkpt lat="47.634686" lon="13.404878">
 <ele>1095.26</ele>
 <time>2011-09-13T09:39:39Z</time>
 </trkpt>
 <trkpt lat="47.634727" lon="13.405136">
 <ele>1096.02</ele>
 <time>2011-09-13T09:39:48Z</time>
 </trkpt>
 <trkpt lat="47.634846" lon="13.405420">
 <ele>1096.56</ele>
 <time>2011-09-13T09:39:58Z</time>
 </trkpt>
 <trkpt lat="47.634987" lon="13.405736">
 <ele>1096.63</ele>
 <time>2011-09-13T09:40:07Z</time>
 </trkpt>
 <trkpt lat="47.635120" lon="13.405962">
 <ele>1096.47</ele>
 <time>2011-09-13T09:40:14Z</time>
 </trkpt>
 <trkpt lat="47.635300" lon="13.406087">
 <ele>1096.80</ele>
 <time>2011-09-13T09:40:21Z</time>
 </trkpt>
 <trkpt lat="47.635448" lon="13.406140">
 <ele>1098.03</ele>
 <time>2011-09-13T09:40:28Z</time>
 </trkpt>
 <trkpt lat="47.635521" lon="13.406168">
 <ele>1098.85</ele>
 <time>2011-09-13T09:40:32Z</time>
 </trkpt>
 <trkpt lat="47.635666" lon="13.406237">
 <ele>1099.69</ele>
 <time>2011-09-13T09:40:39Z</time>
 </trkpt>
 <trkpt lat="47.635803" lon="13.406317">
 <ele>1100.08</ele>
 <time>2011-09-13T09:40:46Z</time>
 </trkpt>
 <trkpt lat="47.635918" lon="13.406388">
 <ele>1100.19</ele>
 <time>2011-09-13T09:40:52Z</time>
 </trkpt>
 <trkpt lat="47.636051" lon="13.406461">
 <ele>1100.41</ele>
 <time>2011-09-13T09:40:59Z</time>
 </trkpt>
 <trkpt lat="47.636154" lon="13.406509">
 <ele>1100.64</ele>
 <time>2011-09-13T09:41:04Z</time>
 </trkpt>
 <trkpt lat="47.636284" lon="13.406571">
 <ele>1100.78</ele>
 <time>2011-09-13T09:41:09Z</time>
 </trkpt>
 <trkpt lat="47.636406" lon="13.406664">
 <ele>1100.82</ele>
 <time>2011-09-13T09:41:14Z</time>
 </trkpt>
 <trkpt lat="47.636589" lon="13.406781">
 <ele>1101.06</ele>
 <time>2011-09-13T09:41:20Z</time>
 </trkpt>
 <trkpt lat="47.636810" lon="13.406928">
 <ele>1101.71</ele>
 <time>2011-09-13T09:41:29Z</time>
 </trkpt>
 <trkpt lat="47.636940" lon="13.407041">
 <ele>1102.19</ele>
 <time>2011-09-13T09:41:35Z</time>
 </trkpt>
 <trkpt lat="47.637089" lon="13.407253">
 <ele>1102.60</ele>
 <time>2011-09-13T09:41:44Z</time>
 </trkpt>
 <trkpt lat="47.637173" lon="13.407394">
 <ele>1103.62</ele>
 <time>2011-09-13T09:41:51Z</time>
 </trkpt>
 <trkpt lat="47.637257" lon="13.407604">
 <ele>1104.58</ele>
 <time>2011-09-13T09:41:59Z</time>
 </trkpt>
 <trkpt lat="47.637337" lon="13.407889">
 <ele>1105.34</ele>
 <time>2011-09-13T09:42:09Z</time>
 </trkpt>
 <trkpt lat="47.637417" lon="13.408156">
 <ele>1106.57</ele>
 <time>2011-09-13T09:42:19Z</time>
 </trkpt>
 <trkpt lat="47.637463" lon="13.408444">
 <ele>1108.13</ele>
 <time>2011-09-13T09:42:30Z</time>
 </trkpt>
 <trkpt lat="47.637482" lon="13.408619">
 <ele>1109.40</ele>
 <time>2011-09-13T09:42:38Z</time>
 </trkpt>
 <trkpt lat="47.637508" lon="13.408773">
 <ele>1110.69</ele>
 <time>2011-09-13T09:42:46Z</time>
 </trkpt>
 <trkpt lat="47.637501" lon="13.408944">
 <ele>1111.50</ele>
 <time>2011-09-13T09:42:53Z</time>
 </trkpt>
 <trkpt lat="47.637459" lon="13.409125">
 <ele>1112.79</ele>
 <time>2011-09-13T09:43:01Z</time>
 </trkpt>
 <trkpt lat="47.637348" lon="13.409303">
 <ele>1113.93</ele>
 <time>2011-09-13T09:43:10Z</time>
 </trkpt>
 <trkpt lat="47.637215" lon="13.409490">
 <ele>1114.20</ele>
 <time>2011-09-13T09:43:20Z</time>
 </trkpt>
 <trkpt lat="47.637100" lon="13.409677">
 <ele>1115.02</ele>
 <time>2011-09-13T09:43:29Z</time>
 </trkpt>
 <trkpt lat="47.637005" lon="13.409803">
 <ele>1115.75</ele>
 <time>2011-09-13T09:43:36Z</time>
 </trkpt>
 <trkpt lat="47.636902" lon="13.409951">
 <ele>1116.22</ele>
 <time>2011-09-13T09:43:43Z</time>
 </trkpt>
 <trkpt lat="47.636749" lon="13.410168">
 <ele>1116.95</ele>
 <time>2011-09-13T09:43:53Z</time>
 </trkpt>
 <trkpt lat="47.636665" lon="13.410259">
 <ele>1117.47</ele>
 <time>2011-09-13T09:43:59Z</time>
 </trkpt>
 <trkpt lat="47.636551" lon="13.410331">
 <ele>1117.96</ele>
 <time>2011-09-13T09:44:05Z</time>
 </trkpt>
 <trkpt lat="47.636421" lon="13.410410">
 <ele>1118.30</ele>
 <time>2011-09-13T09:44:12Z</time>
 </trkpt>
 <trkpt lat="47.636288" lon="13.410543">
 <ele>1118.46</ele>
 <time>2011-09-13T09:44:20Z</time>
 </trkpt>
 <trkpt lat="47.636185" lon="13.410761">
 <ele>1119.30</ele>
 <time>2011-09-13T09:44:29Z</time>
 </trkpt>
 <trkpt lat="47.636143" lon="13.410931">
 <ele>1119.56</ele>
 <time>2011-09-13T09:44:35Z</time>
 </trkpt>
 <trkpt lat="47.636108" lon="13.411082">
 <ele>1119.64</ele>
 <time>2011-09-13T09:44:41Z</time>
 </trkpt>
 <trkpt lat="47.636078" lon="13.411227">
 <ele>1119.47</ele>
 <time>2011-09-13T09:44:47Z</time>
 </trkpt>
 <trkpt lat="47.636051" lon="13.411358">
 <ele>1119.25</ele>
 <time>2011-09-13T09:44:52Z</time>
 </trkpt>
 <trkpt lat="47.636021" lon="13.411502">
 <ele>1119.64</ele>
 <time>2011-09-13T09:44:59Z</time>
 </trkpt>
 <trkpt lat="47.636013" lon="13.411534">
 <ele>1119.85</ele>
 <time>2011-09-13T09:45:02Z</time>
 </trkpt>
 <trkpt lat="47.636024" lon="13.411619">
 <ele>1119.02</ele>
 <time>2011-09-13T09:45:16Z</time>
 </trkpt>
 <trkpt lat="47.636047" lon="13.411806">
 <ele>1118.72</ele>
 <time>2011-09-13T09:45:22Z</time>
 </trkpt>
 <trkpt lat="47.636074" lon="13.411897">
 <ele>1118.61</ele>
 <time>2011-09-13T09:45:25Z</time>
 </trkpt>
 <trkpt lat="47.636154" lon="13.412122">
 <ele>1119.23</ele>
 <time>2011-09-13T09:45:34Z</time>
 </trkpt>
 <trkpt lat="47.636257" lon="13.412261">
 <ele>1119.02</ele>
 <time>2011-09-13T09:45:40Z</time>
 </trkpt>
 <trkpt lat="47.636459" lon="13.412480">
 <ele>1118.61</ele>
 <time>2011-09-13T09:45:48Z</time>
 </trkpt>
 <trkpt lat="47.636684" lon="13.412707">
 <ele>1118.29</ele>
 <time>2011-09-13T09:45:56Z</time>
 </trkpt>
 <trkpt lat="47.636871" lon="13.412912">
 <ele>1118.00</ele>
 <time>2011-09-13T09:46:02Z</time>
 </trkpt>
 <trkpt lat="47.637016" lon="13.413196">
 <ele>1117.66</ele>
 <time>2011-09-13T09:46:08Z</time>
 </trkpt>
 <trkpt lat="47.637199" lon="13.413431">
 <ele>1117.23</ele>
 <time>2011-09-13T09:46:14Z</time>
 </trkpt>
 <trkpt lat="47.637268" lon="13.413522">
 <ele>1117.02</ele>
 <time>2011-09-13T09:46:16Z</time>
 </trkpt>
 <trkpt lat="47.637489" lon="13.413876">
 <ele>1116.63</ele>
 <time>2011-09-13T09:46:24Z</time>
 </trkpt>
 <trkpt lat="47.637760" lon="13.414294">
 <ele>1116.34</ele>
 <time>2011-09-13T09:46:34Z</time>
 </trkpt>
 <trkpt lat="47.637920" lon="13.414524">
 <ele>1115.99</ele>
 <time>2011-09-13T09:46:40Z</time>
 </trkpt>
 <trkpt lat="47.638016" lon="13.414612">
 <ele>1116.45</ele>
 <time>2011-09-13T09:46:45Z</time>
 </trkpt>
 <trkpt lat="47.638107" lon="13.414657">
 <ele>1117.10</ele>
 <time>2011-09-13T09:46:50Z</time>
 </trkpt>
 <trkpt lat="47.638107" lon="13.414657">
 <ele>1117.22</ele>
 <time>2011-09-13T09:46:52Z</time>
 </trkpt>
 <trkpt lat="47.638226" lon="13.414661">
 <ele>1116.83</ele>
 <time>2011-09-13T09:47:05Z</time>
 </trkpt>
 <trkpt lat="47.638351" lon="13.414645">
 <ele>1116.49</ele>
 <time>2011-09-13T09:47:10Z</time>
 </trkpt>
 <trkpt lat="47.638550" lon="13.414683">
 <ele>1116.24</ele>
 <time>2011-09-13T09:47:17Z</time>
 </trkpt>
 <trkpt lat="47.638779" lon="13.414884">
 <ele>1116.64</ele>
 <time>2011-09-13T09:47:25Z</time>
 </trkpt>
 <trkpt lat="47.638969" lon="13.415094">
 <ele>1116.48</ele>
 <time>2011-09-13T09:47:32Z</time>
 </trkpt>
 <trkpt lat="47.639225" lon="13.415374">
 <ele>1116.03</ele>
 <time>2011-09-13T09:47:41Z</time>
 </trkpt>
 <trkpt lat="47.639446" lon="13.415598">
 <ele>1116.16</ele>
 <time>2011-09-13T09:47:49Z</time>
 </trkpt>
 <trkpt lat="47.639671" lon="13.415883">
 <ele>1116.54</ele>
 <time>2011-09-13T09:47:58Z</time>
 </trkpt>
 <trkpt lat="47.639866" lon="13.416243">
 <ele>1117.05</ele>
 <time>2011-09-13T09:48:07Z</time>
 </trkpt>
 <trkpt lat="47.640053" lon="13.416615">
 <ele>1117.69</ele>
 <time>2011-09-13T09:48:17Z</time>
 </trkpt>
 <trkpt lat="47.640198" lon="13.416908">
 <ele>1117.96</ele>
 <time>2011-09-13T09:48:25Z</time>
 </trkpt>
 <trkpt lat="47.640366" lon="13.417243">
 <ele>1118.10</ele>
 <time>2011-09-13T09:48:34Z</time>
 </trkpt>
 <trkpt lat="47.640499" lon="13.417491">
 <ele>1118.37</ele>
 <time>2011-09-13T09:48:41Z</time>
 </trkpt>
 <trkpt lat="47.640629" lon="13.417765">
 <ele>1118.77</ele>
 <time>2011-09-13T09:48:48Z</time>
 </trkpt>
 <trkpt lat="47.640789" lon="13.418025">
 <ele>1119.32</ele>
 <time>2011-09-13T09:48:56Z</time>
 </trkpt>
 <trkpt lat="47.640961" lon="13.418295">
 <ele>1120.72</ele>
 <time>2011-09-13T09:49:05Z</time>
 </trkpt>
 <trkpt lat="47.641125" lon="13.418495">
 <ele>1121.15</ele>
 <time>2011-09-13T09:49:14Z</time>
 </trkpt>
 <trkpt lat="47.641247" lon="13.418605">
 <ele>1121.97</ele>
 <time>2011-09-13T09:49:21Z</time>
 </trkpt>
 <trkpt lat="47.641418" lon="13.418670">
 <ele>1123.42</ele>
 <time>2011-09-13T09:49:30Z</time>
 </trkpt>
 <trkpt lat="47.641537" lon="13.418704">
 <ele>1124.52</ele>
 <time>2011-09-13T09:49:37Z</time>
 </trkpt>
 <trkpt lat="47.641609" lon="13.418732">
 <ele>1125.76</ele>
 <time>2011-09-13T09:49:42Z</time>
 </trkpt>
 <trkpt lat="47.641689" lon="13.418756">
 <ele>1126.64</ele>
 <time>2011-09-13T09:49:47Z</time>
 </trkpt>
 <trkpt lat="47.641796" lon="13.418780">
 <ele>1127.37</ele>
 <time>2011-09-13T09:49:53Z</time>
 </trkpt>
 <trkpt lat="47.641865" lon="13.418803">
 <ele>1128.16</ele>
 <time>2011-09-13T09:49:59Z</time>
 </trkpt>
 <trkpt lat="47.641979" lon="13.418874">
 <ele>1129.35</ele>
 <time>2011-09-13T09:50:08Z</time>
 </trkpt>
 <trkpt lat="47.642040" lon="13.418912">
 <ele>1129.93</ele>
 <time>2011-09-13T09:50:14Z</time>
 </trkpt>
 <trkpt lat="47.642162" lon="13.418989">
 <ele>1131.01</ele>
 <time>2011-09-13T09:50:21Z</time>
 </trkpt>
 <trkpt lat="47.642277" lon="13.419023">
 <ele>1132.07</ele>
 <time>2011-09-13T09:50:28Z</time>
 </trkpt>
 <trkpt lat="47.642410" lon="13.419049">
 <ele>1132.18</ele>
 <time>2011-09-13T09:50:35Z</time>
 </trkpt>
 <trkpt lat="47.642529" lon="13.419062">
 <ele>1132.74</ele>
 <time>2011-09-13T09:50:41Z</time>
 </trkpt>
 <trkpt lat="47.642689" lon="13.419127">
 <ele>1133.16</ele>
 <time>2011-09-13T09:50:49Z</time>
 </trkpt>
 <trkpt lat="47.642807" lon="13.419233">
 <ele>1133.37</ele>
 <time>2011-09-13T09:50:55Z</time>
 </trkpt>
 <trkpt lat="47.642914" lon="13.419432">
 <ele>1133.78</ele>
 <time>2011-09-13T09:51:02Z</time>
 </trkpt>
 <trkpt lat="47.642963" lon="13.419744">
 <ele>1134.41</ele>
 <time>2011-09-13T09:51:11Z</time>
 </trkpt>
 <trkpt lat="47.642963" lon="13.419862">
 <ele>1134.58</ele>
 <time>2011-09-13T09:51:15Z</time>
 </trkpt>
 <trkpt lat="47.642998" lon="13.419982">
 <ele>1134.95</ele>
 <time>2011-09-13T09:51:21Z</time>
 </trkpt>
 <trkpt lat="47.643120" lon="13.420202">
 <ele>1135.44</ele>
 <time>2011-09-13T09:51:29Z</time>
 </trkpt>
 <trkpt lat="47.643181" lon="13.420386">
 <ele>1135.64</ele>
 <time>2011-09-13T09:51:36Z</time>
 </trkpt>
 <trkpt lat="47.643200" lon="13.420424">
 <ele>1136.16</ele>
 <time>2011-09-13T09:51:41Z</time>
 </trkpt>
 <trkpt lat="47.643234" lon="13.420491">
 <ele>1135.85</ele>
 <time>2011-09-13T09:51:58Z</time>
 </trkpt>
 <trkpt lat="47.643276" lon="13.420579">
 <ele>1135.91</ele>
 <time>2011-09-13T09:52:03Z</time>
 </trkpt>
 <trkpt lat="47.643345" lon="13.420694">
 <ele>1136.12</ele>
 <time>2011-09-13T09:52:09Z</time>
 </trkpt>
 <trkpt lat="47.643436" lon="13.420827">
 <ele>1136.67</ele>
 <time>2011-09-13T09:52:15Z</time>
 </trkpt>
 <trkpt lat="47.643585" lon="13.420969">
 <ele>1137.28</ele>
 <time>2011-09-13T09:52:22Z</time>
 </trkpt>
 <trkpt lat="47.643707" lon="13.421140">
 <ele>1137.74</ele>
 <time>2011-09-13T09:52:29Z</time>
 </trkpt>
 <trkpt lat="47.643787" lon="13.421226">
 <ele>1138.18</ele>
 <time>2011-09-13T09:52:35Z</time>
 </trkpt>
 <trkpt lat="47.643848" lon="13.421286">
 <ele>1138.76</ele>
 <time>2011-09-13T09:52:40Z</time>
 </trkpt>
 <trkpt lat="47.643951" lon="13.421330">
 <ele>1139.73</ele>
 <time>2011-09-13T09:52:46Z</time>
 </trkpt>
 <trkpt lat="47.644127" lon="13.421341">
 <ele>1140.43</ele>
 <time>2011-09-13T09:52:53Z</time>
 </trkpt>
 <trkpt lat="47.644238" lon="13.421303">
 <ele>1141.25</ele>
 <time>2011-09-13T09:52:59Z</time>
 </trkpt>
 <trkpt lat="47.644367" lon="13.421319">
 <ele>1142.44</ele>
 <time>2011-09-13T09:53:06Z</time>
 </trkpt>
 <trkpt lat="47.644489" lon="13.421343">
 <ele>1143.52</ele>
 <time>2011-09-13T09:53:13Z</time>
 </trkpt>
 <trkpt lat="47.644600" lon="13.421367">
 <ele>1144.18</ele>
 <time>2011-09-13T09:53:20Z</time>
 </trkpt>
 <trkpt lat="47.644733" lon="13.421397">
 <ele>1145.66</ele>
 <time>2011-09-13T09:53:28Z</time>
 </trkpt>
 <trkpt lat="47.644833" lon="13.421409">
 <ele>1146.58</ele>
 <time>2011-09-13T09:53:34Z</time>
 </trkpt>
 <trkpt lat="47.644882" lon="13.421409">
 <ele>1147.09</ele>
 <time>2011-09-13T09:53:37Z</time>
 </trkpt>
 <trkpt lat="47.644920" lon="13.421426">
 <ele>1147.54</ele>
 <time>2011-09-13T09:53:39Z</time>
 </trkpt>
 <trkpt lat="47.645012" lon="13.421398">
 <ele>1148.61</ele>
 <time>2011-09-13T09:53:46Z</time>
 </trkpt>
 <trkpt lat="47.645100" lon="13.421364">
 <ele>1149.51</ele>
 <time>2011-09-13T09:53:52Z</time>
 </trkpt>
 <trkpt lat="47.645214" lon="13.421372">
 <ele>1150.50</ele>
 <time>2011-09-13T09:53:59Z</time>
 </trkpt>
 <trkpt lat="47.645313" lon="13.421416">
 <ele>1152.02</ele>
 <time>2011-09-13T09:54:06Z</time>
 </trkpt>
 <trkpt lat="47.645382" lon="13.421439">
 <ele>1152.63</ele>
 <time>2011-09-13T09:54:12Z</time>
 </trkpt>
 <trkpt lat="47.645458" lon="13.421456">
 <ele>1153.30</ele>
 <time>2011-09-13T09:54:18Z</time>
 </trkpt>
 <trkpt lat="47.645569" lon="13.421488">
 <ele>1154.37</ele>
 <time>2011-09-13T09:54:25Z</time>
 </trkpt>
 <trkpt lat="47.645679" lon="13.421544">
 <ele>1155.13</ele>
 <time>2011-09-13T09:54:33Z</time>
 </trkpt>
 <trkpt lat="47.645763" lon="13.421612">
 <ele>1155.92</ele>
 <time>2011-09-13T09:54:39Z</time>
 </trkpt>
 <trkpt lat="47.645851" lon="13.421702">
 <ele>1157.80</ele>
 <time>2011-09-13T09:54:47Z</time>
 </trkpt>
 <trkpt lat="47.645882" lon="13.421729">
 <ele>1158.37</ele>
 <time>2011-09-13T09:54:50Z</time>
 </trkpt>
 <trkpt lat="47.645931" lon="13.421771">
 <ele>1159.08</ele>
 <time>2011-09-13T09:54:54Z</time>
 </trkpt>
 <trkpt lat="47.646049" lon="13.421863">
 <ele>1160.13</ele>
 <time>2011-09-13T09:55:03Z</time>
 </trkpt>
 <trkpt lat="47.646194" lon="13.421944">
 <ele>1161.12</ele>
 <time>2011-09-13T09:55:13Z</time>
 </trkpt>
 <trkpt lat="47.646301" lon="13.421932">
 <ele>1161.68</ele>
 <time>2011-09-13T09:55:20Z</time>
 </trkpt>
 <trkpt lat="47.646412" lon="13.421897">
 <ele>1162.25</ele>
 <time>2011-09-13T09:55:27Z</time>
 </trkpt>
 <trkpt lat="47.646530" lon="13.421811">
 <ele>1162.90</ele>
 <time>2011-09-13T09:55:34Z</time>
 </trkpt>
 <trkpt lat="47.646713" lon="13.421656">
 <ele>1163.20</ele>
 <time>2011-09-13T09:55:43Z</time>
 </trkpt>
 <trkpt lat="47.646847" lon="13.421574">
 <ele>1163.65</ele>
 <time>2011-09-13T09:55:50Z</time>
 </trkpt>
 <trkpt lat="47.647011" lon="13.421482">
 <ele>1164.18</ele>
 <time>2011-09-13T09:55:59Z</time>
 </trkpt>
 <trkpt lat="47.647144" lon="13.421415">
 <ele>1164.95</ele>
 <time>2011-09-13T09:56:06Z</time>
 </trkpt>
 <trkpt lat="47.647251" lon="13.421367">
 <ele>1165.62</ele>
 <time>2011-09-13T09:56:12Z</time>
 </trkpt>
 <trkpt lat="47.647301" lon="13.421338">
 <ele>1166.03</ele>
 <time>2011-09-13T09:56:15Z</time>
 </trkpt>
 <trkpt lat="47.647373" lon="13.421293">
 <ele>1166.73</ele>
 <time>2011-09-13T09:56:20Z</time>
 </trkpt>
 <trkpt lat="47.647461" lon="13.421235">
 <ele>1167.50</ele>
 <time>2011-09-13T09:56:26Z</time>
 </trkpt>
 <trkpt lat="47.647514" lon="13.421202">
 <ele>1167.73</ele>
 <time>2011-09-13T09:56:29Z</time>
 </trkpt>
 <trkpt lat="47.647598" lon="13.421144">
 <ele>1168.22</ele>
 <time>2011-09-13T09:56:34Z</time>
 </trkpt>
 <trkpt lat="47.647739" lon="13.420932">
 <ele>1168.55</ele>
 <time>2011-09-13T09:56:41Z</time>
 </trkpt>
 <trkpt lat="47.647804" lon="13.420629">
 <ele>1169.38</ele>
 <time>2011-09-13T09:56:49Z</time>
 </trkpt>
 <trkpt lat="47.647869" lon="13.420423">
 <ele>1169.94</ele>
 <time>2011-09-13T09:56:55Z</time>
 </trkpt>
 <trkpt lat="47.647926" lon="13.420221">
 <ele>1170.41</ele>
 <time>2011-09-13T09:57:01Z</time>
 </trkpt>
 <trkpt lat="47.647972" lon="13.420017">
 <ele>1170.78</ele>
 <time>2011-09-13T09:57:07Z</time>
 </trkpt>
 <trkpt lat="47.648018" lon="13.419742">
 <ele>1171.38</ele>
 <time>2011-09-13T09:57:15Z</time>
 </trkpt>
 <trkpt lat="47.648060" lon="13.419534">
 <ele>1172.35</ele>
 <time>2011-09-13T09:57:22Z</time>
 </trkpt>
 <trkpt lat="47.648121" lon="13.419414">
 <ele>1172.81</ele>
 <time>2011-09-13T09:57:28Z</time>
 </trkpt>
 <trkpt lat="47.648273" lon="13.419272">
 <ele>1172.53</ele>
 <time>2011-09-13T09:57:35Z</time>
 </trkpt>
 <trkpt lat="47.648338" lon="13.419279">
 <ele>1172.36</ele>
 <time>2011-09-13T09:57:39Z</time>
 </trkpt>
 <trkpt lat="47.648354" lon="13.419287">
 <ele>1172.34</ele>
 <time>2011-09-13T09:57:44Z</time>
 </trkpt>
 <trkpt lat="47.648434" lon="13.419326">
 <ele>1172.51</ele>
 <time>2011-09-13T09:58:29Z</time>
 </trkpt>
 <trkpt lat="47.648510" lon="13.419427">
 <ele>1172.92</ele>
 <time>2011-09-13T09:58:35Z</time>
 </trkpt>
 <trkpt lat="47.648537" lon="13.419461">
 <ele>1173.11</ele>
 <time>2011-09-13T09:58:37Z</time>
 </trkpt>
 <trkpt lat="47.648663" lon="13.419611">
 <ele>1173.89</ele>
 <time>2011-09-13T09:58:45Z</time>
 </trkpt>
 <trkpt lat="47.648769" lon="13.419747">
 <ele>1173.96</ele>
 <time>2011-09-13T09:58:52Z</time>
 </trkpt>
 <trkpt lat="47.648849" lon="13.419863">
 <ele>1173.99</ele>
 <time>2011-09-13T09:58:58Z</time>
 </trkpt>
 <trkpt lat="47.648949" lon="13.420028">
 <ele>1173.80</ele>
 <time>2011-09-13T09:59:04Z</time>
 </trkpt>
 <trkpt lat="47.649071" lon="13.420194">
 <ele>1173.49</ele>
 <time>2011-09-13T09:59:11Z</time>
 </trkpt>
 <trkpt lat="47.649178" lon="13.420324">
 <ele>1173.41</ele>
 <time>2011-09-13T09:59:16Z</time>
 </trkpt>
 <trkpt lat="47.649300" lon="13.420493">
 <ele>1173.30</ele>
 <time>2011-09-13T09:59:22Z</time>
 </trkpt>
 <trkpt lat="47.649426" lon="13.420673">
 <ele>1173.83</ele>
 <time>2011-09-13T09:59:29Z</time>
 </trkpt>
 <trkpt lat="47.649532" lon="13.420833">
 <ele>1174.25</ele>
 <time>2011-09-13T09:59:35Z</time>
 </trkpt>
 <trkpt lat="47.649624" lon="13.421000">
 <ele>1174.87</ele>
 <time>2011-09-13T09:59:41Z</time>
 </trkpt>
 <trkpt lat="47.649704" lon="13.421155">
 <ele>1175.49</ele>
 <time>2011-09-13T09:59:46Z</time>
 </trkpt>
 <trkpt lat="47.649853" lon="13.421392">
 <ele>1176.85</ele>
 <time>2011-09-13T09:59:55Z</time>
 </trkpt>
 <trkpt lat="47.650002" lon="13.421575">
 <ele>1177.56</ele>
 <time>2011-09-13T10:00:03Z</time>
 </trkpt>
 <trkpt lat="47.650101" lon="13.421672">
 <ele>1177.97</ele>
 <time>2011-09-13T10:00:09Z</time>
 </trkpt>
 <trkpt lat="47.650211" lon="13.421767">
 <ele>1178.26</ele>
 <time>2011-09-13T10:00:15Z</time>
 </trkpt>
 <trkpt lat="47.650242" lon="13.421789">
 <ele>1178.41</ele>
 <time>2011-09-13T10:00:18Z</time>
 </trkpt>
 <trkpt lat="47.650200" lon="13.421756">
 <ele>1178.94</ele>
 <time>2011-09-13T10:02:08Z</time>
 </trkpt>
 <trkpt lat="47.650284" lon="13.421822">
 <ele>1178.94</ele>
 <time>2011-09-13T10:02:14Z</time>
 </trkpt>
 <trkpt lat="47.650368" lon="13.421886">
 <ele>1179.36</ele>
 <time>2011-09-13T10:02:20Z</time>
 </trkpt>
 <trkpt lat="47.650406" lon="13.421925">
 <ele>1179.79</ele>
 <time>2011-09-13T10:02:27Z</time>
 </trkpt>
 <trkpt lat="47.650406" lon="13.421925">
 <ele>1179.80</ele>
 <time>2011-09-13T10:02:28Z</time>
 </trkpt>
 <trkpt lat="47.650436" lon="13.421968">
 <ele>1179.98</ele>
 <time>2011-09-13T10:02:34Z</time>
 </trkpt>
 <trkpt lat="47.650436" lon="13.421968">
 <ele>1179.84</ele>
 <time>2011-09-13T10:02:46Z</time>
 </trkpt>
 <trkpt lat="47.650436" lon="13.421968">
 <ele>1179.88</ele>
 <time>2011-09-13T10:02:47Z</time>
 </trkpt>
 <trkpt lat="47.650436" lon="13.421968">
 <ele>1179.93</ele>
 <time>2011-09-13T10:02:48Z</time>
 </trkpt>
 <trkpt lat="47.650547" lon="13.421954">
 <ele>1180.22</ele>
 <time>2011-09-13T10:04:23Z</time>
 </trkpt>
 <trkpt lat="47.650455" lon="13.421998">
 <ele>1180.80</ele>
 <time>2011-09-13T10:04:29Z</time>
 </trkpt>
 <trkpt lat="47.650394" lon="13.421912">
 <ele>1181.50</ele>
 <time>2011-09-13T10:04:36Z</time>
 </trkpt>
 <trkpt lat="47.650318" lon="13.421848">
 <ele>1182.95</ele>
 <time>2011-09-13T10:04:45Z</time>
 </trkpt>
 <trkpt lat="47.650265" lon="13.421807">
 <ele>1183.91</ele>
 <time>2011-09-13T10:04:50Z</time>
 </trkpt>
 <trkpt lat="47.650211" lon="13.421766">
 <ele>1185.27</ele>
 <time>2011-09-13T10:04:58Z</time>
 </trkpt>
 <trkpt lat="47.650150" lon="13.421714">
 <ele>1186.22</ele>
 <time>2011-09-13T10:05:05Z</time>
 </trkpt>
 <trkpt lat="47.650085" lon="13.421656">
 <ele>1186.82</ele>
 <time>2011-09-13T10:05:11Z</time>
 </trkpt>
 <trkpt lat="47.649998" lon="13.421573">
 <ele>1186.99</ele>
 <time>2011-09-13T10:05:19Z</time>
 </trkpt>
 <trkpt lat="47.649982" lon="13.421551">
 <ele>1187.16</ele>
 <time>2011-09-13T10:05:21Z</time>
 </trkpt>
 <trkpt lat="47.649929" lon="13.421485">
 <ele>1187.76</ele>
 <time>2011-09-13T10:05:26Z</time>
 </trkpt>
 <trkpt lat="47.649834" lon="13.421359">
 <ele>1188.52</ele>
 <time>2011-09-13T10:05:34Z</time>
 </trkpt>
 <trkpt lat="47.649773" lon="13.421266">
 <ele>1189.03</ele>
 <time>2011-09-13T10:05:39Z</time>
 </trkpt>
 <trkpt lat="47.649670" lon="13.421087">
 <ele>1190.28</ele>
 <time>2011-09-13T10:05:49Z</time>
 </trkpt>
 <trkpt lat="47.649620" lon="13.420987">
 <ele>1191.33</ele>
 <time>2011-09-13T10:05:54Z</time>
 </trkpt>
 <trkpt lat="47.649532" lon="13.420835">
 <ele>1193.00</ele>
 <time>2011-09-13T10:06:06Z</time>
 </trkpt>
 <trkpt lat="47.649464" lon="13.420734">
 <ele>1194.83</ele>
 <time>2011-09-13T10:06:17Z</time>
 </trkpt>
 <trkpt lat="47.649410" lon="13.420653">
 <ele>1196.37</ele>
 <time>2011-09-13T10:06:28Z</time>
 </trkpt>
 <trkpt lat="47.650028" lon="13.419680">
 <ele>1198.28</ele>
 <time>2011-09-13T10:06:37Z</time>
 </trkpt>
 <trkpt lat="47.650074" lon="13.419564">
 <ele>1199.46</ele>
 <time>2011-09-13T10:06:45Z</time>
 </trkpt>
 <trkpt lat="47.650108" lon="13.419437">
 <ele>1200.35</ele>
 <time>2011-09-13T10:06:53Z</time>
 </trkpt>
 <trkpt lat="47.650120" lon="13.419412">
 <ele>1200.85</ele>
 <time>2011-09-13T10:06:56Z</time>
 </trkpt>
 <trkpt lat="47.650135" lon="13.419204">
 <ele>1201.96</ele>
 <time>2011-09-13T10:07:18Z</time>
 </trkpt>
 <trkpt lat="47.650154" lon="13.419112">
 <ele>1203.19</ele>
 <time>2011-09-13T10:07:27Z</time>
 </trkpt>
 <trkpt lat="47.650169" lon="13.419011">
 <ele>1204.12</ele>
 <time>2011-09-13T10:07:36Z</time>
 </trkpt>
 <trkpt lat="47.650188" lon="13.418955">
 <ele>1205.28</ele>
 <time>2011-09-13T10:07:43Z</time>
 </trkpt>
 <trkpt lat="47.650185" lon="13.418882">
 <ele>1205.88</ele>
 <time>2011-09-13T10:08:04Z</time>
 </trkpt>
 <trkpt lat="47.650215" lon="13.418764">
 <ele>1206.25</ele>
 <time>2011-09-13T10:08:12Z</time>
 </trkpt>
 <trkpt lat="47.650303" lon="13.418632">
 <ele>1207.11</ele>
 <time>2011-09-13T10:08:20Z</time>
 </trkpt>
 <trkpt lat="47.650314" lon="13.418619">
 <ele>1207.26</ele>
 <time>2011-09-13T10:08:21Z</time>
 </trkpt>
 <trkpt lat="47.650341" lon="13.418535">
 <ele>1207.91</ele>
 <time>2011-09-13T10:08:28Z</time>
 </trkpt>
 <trkpt lat="47.650398" lon="13.418443">
 <ele>1209.27</ele>
 <time>2011-09-13T10:08:36Z</time>
 </trkpt>
 <trkpt lat="47.650452" lon="13.418355">
 <ele>1210.30</ele>
 <time>2011-09-13T10:08:43Z</time>
 </trkpt>
 <trkpt lat="47.650524" lon="13.418193">
 <ele>1211.20</ele>
 <time>2011-09-13T10:08:53Z</time>
 </trkpt>
 <trkpt lat="47.650578" lon="13.418081">
 <ele>1212.01</ele>
 <time>2011-09-13T10:09:00Z</time>
 </trkpt>
 <trkpt lat="47.650597" lon="13.417941">
 <ele>1213.26</ele>
 <time>2011-09-13T10:09:08Z</time>
 </trkpt>
 <trkpt lat="47.650623" lon="13.417775">
 <ele>1214.74</ele>
 <time>2011-09-13T10:09:17Z</time>
 </trkpt>
 <trkpt lat="47.650665" lon="13.417622">
 <ele>1216.15</ele>
 <time>2011-09-13T10:09:25Z</time>
 </trkpt>
 <trkpt lat="47.650696" lon="13.417507">
 <ele>1217.26</ele>
 <time>2011-09-13T10:09:32Z</time>
 </trkpt>
 <trkpt lat="47.650726" lon="13.417419">
 <ele>1218.36</ele>
 <time>2011-09-13T10:09:38Z</time>
 </trkpt>
 <trkpt lat="47.650734" lon="13.417347">
 <ele>1218.75</ele>
 <time>2011-09-13T10:09:42Z</time>
 </trkpt>
 <trkpt lat="47.650780" lon="13.417200">
 <ele>1219.57</ele>
 <time>2011-09-13T10:09:51Z</time>
 </trkpt>
 <trkpt lat="47.650833" lon="13.417058">
 <ele>1220.66</ele>
 <time>2011-09-13T10:09:59Z</time>
 </trkpt>
 <trkpt lat="47.650867" lon="13.416942">
 <ele>1221.53</ele>
 <time>2011-09-13T10:10:06Z</time>
 </trkpt>
 <trkpt lat="47.650898" lon="13.416797">
 <ele>1222.50</ele>
 <time>2011-09-13T10:10:14Z</time>
 </trkpt>
 <trkpt lat="47.650944" lon="13.416615">
 <ele>1223.50</ele>
 <time>2011-09-13T10:10:24Z</time>
 </trkpt>
 <trkpt lat="47.650959" lon="13.416487">
 <ele>1224.52</ele>
 <time>2011-09-13T10:10:31Z</time>
 </trkpt>
 <trkpt lat="47.650986" lon="13.416338">
 <ele>1225.44</ele>
 <time>2011-09-13T10:10:39Z</time>
 </trkpt>
 <trkpt lat="47.651001" lon="13.416106">
 <ele>1226.65</ele>
 <time>2011-09-13T10:10:51Z</time>
 </trkpt>
 <trkpt lat="47.651020" lon="13.415935">
 <ele>1227.51</ele>
 <time>2011-09-13T10:11:00Z</time>
 </trkpt>
 <trkpt lat="47.651039" lon="13.415798">
 <ele>1228.66</ele>
 <time>2011-09-13T10:11:08Z</time>
 </trkpt>
 <trkpt lat="47.651100" lon="13.415622">
 <ele>1229.87</ele>
 <time>2011-09-13T10:11:18Z</time>
 </trkpt>
 <trkpt lat="47.651127" lon="13.415471">
 <ele>1231.22</ele>
 <time>2011-09-13T10:11:27Z</time>
 </trkpt>
 <trkpt lat="47.651127" lon="13.415421">
 <ele>1231.62</ele>
 <time>2011-09-13T10:11:30Z</time>
 </trkpt>
 <trkpt lat="47.651154" lon="13.415289">
 <ele>1232.97</ele>
 <time>2011-09-13T10:11:38Z</time>
 </trkpt>
 <trkpt lat="47.651211" lon="13.415158">
 <ele>1234.23</ele>
 <time>2011-09-13T10:11:47Z</time>
 </trkpt>
 <trkpt lat="47.651276" lon="13.415065">
 <ele>1235.38</ele>
 <time>2011-09-13T10:11:55Z</time>
 </trkpt>
 <trkpt lat="47.651340" lon="13.415009">
 <ele>1236.28</ele>
 <time>2011-09-13T10:12:03Z</time>
 </trkpt>
 <trkpt lat="47.651421" lon="13.414969">
 <ele>1237.36</ele>
 <time>2011-09-13T10:12:11Z</time>
 </trkpt>
 <trkpt lat="47.651516" lon="13.414919">
 <ele>1238.19</ele>
 <time>2011-09-13T10:12:18Z</time>
 </trkpt>
 <trkpt lat="47.651627" lon="13.414833">
 <ele>1239.30</ele>
 <time>2011-09-13T10:12:26Z</time>
 </trkpt>
 <trkpt lat="47.651714" lon="13.414732">
 <ele>1240.10</ele>
 <time>2011-09-13T10:12:33Z</time>
 </trkpt>
 <trkpt lat="47.651772" lon="13.414654">
 <ele>1241.04</ele>
 <time>2011-09-13T10:12:40Z</time>
 </trkpt>
 <trkpt lat="47.651848" lon="13.414541">
 <ele>1241.97</ele>
 <time>2011-09-13T10:12:49Z</time>
 </trkpt>
 <trkpt lat="47.651939" lon="13.414414">
 <ele>1243.26</ele>
 <time>2011-09-13T10:12:59Z</time>
 </trkpt>
 <trkpt lat="47.652004" lon="13.414267">
 <ele>1244.27</ele>
 <time>2011-09-13T10:13:08Z</time>
 </trkpt>
 <trkpt lat="47.652073" lon="13.414137">
 <ele>1245.49</ele>
 <time>2011-09-13T10:13:17Z</time>
 </trkpt>
 <trkpt lat="47.652145" lon="13.414035">
 <ele>1246.79</ele>
 <time>2011-09-13T10:13:26Z</time>
 </trkpt>
 <trkpt lat="47.652203" lon="13.413957">
 <ele>1247.47</ele>
 <time>2011-09-13T10:13:33Z</time>
 </trkpt>
 <trkpt lat="47.652279" lon="13.413850">
 <ele>1248.49</ele>
 <time>2011-09-13T10:13:41Z</time>
 </trkpt>
 <trkpt lat="47.652348" lon="13.413725">
 <ele>1249.68</ele>
 <time>2011-09-13T10:13:50Z</time>
 </trkpt>
 <trkpt lat="47.652386" lon="13.413616">
 <ele>1250.52</ele>
 <time>2011-09-13T10:13:58Z</time>
 </trkpt>
 <trkpt lat="47.652412" lon="13.413497">
 <ele>1251.44</ele>
 <time>2011-09-13T10:14:05Z</time>
 </trkpt>
 <trkpt lat="47.652466" lon="13.413440">
 <ele>1252.22</ele>
 <time>2011-09-13T10:14:12Z</time>
 </trkpt>
 <trkpt lat="47.652477" lon="13.413454">
 <ele>1252.42</ele>
 <time>2011-09-13T10:14:14Z</time>
 </trkpt>
 <trkpt lat="47.652485" lon="13.413489">
 <ele>1252.76</ele>
 <time>2011-09-13T10:14:20Z</time>
 </trkpt>
 <trkpt lat="47.652481" lon="13.413491">
 <ele>1252.72</ele>
 <time>2011-09-13T10:14:21Z</time>
 </trkpt>
 <trkpt lat="47.652477" lon="13.413593">
 <ele>1253.04</ele>
 <time>2011-09-13T10:14:48Z</time>
 </trkpt>
 <trkpt lat="47.652523" lon="13.413601">
 <ele>1253.27</ele>
 <time>2011-09-13T10:15:00Z</time>
 </trkpt>
 <trkpt lat="47.652538" lon="13.413582">
 <ele>1253.24</ele>
 <time>2011-09-13T10:15:03Z</time>
 </trkpt>
 <trkpt lat="47.652634" lon="13.413451">
 <ele>1253.91</ele>
 <time>2011-09-13T10:15:45Z</time>
 </trkpt>
 <trkpt lat="47.652645" lon="13.413557">
 <ele>1254.58</ele>
 <time>2011-09-13T10:15:52Z</time>
 </trkpt>
 <trkpt lat="47.652660" lon="13.413584">
 <ele>1254.82</ele>
 <time>2011-09-13T10:15:54Z</time>
 </trkpt>
 <trkpt lat="47.652687" lon="13.413725">
 <ele>1255.56</ele>
 <time>2011-09-13T10:16:02Z</time>
 </trkpt>
 <trkpt lat="47.652679" lon="13.413795">
 <ele>1256.18</ele>
 <time>2011-09-13T10:16:06Z</time>
 </trkpt>
 <trkpt lat="47.652691" lon="13.413861">
 <ele>1256.79</ele>
 <time>2011-09-13T10:16:10Z</time>
 </trkpt>
 <trkpt lat="47.652702" lon="13.413987">
 <ele>1258.15</ele>
 <time>2011-09-13T10:16:18Z</time>
 </trkpt>
 <trkpt lat="47.652718" lon="13.414084">
 <ele>1258.93</ele>
 <time>2011-09-13T10:16:24Z</time>
 </trkpt>
 <trkpt lat="47.652718" lon="13.414247">
 <ele>1260.41</ele>
 <time>2011-09-13T10:16:33Z</time>
 </trkpt>
 <trkpt lat="47.652733" lon="13.414374">
 <ele>1261.42</ele>
 <time>2011-09-13T10:16:40Z</time>
 </trkpt>
 <trkpt lat="47.652714" lon="13.414479">
 <ele>1262.06</ele>
 <time>2011-09-13T10:16:46Z</time>
 </trkpt>
 <trkpt lat="47.652702" lon="13.414601">
 <ele>1262.69</ele>
 <time>2011-09-13T10:16:53Z</time>
 </trkpt>
 <trkpt lat="47.652683" lon="13.414735">
 <ele>1263.78</ele>
 <time>2011-09-13T10:17:01Z</time>
 </trkpt>
 <trkpt lat="47.652649" lon="13.414908">
 <ele>1264.11</ele>
 <time>2011-09-13T10:17:09Z</time>
 </trkpt>
 <trkpt lat="47.652596" lon="13.415161">
 <ele>1264.85</ele>
 <time>2011-09-13T10:17:19Z</time>
 </trkpt>
 <trkpt lat="47.652580" lon="13.415375">
 <ele>1265.63</ele>
 <time>2011-09-13T10:17:27Z</time>
 </trkpt>
 <trkpt lat="47.652618" lon="13.415548">
 <ele>1266.15</ele>
 <time>2011-09-13T10:17:34Z</time>
 </trkpt>
 <trkpt lat="47.652672" lon="13.415704">
 <ele>1266.64</ele>
 <time>2011-09-13T10:17:41Z</time>
 </trkpt>
 <trkpt lat="47.652775" lon="13.415936">
 <ele>1267.60</ele>
 <time>2011-09-13T10:17:52Z</time>
 </trkpt>
 <trkpt lat="47.652859" lon="13.416061">
 <ele>1268.37</ele>
 <time>2011-09-13T10:17:59Z</time>
 </trkpt>
 <trkpt lat="47.652943" lon="13.416192">
 <ele>1268.84</ele>
 <time>2011-09-13T10:18:06Z</time>
 </trkpt>
 <trkpt lat="47.653030" lon="13.416327">
 <ele>1269.64</ele>
 <time>2011-09-13T10:18:13Z</time>
 </trkpt>
 <trkpt lat="47.653107" lon="13.416427">
 <ele>1270.64</ele>
 <time>2011-09-13T10:18:19Z</time>
 </trkpt>
 <trkpt lat="47.653206" lon="13.416517">
 <ele>1271.41</ele>
 <time>2011-09-13T10:18:26Z</time>
 </trkpt>
 <trkpt lat="47.653332" lon="13.416636">
 <ele>1271.97</ele>
 <time>2011-09-13T10:18:35Z</time>
 </trkpt>
 <trkpt lat="47.653427" lon="13.416727">
 <ele>1272.39</ele>
 <time>2011-09-13T10:18:41Z</time>
 </trkpt>
 <trkpt lat="47.653522" lon="13.416777">
 <ele>1272.61</ele>
 <time>2011-09-13T10:18:46Z</time>
 </trkpt>
 <trkpt lat="47.653557" lon="13.416796">
 <ele>1272.78</ele>
 <time>2011-09-13T10:18:48Z</time>
 </trkpt>
 <trkpt lat="47.653618" lon="13.416832">
 <ele>1273.13</ele>
 <time>2011-09-13T10:18:52Z</time>
 </trkpt>
 <trkpt lat="47.653748" lon="13.416846">
 <ele>1273.71</ele>
 <time>2011-09-13T10:18:59Z</time>
 </trkpt>
 <trkpt lat="47.653873" lon="13.416827">
 <ele>1274.35</ele>
 <time>2011-09-13T10:19:05Z</time>
 </trkpt>
 <trkpt lat="47.654007" lon="13.416780">
 <ele>1275.02</ele>
 <time>2011-09-13T10:19:12Z</time>
 </trkpt>
 <trkpt lat="47.654156" lon="13.416730">
 <ele>1275.82</ele>
 <time>2011-09-13T10:19:19Z</time>
 </trkpt>
 <trkpt lat="47.654308" lon="13.416648">
 <ele>1275.94</ele>
 <time>2011-09-13T10:19:25Z</time>
 </trkpt>
 <trkpt lat="47.654419" lon="13.416610">
 <ele>1275.84</ele>
 <time>2011-09-13T10:19:29Z</time>
 </trkpt>
 <trkpt lat="47.654591" lon="13.416568">
 <ele>1276.33</ele>
 <time>2011-09-13T10:19:35Z</time>
 </trkpt>
 <trkpt lat="47.654732" lon="13.416519">
 <ele>1276.92</ele>
 <time>2011-09-13T10:19:40Z</time>
 </trkpt>
 <trkpt lat="47.654907" lon="13.416431">
 <ele>1277.50</ele>
 <time>2011-09-13T10:19:47Z</time>
 </trkpt>
 <trkpt lat="47.655003" lon="13.416375">
 <ele>1277.93</ele>
 <time>2011-09-13T10:19:51Z</time>
 </trkpt>
 <trkpt lat="47.655132" lon="13.416293">
 <ele>1278.58</ele>
 <time>2011-09-13T10:19:56Z</time>
 </trkpt>
 <trkpt lat="47.655319" lon="13.416211">
 <ele>1278.81</ele>
 <time>2011-09-13T10:20:02Z</time>
 </trkpt>
 <trkpt lat="47.655453" lon="13.416154">
 <ele>1278.96</ele>
 <time>2011-09-13T10:20:07Z</time>
 </trkpt>
 <trkpt lat="47.655598" lon="13.416092">
 <ele>1279.12</ele>
 <time>2011-09-13T10:20:12Z</time>
 </trkpt>
 <trkpt lat="47.655746" lon="13.416031">
 <ele>1279.22</ele>
 <time>2011-09-13T10:20:17Z</time>
 </trkpt>
 <trkpt lat="47.655899" lon="13.415977">
 <ele>1280.10</ele>
 <time>2011-09-13T10:20:23Z</time>
 </trkpt>
 <trkpt lat="47.656033" lon="13.415933">
 <ele>1280.20</ele>
 <time>2011-09-13T10:20:27Z</time>
 </trkpt>
 <trkpt lat="47.656200" lon="13.415894">
 <ele>1280.08</ele>
 <time>2011-09-13T10:20:32Z</time>
 </trkpt>
 <trkpt lat="47.656357" lon="13.415852">
 <ele>1280.76</ele>
 <time>2011-09-13T10:20:38Z</time>
 </trkpt>
 <trkpt lat="47.656460" lon="13.415862">
 <ele>1281.17</ele>
 <time>2011-09-13T10:20:42Z</time>
 </trkpt>
 <trkpt lat="47.656631" lon="13.415934">
 <ele>1281.19</ele>
 <time>2011-09-13T10:20:46Z</time>
 </trkpt>
 <trkpt lat="47.656765" lon="13.416059">
 <ele>1281.50</ele>
 <time>2011-09-13T10:20:51Z</time>
 </trkpt>
 <trkpt lat="47.656879" lon="13.416247">
 <ele>1282.58</ele>
 <time>2011-09-13T10:20:58Z</time>
 </trkpt>
 <trkpt lat="47.656982" lon="13.416435">
 <ele>1282.80</ele>
 <time>2011-09-13T10:21:04Z</time>
 </trkpt>
 <trkpt lat="47.657131" lon="13.416683">
 <ele>1283.56</ele>
 <time>2011-09-13T10:21:12Z</time>
 </trkpt>
 <trkpt lat="47.657246" lon="13.416861">
 <ele>1284.29</ele>
 <time>2011-09-13T10:21:18Z</time>
 </trkpt>
 <trkpt lat="47.657307" lon="13.416970">
 <ele>1284.73</ele>
 <time>2011-09-13T10:21:22Z</time>
 </trkpt>
 <trkpt lat="47.657394" lon="13.417082">
 <ele>1285.24</ele>
 <time>2011-09-13T10:21:27Z</time>
 </trkpt>
 <trkpt lat="47.657532" lon="13.417226">
 <ele>1285.98</ele>
 <time>2011-09-13T10:21:34Z</time>
 </trkpt>
 <trkpt lat="47.657673" lon="13.417322">
 <ele>1286.67</ele>
 <time>2011-09-13T10:21:41Z</time>
 </trkpt>
 <trkpt lat="47.657780" lon="13.417389">
 <ele>1286.72</ele>
 <time>2011-09-13T10:21:47Z</time>
 </trkpt>
 <trkpt lat="47.657894" lon="13.417460">
 <ele>1286.75</ele>
 <time>2011-09-13T10:21:53Z</time>
 </trkpt>
 <trkpt lat="47.657928" lon="13.417479">
 <ele>1287.03</ele>
 <time>2011-09-13T10:21:55Z</time>
 </trkpt>
 <trkpt lat="47.658051" lon="13.417547">
 <ele>1288.52</ele>
 <time>2011-09-13T10:22:01Z</time>
 </trkpt>
 <trkpt lat="47.658134" lon="13.417606">
 <ele>1289.58</ele>
 <time>2011-09-13T10:22:06Z</time>
 </trkpt>
 <trkpt lat="47.658279" lon="13.417737">
 <ele>1291.33</ele>
 <time>2011-09-13T10:22:15Z</time>
 </trkpt>
 <trkpt lat="47.658356" lon="13.417884">
 <ele>1292.41</ele>
 <time>2011-09-13T10:22:23Z</time>
 </trkpt>
 <trkpt lat="47.658363" lon="13.417900">
 <ele>1292.55</ele>
 <time>2011-09-13T10:22:24Z</time>
 </trkpt>
 <trkpt lat="47.658390" lon="13.417974">
 <ele>1293.06</ele>
 <time>2011-09-13T10:22:28Z</time>
 </trkpt>
 <trkpt lat="47.658451" lon="13.418127">
 <ele>1294.36</ele>
 <time>2011-09-13T10:22:36Z</time>
 </trkpt>
 <trkpt lat="47.658459" lon="13.418259">
 <ele>1295.39</ele>
 <time>2011-09-13T10:22:43Z</time>
 </trkpt>
 <trkpt lat="47.658535" lon="13.418384">
 <ele>1296.87</ele>
 <time>2011-09-13T10:22:51Z</time>
 </trkpt>
 <trkpt lat="47.658623" lon="13.418527">
 <ele>1297.74</ele>
 <time>2011-09-13T10:22:59Z</time>
 </trkpt>
 <trkpt lat="47.658661" lon="13.418574">
 <ele>1297.91</ele>
 <time>2011-09-13T10:23:02Z</time>
 </trkpt>
 <trkpt lat="47.658749" lon="13.418681">
 <ele>1298.26</ele>
 <time>2011-09-13T10:23:10Z</time>
 </trkpt>
 <trkpt lat="47.658760" lon="13.418699">
 <ele>1298.36</ele>
 <time>2011-09-13T10:23:11Z</time>
 </trkpt>
 <trkpt lat="47.658836" lon="13.418821">
 <ele>1299.51</ele>
 <time>2011-09-13T10:23:19Z</time>
 </trkpt>
 <trkpt lat="47.658894" lon="13.418890">
 <ele>1300.04</ele>
 <time>2011-09-13T10:23:24Z</time>
 </trkpt>
 <trkpt lat="47.659012" lon="13.419076">
 <ele>1301.69</ele>
 <time>2011-09-13T10:23:37Z</time>
 </trkpt>
 <trkpt lat="47.659092" lon="13.419216">
 <ele>1302.76</ele>
 <time>2011-09-13T10:23:46Z</time>
 </trkpt>
 <trkpt lat="47.659176" lon="13.419376">
 <ele>1303.64</ele>
 <time>2011-09-13T10:23:55Z</time>
 </trkpt>
 <trkpt lat="47.659233" lon="13.419478">
 <ele>1304.12</ele>
 <time>2011-09-13T10:24:01Z</time>
 </trkpt>
 <trkpt lat="47.659317" lon="13.419561">
 <ele>1304.71</ele>
 <time>2011-09-13T10:24:08Z</time>
 </trkpt>
 <trkpt lat="47.659401" lon="13.419619">
 <ele>1305.55</ele>
 <time>2011-09-13T10:24:15Z</time>
 </trkpt>
 <trkpt lat="47.659485" lon="13.419642">
 <ele>1306.26</ele>
 <time>2011-09-13T10:24:21Z</time>
 </trkpt>
 <trkpt lat="47.659561" lon="13.419634">
 <ele>1307.22</ele>
 <time>2011-09-13T10:24:28Z</time>
 </trkpt>
 <trkpt lat="47.659657" lon="13.419609">
 <ele>1307.73</ele>
 <time>2011-09-13T10:24:34Z</time>
 </trkpt>
 <trkpt lat="47.659775" lon="13.419564">
 <ele>1308.45</ele>
 <time>2011-09-13T10:24:41Z</time>
 </trkpt>
 <trkpt lat="47.659859" lon="13.419546">
 <ele>1308.68</ele>
 <time>2011-09-13T10:24:47Z</time>
 </trkpt>
 <trkpt lat="47.659981" lon="13.419568">
 <ele>1309.15</ele>
 <time>2011-09-13T10:24:54Z</time>
 </trkpt>
 <trkpt lat="47.660103" lon="13.419606">
 <ele>1309.35</ele>
 <time>2011-09-13T10:25:00Z</time>
 </trkpt>
 <trkpt lat="47.660202" lon="13.419652">
 <ele>1309.43</ele>
 <time>2011-09-13T10:25:05Z</time>
 </trkpt>
 <trkpt lat="47.660351" lon="13.419709">
 <ele>1309.01</ele>
 <time>2011-09-13T10:25:12Z</time>
 </trkpt>
 <trkpt lat="47.660393" lon="13.419729">
 <ele>1308.95</ele>
 <time>2011-09-13T10:25:17Z</time>
 </trkpt>
 <trkpt lat="47.660442" lon="13.419796">
 <ele>1308.70</ele>
 <time>2011-09-13T10:25:21Z</time>
 </trkpt>
 <trkpt lat="47.660473" lon="13.419908">
 <ele>1308.55</ele>
 <time>2011-09-13T10:25:27Z</time>
 </trkpt>
 <trkpt lat="47.660519" lon="13.420037">
 <ele>1308.40</ele>
 <time>2011-09-13T10:25:33Z</time>
 </trkpt>
 <trkpt lat="47.660553" lon="13.420082">
 <ele>1308.34</ele>
 <time>2011-09-13T10:25:37Z</time>
 </trkpt>
 <trkpt lat="47.660561" lon="13.420206">
 <ele>1308.38</ele>
 <time>2011-09-13T10:25:44Z</time>
 </trkpt>
 <trkpt lat="47.660564" lon="13.420247">
 <ele>1308.45</ele>
 <time>2011-09-13T10:25:47Z</time>
 </trkpt>
 <trkpt lat="47.660587" lon="13.420362">
 <ele>1308.48</ele>
 <time>2011-09-13T10:25:56Z</time>
 </trkpt>
 <trkpt lat="47.660587" lon="13.420363">
 <ele>1308.48</ele>
 <time>2011-09-13T10:25:57Z</time>
 </trkpt>
 <trkpt lat="47.660595" lon="13.420411">
 <ele>1308.29</ele>
 <time>2011-09-13T10:26:40Z</time>
 </trkpt>
 <trkpt lat="47.660599" lon="13.420430">
 <ele>1308.30</ele>
 <time>2011-09-13T10:26:41Z</time>
 </trkpt>
 <trkpt lat="47.660583" lon="13.420523">
 <ele>1307.87</ele>
 <time>2011-09-13T10:26:46Z</time>
 </trkpt>
 <trkpt lat="47.660580" lon="13.420537">
 <ele>1307.73</ele>
 <time>2011-09-13T10:26:47Z</time>
 </trkpt>
 <trkpt lat="47.660580" lon="13.420609">
 <ele>1307.23</ele>
 <time>2011-09-13T10:26:53Z</time>
 </trkpt>
 <trkpt lat="47.660587" lon="13.420629">
 <ele>1307.07</ele>
 <time>2011-09-13T10:26:58Z</time>
 </trkpt>
 <trkpt lat="47.660587" lon="13.420632">
 <ele>1307.02</ele>
 <time>2011-09-13T10:26:59Z</time>
 </trkpt>
 <trkpt lat="47.660587" lon="13.420654">
 <ele>1306.90</ele>
 <time>2011-09-13T10:27:03Z</time>
 </trkpt>
 <trkpt lat="47.660622" lon="13.420753">
 <ele>1306.29</ele>
 <time>2011-09-13T10:27:17Z</time>
 </trkpt>
 <trkpt lat="47.660614" lon="13.420827">
 <ele>1305.54</ele>
 <time>2011-09-13T10:27:24Z</time>
 </trkpt>
 <trkpt lat="47.660599" lon="13.420887">
 <ele>1304.82</ele>
 <time>2011-09-13T10:27:29Z</time>
 </trkpt>
 <trkpt lat="47.660606" lon="13.420918">
 <ele>1304.28</ele>
 <time>2011-09-13T10:27:32Z</time>
 </trkpt>
 <trkpt lat="47.660618" lon="13.420935">
 <ele>1303.77</ele>
 <time>2011-09-13T10:27:35Z</time>
 </trkpt>
 <trkpt lat="47.660618" lon="13.420967">
 <ele>1303.16</ele>
 <time>2011-09-13T10:27:40Z</time>
 </trkpt>
 <trkpt lat="47.660629" lon="13.421072">
 <ele>1303.44</ele>
 <time>2011-09-13T10:28:01Z</time>
 </trkpt>
 <trkpt lat="47.660706" lon="13.421176">
 <ele>1302.56</ele>
 <time>2011-09-13T10:28:08Z</time>
 </trkpt>
 <trkpt lat="47.660721" lon="13.421208">
 <ele>1302.64</ele>
 <time>2011-09-13T10:28:10Z</time>
 </trkpt>
 <trkpt lat="47.660656" lon="13.421266">
 <ele>1302.76</ele>
 <time>2011-09-13T10:28:16Z</time>
 </trkpt>
 <trkpt lat="47.660629" lon="13.421262">
 <ele>1302.74</ele>
 <time>2011-09-13T10:28:17Z</time>
 </trkpt>
 <trkpt lat="47.660507" lon="13.421240">
 <ele>1302.07</ele>
 <time>2011-09-13T10:28:22Z</time>
 </trkpt>
 <trkpt lat="47.660351" lon="13.421205">
 <ele>1300.93</ele>
 <time>2011-09-13T10:28:29Z</time>
 </trkpt>
 <trkpt lat="47.660194" lon="13.421210">
 <ele>1299.85</ele>
 <time>2011-09-13T10:28:36Z</time>
 </trkpt>
 <trkpt lat="47.660030" lon="13.421251">
 <ele>1298.36</ele>
 <time>2011-09-13T10:28:43Z</time>
 </trkpt>
 <trkpt lat="47.659863" lon="13.421323">
 <ele>1296.40</ele>
 <time>2011-09-13T10:28:51Z</time>
 </trkpt>
 <trkpt lat="47.659714" lon="13.421421">
 <ele>1294.44</ele>
 <time>2011-09-13T10:28:58Z</time>
 </trkpt>
 <trkpt lat="47.659607" lon="13.421591">
 <ele>1291.71</ele>
 <time>2011-09-13T10:29:05Z</time>
 </trkpt>
 <trkpt lat="47.659531" lon="13.421809">
 <ele>1289.85</ele>
 <time>2011-09-13T10:29:13Z</time>
 </trkpt>
 <trkpt lat="47.659454" lon="13.422002">
 <ele>1288.05</ele>
 <time>2011-09-13T10:29:21Z</time>
 </trkpt>
 <trkpt lat="47.659367" lon="13.422226">
 <ele>1286.48</ele>
 <time>2011-09-13T10:29:30Z</time>
 </trkpt>
 <trkpt lat="47.659302" lon="13.422482">
 <ele>1283.93</ele>
 <time>2011-09-13T10:29:39Z</time>
 </trkpt>
 <trkpt lat="47.659286" lon="13.422635">
 <ele>1282.29</ele>
 <time>2011-09-13T10:29:45Z</time>
 </trkpt>
 <trkpt lat="47.659271" lon="13.422826">
 <ele>1280.62</ele>
 <time>2011-09-13T10:29:52Z</time>
 </trkpt>
 <trkpt lat="47.659279" lon="13.423003">
 <ele>1278.65</ele>
 <time>2011-09-13T10:29:59Z</time>
 </trkpt>
 <trkpt lat="47.659283" lon="13.423239">
 <ele>1276.20</ele>
 <time>2011-09-13T10:30:07Z</time>
 </trkpt>
 <trkpt lat="47.659283" lon="13.423455">
 <ele>1274.73</ele>
 <time>2011-09-13T10:30:14Z</time>
 </trkpt>
 <trkpt lat="47.659298" lon="13.423678">
 <ele>1272.66</ele>
 <time>2011-09-13T10:30:21Z</time>
 </trkpt>
 <trkpt lat="47.659237" lon="13.424360">
 <ele>1270.34</ele>
 <time>2011-09-13T10:30:28Z</time>
 </trkpt>
 <trkpt lat="47.659321" lon="13.424391">
 <ele>1267.64</ele>
 <time>2011-09-13T10:30:36Z</time>
 </trkpt>
 <trkpt lat="47.659443" lon="13.424420">
 <ele>1265.50</ele>
 <time>2011-09-13T10:30:44Z</time>
 </trkpt>
 <trkpt lat="47.659554" lon="13.424433">
 <ele>1264.43</ele>
 <time>2011-09-13T10:30:50Z</time>
 </trkpt>
 <trkpt lat="47.659622" lon="13.424418">
 <ele>1263.58</ele>
 <time>2011-09-13T10:30:55Z</time>
 </trkpt>
 <trkpt lat="47.659790" lon="13.424376">
 <ele>1262.96</ele>
 <time>2011-09-13T10:31:01Z</time>
 </trkpt>
 <trkpt lat="47.659901" lon="13.424434">
 <ele>1263.20</ele>
 <time>2011-09-13T10:31:05Z</time>
 </trkpt>
 <trkpt lat="47.659981" lon="13.424557">
 <ele>1263.88</ele>
 <time>2011-09-13T10:31:13Z</time>
 </trkpt>
 <trkpt lat="47.660038" lon="13.424811">
 <ele>1264.59</ele>
 <time>2011-09-13T10:31:22Z</time>
 </trkpt>
 <trkpt lat="47.660015" lon="13.425022">
 <ele>1265.30</ele>
 <time>2011-09-13T10:31:30Z</time>
 </trkpt>
 <trkpt lat="47.660015" lon="13.425154">
 <ele>1266.13</ele>
 <time>2011-09-13T10:31:37Z</time>
 </trkpt>
 <trkpt lat="47.660049" lon="13.425284">
 <ele>1266.62</ele>
 <time>2011-09-13T10:31:44Z</time>
 </trkpt>
 <trkpt lat="47.660122" lon="13.425353">
 <ele>1266.98</ele>
 <time>2011-09-13T10:31:51Z</time>
 </trkpt>
 <trkpt lat="47.660259" lon="13.425394">
 <ele>1267.24</ele>
 <time>2011-09-13T10:32:00Z</time>
 </trkpt>
 <trkpt lat="47.660389" lon="13.425400">
 <ele>1268.02</ele>
 <time>2011-09-13T10:32:08Z</time>
 </trkpt>
 <trkpt lat="47.660549" lon="13.425411">
 <ele>1268.70</ele>
 <time>2011-09-13T10:32:18Z</time>
 </trkpt>
 <trkpt lat="47.660740" lon="13.425446">
 <ele>1269.77</ele>
 <time>2011-09-13T10:32:29Z</time>
 </trkpt>
 <trkpt lat="47.660912" lon="13.425535">
 <ele>1270.99</ele>
 <time>2011-09-13T10:32:39Z</time>
 </trkpt>
 <trkpt lat="47.661011" lon="13.425655">
 <ele>1271.42</ele>
 <time>2011-09-13T10:32:45Z</time>
 </trkpt>
 <trkpt lat="47.661068" lon="13.425838">
 <ele>1271.76</ele>
 <time>2011-09-13T10:32:52Z</time>
 </trkpt>
 <trkpt lat="47.661140" lon="13.426069">
 <ele>1272.60</ele>
 <time>2011-09-13T10:33:01Z</time>
 </trkpt>
 <trkpt lat="47.661205" lon="13.426228">
 <ele>1273.03</ele>
 <time>2011-09-13T10:33:08Z</time>
 </trkpt>
 <trkpt lat="47.661285" lon="13.426435">
 <ele>1273.77</ele>
 <time>2011-09-13T10:33:17Z</time>
 </trkpt>
 <trkpt lat="47.661331" lon="13.426636">
 <ele>1274.66</ele>
 <time>2011-09-13T10:33:25Z</time>
 </trkpt>
 <trkpt lat="47.661373" lon="13.426878">
 <ele>1275.40</ele>
 <time>2011-09-13T10:33:34Z</time>
 </trkpt>
 <trkpt lat="47.661427" lon="13.427101">
 <ele>1276.28</ele>
 <time>2011-09-13T10:33:43Z</time>
 </trkpt>
 <trkpt lat="47.661461" lon="13.427296">
 <ele>1277.19</ele>
 <time>2011-09-13T10:33:51Z</time>
 </trkpt>
 <trkpt lat="47.661488" lon="13.427472">
 <ele>1277.98</ele>
 <time>2011-09-13T10:33:58Z</time>
 </trkpt>
 <trkpt lat="47.661499" lon="13.427665">
 <ele>1278.41</ele>
 <time>2011-09-13T10:34:05Z</time>
 </trkpt>
 <trkpt lat="47.661537" lon="13.427831">
 <ele>1278.84</ele>
 <time>2011-09-13T10:34:12Z</time>
 </trkpt>
 <trkpt lat="47.661579" lon="13.428052">
 <ele>1279.01</ele>
 <time>2011-09-13T10:34:20Z</time>
 </trkpt>
 <trkpt lat="47.661617" lon="13.428291">
 <ele>1279.39</ele>
 <time>2011-09-13T10:34:28Z</time>
 </trkpt>
 <trkpt lat="47.661667" lon="13.428506">
 <ele>1280.10</ele>
 <time>2011-09-13T10:34:36Z</time>
 </trkpt>
 <trkpt lat="47.661736" lon="13.428721">
 <ele>1280.88</ele>
 <time>2011-09-13T10:34:44Z</time>
 </trkpt>
 <trkpt lat="47.661812" lon="13.428953">
 <ele>1280.90</ele>
 <time>2011-09-13T10:34:52Z</time>
 </trkpt>
 <trkpt lat="47.661892" lon="13.429193">
 <ele>1281.72</ele>
 <time>2011-09-13T10:35:01Z</time>
 </trkpt>
 <trkpt lat="47.662006" lon="13.429417">
 <ele>1282.45</ele>
 <time>2011-09-13T10:35:11Z</time>
 </trkpt>
 <trkpt lat="47.662136" lon="13.429584">
 <ele>1283.37</ele>
 <time>2011-09-13T10:35:20Z</time>
 </trkpt>
 <trkpt lat="47.662224" lon="13.429688">
 <ele>1284.21</ele>
 <time>2011-09-13T10:35:26Z</time>
 </trkpt>
 <trkpt lat="47.662334" lon="13.429829">
 <ele>1285.78</ele>
 <time>2011-09-13T10:35:34Z</time>
 </trkpt>
 <trkpt lat="47.662468" lon="13.429957">
 <ele>1286.90</ele>
 <time>2011-09-13T10:35:43Z</time>
 </trkpt>
 <trkpt lat="47.662552" lon="13.430034">
 <ele>1287.57</ele>
 <time>2011-09-13T10:35:49Z</time>
 </trkpt>
 <trkpt lat="47.662643" lon="13.430123">
 <ele>1288.45</ele>
 <time>2011-09-13T10:35:55Z</time>
 </trkpt>
 <trkpt lat="47.662743" lon="13.430208">
 <ele>1289.12</ele>
 <time>2011-09-13T10:36:02Z</time>
 </trkpt>
 <trkpt lat="47.662872" lon="13.430321">
 <ele>1290.21</ele>
 <time>2011-09-13T10:36:11Z</time>
 </trkpt>
 <trkpt lat="47.662872" lon="13.430321">
 <ele>1290.33</ele>
 <time>2011-09-13T10:36:13Z</time>
 </trkpt>
 <trkpt lat="47.662903" lon="13.430368">
 <ele>1290.18</ele>
 <time>2011-09-13T10:36:22Z</time>
 </trkpt>
 <trkpt lat="47.662987" lon="13.430460">
 <ele>1290.12</ele>
 <time>2011-09-13T10:36:28Z</time>
 </trkpt>
 <trkpt lat="47.663139" lon="13.430443">
 <ele>1291.09</ele>
 <time>2011-09-13T10:36:36Z</time>
 </trkpt>
 <trkpt lat="47.663296" lon="13.430443">
 <ele>1291.91</ele>
 <time>2011-09-13T10:36:44Z</time>
 </trkpt>
 <trkpt lat="47.663460" lon="13.430411">
 <ele>1292.71</ele>
 <time>2011-09-13T10:36:53Z</time>
 </trkpt>
 <trkpt lat="47.663631" lon="13.430371">
 <ele>1293.68</ele>
 <time>2011-09-13T10:37:02Z</time>
 </trkpt>
 <trkpt lat="47.663811" lon="13.430330">
 <ele>1294.73</ele>
 <time>2011-09-13T10:37:11Z</time>
 </trkpt>
 <trkpt lat="47.663990" lon="13.430274">
 <ele>1295.93</ele>
 <time>2011-09-13T10:37:20Z</time>
 </trkpt>
 <trkpt lat="47.664169" lon="13.430242">
 <ele>1297.22</ele>
 <time>2011-09-13T10:37:29Z</time>
 </trkpt>
 <trkpt lat="47.664314" lon="13.430226">
 <ele>1297.79</ele>
 <time>2011-09-13T10:37:36Z</time>
 </trkpt>
 <trkpt lat="47.664528" lon="13.430202">
 <ele>1298.52</ele>
 <time>2011-09-13T10:37:47Z</time>
 </trkpt>
 <trkpt lat="47.664700" lon="13.430168">
 <ele>1299.73</ele>
 <time>2011-09-13T10:37:56Z</time>
 </trkpt>
 <trkpt lat="47.664917" lon="13.430139">
 <ele>1300.81</ele>
 <time>2011-09-13T10:38:07Z</time>
 </trkpt>
 <trkpt lat="47.665066" lon="13.430096">
 <ele>1301.59</ele>
 <time>2011-09-13T10:38:15Z</time>
 </trkpt>
 <trkpt lat="47.665211" lon="13.429997">
 <ele>1302.67</ele>
 <time>2011-09-13T10:38:24Z</time>
 </trkpt>
 <trkpt lat="47.665352" lon="13.429854">
 <ele>1303.45</ele>
 <time>2011-09-13T10:38:33Z</time>
 </trkpt>
 <trkpt lat="47.665466" lon="13.429679">
 <ele>1304.58</ele>
 <time>2011-09-13T10:38:42Z</time>
 </trkpt>
 <trkpt lat="47.665657" lon="13.429555">
 <ele>1305.82</ele>
 <time>2011-09-13T10:38:53Z</time>
 </trkpt>
 <trkpt lat="47.665848" lon="13.429493">
 <ele>1306.92</ele>
 <time>2011-09-13T10:39:03Z</time>
 </trkpt>
 <trkpt lat="47.665966" lon="13.429398">
 <ele>1307.83</ele>
 <time>2011-09-13T10:39:10Z</time>
 </trkpt>
 <trkpt lat="47.666077" lon="13.429190">
 <ele>1308.58</ele>
 <time>2011-09-13T10:39:19Z</time>
 </trkpt>
 <trkpt lat="47.666183" lon="13.429059">
 <ele>1309.47</ele>
 <time>2011-09-13T10:39:27Z</time>
 </trkpt>
 <trkpt lat="47.666359" lon="13.429007">
 <ele>1310.61</ele>
 <time>2011-09-13T10:39:37Z</time>
 </trkpt>
 <trkpt lat="47.666485" lon="13.428944">
 <ele>1311.30</ele>
 <time>2011-09-13T10:39:44Z</time>
 </trkpt>
 <trkpt lat="47.666637" lon="13.428838">
 <ele>1311.96</ele>
 <time>2011-09-13T10:39:53Z</time>
 </trkpt>
 <trkpt lat="47.666775" lon="13.428798">
 <ele>1312.95</ele>
 <time>2011-09-13T10:40:00Z</time>
 </trkpt>
 <trkpt lat="47.666981" lon="13.428802">
 <ele>1313.86</ele>
 <time>2011-09-13T10:40:10Z</time>
 </trkpt>
 <trkpt lat="47.667145" lon="13.428716">
 <ele>1314.38</ele>
 <time>2011-09-13T10:40:19Z</time>
 </trkpt>
 <trkpt lat="47.667236" lon="13.428570">
 <ele>1314.99</ele>
 <time>2011-09-13T10:40:26Z</time>
 </trkpt>
 <trkpt lat="47.667339" lon="13.428376">
 <ele>1316.05</ele>
 <time>2011-09-13T10:40:35Z</time>
 </trkpt>
 <trkpt lat="47.667454" lon="13.428280">
 <ele>1316.94</ele>
 <time>2011-09-13T10:40:42Z</time>
 </trkpt>
 <trkpt lat="47.667572" lon="13.428215">
 <ele>1317.92</ele>
 <time>2011-09-13T10:40:49Z</time>
 </trkpt>
 <trkpt lat="47.667717" lon="13.428130">
 <ele>1318.68</ele>
 <time>2011-09-13T10:40:57Z</time>
 </trkpt>
 <trkpt lat="47.667847" lon="13.428021">
 <ele>1319.12</ele>
 <time>2011-09-13T10:41:05Z</time>
 </trkpt>
 <trkpt lat="47.667995" lon="13.427980">
 <ele>1320.14</ele>
 <time>2011-09-13T10:41:13Z</time>
 </trkpt>
 <trkpt lat="47.668156" lon="13.428005">
 <ele>1321.24</ele>
 <time>2011-09-13T10:41:21Z</time>
 </trkpt>
 <trkpt lat="47.668312" lon="13.428018">
 <ele>1321.86</ele>
 <time>2011-09-13T10:41:29Z</time>
 </trkpt>
 <trkpt lat="47.668461" lon="13.427929">
 <ele>1322.43</ele>
 <time>2011-09-13T10:41:36Z</time>
 </trkpt>
 <trkpt lat="47.668510" lon="13.427745">
 <ele>1322.47</ele>
 <time>2011-09-13T10:41:42Z</time>
 </trkpt>
 <trkpt lat="47.668594" lon="13.427670">
 <ele>1322.64</ele>
 <time>2011-09-13T10:41:47Z</time>
 </trkpt>
 <trkpt lat="47.668716" lon="13.427642">
 <ele>1322.54</ele>
 <time>2011-09-13T10:41:52Z</time>
 </trkpt>
 <trkpt lat="47.668884" lon="13.427665">
 <ele>1322.14</ele>
 <time>2011-09-13T10:41:59Z</time>
 </trkpt>
 <trkpt lat="47.669060" lon="13.427586">
 <ele>1321.49</ele>
 <time>2011-09-13T10:42:05Z</time>
 </trkpt>
 <trkpt lat="47.669270" lon="13.427417">
 <ele>1320.80</ele>
 <time>2011-09-13T10:42:12Z</time>
 </trkpt>
 <trkpt lat="47.669376" lon="13.427291">
 <ele>1320.19</ele>
 <time>2011-09-13T10:42:16Z</time>
 </trkpt>
 <trkpt lat="47.669579" lon="13.427116">
 <ele>1318.97</ele>
 <time>2011-09-13T10:42:22Z</time>
 </trkpt>
 <trkpt lat="47.669849" lon="13.427046">
 <ele>1317.80</ele>
 <time>2011-09-13T10:42:29Z</time>
 </trkpt>
 <trkpt lat="47.669891" lon="13.427031">
 <ele>1316.86</ele>
 <time>2011-09-13T10:42:35Z</time>
 </trkpt>
 <trkpt lat="47.670197" lon="13.426690">
 <ele>1316.03</ele>
 <time>2011-09-13T10:42:42Z</time>
 </trkpt>
 <trkpt lat="47.670254" lon="13.426589">
 <ele>1315.86</ele>
 <time>2011-09-13T10:42:46Z</time>
 </trkpt>
 <trkpt lat="47.670254" lon="13.426589">
 <ele>1315.87</ele>
 <time>2011-09-13T10:42:47Z</time>
 </trkpt>
 <trkpt lat="47.670364" lon="13.426472">
 <ele>1314.78</ele>
 <time>2011-09-13T10:42:58Z</time>
 </trkpt>
 <trkpt lat="47.670490" lon="13.426340">
 <ele>1314.64</ele>
 <time>2011-09-13T10:43:04Z</time>
 </trkpt>
 <trkpt lat="47.670666" lon="13.426190">
 <ele>1314.80</ele>
 <time>2011-09-13T10:43:12Z</time>
 </trkpt>
 <trkpt lat="47.670799" lon="13.426121">
 <ele>1315.42</ele>
 <time>2011-09-13T10:43:18Z</time>
 </trkpt>
 <trkpt lat="47.670895" lon="13.426073">
 <ele>1315.99</ele>
 <time>2011-09-13T10:43:23Z</time>
 </trkpt>
 <trkpt lat="47.671059" lon="13.425974">
 <ele>1316.70</ele>
 <time>2011-09-13T10:43:31Z</time>
 </trkpt>
 <trkpt lat="47.671223" lon="13.425851">
 <ele>1317.23</ele>
 <time>2011-09-13T10:43:41Z</time>
 </trkpt>
 <trkpt lat="47.671223" lon="13.425851">
 <ele>1318.07</ele>
 <time>2011-09-13T10:43:50Z</time>
 </trkpt>
 <trkpt lat="47.671654" lon="13.425646">
 <ele>1318.16</ele>
 <time>2011-09-13T10:43:59Z</time>
 </trkpt>
 <trkpt lat="47.671825" lon="13.425627">
 <ele>1318.37</ele>
 <time>2011-09-13T10:44:07Z</time>
 </trkpt>
 <trkpt lat="47.671917" lon="13.425618">
 <ele>1318.60</ele>
 <time>2011-09-13T10:44:13Z</time>
 </trkpt>
 <trkpt lat="47.671963" lon="13.425616">
 <ele>1318.32</ele>
 <time>2011-09-13T10:47:01Z</time>
 </trkpt>
 <trkpt lat="47.671963" lon="13.425616">
 <ele>1318.18</ele>
 <time>2011-09-13T10:47:03Z</time>
 </trkpt>
 <trkpt lat="47.672031" lon="13.425626">
 <ele>1317.76</ele>
 <time>2011-09-13T10:47:14Z</time>
 </trkpt>
 <trkpt lat="47.672173" lon="13.425619">
 <ele>1317.66</ele>
 <time>2011-09-13T10:47:22Z</time>
 </trkpt>
 <trkpt lat="47.672333" lon="13.425586">
 <ele>1317.30</ele>
 <time>2011-09-13T10:47:29Z</time>
 </trkpt>
 <trkpt lat="47.672504" lon="13.425572">
 <ele>1316.42</ele>
 <time>2011-09-13T10:47:34Z</time>
 </trkpt>
 <trkpt lat="47.672760" lon="13.425629">
 <ele>1315.31</ele>
 <time>2011-09-13T10:47:42Z</time>
 </trkpt>
 <trkpt lat="47.672974" lon="13.425582">
 <ele>1314.28</ele>
 <time>2011-09-13T10:47:49Z</time>
 </trkpt>
 <trkpt lat="47.673218" lon="13.425392">
 <ele>1312.89</ele>
 <time>2011-09-13T10:47:57Z</time>
 </trkpt>
 <trkpt lat="47.673363" lon="13.425232">
 <ele>1312.68</ele>
 <time>2011-09-13T10:48:03Z</time>
 </trkpt>
 <trkpt lat="47.673485" lon="13.425127">
 <ele>1312.34</ele>
 <time>2011-09-13T10:48:09Z</time>
 </trkpt>
 <trkpt lat="47.673576" lon="13.424899">
 <ele>1311.83</ele>
 <time>2011-09-13T10:48:18Z</time>
 </trkpt>
 <trkpt lat="47.673645" lon="13.424720">
 <ele>1311.21</ele>
 <time>2011-09-13T10:48:25Z</time>
 </trkpt>
 <trkpt lat="47.673786" lon="13.424552">
 <ele>1310.10</ele>
 <time>2011-09-13T10:48:33Z</time>
 </trkpt>
 <trkpt lat="47.673874" lon="13.424498">
 <ele>1309.78</ele>
 <time>2011-09-13T10:48:39Z</time>
 </trkpt>
 <trkpt lat="47.673874" lon="13.424498">
 <ele>1309.70</ele>
 <time>2011-09-13T10:48:41Z</time>
 </trkpt>
 <trkpt lat="47.673874" lon="13.424498">
 <ele>1309.11</ele>
 <time>2011-09-13T10:48:48Z</time>
 </trkpt>
 <trkpt lat="47.673920" lon="13.424435">
 <ele>1309.07</ele>
 <time>2011-09-13T10:48:52Z</time>
 </trkpt>
 <trkpt lat="47.673882" lon="13.424491">
 <ele>1308.83</ele>
 <time>2011-09-13T10:49:00Z</time>
 </trkpt>
 <trkpt lat="47.673828" lon="13.424523">
 <ele>1308.79</ele>
 <time>2011-09-13T10:49:05Z</time>
 </trkpt>
 <trkpt lat="47.673721" lon="13.424606">
 <ele>1309.44</ele>
 <time>2011-09-13T10:49:13Z</time>
 </trkpt>
 <trkpt lat="47.673618" lon="13.424785">
 <ele>1310.77</ele>
 <time>2011-09-13T10:49:22Z</time>
 </trkpt>
 <trkpt lat="47.673531" lon="13.424975">
 <ele>1310.90</ele>
 <time>2011-09-13T10:49:31Z</time>
 </trkpt>
 <trkpt lat="47.673458" lon="13.425174">
 <ele>1311.80</ele>
 <time>2011-09-13T10:49:39Z</time>
 </trkpt>
 <trkpt lat="47.673355" lon="13.425237">
 <ele>1312.45</ele>
 <time>2011-09-13T10:49:47Z</time>
 </trkpt>
 <trkpt lat="47.673248" lon="13.425367">
 <ele>1312.44</ele>
 <time>2011-09-13T10:49:54Z</time>
 </trkpt>
 <trkpt lat="47.673103" lon="13.425475">
 <ele>1313.18</ele>
 <time>2011-09-13T10:50:03Z</time>
 </trkpt>
 <trkpt lat="47.672997" lon="13.425574">
 <ele>1313.60</ele>
 <time>2011-09-13T10:50:09Z</time>
 </trkpt>
 <trkpt lat="47.672867" lon="13.425616">
 <ele>1314.53</ele>
 <time>2011-09-13T10:50:17Z</time>
 </trkpt>
 <trkpt lat="47.672733" lon="13.425633">
 <ele>1315.35</ele>
 <time>2011-09-13T10:50:25Z</time>
 </trkpt>
 <trkpt lat="47.672577" lon="13.425589">
 <ele>1316.04</ele>
 <time>2011-09-13T10:50:34Z</time>
 </trkpt>
 <trkpt lat="47.672432" lon="13.425574">
 <ele>1316.87</ele>
 <time>2011-09-13T10:50:42Z</time>
 </trkpt>
 <trkpt lat="47.672318" lon="13.425588">
 <ele>1317.40</ele>
 <time>2011-09-13T10:50:48Z</time>
 </trkpt>
 <trkpt lat="47.672150" lon="13.425625">
 <ele>1317.75</ele>
 <time>2011-09-13T10:50:57Z</time>
 </trkpt>
 <trkpt lat="47.671993" lon="13.425621">
 <ele>1318.00</ele>
 <time>2011-09-13T10:51:05Z</time>
 </trkpt>
 <trkpt lat="47.671890" lon="13.425621">
 <ele>1317.98</ele>
 <time>2011-09-13T10:51:14Z</time>
 </trkpt>
 <trkpt lat="47.671745" lon="13.425636">
 <ele>1317.63</ele>
 <time>2011-09-13T10:51:21Z</time>
 </trkpt>
 <trkpt lat="47.671520" lon="13.425672">
 <ele>1317.55</ele>
 <time>2011-09-13T10:51:30Z</time>
 </trkpt>
 <trkpt lat="47.671417" lon="13.425731">
 <ele>1317.53</ele>
 <time>2011-09-13T10:51:34Z</time>
 </trkpt>
 <trkpt lat="47.671223" lon="13.425851">
 <ele>1316.80</ele>
 <time>2011-09-13T10:51:42Z</time>
 </trkpt>
 <trkpt lat="47.671223" lon="13.425851">
 <ele>1316.03</ele>
 <time>2011-09-13T10:51:47Z</time>
 </trkpt>
 <trkpt lat="47.670845" lon="13.426103">
 <ele>1315.28</ele>
 <time>2011-09-13T10:51:50Z</time>
 </trkpt>
 <trkpt lat="47.670536" lon="13.426286">
 <ele>1313.90</ele>
 <time>2011-09-13T10:51:56Z</time>
 </trkpt>
 <trkpt lat="47.670414" lon="13.426424">
 <ele>1313.54</ele>
 <time>2011-09-13T10:51:59Z</time>
 </trkpt>
 <trkpt lat="47.670231" lon="13.426630">
 <ele>1314.12</ele>
 <time>2011-09-13T10:52:05Z</time>
 </trkpt>
 <trkpt lat="47.670105" lon="13.426847">
 <ele>1315.11</ele>
 <time>2011-09-13T10:52:13Z</time>
 </trkpt>
 <trkpt lat="47.669998" lon="13.426970">
 <ele>1315.51</ele>
 <time>2011-09-13T10:52:19Z</time>
 </trkpt>
 <trkpt lat="47.669891" lon="13.427031">
 <ele>1316.37</ele>
 <time>2011-09-13T10:52:26Z</time>
 </trkpt>
 <trkpt lat="47.669891" lon="13.427031">
 <ele>1317.29</ele>
 <time>2011-09-13T10:52:36Z</time>
 </trkpt>
 <trkpt lat="47.669514" lon="13.427165">
 <ele>1317.83</ele>
 <time>2011-09-13T10:52:42Z</time>
 </trkpt>
 <trkpt lat="47.669384" lon="13.427283">
 <ele>1318.11</ele>
 <time>2011-09-13T10:52:48Z</time>
 </trkpt>
 <trkpt lat="47.669266" lon="13.427418">
 <ele>1318.81</ele>
 <time>2011-09-13T10:52:54Z</time>
 </trkpt>
 <trkpt lat="47.669083" lon="13.427567">
 <ele>1319.93</ele>
 <time>2011-09-13T10:53:03Z</time>
 </trkpt>
 <trkpt lat="47.668896" lon="13.427661">
 <ele>1320.34</ele>
 <time>2011-09-13T10:53:12Z</time>
 </trkpt>
 <trkpt lat="47.668701" lon="13.427639">
 <ele>1320.51</ele>
 <time>2011-09-13T10:53:20Z</time>
 </trkpt>
 <trkpt lat="47.668575" lon="13.427680">
 <ele>1320.99</ele>
 <time>2011-09-13T10:53:26Z</time>
 </trkpt>
 <trkpt lat="47.668507" lon="13.427765">
 <ele>1320.81</ele>
 <time>2011-09-13T10:53:30Z</time>
 </trkpt>
 <trkpt lat="47.668476" lon="13.427873">
 <ele>1320.74</ele>
 <time>2011-09-13T10:53:33Z</time>
 </trkpt>
 <trkpt lat="47.668331" lon="13.428016">
 <ele>1320.75</ele>
 <time>2011-09-13T10:53:40Z</time>
 </trkpt>
 <trkpt lat="47.668205" lon="13.428015">
 <ele>1320.32</ele>
 <time>2011-09-13T10:53:46Z</time>
 </trkpt>
 <trkpt lat="47.668091" lon="13.427989">
 <ele>1319.61</ele>
 <time>2011-09-13T10:53:51Z</time>
 </trkpt>
 <trkpt lat="47.667927" lon="13.427989">
 <ele>1318.72</ele>
 <time>2011-09-13T10:53:56Z</time>
 </trkpt>
 <trkpt lat="47.667786" lon="13.428074">
 <ele>1317.95</ele>
 <time>2011-09-13T10:54:01Z</time>
 </trkpt>
 <trkpt lat="47.667580" lon="13.428212">
 <ele>1316.44</ele>
 <time>2011-09-13T10:54:06Z</time>
 </trkpt>
 <trkpt lat="47.667412" lon="13.428304">
 <ele>1315.47</ele>
 <time>2011-09-13T10:54:10Z</time>
 </trkpt>
 <trkpt lat="47.667313" lon="13.428417">
 <ele>1314.90</ele>
 <time>2011-09-13T10:54:14Z</time>
 </trkpt>
 <trkpt lat="47.667210" lon="13.428612">
 <ele>1313.66</ele>
 <time>2011-09-13T10:54:19Z</time>
 </trkpt>
 <trkpt lat="47.667168" lon="13.428682">
 <ele>1313.27</ele>
 <time>2011-09-13T10:54:21Z</time>
 </trkpt>
 <trkpt lat="47.666916" lon="13.428809">
 <ele>1311.97</ele>
 <time>2011-09-13T10:54:27Z</time>
 </trkpt>
 <trkpt lat="47.666756" lon="13.428796">
 <ele>1310.92</ele>
 <time>2011-09-13T10:54:30Z</time>
 </trkpt>
 <trkpt lat="47.666519" lon="13.428924">
 <ele>1309.21</ele>
 <time>2011-09-13T10:54:34Z</time>
 </trkpt>
 <trkpt lat="47.666302" lon="13.429016">
 <ele>1307.86</ele>
 <time>2011-09-13T10:54:38Z</time>
 </trkpt>
 <trkpt lat="47.666153" lon="13.429084">
 <ele>1307.45</ele>
 <time>2011-09-13T10:54:43Z</time>
 </trkpt>
 <trkpt lat="47.666039" lon="13.429269">
 <ele>1306.29</ele>
 <time>2011-09-13T10:54:48Z</time>
 </trkpt>
 <trkpt lat="47.665939" lon="13.429432">
 <ele>1305.52</ele>
 <time>2011-09-13T10:54:53Z</time>
 </trkpt>
 <trkpt lat="47.665806" lon="13.429505">
 <ele>1304.49</ele>
 <time>2011-09-13T10:54:58Z</time>
 </trkpt>
 <trkpt lat="47.665642" lon="13.429562">
 <ele>1303.21</ele>
 <time>2011-09-13T10:55:06Z</time>
 </trkpt>
 <trkpt lat="47.665508" lon="13.429645">
 <ele>1302.67</ele>
 <time>2011-09-13T10:55:13Z</time>
 </trkpt>
 <trkpt lat="47.665417" lon="13.429750">
 <ele>1302.07</ele>
 <time>2011-09-13T10:55:17Z</time>
 </trkpt>
 <trkpt lat="47.665264" lon="13.429941">
 <ele>1300.60</ele>
 <time>2011-09-13T10:55:23Z</time>
 </trkpt>
 <trkpt lat="47.665150" lon="13.430057">
 <ele>1299.54</ele>
 <time>2011-09-13T10:55:28Z</time>
 </trkpt>
 <trkpt lat="47.664921" lon="13.430138">
 <ele>1297.94</ele>
 <time>2011-09-13T10:55:34Z</time>
 </trkpt>
 <trkpt lat="47.664604" lon="13.430187">
 <ele>1295.72</ele>
 <time>2011-09-13T10:55:40Z</time>
 </trkpt>
 <trkpt lat="47.664322" lon="13.430225">
 <ele>1294.48</ele>
 <time>2011-09-13T10:55:45Z</time>
 </trkpt>
 <trkpt lat="47.663876" lon="13.430305">
 <ele>1291.49</ele>
 <time>2011-09-13T10:55:52Z</time>
 </trkpt>
 <trkpt lat="47.663513" lon="13.430397">
 <ele>1289.02</ele>
 <time>2011-09-13T10:55:58Z</time>
 </trkpt>
 <trkpt lat="47.663223" lon="13.430443">
 <ele>1287.91</ele>
 <time>2011-09-13T10:56:04Z</time>
 </trkpt>
 <trkpt lat="47.662975" lon="13.430462">
 <ele>1286.68</ele>
 <time>2011-09-13T10:56:11Z</time>
 </trkpt>
 <trkpt lat="47.662964" lon="13.430464">
 <ele>1285.28</ele>
 <time>2011-09-13T10:56:16Z</time>
 </trkpt>
 <trkpt lat="47.662788" lon="13.430682">
 <ele>1284.14</ele>
 <time>2011-09-13T10:56:20Z</time>
 </trkpt>
 <trkpt lat="47.662788" lon="13.430722">
 <ele>1283.60</ele>
 <time>2011-09-13T10:56:24Z</time>
 </trkpt>
 <trkpt lat="47.662788" lon="13.430722">
 <ele>1283.30</ele>
 <time>2011-09-13T10:56:29Z</time>
 </trkpt>
 <trkpt lat="47.662788" lon="13.430722">
 <ele>1282.76</ele>
 <time>2011-09-13T10:56:34Z</time>
 </trkpt>
 <trkpt lat="47.662788" lon="13.430722">
 <ele>1282.45</ele>
 <time>2011-09-13T10:56:45Z</time>
 </trkpt>
 <trkpt lat="47.662788" lon="13.430722">
 <ele>1282.38</ele>
 <time>2011-09-13T10:56:46Z</time>
 </trkpt>
 <trkpt lat="47.662788" lon="13.430722">
 <ele>1282.29</ele>
 <time>2011-09-13T10:57:21Z</time>
 </trkpt>
 <trkpt lat="47.662788" lon="13.430722">
 <ele>1281.66</ele>
 <time>2011-09-13T10:59:45Z</time>
 </trkpt>
 <trkpt lat="47.662788" lon="13.430722">
 <ele>1281.66</ele>
 <time>2011-09-13T10:59:46Z</time>
 </trkpt>
 <trkpt lat="47.662907" lon="13.431348">
 <ele>1279.24</ele>
 <time>2011-09-13T10:59:50Z</time>
 </trkpt>
 <trkpt lat="47.662876" lon="13.431689">
 <ele>1277.30</ele>
 <time>2011-09-13T10:59:55Z</time>
 </trkpt>
 <trkpt lat="47.662811" lon="13.431982">
 <ele>1275.52</ele>
 <time>2011-09-13T11:00:00Z</time>
 </trkpt>
 <trkpt lat="47.662762" lon="13.432099">
 <ele>1274.47</ele>
 <time>2011-09-13T11:00:02Z</time>
 </trkpt>
 <trkpt lat="47.662533" lon="13.432597">
 <ele>1269.92</ele>
 <time>2011-09-13T11:00:08Z</time>
 </trkpt>
 <trkpt lat="47.662388" lon="13.432872">
 <ele>1267.39</ele>
 <time>2011-09-13T11:00:11Z</time>
 </trkpt>
 <trkpt lat="47.662163" lon="13.433243">
 <ele>1264.55</ele>
 <time>2011-09-13T11:00:16Z</time>
 </trkpt>
 <trkpt lat="47.662083" lon="13.433455">
 <ele>1263.88</ele>
 <time>2011-09-13T11:00:19Z</time>
 </trkpt>
 <trkpt lat="47.661995" lon="13.433837">
 <ele>1261.81</ele>
 <time>2011-09-13T11:00:25Z</time>
 </trkpt>
 <trkpt lat="47.661995" lon="13.434194">
 <ele>1259.41</ele>
 <time>2011-09-13T11:00:29Z</time>
 </trkpt>
 <trkpt lat="47.662086" lon="13.434623">
 <ele>1256.78</ele>
 <time>2011-09-13T11:00:34Z</time>
 </trkpt>
 <trkpt lat="47.662189" lon="13.434903">
 <ele>1255.29</ele>
 <time>2011-09-13T11:00:38Z</time>
 </trkpt>
 <trkpt lat="47.662273" lon="13.435106">
 <ele>1253.92</ele>
 <time>2011-09-13T11:00:41Z</time>
 </trkpt>
 <trkpt lat="47.662376" lon="13.435443">
 <ele>1251.88</ele>
 <time>2011-09-13T11:00:46Z</time>
 </trkpt>
 <trkpt lat="47.662373" lon="13.435536">
 <ele>1251.06</ele>
 <time>2011-09-13T11:00:48Z</time>
 </trkpt>
 <trkpt lat="47.662373" lon="13.435598">
 <ele>1250.18</ele>
 <time>2011-09-13T11:00:52Z</time>
 </trkpt>
 <trkpt lat="47.662373" lon="13.435598">
 <ele>1249.99</ele>
 <time>2011-09-13T11:00:55Z</time>
 </trkpt>
 <trkpt lat="47.662373" lon="13.435598">
 <ele>1249.96</ele>
 <time>2011-09-13T11:00:57Z</time>
 </trkpt>
 <trkpt lat="47.662361" lon="13.435743">
 <ele>1249.14</ele>
 <time>2011-09-13T11:01:08Z</time>
 </trkpt>
 <trkpt lat="47.662266" lon="13.436090">
 <ele>1247.62</ele>
 <time>2011-09-13T11:01:16Z</time>
 </trkpt>
 <trkpt lat="47.662212" lon="13.436210">
 <ele>1247.06</ele>
 <time>2011-09-13T11:01:19Z</time>
 </trkpt>
 <trkpt lat="47.662113" lon="13.436408">
 <ele>1245.78</ele>
 <time>2011-09-13T11:01:23Z</time>
 </trkpt>
 <trkpt lat="47.661827" lon="13.436673">
 <ele>1243.99</ele>
 <time>2011-09-13T11:01:30Z</time>
 </trkpt>
 <trkpt lat="47.661495" lon="13.436800">
 <ele>1241.72</ele>
 <time>2011-09-13T11:01:37Z</time>
 </trkpt>
 <trkpt lat="47.661442" lon="13.436815">
 <ele>1241.19</ele>
 <time>2011-09-13T11:01:38Z</time>
 </trkpt>
 <trkpt lat="47.661133" lon="13.436682">
 <ele>1238.18</ele>
 <time>2011-09-13T11:01:43Z</time>
 </trkpt>
 <trkpt lat="47.661072" lon="13.436616">
 <ele>1237.37</ele>
 <time>2011-09-13T11:01:44Z</time>
 </trkpt>
 <trkpt lat="47.660858" lon="13.436394">
 <ele>1234.66</ele>
 <time>2011-09-13T11:01:47Z</time>
 </trkpt>
 <trkpt lat="47.660564" lon="13.436152">
 <ele>1230.81</ele>
 <time>2011-09-13T11:01:51Z</time>
 </trkpt>
 <trkpt lat="47.660480" lon="13.436107">
 <ele>1229.75</ele>
 <time>2011-09-13T11:01:52Z</time>
 </trkpt>
 <trkpt lat="47.660206" lon="13.436087">
 <ele>1226.58</ele>
 <time>2011-09-13T11:01:55Z</time>
 </trkpt>
 <trkpt lat="47.659840" lon="13.435916">
 <ele>1222.85</ele>
 <time>2011-09-13T11:01:59Z</time>
 </trkpt>
 <trkpt lat="47.659271" lon="13.435715">
 <ele>1216.82</ele>
 <time>2011-09-13T11:02:05Z</time>
 </trkpt>
 <trkpt lat="47.658932" lon="13.435612">
 <ele>1214.23</ele>
 <time>2011-09-13T11:02:09Z</time>
 </trkpt>
 <trkpt lat="47.658752" lon="13.435500">
 <ele>1212.54</ele>
 <time>2011-09-13T11:02:11Z</time>
 </trkpt>
 <trkpt lat="47.658119" lon="13.435217">
 <ele>1205.12</ele>
 <time>2011-09-13T11:02:17Z</time>
 </trkpt>
 <trkpt lat="47.657776" lon="13.435077">
 <ele>1201.58</ele>
 <time>2011-09-13T11:02:21Z</time>
 </trkpt>
 <trkpt lat="47.657703" lon="13.435043">
 <ele>1200.81</ele>
 <time>2011-09-13T11:02:22Z</time>
 </trkpt>
 <trkpt lat="47.657558" lon="13.434939">
 <ele>1200.17</ele>
 <time>2011-09-13T11:02:24Z</time>
 </trkpt>
 <trkpt lat="47.657181" lon="13.434525">
 <ele>1195.68</ele>
 <time>2011-09-13T11:02:29Z</time>
 </trkpt>
 <trkpt lat="47.657112" lon="13.434440">
 <ele>1194.76</ele>
 <time>2011-09-13T11:02:30Z</time>
 </trkpt>
 <trkpt lat="47.656872" lon="13.434103">
 <ele>1192.02</ele>
 <time>2011-09-13T11:02:35Z</time>
 </trkpt>
 <trkpt lat="47.656769" lon="13.433964">
 <ele>1190.58</ele>
 <time>2011-09-13T11:02:40Z</time>
 </trkpt>
 <trkpt lat="47.656696" lon="13.433883">
 <ele>1189.68</ele>
 <time>2011-09-13T11:02:42Z</time>
 </trkpt>
 <trkpt lat="47.656471" lon="13.433776">
 <ele>1187.22</ele>
 <time>2011-09-13T11:02:46Z</time>
 </trkpt>
 <trkpt lat="47.656307" lon="13.433790">
 <ele>1185.85</ele>
 <time>2011-09-13T11:02:49Z</time>
 </trkpt>
 <trkpt lat="47.656120" lon="13.433841">
 <ele>1183.90</ele>
 <time>2011-09-13T11:02:52Z</time>
 </trkpt>
 <trkpt lat="47.655895" lon="13.433951">
 <ele>1180.81</ele>
 <time>2011-09-13T11:02:56Z</time>
 </trkpt>
 <trkpt lat="47.655674" lon="13.434272">
 <ele>1176.77</ele>
 <time>2011-09-13T11:03:01Z</time>
 </trkpt>
 <trkpt lat="47.655567" lon="13.434979">
 <ele>1172.47</ele>
 <time>2011-09-13T11:03:07Z</time>
 </trkpt>
 <trkpt lat="47.655560" lon="13.435215">
 <ele>1171.06</ele>
 <time>2011-09-13T11:03:09Z</time>
 </trkpt>
 <trkpt lat="47.655609" lon="13.435713">
 <ele>1168.04</ele>
 <time>2011-09-13T11:03:14Z</time>
 </trkpt>
 <trkpt lat="47.655670" lon="13.435936">
 <ele>1166.49</ele>
 <time>2011-09-13T11:03:16Z</time>
 </trkpt>
 <trkpt lat="47.655930" lon="13.436381">
 <ele>1162.31</ele>
 <time>2011-09-13T11:03:21Z</time>
 </trkpt>
 <trkpt lat="47.655991" lon="13.436437">
 <ele>1161.49</ele>
 <time>2011-09-13T11:03:22Z</time>
 </trkpt>
 <trkpt lat="47.656433" lon="13.436775">
 <ele>1156.45</ele>
 <time>2011-09-13T11:03:29Z</time>
 </trkpt>
 <trkpt lat="47.656693" lon="13.436979">
 <ele>1154.01</ele>
 <time>2011-09-13T11:03:34Z</time>
 </trkpt>
 <trkpt lat="47.656822" lon="13.437099">
 <ele>1153.51</ele>
 <time>2011-09-13T11:03:39Z</time>
 </trkpt>
 <trkpt lat="47.656837" lon="13.437114">
 <ele>1153.30</ele>
 <time>2011-09-13T11:03:42Z</time>
 </trkpt>
 <trkpt lat="47.656818" lon="13.437095">
 <ele>1153.49</ele>
 <time>2011-09-13T11:04:27Z</time>
 </trkpt>
 <trkpt lat="47.656853" lon="13.437126">
 <ele>1152.49</ele>
 <time>2011-09-13T11:04:31Z</time>
 </trkpt>
 <trkpt lat="47.656990" lon="13.437338">
 <ele>1151.34</ele>
 <time>2011-09-13T11:04:46Z</time>
 </trkpt>
 <trkpt lat="47.656998" lon="13.437352">
 <ele>1150.94</ele>
 <time>2011-09-13T11:04:51Z</time>
 </trkpt>
 <trkpt lat="47.657249" lon="13.437685">
 <ele>1149.68</ele>
 <time>2011-09-13T11:04:57Z</time>
 </trkpt>
 <trkpt lat="47.657497" lon="13.438016">
 <ele>1147.79</ele>
 <time>2011-09-13T11:05:04Z</time>
 </trkpt>
 <trkpt lat="47.657764" lon="13.438359">
 <ele>1146.48</ele>
 <time>2011-09-13T11:05:10Z</time>
 </trkpt>
 <trkpt lat="47.657967" lon="13.438652">
 <ele>1145.32</ele>
 <time>2011-09-13T11:05:14Z</time>
 </trkpt>
 <trkpt lat="47.658173" lon="13.439092">
 <ele>1143.56</ele>
 <time>2011-09-13T11:05:19Z</time>
 </trkpt>
 <trkpt lat="47.658215" lon="13.439187">
 <ele>1143.55</ele>
 <time>2011-09-13T11:05:20Z</time>
 </trkpt>
 <trkpt lat="47.658375" lon="13.439770">
 <ele>1140.56</ele>
 <time>2011-09-13T11:05:25Z</time>
 </trkpt>
 <trkpt lat="47.658379" lon="13.439908">
 <ele>1139.69</ele>
 <time>2011-09-13T11:05:26Z</time>
 </trkpt>
 <trkpt lat="47.658382" lon="13.440182">
 <ele>1137.74</ele>
 <time>2011-09-13T11:05:28Z</time>
 </trkpt>
 <trkpt lat="47.658432" lon="13.440667">
 <ele>1133.93</ele>
 <time>2011-09-13T11:05:32Z</time>
 </trkpt>
 <trkpt lat="47.658600" lon="13.441140">
 <ele>1130.19</ele>
 <time>2011-09-13T11:05:36Z</time>
 </trkpt>
 <trkpt lat="47.658684" lon="13.441387">
 <ele>1127.94</ele>
 <time>2011-09-13T11:05:38Z</time>
 </trkpt>
 <trkpt lat="47.658875" lon="13.441717">
 <ele>1124.14</ele>
 <time>2011-09-13T11:05:41Z</time>
 </trkpt>
 <trkpt lat="47.659084" lon="13.442040">
 <ele>1120.18</ele>
 <time>2011-09-13T11:05:44Z</time>
 </trkpt>
 <trkpt lat="47.659389" lon="13.442501">
 <ele>1116.10</ele>
 <time>2011-09-13T11:05:48Z</time>
 </trkpt>
 <trkpt lat="47.659840" lon="13.443108">
 <ele>1109.19</ele>
 <time>2011-09-13T11:05:53Z</time>
 </trkpt>
 <trkpt lat="47.660118" lon="13.443445">
 <ele>1105.45</ele>
 <time>2011-09-13T11:05:56Z</time>
 </trkpt>
 <trkpt lat="47.660503" lon="13.443809">
 <ele>1100.88</ele>
 <time>2011-09-13T11:06:01Z</time>
 </trkpt>
 <trkpt lat="47.660927" lon="13.444189">
 <ele>1095.67</ele>
 <time>2011-09-13T11:06:06Z</time>
 </trkpt>
 <trkpt lat="47.661301" lon="13.444523">
 <ele>1092.05</ele>
 <time>2011-09-13T11:06:10Z</time>
 </trkpt>
 <trkpt lat="47.661682" lon="13.444868">
 <ele>1087.79</ele>
 <time>2011-09-13T11:06:14Z</time>
 </trkpt>
 <trkpt lat="47.661880" lon="13.445051">
 <ele>1085.93</ele>
 <time>2011-09-13T11:06:17Z</time>
 </trkpt>
 <trkpt lat="47.662048" lon="13.445388">
 <ele>1085.06</ele>
 <time>2011-09-13T11:06:21Z</time>
 </trkpt>
 <trkpt lat="47.662045" lon="13.445575">
 <ele>1084.24</ele>
 <time>2011-09-13T11:06:23Z</time>
 </trkpt>
 <trkpt lat="47.661968" lon="13.445666">
 <ele>1083.78</ele>
 <time>2011-09-13T11:06:24Z</time>
 </trkpt>
 <trkpt lat="47.661552" lon="13.445791">
 <ele>1082.06</ele>
 <time>2011-09-13T11:06:30Z</time>
 </trkpt>
 <trkpt lat="47.661415" lon="13.445829">
 <ele>1081.44</ele>
 <time>2011-09-13T11:06:32Z</time>
 </trkpt>
 <trkpt lat="47.661217" lon="13.445900">
 <ele>1080.99</ele>
 <time>2011-09-13T11:06:35Z</time>
 </trkpt>
 <trkpt lat="47.660831" lon="13.446163">
 <ele>1080.83</ele>
 <time>2011-09-13T11:06:41Z</time>
 </trkpt>
 <trkpt lat="47.660709" lon="13.446292">
 <ele>1080.49</ele>
 <time>2011-09-13T11:06:43Z</time>
 </trkpt>
 <trkpt lat="47.660515" lon="13.446692">
 <ele>1080.16</ele>
 <time>2011-09-13T11:06:48Z</time>
 </trkpt>
 <trkpt lat="47.660469" lon="13.446971">
 <ele>1079.89</ele>
 <time>2011-09-13T11:06:51Z</time>
 </trkpt>
 <trkpt lat="47.660488" lon="13.447070">
 <ele>1079.63</ele>
 <time>2011-09-13T11:06:52Z</time>
 </trkpt>
 <trkpt lat="47.660664" lon="13.447763">
 <ele>1075.52</ele>
 <time>2011-09-13T11:06:58Z</time>
 </trkpt>
 <trkpt lat="47.660732" lon="13.448022">
 <ele>1074.72</ele>
 <time>2011-09-13T11:07:00Z</time>
 </trkpt>
 <trkpt lat="47.661045" lon="13.449067">
 <ele>1069.55</ele>
 <time>2011-09-13T11:07:08Z</time>
 </trkpt>
 <trkpt lat="47.661259" lon="13.449507">
 <ele>1066.74</ele>
 <time>2011-09-13T11:07:12Z</time>
 </trkpt>
 <trkpt lat="47.661709" lon="13.449920">
 <ele>1062.71</ele>
 <time>2011-09-13T11:07:17Z</time>
 </trkpt>
 <trkpt lat="47.662189" lon="13.450417">
 <ele>1056.58</ele>
 <time>2011-09-13T11:07:22Z</time>
 </trkpt>
 <trkpt lat="47.662460" lon="13.450749">
 <ele>1054.34</ele>
 <time>2011-09-13T11:07:25Z</time>
 </trkpt>
 <trkpt lat="47.662949" lon="13.451168">
 <ele>1050.41</ele>
 <time>2011-09-13T11:07:30Z</time>
 </trkpt>
 <trkpt lat="47.663040" lon="13.451234">
 <ele>1049.97</ele>
 <time>2011-09-13T11:07:31Z</time>
 </trkpt>
 <trkpt lat="47.663242" lon="13.451409">
 <ele>1048.85</ele>
 <time>2011-09-13T11:07:34Z</time>
 </trkpt>
 <trkpt lat="47.663261" lon="13.451563">
 <ele>1048.19</ele>
 <time>2011-09-13T11:07:36Z</time>
 </trkpt>
 <trkpt lat="47.663197" lon="13.451689">
 <ele>1047.42</ele>
 <time>2011-09-13T11:07:38Z</time>
 </trkpt>
 <trkpt lat="47.663048" lon="13.451718">
 <ele>1046.22</ele>
 <time>2011-09-13T11:07:40Z</time>
 </trkpt>
 <trkpt lat="47.662624" lon="13.451593">
 <ele>1041.79</ele>
 <time>2011-09-13T11:07:45Z</time>
 </trkpt>
 <trkpt lat="47.662354" lon="13.451529">
 <ele>1040.02</ele>
 <time>2011-09-13T11:07:48Z</time>
 </trkpt>
 <trkpt lat="47.662189" lon="13.451579">
 <ele>1038.52</ele>
 <time>2011-09-13T11:07:50Z</time>
 </trkpt>
 <trkpt lat="47.662041" lon="13.451750">
 <ele>1037.16</ele>
 <time>2011-09-13T11:07:53Z</time>
 </trkpt>
 <trkpt lat="47.662056" lon="13.451876">
 <ele>1036.73</ele>
 <time>2011-09-13T11:07:55Z</time>
 </trkpt>
 <trkpt lat="47.662121" lon="13.451961">
 <ele>1036.04</ele>
 <time>2011-09-13T11:07:57Z</time>
 </trkpt>
 <trkpt lat="47.662540" lon="13.452078">
 <ele>1032.15</ele>
 <time>2011-09-13T11:08:02Z</time>
 </trkpt>
 <trkpt lat="47.663181" lon="13.452292">
 <ele>1024.11</ele>
 <time>2011-09-13T11:08:08Z</time>
 </trkpt>
 <trkpt lat="47.663647" lon="13.452472">
 <ele>1018.48</ele>
 <time>2011-09-13T11:08:12Z</time>
 </trkpt>
 <trkpt lat="47.663754" lon="13.452513">
 <ele>1018.47</ele>
 <time>2011-09-13T11:08:13Z</time>
 </trkpt>
 <trkpt lat="47.663853" lon="13.452498">
 <ele>1017.46</ele>
 <time>2011-09-13T11:08:14Z</time>
 </trkpt>
 <trkpt lat="47.664120" lon="13.452590">
 <ele>1015.21</ele>
 <time>2011-09-13T11:08:18Z</time>
 </trkpt>
 <trkpt lat="47.664104" lon="13.452710">
 <ele>1014.70</ele>
 <time>2011-09-13T11:08:20Z</time>
 </trkpt>
 <trkpt lat="47.664005" lon="13.452799">
 <ele>1013.76</ele>
 <time>2011-09-13T11:08:23Z</time>
 </trkpt>
 <trkpt lat="47.663792" lon="13.452795">
 <ele>1011.87</ele>
 <time>2011-09-13T11:08:26Z</time>
 </trkpt>
 <trkpt lat="47.663441" lon="13.452889">
 <ele>1008.09</ele>
 <time>2011-09-13T11:08:30Z</time>
 </trkpt>
 <trkpt lat="47.662933" lon="13.453222">
 <ele>1001.01</ele>
 <time>2011-09-13T11:08:35Z</time>
 </trkpt>
 <trkpt lat="47.662640" lon="13.453424">
 <ele>998.27</ele>
 <time>2011-09-13T11:08:38Z</time>
 </trkpt>
 <trkpt lat="47.662338" lon="13.453726">
 <ele>994.29</ele>
 <time>2011-09-13T11:08:42Z</time>
 </trkpt>
 <trkpt lat="47.662186" lon="13.454114">
 <ele>992.01</ele>
 <time>2011-09-13T11:08:45Z</time>
 </trkpt>
 <trkpt lat="47.662079" lon="13.454547">
 <ele>989.08</ele>
 <time>2011-09-13T11:08:48Z</time>
 </trkpt>
 <trkpt lat="47.661900" lon="13.454892">
 <ele>985.53</ele>
 <time>2011-09-13T11:08:51Z</time>
 </trkpt>
 <trkpt lat="47.661549" lon="13.455321">
 <ele>980.82</ele>
 <time>2011-09-13T11:08:55Z</time>
 </trkpt>
 <trkpt lat="47.661285" lon="13.455431">
 <ele>977.73</ele>
 <time>2011-09-13T11:08:58Z</time>
 </trkpt>
 <trkpt lat="47.661144" lon="13.455403">
 <ele>976.01</ele>
 <time>2011-09-13T11:09:00Z</time>
 </trkpt>
 <trkpt lat="47.660858" lon="13.455379">
 <ele>974.44</ele>
 <time>2011-09-13T11:09:03Z</time>
 </trkpt>
 <trkpt lat="47.660797" lon="13.455479">
 <ele>973.41</ele>
 <time>2011-09-13T11:09:05Z</time>
 </trkpt>
 <trkpt lat="47.660793" lon="13.455484">
 <ele>972.65</ele>
 <time>2011-09-13T11:09:07Z</time>
 </trkpt>
 <trkpt lat="47.660839" lon="13.455613">
 <ele>971.99</ele>
 <time>2011-09-13T11:09:09Z</time>
 </trkpt>
 <trkpt lat="47.660870" lon="13.455621">
 <ele>971.69</ele>
 <time>2011-09-13T11:09:10Z</time>
 </trkpt>
 <trkpt lat="47.661007" lon="13.455661">
 <ele>971.05</ele>
 <time>2011-09-13T11:09:12Z</time>
 </trkpt>
 <trkpt lat="47.661316" lon="13.455835">
 <ele>968.33</ele>
 <time>2011-09-13T11:09:16Z</time>
 </trkpt>
 <trkpt lat="47.661842" lon="13.456260">
 <ele>962.28</ele>
 <time>2011-09-13T11:09:22Z</time>
 </trkpt>
 <trkpt lat="47.662201" lon="13.456478">
 <ele>958.35</ele>
 <time>2011-09-13T11:09:26Z</time>
 </trkpt>
 <trkpt lat="47.662388" lon="13.456445">
 <ele>957.53</ele>
 <time>2011-09-13T11:09:28Z</time>
 </trkpt>
 <trkpt lat="47.662575" lon="13.456248">
 <ele>955.40</ele>
 <time>2011-09-13T11:09:31Z</time>
 </trkpt>
 <trkpt lat="47.662636" lon="13.456175">
 <ele>954.70</ele>
 <time>2011-09-13T11:09:32Z</time>
 </trkpt>
 <trkpt lat="47.662945" lon="13.455651">
 <ele>949.92</ele>
 <time>2011-09-13T11:09:37Z</time>
 </trkpt>
 <trkpt lat="47.663265" lon="13.455322">
 <ele>945.57</ele>
 <time>2011-09-13T11:09:41Z</time>
 </trkpt>
 <trkpt lat="47.663361" lon="13.455274">
 <ele>944.40</ele>
 <time>2011-09-13T11:09:42Z</time>
 </trkpt>
 <trkpt lat="47.663929" lon="13.455289">
 <ele>937.70</ele>
 <time>2011-09-13T11:09:47Z</time>
 </trkpt>
 <trkpt lat="47.664368" lon="13.455034">
 <ele>931.57</ele>
 <time>2011-09-13T11:09:51Z</time>
 </trkpt>
 <trkpt lat="47.664726" lon="13.454885">
 <ele>928.60</ele>
 <time>2011-09-13T11:09:54Z</time>
 </trkpt>
 <trkpt lat="47.665459" lon="13.454598">
 <ele>919.67</ele>
 <time>2011-09-13T11:10:00Z</time>
 </trkpt>
 <trkpt lat="47.665901" lon="13.454428">
 <ele>914.12</ele>
 <time>2011-09-13T11:10:04Z</time>
 </trkpt>
 <trkpt lat="47.666321" lon="13.454316">
 <ele>910.34</ele>
 <time>2011-09-13T11:10:08Z</time>
 </trkpt>
 <trkpt lat="47.666489" lon="13.454296">
 <ele>909.64</ele>
 <time>2011-09-13T11:10:10Z</time>
 </trkpt>
 <trkpt lat="47.666538" lon="13.454379">
 <ele>909.26</ele>
 <time>2011-09-13T11:10:12Z</time>
 </trkpt>
 <trkpt lat="47.666473" lon="13.454515">
 <ele>908.79</ele>
 <time>2011-09-13T11:10:14Z</time>
 </trkpt>
 <trkpt lat="47.666443" lon="13.454551">
 <ele>908.41</ele>
 <time>2011-09-13T11:10:15Z</time>
 </trkpt>
 <trkpt lat="47.666256" lon="13.454664">
 <ele>907.16</ele>
 <time>2011-09-13T11:10:18Z</time>
 </trkpt>
 <trkpt lat="47.666100" lon="13.454761">
 <ele>905.35</ele>
 <time>2011-09-13T11:10:20Z</time>
 </trkpt>
 <trkpt lat="47.665756" lon="13.455026">
 <ele>901.02</ele>
 <time>2011-09-13T11:10:24Z</time>
 </trkpt>
 <trkpt lat="47.665653" lon="13.455105">
 <ele>899.71</ele>
 <time>2011-09-13T11:10:25Z</time>
 </trkpt>
 <trkpt lat="47.665264" lon="13.455348">
 <ele>895.11</ele>
 <time>2011-09-13T11:10:29Z</time>
 </trkpt>
 <trkpt lat="47.665085" lon="13.455566">
 <ele>892.18</ele>
 <time>2011-09-13T11:10:33Z</time>
 </trkpt>
 <trkpt lat="47.665066" lon="13.455613">
 <ele>891.28</ele>
 <time>2011-09-13T11:10:35Z</time>
 </trkpt>
 <trkpt lat="47.665089" lon="13.455648">
 <ele>890.40</ele>
 <time>2011-09-13T11:10:37Z</time>
 </trkpt>
 <trkpt lat="47.665199" lon="13.455782">
 <ele>888.59</ele>
 <time>2011-09-13T11:10:40Z</time>
 </trkpt>
 <trkpt lat="47.665279" lon="13.455775">
 <ele>887.89</ele>
 <time>2011-09-13T11:10:41Z</time>
 </trkpt>
 <trkpt lat="47.665546" lon="13.455742">
 <ele>886.09</ele>
 <time>2011-09-13T11:10:44Z</time>
 </trkpt>
 <trkpt lat="47.666031" lon="13.455551">
 <ele>879.95</ele>
 <time>2011-09-13T11:10:49Z</time>
 </trkpt>
 <trkpt lat="47.666477" lon="13.455241">
 <ele>874.54</ele>
 <time>2011-09-13T11:10:53Z</time>
 </trkpt>
 <trkpt lat="47.666771" lon="13.455037">
 <ele>871.69</ele>
 <time>2011-09-13T11:10:56Z</time>
 </trkpt>
 <trkpt lat="47.666950" lon="13.454924">
 <ele>870.31</ele>
 <time>2011-09-13T11:10:59Z</time>
 </trkpt>
 <trkpt lat="47.667049" lon="13.455156">
 <ele>869.64</ele>
 <time>2011-09-13T11:11:01Z</time>
 </trkpt>
 <trkpt lat="47.666962" lon="13.455256">
 <ele>868.47</ele>
 <time>2011-09-13T11:11:03Z</time>
 </trkpt>
 <trkpt lat="47.666649" lon="13.455543">
 <ele>863.40</ele>
 <time>2011-09-13T11:11:08Z</time>
 </trkpt>
 <trkpt lat="47.666573" lon="13.455611">
 <ele>863.39</ele>
 <time>2011-09-13T11:11:09Z</time>
 </trkpt>
 <trkpt lat="47.666222" lon="13.456108">
 <ele>858.00</ele>
 <time>2011-09-13T11:11:14Z</time>
 </trkpt>
 <trkpt lat="47.665932" lon="13.456454">
 <ele>853.81</ele>
 <time>2011-09-13T11:11:18Z</time>
 </trkpt>
 <trkpt lat="47.665840" lon="13.456522">
 <ele>852.73</ele>
 <time>2011-09-13T11:11:19Z</time>
 </trkpt>
 <trkpt lat="47.665470" lon="13.456680">
 <ele>849.16</ele>
 <time>2011-09-13T11:11:23Z</time>
 </trkpt>
 <trkpt lat="47.665283" lon="13.456752">
 <ele>847.81</ele>
 <time>2011-09-13T11:11:26Z</time>
 </trkpt>
 <trkpt lat="47.665127" lon="13.456813">
 <ele>847.19</ele>
 <time>2011-09-13T11:11:30Z</time>
 </trkpt>
 <trkpt lat="47.664978" lon="13.456870">
 <ele>846.39</ele>
 <time>2011-09-13T11:11:35Z</time>
 </trkpt>
 <trkpt lat="47.664864" lon="13.456914">
 <ele>845.23</ele>
 <time>2011-09-13T11:11:40Z</time>
 </trkpt>
 <trkpt lat="47.664646" lon="13.456997">
 <ele>843.33</ele>
 <time>2011-09-13T11:11:46Z</time>
 </trkpt>
 <trkpt lat="47.664455" lon="13.457083">
 <ele>841.17</ele>
 <time>2011-09-13T11:11:49Z</time>
 </trkpt>
 <trkpt lat="47.664188" lon="13.457258">
 <ele>837.36</ele>
 <time>2011-09-13T11:11:53Z</time>
 </trkpt>
 <trkpt lat="47.663860" lon="13.457509">
 <ele>833.07</ele>
 <time>2011-09-13T11:11:57Z</time>
 </trkpt>
 <trkpt lat="47.663589" lon="13.457802">
 <ele>830.66</ele>
 <time>2011-09-13T11:12:00Z</time>
 </trkpt>
 <trkpt lat="47.663013" lon="13.458422">
 <ele>823.27</ele>
 <time>2011-09-13T11:12:06Z</time>
 </trkpt>
 <trkpt lat="47.662727" lon="13.458681">
 <ele>819.86</ele>
 <time>2011-09-13T11:12:09Z</time>
 </trkpt>
 <trkpt lat="47.662327" lon="13.458922">
 <ele>815.58</ele>
 <time>2011-09-13T11:12:14Z</time>
 </trkpt>
 <trkpt lat="47.662212" lon="13.459110">
 <ele>813.75</ele>
 <time>2011-09-13T11:12:18Z</time>
 </trkpt>
 <trkpt lat="47.662212" lon="13.459110">
 <ele>812.66</ele>
 <time>2011-09-13T11:12:21Z</time>
 </trkpt>
 <trkpt lat="47.662273" lon="13.459187">
 <ele>811.54</ele>
 <time>2011-09-13T11:12:23Z</time>
 </trkpt>
 <trkpt lat="47.662315" lon="13.459237">
 <ele>811.53</ele>
 <time>2011-09-13T11:12:24Z</time>
 </trkpt>
 <trkpt lat="47.662746" lon="13.459106">
 <ele>806.18</ele>
 <time>2011-09-13T11:12:30Z</time>
 </trkpt>
 <trkpt lat="47.663097" lon="13.458919">
 <ele>801.64</ele>
 <time>2011-09-13T11:12:34Z</time>
 </trkpt>
 <trkpt lat="47.663635" lon="13.458636">
 <ele>794.80</ele>
 <time>2011-09-13T11:12:39Z</time>
 </trkpt>
 <trkpt lat="47.664043" lon="13.458369">
 <ele>789.87</ele>
 <time>2011-09-13T11:12:43Z</time>
 </trkpt>
 <trkpt lat="47.664230" lon="13.458270">
 <ele>788.02</ele>
 <time>2011-09-13T11:12:45Z</time>
 </trkpt>
 <trkpt lat="47.664623" lon="13.458236">
 <ele>785.19</ele>
 <time>2011-09-13T11:12:49Z</time>
 </trkpt>
 <trkpt lat="47.664829" lon="13.458244">
 <ele>783.21</ele>
 <time>2011-09-13T11:12:51Z</time>
 </trkpt>
 <trkpt lat="47.665298" lon="13.458287">
 <ele>778.50</ele>
 <time>2011-09-13T11:12:56Z</time>
 </trkpt>
 <trkpt lat="47.665493" lon="13.458305">
 <ele>776.52</ele>
 <time>2011-09-13T11:12:58Z</time>
 </trkpt>
 <trkpt lat="47.665939" lon="13.458345">
 <ele>771.10</ele>
 <time>2011-09-13T11:13:03Z</time>
 </trkpt>
 <trkpt lat="47.666595" lon="13.458384">
 <ele>764.78</ele>
 <time>2011-09-13T11:13:09Z</time>
 </trkpt>
 <trkpt lat="47.666981" lon="13.458132">
 <ele>760.99</ele>
 <time>2011-09-13T11:13:13Z</time>
 </trkpt>
 <trkpt lat="47.667450" lon="13.457827">
 <ele>757.06</ele>
 <time>2011-09-13T11:13:18Z</time>
 </trkpt>
 <trkpt lat="47.667744" lon="13.457747">
 <ele>753.12</ele>
 <time>2011-09-13T11:13:22Z</time>
 </trkpt>
 <trkpt lat="47.668118" lon="13.457726">
 <ele>749.43</ele>
 <time>2011-09-13T11:13:26Z</time>
 </trkpt>
 <trkpt lat="47.668221" lon="13.457719">
 <ele>748.27</ele>
 <time>2011-09-13T11:13:27Z</time>
 </trkpt>
 <trkpt lat="47.668728" lon="13.457734">
 <ele>742.14</ele>
 <time>2011-09-13T11:13:32Z</time>
 </trkpt>
 <trkpt lat="47.669025" lon="13.457887">
 <ele>738.49</ele>
 <time>2011-09-13T11:13:35Z</time>
 </trkpt>
 <trkpt lat="47.669430" lon="13.458093">
 <ele>734.30</ele>
 <time>2011-09-13T11:13:39Z</time>
 </trkpt>
 <trkpt lat="47.669868" lon="13.458403">
 <ele>729.14</ele>
 <time>2011-09-13T11:13:43Z</time>
 </trkpt>
 <trkpt lat="47.670162" lon="13.458765">
 <ele>725.23</ele>
 <time>2011-09-13T11:13:47Z</time>
 </trkpt>
 <trkpt lat="47.670372" lon="13.459175">
 <ele>722.12</ele>
 <time>2011-09-13T11:13:50Z</time>
 </trkpt>
 <trkpt lat="47.670593" lon="13.459690">
 <ele>717.28</ele>
 <time>2011-09-13T11:13:54Z</time>
 </trkpt>
 <trkpt lat="47.671242" lon="13.459880">
 <ele>710.65</ele>
 <time>2011-09-13T11:14:00Z</time>
 </trkpt>
 <trkpt lat="47.671703" lon="13.460001">
 <ele>707.90</ele>
 <time>2011-09-13T11:14:04Z</time>
 </trkpt>
 <trkpt lat="47.672035" lon="13.460033">
 <ele>706.24</ele>
 <time>2011-09-13T11:14:07Z</time>
 </trkpt>
 <trkpt lat="47.672356" lon="13.460233">
 <ele>706.17</ele>
 <time>2011-09-13T11:14:11Z</time>
 </trkpt>
 <trkpt lat="47.672241" lon="13.460216">
 <ele>706.33</ele>
 <time>2011-09-13T11:14:13Z</time>
 </trkpt>
 <trkpt lat="47.672211" lon="13.460376">
 <ele>706.17</ele>
 <time>2011-09-13T11:14:16Z</time>
 </trkpt>
 <trkpt lat="47.672115" lon="13.460409">
 <ele>705.00</ele>
 <time>2011-09-13T11:14:19Z</time>
 </trkpt>
 <trkpt lat="47.671856" lon="13.460497">
 <ele>702.33</ele>
 <time>2011-09-13T11:14:23Z</time>
 </trkpt>
 <trkpt lat="47.671543" lon="13.460604">
 <ele>698.73</ele>
 <time>2011-09-13T11:14:27Z</time>
 </trkpt>
 <trkpt lat="47.671463" lon="13.460632">
 <ele>697.81</ele>
 <time>2011-09-13T11:14:28Z</time>
 </trkpt>
 <trkpt lat="47.671211" lon="13.460701">
 <ele>695.81</ele>
 <time>2011-09-13T11:14:31Z</time>
 </trkpt>
 <trkpt lat="47.670952" lon="13.460754">
 <ele>692.90</ele>
 <time>2011-09-13T11:14:34Z</time>
 </trkpt>
 <trkpt lat="47.670715" lon="13.460803">
 <ele>689.59</ele>
 <time>2011-09-13T11:14:37Z</time>
 </trkpt>
 <trkpt lat="47.670494" lon="13.460848">
 <ele>687.27</ele>
 <time>2011-09-13T11:14:40Z</time>
 </trkpt>
 <trkpt lat="47.670502" lon="13.460894">
 <ele>686.28</ele>
 <time>2011-09-13T11:14:42Z</time>
 </trkpt>
 <trkpt lat="47.670547" lon="13.461147">
 <ele>685.29</ele>
 <time>2011-09-13T11:14:45Z</time>
 </trkpt>
 <trkpt lat="47.670704" lon="13.461369">
 <ele>683.39</ele>
 <time>2011-09-13T11:14:48Z</time>
 </trkpt>
 <trkpt lat="47.670959" lon="13.461468">
 <ele>680.72</ele>
 <time>2011-09-13T11:14:51Z</time>
 </trkpt>
 <trkpt lat="47.671246" lon="13.461579">
 <ele>678.51</ele>
 <time>2011-09-13T11:14:54Z</time>
 </trkpt>
 <trkpt lat="47.671852" lon="13.461732">
 <ele>672.40</ele>
 <time>2011-09-13T11:15:00Z</time>
 </trkpt>
 <trkpt lat="47.672428" lon="13.461860">
 <ele>670.20</ele>
 <time>2011-09-13T11:15:06Z</time>
 </trkpt>
 <trkpt lat="47.672703" lon="13.461921">
 <ele>668.97</ele>
 <time>2011-09-13T11:15:11Z</time>
 </trkpt>
 <trkpt lat="47.672981" lon="13.461883">
 <ele>668.39</ele>
 <time>2011-09-13T11:15:12Z</time>
 </trkpt>
 <trkpt lat="47.673584" lon="13.461418">
 <ele>665.90</ele>
 <time>2011-09-13T11:15:19Z</time>
 </trkpt>
 <trkpt lat="47.673988" lon="13.461353">
 <ele>665.47</ele>
 <time>2011-09-13T11:15:23Z</time>
 </trkpt>
 <trkpt lat="47.674335" lon="13.461641">
 <ele>664.81</ele>
 <time>2011-09-13T11:15:27Z</time>
 </trkpt>
 <trkpt lat="47.674587" lon="13.462110">
 <ele>663.26</ele>
 <time>2011-09-13T11:15:31Z</time>
 </trkpt>
 <trkpt lat="47.674683" lon="13.462373">
 <ele>662.32</ele>
 <time>2011-09-13T11:15:33Z</time>
 </trkpt>
 <trkpt lat="47.674786" lon="13.463219">
 <ele>660.02</ele>
 <time>2011-09-13T11:15:39Z</time>
 </trkpt>
 <trkpt lat="47.674789" lon="13.463647">
 <ele>658.92</ele>
 <time>2011-09-13T11:15:42Z</time>
 </trkpt>
 <trkpt lat="47.674915" lon="13.464073">
 <ele>658.24</ele>
 <time>2011-09-13T11:15:46Z</time>
 </trkpt>
 <trkpt lat="47.675110" lon="13.464224">
 <ele>657.77</ele>
 <time>2011-09-13T11:15:49Z</time>
 </trkpt>
 <trkpt lat="47.675194" lon="13.464263">
 <ele>657.52</ele>
 <time>2011-09-13T11:15:50Z</time>
 </trkpt>
 <trkpt lat="47.675735" lon="13.464474">
 <ele>655.43</ele>
 <time>2011-09-13T11:15:56Z</time>
 </trkpt>
 <trkpt lat="47.676311" lon="13.464779">
 <ele>653.99</ele>
 <time>2011-09-13T11:16:03Z</time>
 </trkpt>
 <trkpt lat="47.676460" lon="13.464871">
 <ele>653.71</ele>
 <time>2011-09-13T11:16:05Z</time>
 </trkpt>
 <trkpt lat="47.676926" lon="13.465190">
 <ele>652.36</ele>
 <time>2011-09-13T11:16:11Z</time>
 </trkpt>
 <trkpt lat="47.677158" lon="13.465360">
 <ele>651.52</ele>
 <time>2011-09-13T11:16:14Z</time>
 </trkpt>
 <trkpt lat="47.677532" lon="13.465582">
 <ele>650.98</ele>
 <time>2011-09-13T11:16:19Z</time>
 </trkpt>
 <trkpt lat="47.677666" lon="13.465657">
 <ele>650.92</ele>
 <time>2011-09-13T11:16:21Z</time>
 </trkpt>
 <trkpt lat="47.678139" lon="13.465925">
 <ele>650.29</ele>
 <time>2011-09-13T11:16:28Z</time>
 </trkpt>
 <trkpt lat="47.678562" lon="13.466169">
 <ele>649.48</ele>
 <time>2011-09-13T11:16:34Z</time>
 </trkpt>
 <trkpt lat="47.678913" lon="13.466436">
 <ele>648.47</ele>
 <time>2011-09-13T11:16:39Z</time>
 </trkpt>
 <trkpt lat="47.679111" lon="13.466650">
 <ele>647.58</ele>
 <time>2011-09-13T11:16:42Z</time>
 </trkpt>
 <trkpt lat="47.679283" lon="13.467140">
 <ele>645.48</ele>
 <time>2011-09-13T11:16:46Z</time>
 </trkpt>
 <trkpt lat="47.679386" lon="13.467496">
 <ele>643.30</ele>
 <time>2011-09-13T11:16:49Z</time>
 </trkpt>
 <trkpt lat="47.679447" lon="13.467767">
 <ele>642.01</ele>
 <time>2011-09-13T11:16:51Z</time>
 </trkpt>
 <trkpt lat="47.679596" lon="13.468251">
 <ele>640.33</ele>
 <time>2011-09-13T11:16:55Z</time>
 </trkpt>
 <trkpt lat="47.679642" lon="13.468362">
 <ele>640.14</ele>
 <time>2011-09-13T11:16:56Z</time>
 </trkpt>
 <trkpt lat="47.679867" lon="13.468741">
 <ele>639.65</ele>
 <time>2011-09-13T11:17:00Z</time>
 </trkpt>
 <trkpt lat="47.680183" lon="13.469187">
 <ele>638.78</ele>
 <time>2011-09-13T11:17:05Z</time>
 </trkpt>
 <trkpt lat="47.680302" lon="13.469696">
 <ele>637.99</ele>
 <time>2011-09-13T11:17:09Z</time>
 </trkpt>
 <trkpt lat="47.680286" lon="13.469961">
 <ele>637.55</ele>
 <time>2011-09-13T11:17:11Z</time>
 </trkpt>
 <trkpt lat="47.680252" lon="13.470222">
 <ele>636.75</ele>
 <time>2011-09-13T11:17:13Z</time>
 </trkpt>
 <trkpt lat="47.680256" lon="13.470766">
 <ele>634.57</ele>
 <time>2011-09-13T11:17:17Z</time>
 </trkpt>
 <trkpt lat="47.680389" lon="13.471109">
 <ele>633.23</ele>
 <time>2011-09-13T11:17:20Z</time>
 </trkpt>
 <trkpt lat="47.680965" lon="13.471769">
 <ele>631.14</ele>
 <time>2011-09-13T11:17:28Z</time>
 </trkpt>
 <trkpt lat="47.681034" lon="13.471868">
 <ele>630.81</ele>
 <time>2011-09-13T11:17:29Z</time>
 </trkpt>
 <trkpt lat="47.681267" lon="13.472466">
 <ele>629.18</ele>
 <time>2011-09-13T11:17:34Z</time>
 </trkpt>
 <trkpt lat="47.681286" lon="13.472738">
 <ele>628.64</ele>
 <time>2011-09-13T11:17:36Z</time>
 </trkpt>
 <trkpt lat="47.681255" lon="13.473632">
 <ele>627.55</ele>
 <time>2011-09-13T11:17:43Z</time>
 </trkpt>
 <trkpt lat="47.681213" lon="13.474168">
 <ele>627.01</ele>
 <time>2011-09-13T11:17:48Z</time>
 </trkpt>
 <trkpt lat="47.681107" lon="13.474722">
 <ele>626.52</ele>
 <time>2011-09-13T11:17:54Z</time>
 </trkpt>
 <trkpt lat="47.681019" lon="13.475249">
 <ele>624.65</ele>
 <time>2011-09-13T11:17:59Z</time>
 </trkpt>
 <trkpt lat="47.680935" lon="13.475994">
 <ele>622.19</ele>
 <time>2011-09-13T11:18:05Z</time>
 </trkpt>
 <trkpt lat="47.680943" lon="13.476617">
 <ele>621.53</ele>
 <time>2011-09-13T11:18:10Z</time>
 </trkpt>
 <trkpt lat="47.680988" lon="13.477018">
 <ele>621.50</ele>
 <time>2011-09-13T11:18:14Z</time>
 </trkpt>
 <trkpt lat="47.681110" lon="13.477328">
 <ele>621.11</ele>
 <time>2011-09-13T11:18:17Z</time>
 </trkpt>
 <trkpt lat="47.681599" lon="13.477713">
 <ele>618.99</ele>
 <time>2011-09-13T11:18:23Z</time>
 </trkpt>
 <trkpt lat="47.682110" lon="13.478239">
 <ele>616.66</ele>
 <time>2011-09-13T11:18:30Z</time>
 </trkpt>
 <trkpt lat="47.682678" lon="13.478977">
 <ele>615.69</ele>
 <time>2011-09-13T11:18:39Z</time>
 </trkpt>
 <trkpt lat="47.682907" lon="13.479324">
 <ele>615.17</ele>
 <time>2011-09-13T11:18:43Z</time>
 </trkpt>
 <trkpt lat="47.683254" lon="13.480016">
 <ele>613.32</ele>
 <time>2011-09-13T11:18:50Z</time>
 </trkpt>
 <trkpt lat="47.683624" lon="13.480943">
 <ele>610.97</ele>
 <time>2011-09-13T11:18:59Z</time>
 </trkpt>
 <trkpt lat="47.683846" lon="13.481517">
 <ele>610.97</ele>
 <time>2011-09-13T11:19:05Z</time>
 </trkpt>
 <trkpt lat="47.684158" lon="13.481973">
 <ele>610.84</ele>
 <time>2011-09-13T11:19:11Z</time>
 </trkpt>
 <trkpt lat="47.684551" lon="13.482454">
 <ele>608.94</ele>
 <time>2011-09-13T11:19:17Z</time>
 </trkpt>
 <trkpt lat="47.684994" lon="13.483106">
 <ele>606.30</ele>
 <time>2011-09-13T11:19:24Z</time>
 </trkpt>
 <trkpt lat="47.685253" lon="13.483396">
 <ele>605.76</ele>
 <time>2011-09-13T11:19:28Z</time>
 </trkpt>
 <trkpt lat="47.685566" lon="13.483529">
 <ele>605.58</ele>
 <time>2011-09-13T11:19:32Z</time>
 </trkpt>
 <trkpt lat="47.686245" lon="13.483456">
 <ele>603.97</ele>
 <time>2011-09-13T11:19:40Z</time>
 </trkpt>
 <trkpt lat="47.686569" lon="13.483554">
 <ele>602.95</ele>
 <time>2011-09-13T11:19:44Z</time>
 </trkpt>
 <trkpt lat="47.686852" lon="13.483643">
 <ele>602.12</ele>
 <time>2011-09-13T11:19:47Z</time>
 </trkpt>
 <trkpt lat="47.687256" lon="13.483613">
 <ele>601.32</ele>
 <time>2011-09-13T11:19:51Z</time>
 </trkpt>
 <trkpt lat="47.687763" lon="13.483211">
 <ele>600.41</ele>
 <time>2011-09-13T11:19:56Z</time>
 </trkpt>
 <trkpt lat="47.687923" lon="13.483072">
 <ele>599.82</ele>
 <time>2011-09-13T11:19:58Z</time>
 </trkpt>
 <trkpt lat="47.688240" lon="13.482950">
 <ele>598.30</ele>
 <time>2011-09-13T11:20:02Z</time>
 </trkpt>
 <trkpt lat="47.688278" lon="13.482950">
 <ele>598.02</ele>
 <time>2011-09-13T11:20:03Z</time>
 </trkpt>
 <trkpt lat="47.688629" lon="13.483226">
 <ele>596.56</ele>
 <time>2011-09-13T11:20:09Z</time>
 </trkpt>
 <trkpt lat="47.688751" lon="13.483378">
 <ele>596.16</ele>
 <time>2011-09-13T11:20:11Z</time>
 </trkpt>
 <trkpt lat="47.689240" lon="13.484001">
 <ele>595.11</ele>
 <time>2011-09-13T11:20:19Z</time>
 </trkpt>
 <trkpt lat="47.689297" lon="13.484072">
 <ele>595.10</ele>
 <time>2011-09-13T11:20:20Z</time>
 </trkpt>
 <trkpt lat="47.689602" lon="13.484577">
 <ele>594.53</ele>
 <time>2011-09-13T11:20:26Z</time>
 </trkpt>
 <trkpt lat="47.689720" lon="13.484837">
 <ele>594.23</ele>
 <time>2011-09-13T11:20:29Z</time>
 </trkpt>
 <trkpt lat="47.690147" lon="13.485310">
 <ele>592.75</ele>
 <time>2011-09-13T11:20:36Z</time>
 </trkpt>
 <trkpt lat="47.690613" lon="13.485482">
 <ele>591.88</ele>
 <time>2011-09-13T11:20:42Z</time>
 </trkpt>
 <trkpt lat="47.691109" lon="13.485465">
 <ele>591.26</ele>
 <time>2011-09-13T11:20:48Z</time>
 </trkpt>
 <trkpt lat="47.691448" lon="13.485439">
 <ele>590.67</ele>
 <time>2011-09-13T11:20:52Z</time>
 </trkpt>
 <trkpt lat="47.691608" lon="13.485632">
 <ele>589.51</ele>
 <time>2011-09-13T11:20:56Z</time>
 </trkpt>
 <trkpt lat="47.691608" lon="13.485779">
 <ele>588.87</ele>
 <time>2011-09-13T11:20:58Z</time>
 </trkpt>
 <trkpt lat="47.691608" lon="13.485874">
 <ele>588.61</ele>
 <time>2011-09-13T11:20:59Z</time>
 </trkpt>
 <trkpt lat="47.691570" lon="13.486869">
 <ele>587.39</ele>
 <time>2011-09-13T11:21:09Z</time>
 </trkpt>
 <trkpt lat="47.691692" lon="13.487399">
 <ele>588.00</ele>
 <time>2011-09-13T11:21:14Z</time>
 </trkpt>
 <trkpt lat="47.691898" lon="13.487653">
 <ele>588.00</ele>
 <time>2011-09-13T11:21:18Z</time>
 </trkpt>
 <trkpt lat="47.692154" lon="13.487847">
 <ele>587.80</ele>
 <time>2011-09-13T11:21:22Z</time>
 </trkpt>
 <trkpt lat="47.692394" lon="13.487872">
 <ele>587.48</ele>
 <time>2011-09-13T11:21:25Z</time>
 </trkpt>
 <trkpt lat="47.692867" lon="13.487576">
 <ele>585.63</ele>
 <time>2011-09-13T11:21:31Z</time>
 </trkpt>
 <trkpt lat="47.693077" lon="13.487415">
 <ele>584.25</ele>
 <time>2011-09-13T11:21:34Z</time>
 </trkpt>
 <trkpt lat="47.693302" lon="13.487316">
 <ele>583.08</ele>
 <time>2011-09-13T11:21:38Z</time>
 </trkpt>
 <trkpt lat="47.693367" lon="13.487306">
 <ele>582.67</ele>
 <time>2011-09-13T11:21:39Z</time>
 </trkpt>
 <trkpt lat="47.693851" lon="13.487693">
 <ele>580.24</ele>
 <time>2011-09-13T11:21:47Z</time>
 </trkpt>
 <trkpt lat="47.694302" lon="13.488023">
 <ele>578.00</ele>
 <time>2011-09-13T11:21:53Z</time>
 </trkpt>
 <trkpt lat="47.694656" lon="13.488204">
 <ele>575.79</ele>
 <time>2011-09-13T11:21:57Z</time>
 </trkpt>
 <trkpt lat="47.694935" lon="13.488290">
 <ele>574.33</ele>
 <time>2011-09-13T11:22:00Z</time>
 </trkpt>
 <trkpt lat="47.695229" lon="13.488363">
 <ele>572.46</ele>
 <time>2011-09-13T11:22:03Z</time>
 </trkpt>
 <trkpt lat="47.695499" lon="13.488468">
 <ele>570.71</ele>
 <time>2011-09-13T11:22:07Z</time>
 </trkpt>
 <trkpt lat="47.695564" lon="13.488509">
 <ele>570.30</ele>
 <time>2011-09-13T11:22:08Z</time>
 </trkpt>
 <trkpt lat="47.696014" lon="13.488780">
 <ele>566.98</ele>
 <time>2011-09-13T11:22:14Z</time>
 </trkpt>
 <trkpt lat="47.696095" lon="13.488864">
 <ele>566.41</ele>
 <time>2011-09-13T11:22:15Z</time>
 </trkpt>
 <trkpt lat="47.696285" lon="13.489192">
 <ele>565.19</ele>
 <time>2011-09-13T11:22:19Z</time>
 </trkpt>
 <trkpt lat="47.696323" lon="13.489274">
 <ele>565.07</ele>
 <time>2011-09-13T11:22:20Z</time>
 </trkpt>
 <trkpt lat="47.696518" lon="13.489620">
 <ele>564.77</ele>
 <time>2011-09-13T11:22:24Z</time>
 </trkpt>
 <trkpt lat="47.696777" lon="13.489859">
 <ele>563.43</ele>
 <time>2011-09-13T11:22:28Z</time>
 </trkpt>
 <trkpt lat="47.697132" lon="13.489988">
 <ele>560.56</ele>
 <time>2011-09-13T11:22:32Z</time>
 </trkpt>
 <trkpt lat="47.697857" lon="13.489994">
 <ele>556.34</ele>
 <time>2011-09-13T11:22:38Z</time>
 </trkpt>
 <trkpt lat="47.697929" lon="13.490095">
 <ele>556.00</ele>
 <time>2011-09-13T11:22:39Z</time>
 </trkpt>
 <trkpt lat="47.698078" lon="13.490336">
 <ele>555.22</ele>
 <time>2011-09-13T11:22:43Z</time>
 </trkpt>
 <trkpt lat="47.698177" lon="13.490511">
 <ele>554.84</ele>
 <time>2011-09-13T11:22:47Z</time>
 </trkpt>
 <trkpt lat="47.698196" lon="13.490549">
 <ele>554.71</ele>
 <time>2011-09-13T11:22:48Z</time>
 </trkpt>
 <trkpt lat="47.698235" lon="13.490620">
 <ele>554.54</ele>
 <time>2011-09-13T11:22:50Z</time>
 </trkpt>
 <trkpt lat="47.698345" lon="13.490825">
 <ele>554.14</ele>
 <time>2011-09-13T11:22:54Z</time>
 </trkpt>
 <trkpt lat="47.698486" lon="13.490983">
 <ele>553.74</ele>
 <time>2011-09-13T11:22:58Z</time>
 </trkpt>
 <trkpt lat="47.698624" lon="13.491068">
 <ele>552.83</ele>
 <time>2011-09-13T11:23:01Z</time>
 </trkpt>
 <trkpt lat="47.699257" lon="13.491213">
 <ele>547.61</ele>
 <time>2011-09-13T11:23:08Z</time>
 </trkpt>
 <trkpt lat="47.699581" lon="13.491488">
 <ele>545.42</ele>
 <time>2011-09-13T11:23:12Z</time>
 </trkpt>
 <trkpt lat="47.699787" lon="13.491945">
 <ele>544.30</ele>
 <time>2011-09-13T11:23:16Z</time>
 </trkpt>
 <trkpt lat="47.699825" lon="13.492067">
 <ele>543.85</ele>
 <time>2011-09-13T11:23:17Z</time>
 </trkpt>
 <trkpt lat="47.699913" lon="13.492281">
 <ele>543.13</ele>
 <time>2011-09-13T11:23:19Z</time>
 </trkpt>
 <trkpt lat="47.700073" lon="13.492513">
 <ele>542.48</ele>
 <time>2011-09-13T11:23:23Z</time>
 </trkpt>
 <trkpt lat="47.700169" lon="13.492627">
 <ele>542.46</ele>
 <time>2011-09-13T11:23:25Z</time>
 </trkpt>
 <trkpt lat="47.700356" lon="13.492794">
 <ele>542.49</ele>
 <time>2011-09-13T11:23:29Z</time>
 </trkpt>
 <trkpt lat="47.700748" lon="13.492952">
 <ele>542.37</ele>
 <time>2011-09-13T11:23:37Z</time>
 </trkpt>
 <trkpt lat="47.701019" lon="13.493037">
 <ele>541.77</ele>
 <time>2011-09-13T11:23:42Z</time>
 </trkpt>
 <trkpt lat="47.701450" lon="13.493141">
 <ele>540.67</ele>
 <time>2011-09-13T11:23:49Z</time>
 </trkpt>
 <trkpt lat="47.701775" lon="13.493164">
 <ele>539.54</ele>
 <time>2011-09-13T11:23:54Z</time>
 </trkpt>
 <trkpt lat="47.701912" lon="13.493164">
 <ele>539.11</ele>
 <time>2011-09-13T11:23:56Z</time>
 </trkpt>
 <trkpt lat="47.702171" lon="13.493089">
 <ele>537.90</ele>
 <time>2011-09-13T11:24:00Z</time>
 </trkpt>
 <trkpt lat="47.702602" lon="13.492866">
 <ele>535.80</ele>
 <time>2011-09-13T11:24:07Z</time>
 </trkpt>
 <trkpt lat="47.703030" lon="13.492602">
 <ele>535.90</ele>
 <time>2011-09-13T11:24:15Z</time>
 </trkpt>
 <trkpt lat="47.703377" lon="13.492457">
 <ele>535.83</ele>
 <time>2011-09-13T11:24:21Z</time>
 </trkpt>
 <trkpt lat="47.703903" lon="13.492434">
 <ele>534.80</ele>
 <time>2011-09-13T11:24:28Z</time>
 </trkpt>
 <trkpt lat="47.704533" lon="13.492491">
 <ele>534.31</ele>
 <time>2011-09-13T11:24:37Z</time>
 </trkpt>
 <trkpt lat="47.705006" lon="13.492564">
 <ele>533.20</ele>
 <time>2011-09-13T11:24:44Z</time>
 </trkpt>
 <trkpt lat="47.705486" lon="13.492654">
 <ele>532.09</ele>
 <time>2011-09-13T11:24:51Z</time>
 </trkpt>
 <trkpt lat="47.705956" lon="13.492757">
 <ele>531.05</ele>
 <time>2011-09-13T11:24:58Z</time>
 </trkpt>
 <trkpt lat="47.706455" lon="13.492894">
 <ele>531.53</ele>
 <time>2011-09-13T11:25:06Z</time>
 </trkpt>
 <trkpt lat="47.706573" lon="13.492936">
 <ele>531.44</ele>
 <time>2011-09-13T11:25:08Z</time>
 </trkpt>
 <trkpt lat="47.706875" lon="13.493046">
 <ele>530.44</ele>
 <time>2011-09-13T11:25:13Z</time>
 </trkpt>
 <trkpt lat="47.707310" lon="13.493289">
 <ele>529.90</ele>
 <time>2011-09-13T11:25:21Z</time>
 </trkpt>
 <trkpt lat="47.707481" lon="13.493406">
 <ele>529.80</ele>
 <time>2011-09-13T11:25:25Z</time>
 </trkpt>
 <trkpt lat="47.707615" lon="13.493498">
 <ele>529.51</ele>
 <time>2011-09-13T11:25:28Z</time>
 </trkpt>
 <trkpt lat="47.707775" lon="13.493678">
 <ele>528.70</ele>
 <time>2011-09-13T11:25:32Z</time>
 </trkpt>
 <trkpt lat="47.707848" lon="13.493520">
 <ele>528.26</ele>
 <time>2011-09-13T11:25:35Z</time>
 </trkpt>
 <trkpt lat="47.707924" lon="13.493116">
 <ele>527.62</ele>
 <time>2011-09-13T11:25:41Z</time>
 </trkpt>
 <trkpt lat="47.708000" lon="13.492792">
 <ele>527.26</ele>
 <time>2011-09-13T11:25:45Z</time>
 </trkpt>
 <trkpt lat="47.708046" lon="13.492640">
 <ele>527.20</ele>
 <time>2011-09-13T11:25:47Z</time>
 </trkpt>
 <trkpt lat="47.708252" lon="13.492193">
 <ele>526.75</ele>
 <time>2011-09-13T11:25:53Z</time>
 </trkpt>
 <trkpt lat="47.708645" lon="13.491512">
 <ele>524.73</ele>
 <time>2011-09-13T11:26:02Z</time>
 </trkpt>
 <trkpt lat="47.709057" lon="13.490568">
 <ele>523.48</ele>
 <time>2011-09-13T11:26:13Z</time>
 </trkpt>
 <trkpt lat="47.709358" lon="13.489765">
 <ele>522.67</ele>
 <time>2011-09-13T11:26:22Z</time>
 </trkpt>
 <trkpt lat="47.709457" lon="13.489501">
 <ele>522.46</ele>
 <time>2011-09-13T11:26:25Z</time>
 </trkpt>
 <trkpt lat="47.709621" lon="13.489204">
 <ele>522.18</ele>
 <time>2011-09-13T11:26:29Z</time>
 </trkpt>
 <trkpt lat="47.710136" lon="13.488852">
 <ele>520.61</ele>
 <time>2011-09-13T11:26:37Z</time>
 </trkpt>
 <trkpt lat="47.710533" lon="13.488609">
 <ele>519.83</ele>
 <time>2011-09-13T11:26:43Z</time>
 </trkpt>
 <trkpt lat="47.710953" lon="13.488457">
 <ele>518.88</ele>
 <time>2011-09-13T11:26:49Z</time>
 </trkpt>
 <trkpt lat="47.711441" lon="13.488519">
 <ele>518.45</ele>
 <time>2011-09-13T11:26:56Z</time>
 </trkpt>
 <trkpt lat="47.711628" lon="13.488596">
 <ele>518.19</ele>
 <time>2011-09-13T11:26:59Z</time>
 </trkpt>
 <trkpt lat="47.711800" lon="13.488706">
 <ele>518.21</ele>
 <time>2011-09-13T11:27:02Z</time>
 </trkpt>
 <trkpt lat="47.712109" lon="13.489222">
 <ele>517.68</ele>
 <time>2011-09-13T11:27:09Z</time>
 </trkpt>
 <trkpt lat="47.712276" lon="13.489667">
 <ele>516.28</ele>
 <time>2011-09-13T11:27:14Z</time>
 </trkpt>
 <trkpt lat="47.712322" lon="13.489790">
 <ele>515.83</ele>
 <time>2011-09-13T11:27:17Z</time>
 </trkpt>
 <trkpt lat="47.712322" lon="13.489790">
 <ele>515.78</ele>
 <time>2011-09-13T11:27:18Z</time>
 </trkpt>
 <trkpt lat="47.712364" lon="13.489898">
 <ele>515.41</ele>
 <time>2011-09-13T11:27:23Z</time>
 </trkpt>
 <trkpt lat="47.712528" lon="13.490208">
 <ele>514.21</ele>
 <time>2011-09-13T11:27:29Z</time>
 </trkpt>
 <trkpt lat="47.712627" lon="13.490321">
 <ele>513.60</ele>
 <time>2011-09-13T11:27:33Z</time>
 </trkpt>
 <trkpt lat="47.712627" lon="13.490321">
 <ele>513.41</ele>
 <time>2011-09-13T11:27:35Z</time>
 </trkpt>
 <trkpt lat="47.712639" lon="13.490331">
 <ele>513.52</ele>
 <time>2011-09-13T11:28:01Z</time>
 </trkpt>
 <trkpt lat="47.712639" lon="13.490331">
 <ele>513.41</ele>
 <time>2011-09-13T11:28:02Z</time>
 </trkpt>
 <trkpt lat="47.712639" lon="13.490331">
 <ele>512.79</ele>
 <time>2011-09-13T11:28:06Z</time>
 </trkpt>
 <trkpt lat="47.713066" lon="13.490524">
 <ele>511.71</ele>
 <time>2011-09-13T11:28:12Z</time>
 </trkpt>
 <trkpt lat="47.713066" lon="13.490524">
 <ele>511.81</ele>
 <time>2011-09-13T11:28:15Z</time>
 </trkpt>
 <trkpt lat="47.713631" lon="13.490692">
 <ele>512.00</ele>
 <time>2011-09-13T11:28:23Z</time>
 </trkpt>
 <trkpt lat="47.713646" lon="13.490696">
 <ele>512.93</ele>
 <time>2011-09-13T11:28:31Z</time>
 </trkpt>
 <trkpt lat="47.714176" lon="13.490940">
 <ele>513.86</ele>
 <time>2011-09-13T11:28:38Z</time>
 </trkpt>
 <trkpt lat="47.714558" lon="13.491131">
 <ele>515.15</ele>
 <time>2011-09-13T11:28:48Z</time>
 </trkpt>
 <trkpt lat="47.714699" lon="13.491204">
 <ele>515.32</ele>
 <time>2011-09-13T11:28:53Z</time>
 </trkpt>
 <trkpt lat="47.714756" lon="13.491053">
 <ele>515.23</ele>
 <time>2011-09-13T11:28:55Z</time>
 </trkpt>
 <trkpt lat="47.715012" lon="13.490625">
 <ele>514.02</ele>
 <time>2011-09-13T11:29:03Z</time>
 </trkpt>
 <trkpt lat="47.715359" lon="13.490001">
 <ele>513.36</ele>
 <time>2011-09-13T11:29:13Z</time>
 </trkpt>
 <trkpt lat="47.715725" lon="13.489332">
 <ele>511.61</ele>
 <time>2011-09-13T11:29:23Z</time>
 </trkpt>
 <trkpt lat="47.715904" lon="13.488799">
 <ele>511.15</ele>
 <time>2011-09-13T11:29:30Z</time>
 </trkpt>
 <trkpt lat="47.715969" lon="13.488563">
 <ele>511.07</ele>
 <time>2011-09-13T11:29:34Z</time>
 </trkpt>
 <trkpt lat="47.715992" lon="13.488469">
 <ele>511.17</ele>
 <time>2011-09-13T11:29:38Z</time>
 </trkpt>
 <trkpt lat="47.715992" lon="13.488469">
 <ele>511.44</ele>
 <time>2011-09-13T11:29:40Z</time>
 </trkpt>
 <trkpt lat="47.715996" lon="13.488445">
 <ele>511.56</ele>
 <time>2011-09-13T11:30:12Z</time>
 </trkpt>
 <trkpt lat="47.716000" lon="13.488430">
 <ele>511.45</ele>
 <time>2011-09-13T11:30:13Z</time>
 </trkpt>
 <trkpt lat="47.716026" lon="13.488278">
 <ele>510.97</ele>
 <time>2011-09-13T11:30:18Z</time>
 </trkpt>
 <trkpt lat="47.716110" lon="13.487899">
 <ele>510.18</ele>
 <time>2011-09-13T11:30:25Z</time>
 </trkpt>
 <trkpt lat="47.716217" lon="13.487408">
 <ele>509.12</ele>
 <time>2011-09-13T11:30:33Z</time>
 </trkpt>
 <trkpt lat="47.716343" lon="13.486822">
 <ele>509.02</ele>
 <time>2011-09-13T11:30:42Z</time>
 </trkpt>
 <trkpt lat="47.716396" lon="13.486543">
 <ele>509.21</ele>
 <time>2011-09-13T11:30:46Z</time>
 </trkpt>
 <trkpt lat="47.716438" lon="13.486337">
 <ele>509.28</ele>
 <time>2011-09-13T11:30:49Z</time>
 </trkpt>
 <trkpt lat="47.716583" lon="13.485676">
 <ele>508.85</ele>
 <time>2011-09-13T11:30:58Z</time>
 </trkpt>
 <trkpt lat="47.716679" lon="13.485122">
 <ele>508.46</ele>
 <time>2011-09-13T11:31:05Z</time>
 </trkpt>
 <trkpt lat="47.716805" lon="13.484327">
 <ele>507.72</ele>
 <time>2011-09-13T11:31:15Z</time>
 </trkpt>
 <trkpt lat="47.716919" lon="13.483714">
 <ele>507.53</ele>
 <time>2011-09-13T11:31:23Z</time>
 </trkpt>
 <trkpt lat="47.716961" lon="13.483386">
 <ele>507.40</ele>
 <time>2011-09-13T11:31:28Z</time>
 </trkpt>
 <trkpt lat="47.716976" lon="13.483226">
 <ele>507.77</ele>
 <time>2011-09-13T11:31:33Z</time>
 </trkpt>
 <trkpt lat="47.716976" lon="13.483200">
 <ele>507.87</ele>
 <time>2011-09-13T11:31:34Z</time>
 </trkpt>
 <trkpt lat="47.717056" lon="13.483282">
 <ele>507.95</ele>
 <time>2011-09-13T11:31:38Z</time>
 </trkpt>
 <trkpt lat="47.717209" lon="13.483188">
 <ele>507.54</ele>
 <time>2011-09-13T11:31:43Z</time>
 </trkpt>
 <trkpt lat="47.717419" lon="13.483067">
 <ele>507.22</ele>
 <time>2011-09-13T11:31:50Z</time>
 </trkpt>
 <trkpt lat="47.717449" lon="13.483048">
 <ele>507.26</ele>
 <time>2011-09-13T11:31:54Z</time>
 </trkpt>
 <trkpt lat="47.717518" lon="13.483008">
 <ele>507.00</ele>
 <time>2011-09-13T11:31:58Z</time>
 </trkpt>
 <trkpt lat="47.717697" lon="13.482918">
 <ele>506.34</ele>
 <time>2011-09-13T11:32:03Z</time>
 </trkpt>
 <trkpt lat="47.717930" lon="13.482777">
 <ele>505.97</ele>
 <time>2011-09-13T11:32:09Z</time>
 </trkpt>
 <trkpt lat="47.718224" lon="13.482586">
 <ele>505.36</ele>
 <time>2011-09-13T11:32:17Z</time>
 </trkpt>
 <trkpt lat="47.718498" lon="13.482425">
 <ele>504.42</ele>
 <time>2011-09-13T11:32:24Z</time>
 </trkpt>
 <trkpt lat="47.718605" lon="13.482343">
 <ele>504.49</ele>
 <time>2011-09-13T11:32:28Z</time>
 </trkpt>
 <trkpt lat="47.718616" lon="13.482334">
 <ele>504.96</ele>
 <time>2011-09-13T11:32:31Z</time>
 </trkpt>
 <trkpt lat="47.718651" lon="13.482289">
 <ele>504.73</ele>
 <time>2011-09-13T11:32:37Z</time>
 </trkpt>
 <trkpt lat="47.718643" lon="13.482159">
 <ele>504.46</ele>
 <time>2011-09-13T11:32:42Z</time>
 </trkpt>
 <trkpt lat="47.718613" lon="13.482141">
 <ele>504.48</ele>
 <time>2011-09-13T11:32:43Z</time>
 </trkpt>
 <trkpt lat="47.718437" lon="13.482023">
 <ele>504.17</ele>
 <time>2011-09-13T11:32:49Z</time>
 </trkpt>
 <trkpt lat="47.718346" lon="13.481941">
 <ele>504.08</ele>
 <time>2011-09-13T11:32:52Z</time>
 </trkpt>
 <trkpt lat="47.718155" lon="13.481702">
 <ele>504.16</ele>
 <time>2011-09-13T11:32:58Z</time>
 </trkpt>
 <trkpt lat="47.718040" lon="13.481542">
 <ele>504.22</ele>
 <time>2011-09-13T11:33:01Z</time>
 </trkpt>
 <trkpt lat="47.717793" lon="13.481172">
 <ele>504.34</ele>
 <time>2011-09-13T11:33:09Z</time>
 </trkpt>
 <trkpt lat="47.717529" lon="13.480747">
 <ele>504.38</ele>
 <time>2011-09-13T11:33:17Z</time>
 </trkpt>
 <trkpt lat="47.717319" lon="13.480458">
 <ele>504.40</ele>
 <time>2011-09-13T11:33:23Z</time>
 </trkpt>
 <trkpt lat="47.717060" lon="13.480165">
 <ele>504.40</ele>
 <time>2011-09-13T11:33:31Z</time>
 </trkpt>
 <trkpt lat="47.716885" lon="13.479974">
 <ele>505.05</ele>
 <time>2011-09-13T11:33:38Z</time>
 </trkpt>
 <trkpt lat="47.716827" lon="13.479910">
 <ele>505.24</ele>
 <time>2011-09-13T11:33:42Z</time>
 </trkpt>
 <trkpt lat="47.716740" lon="13.479810">
 <ele>505.14</ele>
 <time>2011-09-13T11:33:47Z</time>
 </trkpt>
 <trkpt lat="47.716671" lon="13.479731">
 <ele>505.00</ele>
 <time>2011-09-13T11:33:51Z</time>
 </trkpt>
 <trkpt lat="47.716671" lon="13.479731">
 <ele>504.82</ele>
 <time>2011-09-13T11:33:53Z</time>
 </trkpt>
 <trkpt lat="47.716545" lon="13.478973">
 <ele>503.94</ele>
 <time>2011-09-13T11:34:02Z</time>
 </trkpt>
 <trkpt lat="47.716431" lon="13.478362">
 <ele>503.31</ele>
 <time>2011-09-13T11:34:10Z</time>
 </trkpt>
 <trkpt lat="47.716354" lon="13.477874">
 <ele>503.02</ele>
 <time>2011-09-13T11:34:16Z</time>
 </trkpt>
 <trkpt lat="47.716248" lon="13.477201">
 <ele>502.35</ele>
 <time>2011-09-13T11:34:24Z</time>
 </trkpt>
 <trkpt lat="47.716160" lon="13.476795">
 <ele>501.66</ele>
 <time>2011-09-13T11:34:29Z</time>
 </trkpt>
 <trkpt lat="47.716038" lon="13.476127">
 <ele>501.47</ele>
 <time>2011-09-13T11:34:37Z</time>
 </trkpt>
 <trkpt lat="47.715931" lon="13.475568">
 <ele>501.59</ele>
 <time>2011-09-13T11:34:44Z</time>
 </trkpt>
 <trkpt lat="47.715828" lon="13.474944">
 <ele>501.56</ele>
 <time>2011-09-13T11:34:52Z</time>
 </trkpt>
 <trkpt lat="47.715706" lon="13.474195">
 <ele>501.29</ele>
 <time>2011-09-13T11:35:02Z</time>
 </trkpt>
 <trkpt lat="47.715706" lon="13.474195">
 <ele>501.42</ele>
 <time>2011-09-13T11:35:04Z</time>
 </trkpt>
 <trkpt lat="47.715603" lon="13.473695">
 <ele>501.79</ele>
 <time>2011-09-13T11:35:08Z</time>
 </trkpt>
 <trkpt lat="47.715511" lon="13.473221">
 <ele>501.84</ele>
 <time>2011-09-13T11:35:14Z</time>
 </trkpt>
 <trkpt lat="47.715427" lon="13.472665">
 <ele>501.45</ele>
 <time>2011-09-13T11:35:21Z</time>
 </trkpt>
 <trkpt lat="47.715401" lon="13.472447">
 <ele>501.67</ele>
 <time>2011-09-13T11:35:24Z</time>
 </trkpt>
 <trkpt lat="47.715328" lon="13.471844">
 <ele>502.02</ele>
 <time>2011-09-13T11:35:32Z</time>
 </trkpt>
 <trkpt lat="47.715275" lon="13.471413">
 <ele>502.23</ele>
 <time>2011-09-13T11:35:38Z</time>
 </trkpt>
 <trkpt lat="47.715221" lon="13.470919">
 <ele>502.35</ele>
 <time>2011-09-13T11:35:45Z</time>
 </trkpt>
 <trkpt lat="47.715172" lon="13.470356">
 <ele>502.35</ele>
 <time>2011-09-13T11:35:53Z</time>
 </trkpt>
 <trkpt lat="47.715141" lon="13.469610">
 <ele>501.86</ele>
 <time>2011-09-13T11:36:03Z</time>
 </trkpt>
 <trkpt lat="47.715183" lon="13.469028">
 <ele>502.27</ele>
 <time>2011-09-13T11:36:11Z</time>
 </trkpt>
 <trkpt lat="47.715233" lon="13.468349">
 <ele>502.42</ele>
 <time>2011-09-13T11:36:20Z</time>
 </trkpt>
 <trkpt lat="47.715298" lon="13.467526">
 <ele>502.06</ele>
 <time>2011-09-13T11:36:31Z</time>
 </trkpt>
 <trkpt lat="47.715359" lon="13.466781">
 <ele>501.78</ele>
 <time>2011-09-13T11:36:41Z</time>
 </trkpt>
 <trkpt lat="47.715420" lon="13.466037">
 <ele>502.01</ele>
 <time>2011-09-13T11:36:51Z</time>
 </trkpt>
 <trkpt lat="47.715473" lon="13.465273">
 <ele>501.78</ele>
 <time>2011-09-13T11:37:01Z</time>
 </trkpt>
 <trkpt lat="47.715515" lon="13.464530">
 <ele>502.26</ele>
 <time>2011-09-13T11:37:11Z</time>
 </trkpt>
 <trkpt lat="47.715527" lon="13.464304">
 <ele>502.36</ele>
 <time>2011-09-13T11:37:14Z</time>
 </trkpt>
 <trkpt lat="47.715553" lon="13.463870">
 <ele>501.98</ele>
 <time>2011-09-13T11:37:20Z</time>
 </trkpt>
 <trkpt lat="47.715588" lon="13.463287">
 <ele>502.03</ele>
 <time>2011-09-13T11:37:28Z</time>
 </trkpt>
 <trkpt lat="47.715618" lon="13.462710">
 <ele>502.30</ele>
 <time>2011-09-13T11:37:36Z</time>
 </trkpt>
 <trkpt lat="47.715652" lon="13.462113">
 <ele>502.65</ele>
 <time>2011-09-13T11:37:44Z</time>
 </trkpt>
 <trkpt lat="47.715683" lon="13.461586">
 <ele>502.58</ele>
 <time>2011-09-13T11:37:51Z</time>
 </trkpt>
 <trkpt lat="47.715721" lon="13.460922">
 <ele>502.59</ele>
 <time>2011-09-13T11:38:00Z</time>
 </trkpt>
 <trkpt lat="47.715740" lon="13.460549">
 <ele>502.75</ele>
 <time>2011-09-13T11:38:05Z</time>
 </trkpt>
 <trkpt lat="47.715748" lon="13.460402">
 <ele>502.70</ele>
 <time>2011-09-13T11:38:07Z</time>
 </trkpt>
 <trkpt lat="47.715767" lon="13.460091">
 <ele>502.64</ele>
 <time>2011-09-13T11:38:11Z</time>
 </trkpt>
 <trkpt lat="47.715797" lon="13.459544">
 <ele>502.80</ele>
 <time>2011-09-13T11:38:18Z</time>
 </trkpt>
 <trkpt lat="47.715832" lon="13.458926">
 <ele>502.76</ele>
 <time>2011-09-13T11:38:26Z</time>
 </trkpt>
 <trkpt lat="47.715862" lon="13.458466">
 <ele>502.41</ele>
 <time>2011-09-13T11:38:32Z</time>
 </trkpt>
 <trkpt lat="47.715916" lon="13.457657">
 <ele>502.27</ele>
 <time>2011-09-13T11:38:42Z</time>
 </trkpt>
 <trkpt lat="47.715969" lon="13.456860">
 <ele>501.68</ele>
 <time>2011-09-13T11:38:52Z</time>
 </trkpt>
 <trkpt lat="47.716026" lon="13.456013">
 <ele>502.17</ele>
 <time>2011-09-13T11:39:03Z</time>
 </trkpt>
 <trkpt lat="47.716084" lon="13.455148">
 <ele>501.67</ele>
 <time>2011-09-13T11:39:14Z</time>
 </trkpt>
 <trkpt lat="47.716125" lon="13.454484">
 <ele>501.95</ele>
 <time>2011-09-13T11:39:23Z</time>
 </trkpt>
 <trkpt lat="47.716152" lon="13.454049">
 <ele>502.45</ele>
 <time>2011-09-13T11:39:29Z</time>
 </trkpt>
 <trkpt lat="47.716175" lon="13.453560">
 <ele>502.43</ele>
 <time>2011-09-13T11:39:36Z</time>
 </trkpt>
 <trkpt lat="47.716187" lon="13.452961">
 <ele>501.87</ele>
 <time>2011-09-13T11:39:44Z</time>
 </trkpt>
 <trkpt lat="47.716198" lon="13.452346">
 <ele>501.39</ele>
 <time>2011-09-13T11:39:52Z</time>
 </trkpt>
 <trkpt lat="47.716244" lon="13.451737">
 <ele>501.53</ele>
 <time>2011-09-13T11:40:00Z</time>
 </trkpt>
 <trkpt lat="47.716290" lon="13.451193">
 <ele>500.91</ele>
 <time>2011-09-13T11:40:07Z</time>
 </trkpt>
 <trkpt lat="47.716354" lon="13.450368">
 <ele>500.26</ele>
 <time>2011-09-13T11:40:18Z</time>
 </trkpt>
 <trkpt lat="47.716393" lon="13.449886">
 <ele>500.45</ele>
 <time>2011-09-13T11:40:25Z</time>
 </trkpt>
 <trkpt lat="47.716454" lon="13.449423">
 <ele>500.70</ele>
 <time>2011-09-13T11:40:32Z</time>
 </trkpt>
 <trkpt lat="47.716629" lon="13.448864">
 <ele>500.31</ele>
 <time>2011-09-13T11:40:39Z</time>
 </trkpt>
 <trkpt lat="47.716873" lon="13.448247">
 <ele>500.01</ele>
 <time>2011-09-13T11:40:48Z</time>
 </trkpt>
 <trkpt lat="47.717136" lon="13.447596">
 <ele>500.12</ele>
 <time>2011-09-13T11:40:58Z</time>
 </trkpt>
 <trkpt lat="47.717449" lon="13.446857">
 <ele>500.13</ele>
 <time>2011-09-13T11:41:09Z</time>
 </trkpt>
 <trkpt lat="47.717785" lon="13.446070">
 <ele>500.74</ele>
 <time>2011-09-13T11:41:21Z</time>
 </trkpt>
 <trkpt lat="47.718029" lon="13.445489">
 <ele>500.43</ele>
 <time>2011-09-13T11:41:30Z</time>
 </trkpt>
 <trkpt lat="47.718304" lon="13.444840">
 <ele>500.37</ele>
 <time>2011-09-13T11:41:40Z</time>
 </trkpt>
 <trkpt lat="47.718578" lon="13.444190">
 <ele>500.30</ele>
 <time>2011-09-13T11:41:50Z</time>
 </trkpt>
 <trkpt lat="47.718899" lon="13.443428">
 <ele>499.81</ele>
 <time>2011-09-13T11:42:02Z</time>
 </trkpt>
 <trkpt lat="47.719021" lon="13.443138">
 <ele>499.82</ele>
 <time>2011-09-13T11:42:08Z</time>
 </trkpt>
 <trkpt lat="47.719166" lon="13.442799">
 <ele>499.68</ele>
 <time>2011-09-13T11:42:14Z</time>
 </trkpt>
 <trkpt lat="47.719498" lon="13.441981">
 <ele>499.93</ele>
 <time>2011-09-13T11:42:27Z</time>
 </trkpt>
 <trkpt lat="47.719810" lon="13.441197">
 <ele>500.05</ele>
 <time>2011-09-13T11:42:39Z</time>
 </trkpt>
 <trkpt lat="47.719917" lon="13.440932">
 <ele>499.96</ele>
 <time>2011-09-13T11:42:43Z</time>
 </trkpt>
 <trkpt lat="47.720024" lon="13.440661">
 <ele>499.60</ele>
 <time>2011-09-13T11:42:47Z</time>
 </trkpt>
 <trkpt lat="47.720203" lon="13.440247">
 <ele>499.16</ele>
 <time>2011-09-13T11:42:53Z</time>
 </trkpt>
 <trkpt lat="47.720345" lon="13.439914">
 <ele>499.30</ele>
 <time>2011-09-13T11:42:58Z</time>
 </trkpt>
 <trkpt lat="47.720539" lon="13.439541">
 <ele>499.39</ele>
 <time>2011-09-13T11:43:04Z</time>
 </trkpt>
 <trkpt lat="47.720825" lon="13.439217">
 <ele>499.45</ele>
 <time>2011-09-13T11:43:11Z</time>
 </trkpt>
 <trkpt lat="47.721100" lon="13.439018">
 <ele>499.80</ele>
 <time>2011-09-13T11:43:17Z</time>
 </trkpt>
 <trkpt lat="47.721333" lon="13.438948">
 <ele>499.80</ele>
 <time>2011-09-13T11:43:22Z</time>
 </trkpt>
 <trkpt lat="47.721352" lon="13.438946">
 <ele>500.33</ele>
 <time>2011-09-13T11:43:26Z</time>
 </trkpt>
 <trkpt lat="47.721352" lon="13.438946">
 <ele>501.00</ele>
 <time>2011-09-13T11:43:31Z</time>
 </trkpt>
 <trkpt lat="47.721352" lon="13.438946">
 <ele>500.74</ele>
 <time>2011-09-13T11:43:46Z</time>
 </trkpt>
 <trkpt lat="47.721352" lon="13.438946">
 <ele>500.63</ele>
 <time>2011-09-13T11:43:47Z</time>
 </trkpt>
 <trkpt lat="47.721401" lon="13.438938">
 <ele>500.36</ele>
 <time>2011-09-13T11:43:55Z</time>
 </trkpt>
 <trkpt lat="47.721519" lon="13.438920">
 <ele>500.24</ele>
 <time>2011-09-13T11:44:02Z</time>
 </trkpt>
 <trkpt lat="47.721577" lon="13.438912">
 <ele>500.49</ele>
 <time>2011-09-13T11:44:07Z</time>
 </trkpt>
 <trkpt lat="47.721607" lon="13.438908">
 <ele>500.52</ele>
 <time>2011-09-13T11:44:11Z</time>
 </trkpt>
 <trkpt lat="47.721752" lon="13.438886">
 <ele>500.42</ele>
 <time>2011-09-13T11:44:16Z</time>
 </trkpt>
 <trkpt lat="47.721821" lon="13.438876">
 <ele>500.14</ele>
 <time>2011-09-13T11:44:23Z</time>
 </trkpt>
 <trkpt lat="47.722267" lon="13.438978">
 <ele>500.29</ele>
 <time>2011-09-13T11:44:30Z</time>
 </trkpt>
 <trkpt lat="47.722347" lon="13.438990">
 <ele>500.13</ele>
 <time>2011-09-13T11:44:32Z</time>
 </trkpt>
 <trkpt lat="47.722599" lon="13.439019">
 <ele>500.87</ele>
 <time>2011-09-13T11:44:39Z</time>
 </trkpt>
 <trkpt lat="47.722874" lon="13.439052">
 <ele>500.94</ele>
 <time>2011-09-13T11:44:46Z</time>
 </trkpt>
 <trkpt lat="47.723141" lon="13.439076">
 <ele>501.08</ele>
 <time>2011-09-13T11:44:52Z</time>
 </trkpt>
 <trkpt lat="47.723408" lon="13.439093">
 <ele>501.23</ele>
 <time>2011-09-13T11:44:57Z</time>
 </trkpt>
 <trkpt lat="47.723946" lon="13.439120">
 <ele>501.53</ele>
 <time>2011-09-13T11:45:07Z</time>
 </trkpt>
 <trkpt lat="47.724308" lon="13.439133">
 <ele>501.23</ele>
 <time>2011-09-13T11:45:13Z</time>
 </trkpt>
 <trkpt lat="47.724743" lon="13.439094">
 <ele>500.18</ele>
 <time>2011-09-13T11:45:21Z</time>
 </trkpt>
 <trkpt lat="47.724884" lon="13.439075">
 <ele>500.42</ele>
 <time>2011-09-13T11:45:25Z</time>
 </trkpt>
 <trkpt lat="47.725025" lon="13.439053">
 <ele>500.74</ele>
 <time>2011-09-13T11:45:29Z</time>
 </trkpt>
 <trkpt lat="47.725063" lon="13.439046">
 <ele>500.73</ele>
 <time>2011-09-13T11:45:30Z</time>
 </trkpt>
 <trkpt lat="47.725391" lon="13.438851">
 <ele>499.99</ele>
 <time>2011-09-13T11:45:37Z</time>
 </trkpt>
 <trkpt lat="47.725723" lon="13.438599">
 <ele>499.51</ele>
 <time>2011-09-13T11:45:44Z</time>
 </trkpt>
 <trkpt lat="47.726006" lon="13.438385">
 <ele>499.07</ele>
 <time>2011-09-13T11:45:50Z</time>
 </trkpt>
 <trkpt lat="47.726173" lon="13.438250">
 <ele>498.84</ele>
 <time>2011-09-13T11:45:54Z</time>
 </trkpt>
 <trkpt lat="47.726357" lon="13.438120">
 <ele>499.29</ele>
 <time>2011-09-13T11:45:59Z</time>
 </trkpt>
 <trkpt lat="47.726589" lon="13.437911">
 <ele>499.10</ele>
 <time>2011-09-13T11:46:05Z</time>
 </trkpt>
 <trkpt lat="47.726818" lon="13.437694">
 <ele>498.75</ele>
 <time>2011-09-13T11:46:11Z</time>
 </trkpt>
 <trkpt lat="47.727112" lon="13.437390">
 <ele>498.53</ele>
 <time>2011-09-13T11:46:19Z</time>
 </trkpt>
 <trkpt lat="47.727272" lon="13.437224">
 <ele>498.36</ele>
 <time>2011-09-13T11:46:28Z</time>
 </trkpt>
 <trkpt lat="47.727795" lon="13.436727">
 <ele>498.23</ele>
 <time>2011-09-13T11:46:35Z</time>
 </trkpt>
 <trkpt lat="47.728165" lon="13.436378">
 <ele>498.07</ele>
 <time>2011-09-13T11:46:43Z</time>
 </trkpt>
 <trkpt lat="47.728546" lon="13.436011">
 <ele>498.55</ele>
 <time>2011-09-13T11:46:52Z</time>
 </trkpt>
 <trkpt lat="47.728794" lon="13.435690">
 <ele>499.30</ele>
 <time>2011-09-13T11:46:59Z</time>
 </trkpt>
 <trkpt lat="47.728901" lon="13.435551">
 <ele>499.34</ele>
 <time>2011-09-13T11:47:02Z</time>
 </trkpt>
 <trkpt lat="47.729187" lon="13.434975">
 <ele>499.59</ele>
 <time>2011-09-13T11:47:12Z</time>
 </trkpt>
 <trkpt lat="47.729317" lon="13.434611">
 <ele>500.33</ele>
 <time>2011-09-13T11:47:18Z</time>
 </trkpt>
 <trkpt lat="47.729450" lon="13.434066">
 <ele>501.54</ele>
 <time>2011-09-13T11:47:27Z</time>
 </trkpt>
 <trkpt lat="47.729568" lon="13.433456">
 <ele>501.91</ele>
 <time>2011-09-13T11:47:37Z</time>
 </trkpt>
 <trkpt lat="47.729641" lon="13.433126">
 <ele>503.07</ele>
 <time>2011-09-13T11:47:43Z</time>
 </trkpt>
 <trkpt lat="47.729733" lon="13.432719">
 <ele>503.82</ele>
 <time>2011-09-13T11:47:50Z</time>
 </trkpt>
 <trkpt lat="47.729839" lon="13.432255">
 <ele>504.21</ele>
 <time>2011-09-13T11:47:58Z</time>
 </trkpt>
 <trkpt lat="47.729958" lon="13.431735">
 <ele>505.02</ele>
 <time>2011-09-13T11:48:07Z</time>
 </trkpt>
 <trkpt lat="47.730022" lon="13.431448">
 <ele>505.55</ele>
 <time>2011-09-13T11:48:12Z</time>
 </trkpt>
 <trkpt lat="47.730141" lon="13.430923">
 <ele>506.17</ele>
 <time>2011-09-13T11:48:21Z</time>
 </trkpt>
 <trkpt lat="47.730228" lon="13.430529">
 <ele>506.51</ele>
 <time>2011-09-13T11:48:28Z</time>
 </trkpt>
 <trkpt lat="47.730320" lon="13.430140">
 <ele>506.80</ele>
 <time>2011-09-13T11:48:35Z</time>
 </trkpt>
 <trkpt lat="47.730396" lon="13.429803">
 <ele>506.83</ele>
 <time>2011-09-13T11:48:41Z</time>
 </trkpt>
 <trkpt lat="47.730427" lon="13.429670">
 <ele>506.93</ele>
 <time>2011-09-13T11:48:47Z</time>
 </trkpt>
 <trkpt lat="47.730427" lon="13.429670">
 <ele>506.96</ele>
 <time>2011-09-13T11:48:52Z</time>
 </trkpt>
 <trkpt lat="47.730553" lon="13.429327">
 <ele>506.49</ele>
 <time>2011-09-13T11:48:57Z</time>
 </trkpt>
 <trkpt lat="47.730782" lon="13.428789">
 <ele>505.39</ele>
 <time>2011-09-13T11:49:03Z</time>
 </trkpt>
 <trkpt lat="47.730694" lon="13.428598">
 <ele>505.65</ele>
 <time>2011-09-13T11:49:07Z</time>
 </trkpt>
 <trkpt lat="47.730656" lon="13.428517">
 <ele>505.83</ele>
 <time>2011-09-13T11:49:09Z</time>
 </trkpt>
 <trkpt lat="47.730583" lon="13.428281">
 <ele>505.97</ele>
 <time>2011-09-13T11:49:14Z</time>
 </trkpt>
 <trkpt lat="47.730682" lon="13.427675">
 <ele>506.30</ele>
 <time>2011-09-13T11:49:25Z</time>
 </trkpt>
 <trkpt lat="47.730755" lon="13.427213">
 <ele>506.74</ele>
 <time>2011-09-13T11:49:33Z</time>
 </trkpt>
 <trkpt lat="47.730824" lon="13.426793">
 <ele>507.28</ele>
 <time>2011-09-13T11:49:41Z</time>
 </trkpt>
 <trkpt lat="47.730831" lon="13.426749">
 <ele>507.73</ele>
 <time>2011-09-13T11:49:44Z</time>
 </trkpt>
 <trkpt lat="47.730831" lon="13.426734">
 <ele>508.15</ele>
 <time>2011-09-13T11:49:50Z</time>
 </trkpt>
 <trkpt lat="47.730850" lon="13.426624">
 <ele>507.71</ele>
 <time>2011-09-13T11:49:54Z</time>
 </trkpt>
 <trkpt lat="47.730854" lon="13.426602">
 <ele>507.55</ele>
 <time>2011-09-13T11:49:59Z</time>
 </trkpt>
 <trkpt lat="47.730854" lon="13.426602">
 <ele>507.66</ele>
 <time>2011-09-13T11:50:05Z</time>
 </trkpt>
 <trkpt lat="47.731003" lon="13.425980">
 <ele>507.79</ele>
 <time>2011-09-13T11:50:11Z</time>
 </trkpt>
 <trkpt lat="47.731041" lon="13.425585">
 <ele>508.68</ele>
 <time>2011-09-13T11:50:18Z</time>
 </trkpt>
 <trkpt lat="47.731052" lon="13.425466">
 <ele>508.73</ele>
 <time>2011-09-13T11:50:20Z</time>
 </trkpt>
 <trkpt lat="47.731064" lon="13.425348">
 <ele>508.74</ele>
 <time>2011-09-13T11:50:22Z</time>
 </trkpt>
 <trkpt lat="47.731068" lon="13.425315">
 <ele>508.70</ele>
 <time>2011-09-13T11:50:25Z</time>
 </trkpt>
 <trkpt lat="47.731068" lon="13.425315">
 <ele>508.63</ele>
 <time>2011-09-13T11:50:27Z</time>
 </trkpt>
 <trkpt lat="47.731068" lon="13.425315">
 <ele>508.80</ele>
 <time>2011-09-13T11:50:29Z</time>
 </trkpt>
 <trkpt lat="47.731255" lon="13.424473">
 <ele>509.74</ele>
 <time>2011-09-13T11:50:37Z</time>
 </trkpt>
 <trkpt lat="47.731319" lon="13.424184">
 <ele>510.16</ele>
 <time>2011-09-13T11:50:42Z</time>
 </trkpt>
 <trkpt lat="47.731434" lon="13.423984">
 <ele>510.02</ele>
 <time>2011-09-13T11:50:46Z</time>
 </trkpt>
 <trkpt lat="47.731506" lon="13.423912">
 <ele>509.85</ele>
 <time>2011-09-13T11:50:48Z</time>
 </trkpt>
 <trkpt lat="47.731640" lon="13.423604">
 <ele>509.32</ele>
 <time>2011-09-13T11:50:53Z</time>
 </trkpt>
 <trkpt lat="47.731750" lon="13.423057">
 <ele>509.46</ele>
 <time>2011-09-13T11:51:01Z</time>
 </trkpt>
 <trkpt lat="47.731823" lon="13.422665">
 <ele>509.99</ele>
 <time>2011-09-13T11:51:07Z</time>
 </trkpt>
 <trkpt lat="47.731922" lon="13.422143">
 <ele>510.10</ele>
 <time>2011-09-13T11:51:15Z</time>
 </trkpt>
 <trkpt lat="47.731987" lon="13.421819">
 <ele>510.35</ele>
 <time>2011-09-13T11:51:20Z</time>
 </trkpt>
 <trkpt lat="47.732044" lon="13.421552">
 <ele>510.74</ele>
 <time>2011-09-13T11:51:24Z</time>
 </trkpt>
 <trkpt lat="47.732098" lon="13.421312">
 <ele>511.38</ele>
 <time>2011-09-13T11:51:28Z</time>
 </trkpt>
 <trkpt lat="47.732193" lon="13.420873">
 <ele>512.01</ele>
 <time>2011-09-13T11:51:35Z</time>
 </trkpt>
 <trkpt lat="47.732235" lon="13.420675">
 <ele>512.00</ele>
 <time>2011-09-13T11:51:38Z</time>
 </trkpt>
 <trkpt lat="47.732277" lon="13.420464">
 <ele>511.93</ele>
 <time>2011-09-13T11:51:41Z</time>
 </trkpt>
 <trkpt lat="47.732319" lon="13.420265">
 <ele>511.96</ele>
 <time>2011-09-13T11:51:44Z</time>
 </trkpt>
 <trkpt lat="47.732399" lon="13.419862">
 <ele>512.36</ele>
 <time>2011-09-13T11:51:51Z</time>
 </trkpt>
 <trkpt lat="47.732468" lon="13.419538">
 <ele>512.52</ele>
 <time>2011-09-13T11:51:57Z</time>
 </trkpt>
 <trkpt lat="47.732536" lon="13.419186">
 <ele>512.45</ele>
 <time>2011-09-13T11:52:04Z</time>
 </trkpt>
 <trkpt lat="47.732586" lon="13.418949">
 <ele>512.81</ele>
 <time>2011-09-13T11:52:09Z</time>
 </trkpt>
 <trkpt lat="47.732613" lon="13.418813">
 <ele>513.43</ele>
 <time>2011-09-13T11:52:13Z</time>
 </trkpt>
 <trkpt lat="47.732662" lon="13.418597">
 <ele>513.50</ele>
 <time>2011-09-13T11:52:18Z</time>
 </trkpt>
 <trkpt lat="47.732674" lon="13.418543">
 <ele>513.39</ele>
 <time>2011-09-13T11:52:19Z</time>
 </trkpt>
 <trkpt lat="47.732727" lon="13.418285">
 <ele>513.05</ele>
 <time>2011-09-13T11:52:23Z</time>
 </trkpt>
 <trkpt lat="47.732784" lon="13.418011">
 <ele>512.66</ele>
 <time>2011-09-13T11:52:27Z</time>
 </trkpt>
 <trkpt lat="47.732853" lon="13.417673">
 <ele>512.38</ele>
 <time>2011-09-13T11:52:32Z</time>
 </trkpt>
 <trkpt lat="47.732895" lon="13.417457">
 <ele>512.47</ele>
 <time>2011-09-13T11:52:35Z</time>
 </trkpt>
 <trkpt lat="47.732956" lon="13.417155">
 <ele>512.62</ele>
 <time>2011-09-13T11:52:39Z</time>
 </trkpt>
 <trkpt lat="47.733047" lon="13.416709">
 <ele>512.46</ele>
 <time>2011-09-13T11:52:45Z</time>
 </trkpt>
 <trkpt lat="47.733063" lon="13.416635">
 <ele>512.37</ele>
 <time>2011-09-13T11:52:46Z</time>
 </trkpt>
 <trkpt lat="47.733166" lon="13.416182">
 <ele>511.47</ele>
 <time>2011-09-13T11:52:52Z</time>
 </trkpt>
 <trkpt lat="47.733257" lon="13.415758">
 <ele>511.19</ele>
 <time>2011-09-13T11:52:58Z</time>
 </trkpt>
 <trkpt lat="47.733288" lon="13.415620">
 <ele>511.39</ele>
 <time>2011-09-13T11:53:02Z</time>
 </trkpt>
 <trkpt lat="47.733440" lon="13.415674">
 <ele>512.01</ele>
 <time>2011-09-13T11:53:07Z</time>
 </trkpt>
 <trkpt lat="47.733418" lon="13.415669">
 <ele>512.11</ele>
 <time>2011-09-13T11:53:09Z</time>
 </trkpt>
 <trkpt lat="47.733337" lon="13.415626">
 <ele>511.78</ele>
 <time>2011-09-13T11:53:15Z</time>
 </trkpt>
 <trkpt lat="47.733311" lon="13.415625">
 <ele>511.65</ele>
 <time>2011-09-13T11:53:24Z</time>
 </trkpt>
 <trkpt lat="47.733295" lon="13.415575">
 <ele>511.23</ele>
 <time>2011-09-13T11:53:43Z</time>
 </trkpt>
 <trkpt lat="47.733452" lon="13.415545">
 <ele>511.85</ele>
 <time>2011-09-13T11:53:47Z</time>
 </trkpt>
 <trkpt lat="47.733299" lon="13.415470">
 <ele>511.76</ele>
 <time>2011-09-13T11:53:50Z</time>
 </trkpt>
 <trkpt lat="47.733215" lon="13.415277">
 <ele>511.35</ele>
 <time>2011-09-13T11:53:56Z</time>
 </trkpt>
 <trkpt lat="47.733158" lon="13.415163">
 <ele>511.38</ele>
 <time>2011-09-13T11:54:01Z</time>
 </trkpt>
 <trkpt lat="47.733131" lon="13.415117">
 <ele>511.57</ele>
 <time>2011-09-13T11:54:05Z</time>
 </trkpt>
 <trkpt lat="47.739174" lon="13.393094">
 <ele>497.28</ele>
 <time>2011-09-13T12:04:02Z</time>
 </trkpt>
 <trkpt lat="47.739449" lon="13.392554">
 <ele>496.92</ele>
 <time>2011-09-13T12:04:11Z</time>
 </trkpt>
 <trkpt lat="47.739700" lon="13.392218">
 <ele>497.02</ele>
 <time>2011-09-13T12:04:18Z</time>
 </trkpt>
 <trkpt lat="47.739979" lon="13.391900">
 <ele>497.14</ele>
 <time>2011-09-13T12:04:25Z</time>
 </trkpt>
 <trkpt lat="47.740269" lon="13.391599">
 <ele>497.73</ele>
 <time>2011-09-13T12:04:33Z</time>
 </trkpt>
 <trkpt lat="47.740662" lon="13.391234">
 <ele>498.32</ele>
 <time>2011-09-13T12:04:43Z</time>
 </trkpt>
 <trkpt lat="47.741016" lon="13.390884">
 <ele>497.86</ele>
 <time>2011-09-13T12:04:52Z</time>
 </trkpt>
 <trkpt lat="47.741348" lon="13.390368">
 <ele>497.85</ele>
 <time>2011-09-13T12:05:02Z</time>
 </trkpt>
 <trkpt lat="47.741673" lon="13.389857">
 <ele>498.07</ele>
 <time>2011-09-13T12:05:12Z</time>
 </trkpt>
 <trkpt lat="47.741974" lon="13.389386">
 <ele>498.34</ele>
 <time>2011-09-13T12:05:21Z</time>
 </trkpt>
 <trkpt lat="47.742203" lon="13.389012">
 <ele>498.67</ele>
 <time>2011-09-13T12:05:28Z</time>
 </trkpt>
 <trkpt lat="47.742409" lon="13.388685">
 <ele>499.03</ele>
 <time>2011-09-13T12:05:34Z</time>
 </trkpt>
 <trkpt lat="47.742596" lon="13.388382">
 <ele>499.73</ele>
 <time>2011-09-13T12:05:40Z</time>
 </trkpt>
 <trkpt lat="47.742771" lon="13.388048">
 <ele>500.57</ele>
 <time>2011-09-13T12:05:47Z</time>
 </trkpt>
 <trkpt lat="47.742920" lon="13.387715">
 <ele>501.18</ele>
 <time>2011-09-13T12:05:54Z</time>
 </trkpt>
 <trkpt lat="47.742958" lon="13.387624">
 <ele>501.40</ele>
 <time>2011-09-13T12:05:56Z</time>
 </trkpt>
 <trkpt lat="47.743095" lon="13.387289">
 <ele>502.08</ele>
 <time>2011-09-13T12:06:03Z</time>
 </trkpt>
 <trkpt lat="47.743114" lon="13.387242">
 <ele>502.18</ele>
 <time>2011-09-13T12:06:04Z</time>
 </trkpt>
 <trkpt lat="47.743259" lon="13.386854">
 <ele>503.03</ele>
 <time>2011-09-13T12:06:12Z</time>
 </trkpt>
 <trkpt lat="47.743362" lon="13.386578">
 <ele>503.29</ele>
 <time>2011-09-13T12:06:18Z</time>
 </trkpt>
 <trkpt lat="47.743469" lon="13.386297">
 <ele>503.87</ele>
 <time>2011-09-13T12:06:24Z</time>
 </trkpt>
 <trkpt lat="47.743542" lon="13.386112">
 <ele>504.49</ele>
 <time>2011-09-13T12:06:28Z</time>
 </trkpt>
 <trkpt lat="47.743652" lon="13.385820">
 <ele>505.06</ele>
 <time>2011-09-13T12:06:34Z</time>
 </trkpt>
 <trkpt lat="47.743748" lon="13.385599">
 <ele>505.84</ele>
 <time>2011-09-13T12:06:40Z</time>
 </trkpt>
 <trkpt lat="47.743816" lon="13.385444">
 <ele>506.15</ele>
 <time>2011-09-13T12:06:44Z</time>
 </trkpt>
 <trkpt lat="47.743977" lon="13.385156">
 <ele>506.51</ele>
 <time>2011-09-13T12:06:50Z</time>
 </trkpt>
 <trkpt lat="47.744205" lon="13.384767">
 <ele>507.03</ele>
 <time>2011-09-13T12:06:58Z</time>
 </trkpt>
 <trkpt lat="47.744308" lon="13.384598">
 <ele>507.21</ele>
 <time>2011-09-13T12:07:02Z</time>
 </trkpt>
 <trkpt lat="47.744408" lon="13.384444">
 <ele>507.70</ele>
 <time>2011-09-13T12:07:07Z</time>
 </trkpt>
 <trkpt lat="47.744530" lon="13.384248">
 <ele>507.99</ele>
 <time>2011-09-13T12:07:12Z</time>
 </trkpt>
 <trkpt lat="47.744637" lon="13.384076">
 <ele>508.27</ele>
 <time>2011-09-13T12:07:17Z</time>
 </trkpt>
 <trkpt lat="47.744823" lon="13.383843">
 <ele>508.21</ele>
 <time>2011-09-13T12:07:23Z</time>
 </trkpt>
 <trkpt lat="47.745167" lon="13.383394">
 <ele>508.48</ele>
 <time>2011-09-13T12:07:30Z</time>
 </trkpt>
 <trkpt lat="47.745384" lon="13.383015">
 <ele>507.75</ele>
 <time>2011-09-13T12:07:37Z</time>
 </trkpt>
 <trkpt lat="47.745533" lon="13.382675">
 <ele>507.08</ele>
 <time>2011-09-13T12:07:43Z</time>
 </trkpt>
 <trkpt lat="47.745659" lon="13.382305">
 <ele>505.75</ele>
 <time>2011-09-13T12:07:48Z</time>
 </trkpt>
 <trkpt lat="47.745842" lon="13.381801">
 <ele>504.25</ele>
 <time>2011-09-13T12:07:54Z</time>
 </trkpt>
 <trkpt lat="47.746136" lon="13.381079">
 <ele>502.73</ele>
 <time>2011-09-13T12:08:02Z</time>
 </trkpt>
 <trkpt lat="47.746513" lon="13.380223">
 <ele>500.20</ele>
 <time>2011-09-13T12:08:11Z</time>
 </trkpt>
 <trkpt lat="47.746952" lon="13.379490">
 <ele>498.48</ele>
 <time>2011-09-13T12:08:19Z</time>
 </trkpt>
 <trkpt lat="47.747334" lon="13.378714">
 <ele>497.02</ele>
 <time>2011-09-13T12:08:27Z</time>
 </trkpt>
 <trkpt lat="47.747635" lon="13.378357">
 <ele>496.42</ele>
 <time>2011-09-13T12:08:32Z</time>
 </trkpt>
 <trkpt lat="47.747967" lon="13.377978">
 <ele>496.60</ele>
 <time>2011-09-13T12:08:38Z</time>
 </trkpt>
 <trkpt lat="47.748196" lon="13.377726">
 <ele>496.82</ele>
 <time>2011-09-13T12:08:42Z</time>
 </trkpt>
 <trkpt lat="47.748619" lon="13.377250">
 <ele>497.95</ele>
 <time>2011-09-13T12:08:50Z</time>
 </trkpt>
 <trkpt lat="47.748959" lon="13.376868">
 <ele>497.98</ele>
 <time>2011-09-13T12:08:57Z</time>
 </trkpt>
 <trkpt lat="47.749386" lon="13.376386">
 <ele>497.97</ele>
 <time>2011-09-13T12:09:06Z</time>
 </trkpt>
 <trkpt lat="47.749687" lon="13.376017">
 <ele>498.10</ele>
 <time>2011-09-13T12:09:13Z</time>
 </trkpt>
 <trkpt lat="47.749771" lon="13.375911">
 <ele>498.10</ele>
 <time>2011-09-13T12:09:15Z</time>
 </trkpt>
 <trkpt lat="47.750164" lon="13.375449">
 <ele>497.75</ele>
 <time>2011-09-13T12:09:24Z</time>
 </trkpt>
 <trkpt lat="47.750370" lon="13.375196">
 <ele>497.95</ele>
 <time>2011-09-13T12:09:29Z</time>
 </trkpt>
 <trkpt lat="47.750637" lon="13.374871">
 <ele>498.38</ele>
 <time>2011-09-13T12:09:36Z</time>
 </trkpt>
 <trkpt lat="47.750912" lon="13.374560">
 <ele>498.71</ele>
 <time>2011-09-13T12:09:43Z</time>
 </trkpt>
 <trkpt lat="47.751213" lon="13.374221">
 <ele>498.07</ele>
 <time>2011-09-13T12:09:50Z</time>
 </trkpt>
 <trkpt lat="47.751541" lon="13.373843">
 <ele>497.19</ele>
 <time>2011-09-13T12:09:57Z</time>
 </trkpt>
 <trkpt lat="47.751881" lon="13.373422">
 <ele>497.46</ele>
 <time>2011-09-13T12:10:05Z</time>
 </trkpt>
 <trkpt lat="47.752262" lon="13.372948">
 <ele>497.63</ele>
 <time>2011-09-13T12:10:14Z</time>
 </trkpt>
 <trkpt lat="47.752651" lon="13.372499">
 <ele>497.63</ele>
 <time>2011-09-13T12:10:23Z</time>
 </trkpt>
 <trkpt lat="47.753006" lon="13.372144">
 <ele>497.79</ele>
 <time>2011-09-13T12:10:31Z</time>
 </trkpt>
 <trkpt lat="47.753056" lon="13.372100">
 <ele>497.80</ele>
 <time>2011-09-13T12:10:32Z</time>
 </trkpt>
 <trkpt lat="47.753368" lon="13.371810">
 <ele>497.89</ele>
 <time>2011-09-13T12:10:39Z</time>
 </trkpt>
 <trkpt lat="47.753662" lon="13.371538">
 <ele>498.21</ele>
 <time>2011-09-13T12:10:46Z</time>
 </trkpt>
 <trkpt lat="47.753952" lon="13.371311">
 <ele>500.09</ele>
 <time>2011-09-13T12:10:53Z</time>
 </trkpt>
 <trkpt lat="47.754063" lon="13.371232">
 <ele>501.46</ele>
 <time>2011-09-13T12:10:58Z</time>
 </trkpt>
 <trkpt lat="47.754333" lon="13.372021">
 <ele>502.73</ele>
 <time>2011-09-13T12:11:03Z</time>
 </trkpt>
 <trkpt lat="47.754341" lon="13.372065">
 <ele>502.93</ele>
 <time>2011-09-13T12:11:05Z</time>
 </trkpt>
 <trkpt lat="47.754356" lon="13.372116">
 <ele>502.80</ele>
 <time>2011-09-13T12:11:10Z</time>
 </trkpt>
 <trkpt lat="47.754086" lon="13.371214">
 <ele>502.69</ele>
 <time>2011-09-13T12:12:51Z</time>
 </trkpt>
 <trkpt lat="47.754128" lon="13.371185">
 <ele>502.58</ele>
 <time>2011-09-13T12:12:54Z</time>
 </trkpt>
 <trkpt lat="47.754280" lon="13.371077">
 <ele>502.69</ele>
 <time>2011-09-13T12:13:01Z</time>
 </trkpt>
 <trkpt lat="47.754372" lon="13.371011">
 <ele>503.39</ele>
 <time>2011-09-13T12:13:06Z</time>
 </trkpt>
 <trkpt lat="47.754475" lon="13.370943">
 <ele>503.33</ele>
 <time>2011-09-13T12:13:12Z</time>
 </trkpt>
 <trkpt lat="47.754627" lon="13.370841">
 <ele>503.20</ele>
 <time>2011-09-13T12:13:17Z</time>
 </trkpt>
 <trkpt lat="47.754868" lon="13.370681">
 <ele>503.05</ele>
 <time>2011-09-13T12:13:24Z</time>
 </trkpt>
 <trkpt lat="47.755184" lon="13.370469">
 <ele>502.47</ele>
 <time>2011-09-13T12:13:32Z</time>
 </trkpt>
 <trkpt lat="47.755482" lon="13.370265">
 <ele>501.49</ele>
 <time>2011-09-13T12:13:39Z</time>
 </trkpt>
 <trkpt lat="47.755810" lon="13.370018">
 <ele>500.13</ele>
 <time>2011-09-13T12:13:46Z</time>
 </trkpt>
 <trkpt lat="47.755901" lon="13.369945">
 <ele>500.00</ele>
 <time>2011-09-13T12:13:48Z</time>
 </trkpt>
 <trkpt lat="47.756035" lon="13.369840">
 <ele>499.95</ele>
 <time>2011-09-13T12:13:51Z</time>
 </trkpt>
 <trkpt lat="47.756336" lon="13.369582">
 <ele>500.55</ele>
 <time>2011-09-13T12:13:59Z</time>
 </trkpt>
 <trkpt lat="47.756592" lon="13.369338">
 <ele>501.34</ele>
 <time>2011-09-13T12:14:07Z</time>
 </trkpt>
 <trkpt lat="47.756626" lon="13.369303">
 <ele>501.41</ele>
 <time>2011-09-13T12:14:08Z</time>
 </trkpt>
 <trkpt lat="47.756989" lon="13.368960">
 <ele>500.33</ele>
 <time>2011-09-13T12:14:16Z</time>
 </trkpt>
 <trkpt lat="47.757362" lon="13.368601">
 <ele>499.17</ele>
 <time>2011-09-13T12:14:24Z</time>
 </trkpt>
 <trkpt lat="47.757725" lon="13.368253">
 <ele>499.31</ele>
 <time>2011-09-13T12:14:33Z</time>
 </trkpt>
 <trkpt lat="47.758152" lon="13.367903">
 <ele>499.50</ele>
 <time>2011-09-13T12:14:42Z</time>
 </trkpt>
 <trkpt lat="47.758514" lon="13.367669">
 <ele>499.63</ele>
 <time>2011-09-13T12:14:49Z</time>
 </trkpt>
 <trkpt lat="47.758900" lon="13.367520">
 <ele>499.08</ele>
 <time>2011-09-13T12:14:56Z</time>
 </trkpt>
 <trkpt lat="47.759346" lon="13.367439">
 <ele>497.69</ele>
 <time>2011-09-13T12:15:03Z</time>
 </trkpt>
 <trkpt lat="47.759651" lon="13.367418">
 <ele>498.33</ele>
 <time>2011-09-13T12:15:09Z</time>
 </trkpt>
 <trkpt lat="47.760002" lon="13.367390">
 <ele>499.09</ele>
 <time>2011-09-13T12:15:16Z</time>
 </trkpt>
 <trkpt lat="47.760262" lon="13.367369">
 <ele>499.55</ele>
 <time>2011-09-13T12:15:21Z</time>
 </trkpt>
 <trkpt lat="47.760582" lon="13.367344">
 <ele>501.39</ele>
 <time>2011-09-13T12:15:29Z</time>
 </trkpt>
 <trkpt lat="47.760689" lon="13.367336">
 <ele>502.43</ele>
 <time>2011-09-13T12:15:33Z</time>
 </trkpt>
 <trkpt lat="47.760757" lon="13.367332">
 <ele>502.72</ele>
 <time>2011-09-13T12:15:38Z</time>
 </trkpt>
 <trkpt lat="47.760757" lon="13.367332">
 <ele>502.66</ele>
 <time>2011-09-13T12:15:40Z</time>
 </trkpt>
 <trkpt lat="47.760906" lon="13.367314">
 <ele>501.83</ele>
 <time>2011-09-13T12:15:54Z</time>
 </trkpt>
 <trkpt lat="47.761150" lon="13.367410">
 <ele>500.16</ele>
 <time>2011-09-13T12:15:59Z</time>
 </trkpt>
 <trkpt lat="47.761635" lon="13.367678">
 <ele>495.96</ele>
 <time>2011-09-13T12:16:06Z</time>
 </trkpt>
 <trkpt lat="47.762054" lon="13.367860">
 <ele>495.89</ele>
 <time>2011-09-13T12:16:14Z</time>
 </trkpt>
 <trkpt lat="47.762096" lon="13.367872">
 <ele>496.05</ele>
 <time>2011-09-13T12:16:15Z</time>
 </trkpt>
 <trkpt lat="47.762325" lon="13.367872">
 <ele>496.49</ele>
 <time>2011-09-13T12:16:20Z</time>
 </trkpt>
 <trkpt lat="47.762512" lon="13.367872">
 <ele>496.82</ele>
 <time>2011-09-13T12:16:24Z</time>
 </trkpt>
 <trkpt lat="47.762730" lon="13.367846">
 <ele>497.07</ele>
 <time>2011-09-13T12:16:29Z</time>
 </trkpt>
 <trkpt lat="47.763088" lon="13.367775">
 <ele>496.67</ele>
 <time>2011-09-13T12:16:36Z</time>
 </trkpt>
 <trkpt lat="47.763412" lon="13.367699">
 <ele>495.93</ele>
 <time>2011-09-13T12:16:42Z</time>
 </trkpt>
 <trkpt lat="47.763855" lon="13.367508">
 <ele>495.86</ele>
 <time>2011-09-13T12:16:51Z</time>
 </trkpt>
 <trkpt lat="47.764126" lon="13.367342">
 <ele>495.85</ele>
 <time>2011-09-13T12:16:57Z</time>
 </trkpt>
 <trkpt lat="47.764217" lon="13.367287">
 <ele>495.90</ele>
 <time>2011-09-13T12:16:59Z</time>
 </trkpt>
 <trkpt lat="47.764626" lon="13.367085">
 <ele>495.49</ele>
 <time>2011-09-13T12:17:07Z</time>
 </trkpt>
 <trkpt lat="47.764900" lon="13.367014">
 <ele>495.43</ele>
 <time>2011-09-13T12:17:12Z</time>
 </trkpt>
 <trkpt lat="47.764961" lon="13.367017">
 <ele>495.40</ele>
 <time>2011-09-13T12:17:13Z</time>
 </trkpt>
 <trkpt lat="47.765232" lon="13.367111">
 <ele>495.49</ele>
 <time>2011-09-13T12:17:18Z</time>
 </trkpt>
 <trkpt lat="47.765434" lon="13.367263">
 <ele>495.60</ele>
 <time>2011-09-13T12:17:22Z</time>
 </trkpt>
 <trkpt lat="47.765339" lon="13.367164">
 <ele>496.09</ele>
 <time>2011-09-13T12:17:26Z</time>
 </trkpt>
 <trkpt lat="47.765339" lon="13.367164">
 <ele>496.55</ele>
 <time>2011-09-13T12:17:30Z</time>
 </trkpt>
 <trkpt lat="47.765339" lon="13.367164">
 <ele>496.04</ele>
 <time>2011-09-13T12:17:38Z</time>
 </trkpt>
 <trkpt lat="47.765568" lon="13.367413">
 <ele>495.95</ele>
 <time>2011-09-13T12:17:42Z</time>
 </trkpt>
 <trkpt lat="47.765743" lon="13.367615">
 <ele>495.85</ele>
 <time>2011-09-13T12:17:49Z</time>
 </trkpt>
 <trkpt lat="47.765858" lon="13.367686">
 <ele>495.98</ele>
 <time>2011-09-13T12:17:55Z</time>
 </trkpt>
 <trkpt lat="47.765984" lon="13.367710">
 <ele>495.85</ele>
 <time>2011-09-13T12:18:00Z</time>
 </trkpt>
 <trkpt lat="47.766109" lon="13.367722">
 <ele>495.91</ele>
 <time>2011-09-13T12:18:05Z</time>
 </trkpt>
 <trkpt lat="47.766354" lon="13.367741">
 <ele>496.40</ele>
 <time>2011-09-13T12:18:11Z</time>
 </trkpt>
 <trkpt lat="47.766502" lon="13.367771">
 <ele>496.60</ele>
 <time>2011-09-13T12:18:16Z</time>
 </trkpt>
 <trkpt lat="47.766273" lon="13.367660">
 <ele>496.77</ele>
 <time>2011-09-13T12:18:20Z</time>
 </trkpt>
 <trkpt lat="47.766342" lon="13.367393">
 <ele>497.07</ele>
 <time>2011-09-13T12:18:26Z</time>
 </trkpt>
 <trkpt lat="47.766407" lon="13.367120">
 <ele>497.38</ele>
 <time>2011-09-13T12:18:32Z</time>
 </trkpt>
 <trkpt lat="47.766476" lon="13.366831">
 <ele>497.70</ele>
 <time>2011-09-13T12:18:38Z</time>
 </trkpt>
 <trkpt lat="47.766533" lon="13.366586">
 <ele>498.09</ele>
 <time>2011-09-13T12:18:43Z</time>
 </trkpt>
 <trkpt lat="47.766613" lon="13.366206">
 <ele>498.61</ele>
 <time>2011-09-13T12:18:51Z</time>
 </trkpt>
 <trkpt lat="47.766678" lon="13.365837">
 <ele>499.37</ele>
 <time>2011-09-13T12:18:59Z</time>
 </trkpt>
 <trkpt lat="47.766731" lon="13.365590">
 <ele>500.01</ele>
 <time>2011-09-13T12:19:04Z</time>
 </trkpt>
 <trkpt lat="47.766808" lon="13.365305">
 <ele>500.98</ele>
 <time>2011-09-13T12:19:11Z</time>
 </trkpt>
 <trkpt lat="47.766846" lon="13.365147">
 <ele>501.36</ele>
 <time>2011-09-13T12:19:16Z</time>
 </trkpt>
 <trkpt lat="47.766884" lon="13.364997">
 <ele>501.79</ele>
 <time>2011-09-13T12:19:23Z</time>
 </trkpt>
 <trkpt lat="47.766884" lon="13.364997">
 <ele>502.79</ele>
 <time>2011-09-13T12:19:30Z</time>
 </trkpt>
 <trkpt lat="47.766926" lon="13.364482">
 <ele>503.61</ele>
 <time>2011-09-13T12:19:38Z</time>
 </trkpt>
 <trkpt lat="47.767155" lon="13.364138">
 <ele>504.13</ele>
 <time>2011-09-13T12:19:45Z</time>
 </trkpt>
 <trkpt lat="47.767139" lon="13.363967">
 <ele>504.83</ele>
 <time>2011-09-13T12:19:51Z</time>
 </trkpt>
 <trkpt lat="47.767139" lon="13.363967">
 <ele>505.46</ele>
 <time>2011-09-13T12:19:57Z</time>
 </trkpt>
 <trkpt lat="47.767010" lon="13.363345">
 <ele>505.92</ele>
 <time>2011-09-13T12:20:05Z</time>
 </trkpt>
 <trkpt lat="47.767059" lon="13.363169">
 <ele>506.14</ele>
 <time>2011-09-13T12:20:10Z</time>
 </trkpt>
 <trkpt lat="47.767075" lon="13.362976">
 <ele>506.56</ele>
 <time>2011-09-13T12:20:17Z</time>
 </trkpt>
 <trkpt lat="47.767052" lon="13.362674">
 <ele>507.90</ele>
 <time>2011-09-13T12:20:25Z</time>
 </trkpt>
 <trkpt lat="47.767033" lon="13.362324">
 <ele>508.72</ele>
 <time>2011-09-13T12:20:32Z</time>
 </trkpt>
 <trkpt lat="47.767105" lon="13.361919">
 <ele>509.25</ele>
 <time>2011-09-13T12:20:38Z</time>
 </trkpt>
 <trkpt lat="47.767258" lon="13.361585">
 <ele>509.83</ele>
 <time>2011-09-13T12:20:46Z</time>
 </trkpt>
 <trkpt lat="47.767384" lon="13.361367">
 <ele>511.18</ele>
 <time>2011-09-13T12:20:54Z</time>
 </trkpt>
 <trkpt lat="47.767490" lon="13.361175">
 <ele>512.94</ele>
 <time>2011-09-13T12:21:03Z</time>
 </trkpt>
 <trkpt lat="47.767612" lon="13.360963">
 <ele>515.19</ele>
 <time>2011-09-13T12:21:13Z</time>
 </trkpt>
 <trkpt lat="47.767712" lon="13.360741">
 <ele>517.24</ele>
 <time>2011-09-13T12:21:23Z</time>
 </trkpt>
 <trkpt lat="47.767883" lon="13.360542">
 <ele>519.42</ele>
 <time>2011-09-13T12:21:32Z</time>
 </trkpt>
 <trkpt lat="47.768078" lon="13.360365">
 <ele>521.77</ele>
 <time>2011-09-13T12:21:45Z</time>
 </trkpt>
 <trkpt lat="47.768223" lon="13.360249">
 <ele>522.49</ele>
 <time>2011-09-13T12:21:54Z</time>
 </trkpt>
 <trkpt lat="47.768375" lon="13.360173">
 <ele>523.18</ele>
 <time>2011-09-13T12:22:01Z</time>
 </trkpt>
 <trkpt lat="47.768471" lon="13.359739">
 <ele>523.48</ele>
 <time>2011-09-13T12:22:09Z</time>
 </trkpt>
 <trkpt lat="47.768688" lon="13.359639">
 <ele>523.92</ele>
 <time>2011-09-13T12:22:18Z</time>
 </trkpt>
 <trkpt lat="47.768883" lon="13.359611">
 <ele>524.13</ele>
 <time>2011-09-13T12:22:26Z</time>
 </trkpt>
 <trkpt lat="47.769085" lon="13.359623">
 <ele>524.53</ele>
 <time>2011-09-13T12:22:34Z</time>
 </trkpt>
 <trkpt lat="47.769321" lon="13.359753">
 <ele>525.08</ele>
 <time>2011-09-13T12:22:43Z</time>
 </trkpt>
 <trkpt lat="47.769451" lon="13.359867">
 <ele>525.77</ele>
 <time>2011-09-13T12:22:49Z</time>
 </trkpt>
 <trkpt lat="47.769619" lon="13.360013">
 <ele>526.10</ele>
 <time>2011-09-13T12:22:56Z</time>
 </trkpt>
 <trkpt lat="47.769810" lon="13.360126">
 <ele>526.82</ele>
 <time>2011-09-13T12:23:06Z</time>
 </trkpt>
 <trkpt lat="47.769981" lon="13.360166">
 <ele>527.32</ele>
 <time>2011-09-13T12:23:13Z</time>
 </trkpt>
 <trkpt lat="47.770115" lon="13.360212">
 <ele>527.65</ele>
 <time>2011-09-13T12:23:20Z</time>
 </trkpt>
 <trkpt lat="47.770149" lon="13.360224">
 <ele>527.63</ele>
 <time>2011-09-13T12:23:22Z</time>
 </trkpt>
 <trkpt lat="47.770187" lon="13.360427">
 <ele>527.57</ele>
 <time>2011-09-13T12:23:27Z</time>
 </trkpt>
 <trkpt lat="47.770187" lon="13.360427">
 <ele>527.35</ele>
 <time>2011-09-13T12:23:31Z</time>
 </trkpt>
 <trkpt lat="47.770287" lon="13.360271">
 <ele>527.47</ele>
 <time>2011-09-13T12:23:36Z</time>
 </trkpt>
 <trkpt lat="47.770298" lon="13.360275">
 <ele>527.73</ele>
 <time>2011-09-13T12:23:38Z</time>
 </trkpt>
 <trkpt lat="47.770142" lon="13.360109">
 <ele>527.46</ele>
 <time>2011-09-13T12:23:49Z</time>
 </trkpt>
 <trkpt lat="47.770351" lon="13.360292">
 <ele>527.79</ele>
 <time>2011-09-13T12:23:54Z</time>
 </trkpt>
 <trkpt lat="47.770649" lon="13.360394">
 <ele>528.98</ele>
 <time>2011-09-13T12:24:05Z</time>
 </trkpt>
 <trkpt lat="47.770885" lon="13.360421">
 <ele>530.79</ele>
 <time>2011-09-13T12:24:14Z</time>
 </trkpt>
 <trkpt lat="47.771099" lon="13.360412">
 <ele>532.27</ele>
 <time>2011-09-13T12:24:23Z</time>
 </trkpt>
 <trkpt lat="47.771290" lon="13.360381">
 <ele>534.09</ele>
 <time>2011-09-13T12:24:32Z</time>
 </trkpt>
 <trkpt lat="47.771484" lon="13.360221">
 <ele>535.53</ele>
 <time>2011-09-13T12:24:44Z</time>
 </trkpt>
 <trkpt lat="47.771637" lon="13.360078">
 <ele>536.83</ele>
 <time>2011-09-13T12:24:53Z</time>
 </trkpt>
 <trkpt lat="47.771778" lon="13.359891">
 <ele>538.56</ele>
 <time>2011-09-13T12:25:03Z</time>
 </trkpt>
 <trkpt lat="47.771923" lon="13.359699">
 <ele>539.79</ele>
 <time>2011-09-13T12:25:13Z</time>
 </trkpt>
 <trkpt lat="47.772053" lon="13.359530">
 <ele>541.21</ele>
 <time>2011-09-13T12:25:22Z</time>
 </trkpt>
 <trkpt lat="47.772167" lon="13.359378">
 <ele>542.46</ele>
 <time>2011-09-13T12:25:30Z</time>
 </trkpt>
 <trkpt lat="47.772270" lon="13.359241">
 <ele>543.60</ele>
 <time>2011-09-13T12:25:37Z</time>
 </trkpt>
 <trkpt lat="47.772385" lon="13.359090">
 <ele>544.78</ele>
 <time>2011-09-13T12:25:45Z</time>
 </trkpt>
 <trkpt lat="47.772526" lon="13.358901">
 <ele>545.85</ele>
 <time>2011-09-13T12:25:55Z</time>
 </trkpt>
 <trkpt lat="47.772659" lon="13.358722">
 <ele>547.81</ele>
 <time>2011-09-13T12:26:05Z</time>
 </trkpt>
 <trkpt lat="47.772797" lon="13.358535">
 <ele>549.39</ele>
 <time>2011-09-13T12:26:16Z</time>
 </trkpt>
 <trkpt lat="47.772923" lon="13.358332">
 <ele>550.82</ele>
 <time>2011-09-13T12:26:27Z</time>
 </trkpt>
 <trkpt lat="47.773037" lon="13.358145">
 <ele>552.07</ele>
 <time>2011-09-13T12:26:37Z</time>
 </trkpt>
 <trkpt lat="47.773148" lon="13.357964">
 <ele>553.76</ele>
 <time>2011-09-13T12:26:47Z</time>
 </trkpt>
 <trkpt lat="47.773232" lon="13.357717">
 <ele>554.91</ele>
 <time>2011-09-13T12:26:57Z</time>
 </trkpt>
 <trkpt lat="47.773293" lon="13.357471">
 <ele>556.31</ele>
 <time>2011-09-13T12:27:07Z</time>
 </trkpt>
 <trkpt lat="47.773342" lon="13.357250">
 <ele>557.29</ele>
 <time>2011-09-13T12:27:16Z</time>
 </trkpt>
 <trkpt lat="47.773354" lon="13.356992">
 <ele>558.64</ele>
 <time>2011-09-13T12:27:26Z</time>
 </trkpt>
 <trkpt lat="47.773357" lon="13.356923">
 <ele>559.02</ele>
 <time>2011-09-13T12:27:29Z</time>
 </trkpt>
 <trkpt lat="47.773369" lon="13.356764">
 <ele>559.56</ele>
 <time>2011-09-13T12:27:35Z</time>
 </trkpt>
 <trkpt lat="47.773376" lon="13.356601">
 <ele>560.39</ele>
 <time>2011-09-13T12:27:42Z</time>
 </trkpt>
 <trkpt lat="47.773380" lon="13.356393">
 <ele>561.99</ele>
 <time>2011-09-13T12:27:51Z</time>
 </trkpt>
 <trkpt lat="47.773361" lon="13.356157">
 <ele>563.42</ele>
 <time>2011-09-13T12:28:01Z</time>
 </trkpt>
 <trkpt lat="47.773350" lon="13.355968">
 <ele>564.32</ele>
 <time>2011-09-13T12:28:09Z</time>
 </trkpt>
 <trkpt lat="47.773315" lon="13.355713">
 <ele>566.03</ele>
 <time>2011-09-13T12:28:20Z</time>
 </trkpt>
 <trkpt lat="47.773281" lon="13.355481">
 <ele>567.37</ele>
 <time>2011-09-13T12:28:30Z</time>
 </trkpt>
 <trkpt lat="47.773239" lon="13.355269">
 <ele>569.23</ele>
 <time>2011-09-13T12:28:40Z</time>
 </trkpt>
 <trkpt lat="47.773182" lon="13.355091">
 <ele>570.42</ele>
 <time>2011-09-13T12:28:48Z</time>
 </trkpt>
 <trkpt lat="47.773109" lon="13.354850">
 <ele>571.94</ele>
 <time>2011-09-13T12:28:59Z</time>
 </trkpt>
 <trkpt lat="47.773045" lon="13.354649">
 <ele>573.08</ele>
 <time>2011-09-13T12:29:08Z</time>
 </trkpt>
 <trkpt lat="47.772976" lon="13.354428">
 <ele>574.41</ele>
 <time>2011-09-13T12:29:18Z</time>
 </trkpt>
 <trkpt lat="47.772903" lon="13.354202">
 <ele>576.19</ele>
 <time>2011-09-13T12:29:28Z</time>
 </trkpt>
 <trkpt lat="47.772823" lon="13.354031">
 <ele>577.51</ele>
 <time>2011-09-13T12:29:37Z</time>
 </trkpt>
 <trkpt lat="47.772736" lon="13.353853">
 <ele>578.73</ele>
 <time>2011-09-13T12:29:46Z</time>
 </trkpt>
 <trkpt lat="47.772655" lon="13.353694">
 <ele>579.48</ele>
 <time>2011-09-13T12:29:54Z</time>
 </trkpt>
 <trkpt lat="47.772545" lon="13.353468">
 <ele>580.74</ele>
 <time>2011-09-13T12:30:05Z</time>
 </trkpt>
 <trkpt lat="47.772499" lon="13.353257">
 <ele>582.04</ele>
 <time>2011-09-13T12:30:13Z</time>
 </trkpt>
 <trkpt lat="47.772465" lon="13.353059">
 <ele>583.06</ele>
 <time>2011-09-13T12:30:21Z</time>
 </trkpt>
 <trkpt lat="47.772427" lon="13.352837">
 <ele>584.06</ele>
 <time>2011-09-13T12:30:30Z</time>
 </trkpt>
 <trkpt lat="47.772396" lon="13.352634">
 <ele>585.13</ele>
 <time>2011-09-13T12:30:39Z</time>
 </trkpt>
 <trkpt lat="47.772404" lon="13.352415">
 <ele>586.32</ele>
 <time>2011-09-13T12:30:48Z</time>
 </trkpt>
 <trkpt lat="47.772408" lon="13.352185">
 <ele>586.84</ele>
 <time>2011-09-13T12:30:57Z</time>
 </trkpt>
 <trkpt lat="47.772415" lon="13.351955">
 <ele>588.35</ele>
 <time>2011-09-13T12:31:06Z</time>
 </trkpt>
 <trkpt lat="47.772423" lon="13.351782">
 <ele>588.97</ele>
 <time>2011-09-13T12:31:13Z</time>
 </trkpt>
 <trkpt lat="47.772491" lon="13.351529">
 <ele>590.53</ele>
 <time>2011-09-13T12:31:25Z</time>
 </trkpt>
 <trkpt lat="47.772533" lon="13.351379">
 <ele>591.86</ele>
 <time>2011-09-13T12:31:33Z</time>
 </trkpt>
 <trkpt lat="47.772552" lon="13.351312">
 <ele>592.28</ele>
 <time>2011-09-13T12:31:37Z</time>
 </trkpt>
 <trkpt lat="47.772591" lon="13.351176">
 <ele>592.47</ele>
 <time>2011-09-13T12:31:42Z</time>
 </trkpt>
 <trkpt lat="47.772739" lon="13.350865">
 <ele>594.41</ele>
 <time>2011-09-13T12:31:55Z</time>
 </trkpt>
 <trkpt lat="47.772835" lon="13.350724">
 <ele>595.53</ele>
 <time>2011-09-13T12:32:03Z</time>
 </trkpt>
 <trkpt lat="47.772953" lon="13.350546">
 <ele>597.52</ele>
 <time>2011-09-13T12:32:14Z</time>
 </trkpt>
 <trkpt lat="47.773056" lon="13.350393">
 <ele>599.83</ele>
 <time>2011-09-13T12:32:25Z</time>
 </trkpt>
 <trkpt lat="47.773151" lon="13.350250">
 <ele>601.73</ele>
 <time>2011-09-13T12:32:35Z</time>
 </trkpt>
 <trkpt lat="47.773293" lon="13.350115">
 <ele>603.27</ele>
 <time>2011-09-13T12:32:45Z</time>
 </trkpt>
 <trkpt lat="47.773434" lon="13.349980">
 <ele>604.98</ele>
 <time>2011-09-13T12:32:55Z</time>
 </trkpt>
 <trkpt lat="47.773602" lon="13.349819">
 <ele>606.52</ele>
 <time>2011-09-13T12:33:05Z</time>
 </trkpt>
 <trkpt lat="47.773800" lon="13.349659">
 <ele>608.58</ele>
 <time>2011-09-13T12:33:17Z</time>
 </trkpt>
 <trkpt lat="47.773952" lon="13.349578">
 <ele>609.94</ele>
 <time>2011-09-13T12:33:26Z</time>
 </trkpt>
 <trkpt lat="47.774128" lon="13.349486">
 <ele>611.27</ele>
 <time>2011-09-13T12:33:36Z</time>
 </trkpt>
 <trkpt lat="47.774254" lon="13.349419">
 <ele>612.63</ele>
 <time>2011-09-13T12:33:44Z</time>
 </trkpt>
 <trkpt lat="47.774395" lon="13.349344">
 <ele>614.35</ele>
 <time>2011-09-13T12:33:53Z</time>
 </trkpt>
 <trkpt lat="47.774502" lon="13.349287">
 <ele>615.53</ele>
 <time>2011-09-13T12:34:01Z</time>
 </trkpt>
 <trkpt lat="47.774578" lon="13.349246">
 <ele>616.33</ele>
 <time>2011-09-13T12:34:06Z</time>
 </trkpt>
 <trkpt lat="47.774693" lon="13.349188">
 <ele>617.59</ele>
 <time>2011-09-13T12:34:13Z</time>
 </trkpt>
 <trkpt lat="47.774807" lon="13.349126">
 <ele>618.60</ele>
 <time>2011-09-13T12:34:20Z</time>
 </trkpt>
 <trkpt lat="47.774891" lon="13.349083">
 <ele>619.62</ele>
 <time>2011-09-13T12:34:26Z</time>
 </trkpt>
 <trkpt lat="47.774979" lon="13.349035">
 <ele>620.46</ele>
 <time>2011-09-13T12:34:32Z</time>
 </trkpt>
 <trkpt lat="47.775089" lon="13.348977">
 <ele>622.23</ele>
 <time>2011-09-13T12:34:43Z</time>
 </trkpt>
 <trkpt lat="47.775188" lon="13.348925">
 <ele>623.90</ele>
 <time>2011-09-13T12:34:52Z</time>
 </trkpt>
 <trkpt lat="47.775341" lon="13.348821">
 <ele>625.58</ele>
 <time>2011-09-13T12:35:01Z</time>
 </trkpt>
 <trkpt lat="47.775520" lon="13.348690">
 <ele>627.05</ele>
 <time>2011-09-13T12:35:11Z</time>
 </trkpt>
 <trkpt lat="47.775692" lon="13.348566">
 <ele>628.60</ele>
 <time>2011-09-13T12:35:20Z</time>
 </trkpt>
 <trkpt lat="47.775841" lon="13.348457">
 <ele>629.71</ele>
 <time>2011-09-13T12:35:29Z</time>
 </trkpt>
 <trkpt lat="47.775993" lon="13.348347">
 <ele>631.03</ele>
 <time>2011-09-13T12:35:38Z</time>
 </trkpt>
 <trkpt lat="47.776188" lon="13.348205">
 <ele>632.17</ele>
 <time>2011-09-13T12:35:48Z</time>
 </trkpt>
 <trkpt lat="47.776379" lon="13.348063">
 <ele>633.25</ele>
 <time>2011-09-13T12:35:59Z</time>
 </trkpt>
 <trkpt lat="47.776474" lon="13.347994">
 <ele>633.99</ele>
 <time>2011-09-13T12:36:05Z</time>
 </trkpt>
 <trkpt lat="47.776630" lon="13.347881">
 <ele>635.14</ele>
 <time>2011-09-13T12:36:14Z</time>
 </trkpt>
 <trkpt lat="47.776791" lon="13.347763">
 <ele>636.23</ele>
 <time>2011-09-13T12:36:24Z</time>
 </trkpt>
 <trkpt lat="47.776974" lon="13.347751">
 <ele>637.17</ele>
 <time>2011-09-13T12:36:33Z</time>
 </trkpt>
 <trkpt lat="47.777130" lon="13.347757">
 <ele>637.87</ele>
 <time>2011-09-13T12:36:42Z</time>
 </trkpt>
 <trkpt lat="47.777336" lon="13.347765">
 <ele>639.05</ele>
 <time>2011-09-13T12:36:52Z</time>
 </trkpt>
 <trkpt lat="47.777607" lon="13.347775">
 <ele>639.83</ele>
 <time>2011-09-13T12:37:04Z</time>
 </trkpt>
 <trkpt lat="47.777821" lon="13.347783">
 <ele>640.76</ele>
 <time>2011-09-13T12:37:14Z</time>
 </trkpt>
 <trkpt lat="47.778011" lon="13.347791">
 <ele>641.32</ele>
 <time>2011-09-13T12:37:23Z</time>
 </trkpt>
 <trkpt lat="47.778259" lon="13.347800">
 <ele>641.94</ele>
 <time>2011-09-13T12:37:33Z</time>
 </trkpt>
 <trkpt lat="47.778542" lon="13.347795">
 <ele>642.62</ele>
 <time>2011-09-13T12:37:43Z</time>
 </trkpt>
 <trkpt lat="47.778858" lon="13.347647">
 <ele>642.60</ele>
 <time>2011-09-13T12:37:54Z</time>
 </trkpt>
 <trkpt lat="47.779083" lon="13.347540">
 <ele>642.83</ele>
 <time>2011-09-13T12:38:01Z</time>
 </trkpt>
 <trkpt lat="47.779423" lon="13.347381">
 <ele>642.90</ele>
 <time>2011-09-13T12:38:12Z</time>
 </trkpt>
 <trkpt lat="47.779659" lon="13.347270">
 <ele>643.42</ele>
 <time>2011-09-13T12:38:20Z</time>
 </trkpt>
 <trkpt lat="47.779922" lon="13.347147">
 <ele>644.66</ele>
 <time>2011-09-13T12:38:29Z</time>
 </trkpt>
 <trkpt lat="47.780235" lon="13.346856">
 <ele>645.59</ele>
 <time>2011-09-13T12:38:40Z</time>
 </trkpt>
 <trkpt lat="47.780643" lon="13.346475">
 <ele>646.49</ele>
 <time>2011-09-13T12:38:53Z</time>
 </trkpt>
 <trkpt lat="47.780968" lon="13.346175">
 <ele>646.16</ele>
 <time>2011-09-13T12:39:03Z</time>
 </trkpt>
 <trkpt lat="47.781246" lon="13.345915">
 <ele>647.13</ele>
 <time>2011-09-13T12:39:12Z</time>
 </trkpt>
 <trkpt lat="47.781582" lon="13.345599">
 <ele>647.54</ele>
 <time>2011-09-13T12:39:24Z</time>
 </trkpt>
 <trkpt lat="47.781826" lon="13.345371">
 <ele>647.98</ele>
 <time>2011-09-13T12:39:33Z</time>
 </trkpt>
 <trkpt lat="47.782101" lon="13.345117">
 <ele>649.93</ele>
 <time>2011-09-13T12:39:44Z</time>
 </trkpt>
 <trkpt lat="47.782356" lon="13.344879">
 <ele>651.40</ele>
 <time>2011-09-13T12:39:55Z</time>
 </trkpt>
 <trkpt lat="47.782555" lon="13.344694">
 <ele>652.53</ele>
 <time>2011-09-13T12:40:04Z</time>
 </trkpt>
 <trkpt lat="47.782772" lon="13.344490">
 <ele>654.23</ele>
 <time>2011-09-13T12:40:14Z</time>
 </trkpt>
 <trkpt lat="47.782990" lon="13.344288">
 <ele>655.23</ele>
 <time>2011-09-13T12:40:24Z</time>
 </trkpt>
 <trkpt lat="47.783207" lon="13.344085">
 <ele>656.61</ele>
 <time>2011-09-13T12:40:34Z</time>
 </trkpt>
 <trkpt lat="47.783394" lon="13.343910">
 <ele>658.30</ele>
 <time>2011-09-13T12:40:43Z</time>
 </trkpt>
 <trkpt lat="47.783569" lon="13.343744">
 <ele>660.12</ele>
 <time>2011-09-13T12:40:53Z</time>
 </trkpt>
 <trkpt lat="47.783730" lon="13.343594">
 <ele>661.06</ele>
 <time>2011-09-13T12:41:02Z</time>
 </trkpt>
 <trkpt lat="47.783958" lon="13.343381">
 <ele>662.23</ele>
 <time>2011-09-13T12:41:15Z</time>
 </trkpt>
 <trkpt lat="47.784088" lon="13.343260">
 <ele>663.47</ele>
 <time>2011-09-13T12:41:23Z</time>
 </trkpt>
 <trkpt lat="47.784256" lon="13.343038">
 <ele>664.87</ele>
 <time>2011-09-13T12:41:33Z</time>
 </trkpt>
 <trkpt lat="47.784409" lon="13.342824">
 <ele>666.67</ele>
 <time>2011-09-13T12:41:43Z</time>
 </trkpt>
 <trkpt lat="47.784569" lon="13.342601">
 <ele>668.51</ele>
 <time>2011-09-13T12:41:53Z</time>
 </trkpt>
 <trkpt lat="47.784748" lon="13.342350">
 <ele>670.32</ele>
 <time>2011-09-13T12:42:04Z</time>
 </trkpt>
 <trkpt lat="47.784847" lon="13.342209">
 <ele>671.15</ele>
 <time>2011-09-13T12:42:10Z</time>
 </trkpt>
 <trkpt lat="47.784992" lon="13.342005">
 <ele>672.12</ele>
 <time>2011-09-13T12:42:19Z</time>
 </trkpt>
 <trkpt lat="47.785126" lon="13.341821">
 <ele>673.18</ele>
 <time>2011-09-13T12:42:27Z</time>
 </trkpt>
 <trkpt lat="47.785271" lon="13.341619">
 <ele>674.42</ele>
 <time>2011-09-13T12:42:36Z</time>
 </trkpt>
 <trkpt lat="47.785439" lon="13.341379">
 <ele>675.83</ele>
 <time>2011-09-13T12:42:46Z</time>
 </trkpt>
 <trkpt lat="47.785606" lon="13.341148">
 <ele>677.07</ele>
 <time>2011-09-13T12:42:56Z</time>
 </trkpt>
 <trkpt lat="47.785801" lon="13.340873">
 <ele>678.60</ele>
 <time>2011-09-13T12:43:08Z</time>
 </trkpt>
 <trkpt lat="47.785992" lon="13.340606">
 <ele>680.64</ele>
 <time>2011-09-13T12:43:19Z</time>
 </trkpt>
 <trkpt lat="47.786137" lon="13.340406">
 <ele>681.49</ele>
 <time>2011-09-13T12:43:28Z</time>
 </trkpt>
 <trkpt lat="47.786274" lon="13.340211">
 <ele>682.83</ele>
 <time>2011-09-13T12:43:37Z</time>
 </trkpt>
 <trkpt lat="47.786415" lon="13.340023">
 <ele>684.05</ele>
 <time>2011-09-13T12:43:46Z</time>
 </trkpt>
 <trkpt lat="47.786613" lon="13.339783">
 <ele>684.98</ele>
 <time>2011-09-13T12:43:58Z</time>
 </trkpt>
 <trkpt lat="47.786789" lon="13.339574">
 <ele>687.10</ele>
 <time>2011-09-13T12:44:08Z</time>
 </trkpt>
 <trkpt lat="47.786999" lon="13.339328">
 <ele>688.60</ele>
 <time>2011-09-13T12:44:19Z</time>
 </trkpt>
 <trkpt lat="47.787140" lon="13.339162">
 <ele>689.78</ele>
 <time>2011-09-13T12:44:27Z</time>
 </trkpt>
 <trkpt lat="47.787292" lon="13.338977">
 <ele>690.87</ele>
 <time>2011-09-13T12:44:36Z</time>
 </trkpt>
 <trkpt lat="47.787521" lon="13.338709">
 <ele>692.99</ele>
 <time>2011-09-13T12:44:49Z</time>
 </trkpt>
 <trkpt lat="47.787746" lon="13.338443">
 <ele>694.06</ele>
 <time>2011-09-13T12:45:01Z</time>
 </trkpt>
 <trkpt lat="47.787933" lon="13.338224">
 <ele>695.32</ele>
 <time>2011-09-13T12:45:11Z</time>
 </trkpt>
 <trkpt lat="47.788116" lon="13.338005">
 <ele>696.65</ele>
 <time>2011-09-13T12:45:21Z</time>
 </trkpt>
 <trkpt lat="47.788307" lon="13.337781">
 <ele>698.03</ele>
 <time>2011-09-13T12:45:32Z</time>
 </trkpt>
 <trkpt lat="47.788448" lon="13.337617">
 <ele>698.98</ele>
 <time>2011-09-13T12:45:43Z</time>
 </trkpt>
 <trkpt lat="47.788731" lon="13.337289">
 <ele>700.58</ele>
 <time>2011-09-13T12:45:55Z</time>
 </trkpt>
 <trkpt lat="47.788815" lon="13.337191">
 <ele>701.16</ele>
 <time>2011-09-13T12:46:00Z</time>
 </trkpt>
 <trkpt lat="47.788906" lon="13.337083">
 <ele>701.79</ele>
 <time>2011-09-13T12:46:05Z</time>
 </trkpt>
 <trkpt lat="47.789063" lon="13.336903">
 <ele>702.52</ele>
 <time>2011-09-13T12:46:13Z</time>
 </trkpt>
 <trkpt lat="47.789204" lon="13.336696">
 <ele>703.46</ele>
 <time>2011-09-13T12:46:21Z</time>
 </trkpt>
 <trkpt lat="47.789364" lon="13.336422">
 <ele>704.56</ele>
 <time>2011-09-13T12:46:31Z</time>
 </trkpt>
 <trkpt lat="47.789570" lon="13.336055">
 <ele>705.57</ele>
 <time>2011-09-13T12:46:44Z</time>
 </trkpt>
 <trkpt lat="47.789753" lon="13.335739">
 <ele>706.16</ele>
 <time>2011-09-13T12:46:55Z</time>
 </trkpt>
 <trkpt lat="47.789917" lon="13.335451">
 <ele>707.10</ele>
 <time>2011-09-13T12:47:05Z</time>
 </trkpt>
 <trkpt lat="47.790096" lon="13.335134">
 <ele>707.83</ele>
 <time>2011-09-13T12:47:15Z</time>
 </trkpt>
 <trkpt lat="47.790329" lon="13.334729">
 <ele>708.51</ele>
 <time>2011-09-13T12:47:27Z</time>
 </trkpt>
 <trkpt lat="47.790508" lon="13.334412">
 <ele>709.32</ele>
 <time>2011-09-13T12:47:37Z</time>
 </trkpt>
 <trkpt lat="47.790710" lon="13.334057">
 <ele>710.18</ele>
 <time>2011-09-13T12:47:48Z</time>
 </trkpt>
 <trkpt lat="47.790863" lon="13.333789">
 <ele>710.45</ele>
 <time>2011-09-13T12:47:56Z</time>
 </trkpt>
 <trkpt lat="47.791107" lon="13.333360">
 <ele>711.71</ele>
 <time>2011-09-13T12:48:08Z</time>
 </trkpt>
 <trkpt lat="47.791309" lon="13.333035">
 <ele>711.94</ele>
 <time>2011-09-13T12:48:17Z</time>
 </trkpt>
 <trkpt lat="47.791519" lon="13.332728">
 <ele>712.21</ele>
 <time>2011-09-13T12:48:26Z</time>
 </trkpt>
 <trkpt lat="47.791679" lon="13.332488">
 <ele>712.94</ele>
 <time>2011-09-13T12:48:33Z</time>
 </trkpt>
 <trkpt lat="47.791924" lon="13.332133">
 <ele>713.19</ele>
 <time>2011-09-13T12:48:43Z</time>
 </trkpt>
 <trkpt lat="47.792198" lon="13.331724">
 <ele>713.89</ele>
 <time>2011-09-13T12:48:54Z</time>
 </trkpt>
 <trkpt lat="47.792393" lon="13.331442">
 <ele>714.47</ele>
 <time>2011-09-13T12:49:02Z</time>
 </trkpt>
 <trkpt lat="47.792622" lon="13.331104">
 <ele>714.19</ele>
 <time>2011-09-13T12:49:10Z</time>
 </trkpt>
 <trkpt lat="47.793007" lon="13.330536">
 <ele>714.56</ele>
 <time>2011-09-13T12:49:22Z</time>
 </trkpt>
 <trkpt lat="47.793297" lon="13.330108">
 <ele>714.50</ele>
 <time>2011-09-13T12:49:31Z</time>
 </trkpt>
 <trkpt lat="47.793648" lon="13.329530">
 <ele>715.46</ele>
 <time>2011-09-13T12:49:43Z</time>
 </trkpt>
 <trkpt lat="47.793919" lon="13.328895">
 <ele>715.75</ele>
 <time>2011-09-13T12:49:54Z</time>
 </trkpt>
 <trkpt lat="47.794071" lon="13.328536">
 <ele>715.36</ele>
 <time>2011-09-13T12:50:00Z</time>
 </trkpt>
 <trkpt lat="47.794144" lon="13.328366">
 <ele>715.34</ele>
 <time>2011-09-13T12:50:03Z</time>
 </trkpt>
 <trkpt lat="47.794304" lon="13.327994">
 <ele>715.40</ele>
 <time>2011-09-13T12:50:10Z</time>
 </trkpt>
 <trkpt lat="47.794521" lon="13.327524">
 <ele>714.20</ele>
 <time>2011-09-13T12:50:18Z</time>
 </trkpt>
 <trkpt lat="47.794708" lon="13.327190">
 <ele>713.45</ele>
 <time>2011-09-13T12:50:24Z</time>
 </trkpt>
 <trkpt lat="47.794781" lon="13.327063">
 <ele>713.43</ele>
 <time>2011-09-13T12:50:28Z</time>
 </trkpt>
 <trkpt lat="47.794933" lon="13.326798">
 <ele>712.33</ele>
 <time>2011-09-13T12:50:34Z</time>
 </trkpt>
 <trkpt lat="47.795189" lon="13.326346">
 <ele>710.62</ele>
 <time>2011-09-13T12:50:41Z</time>
 </trkpt>
 <trkpt lat="47.795486" lon="13.325844">
 <ele>708.11</ele>
 <time>2011-09-13T12:50:47Z</time>
 </trkpt>
 <trkpt lat="47.795940" lon="13.325284">
 <ele>704.83</ele>
 <time>2011-09-13T12:50:54Z</time>
 </trkpt>
 <trkpt lat="47.796425" lon="13.324681">
 <ele>701.69</ele>
 <time>2011-09-13T12:51:01Z</time>
 </trkpt>
 <trkpt lat="47.796951" lon="13.324029">
 <ele>697.19</ele>
 <time>2011-09-13T12:51:08Z</time>
 </trkpt>
 <trkpt lat="47.797871" lon="13.322887">
 <ele>690.26</ele>
 <time>2011-09-13T12:51:19Z</time>
 </trkpt>
 <trkpt lat="47.798477" lon="13.322137">
 <ele>685.80</ele>
 <time>2011-09-13T12:51:26Z</time>
 </trkpt>
 <trkpt lat="47.798931" lon="13.321444">
 <ele>681.38</ele>
 <time>2011-09-13T12:51:32Z</time>
 </trkpt>
 <trkpt lat="47.799236" lon="13.320677">
 <ele>677.45</ele>
 <time>2011-09-13T12:51:38Z</time>
 </trkpt>
 <trkpt lat="47.799431" lon="13.320007">
 <ele>674.66</ele>
 <time>2011-09-13T12:51:43Z</time>
 </trkpt>
 <trkpt lat="47.799496" lon="13.319144">
 <ele>671.59</ele>
 <time>2011-09-13T12:51:49Z</time>
 </trkpt>
 <trkpt lat="47.799511" lon="13.318729">
 <ele>670.45</ele>
 <time>2011-09-13T12:51:52Z</time>
 </trkpt>
 <trkpt lat="47.799465" lon="13.318052">
 <ele>668.42</ele>
 <time>2011-09-13T12:51:57Z</time>
 </trkpt>
 <trkpt lat="47.799431" lon="13.317556">
 <ele>667.52</ele>
 <time>2011-09-13T12:52:02Z</time>
 </trkpt>
 <trkpt lat="47.799370" lon="13.316661">
 <ele>665.34</ele>
 <time>2011-09-13T12:52:10Z</time>
 </trkpt>
 <trkpt lat="47.799305" lon="13.315679">
 <ele>662.25</ele>
 <time>2011-09-13T12:52:18Z</time>
 </trkpt>
 <trkpt lat="47.799347" lon="13.314736">
 <ele>659.05</ele>
 <time>2011-09-13T12:52:26Z</time>
 </trkpt>
 <trkpt lat="47.799355" lon="13.314502">
 <ele>658.53</ele>
 <time>2011-09-13T12:52:28Z</time>
 </trkpt>
 <trkpt lat="47.799400" lon="13.313422">
 <ele>656.90</ele>
 <time>2011-09-13T12:52:37Z</time>
 </trkpt>
 <trkpt lat="47.799267" lon="13.312648">
 <ele>655.26</ele>
 <time>2011-09-13T12:52:44Z</time>
 </trkpt>
 <trkpt lat="47.799107" lon="13.312100">
 <ele>653.95</ele>
 <time>2011-09-13T12:52:49Z</time>
 </trkpt>
 <trkpt lat="47.798885" lon="13.311326">
 <ele>651.28</ele>
 <time>2011-09-13T12:52:56Z</time>
 </trkpt>
 <trkpt lat="47.798538" lon="13.310768">
 <ele>648.29</ele>
 <time>2011-09-13T12:53:03Z</time>
 </trkpt>
 <trkpt lat="47.798141" lon="13.310151">
 <ele>646.07</ele>
 <time>2011-09-13T12:53:11Z</time>
 </trkpt>
 <trkpt lat="47.797726" lon="13.309510">
 <ele>644.00</ele>
 <time>2011-09-13T12:53:20Z</time>
 </trkpt>
 <trkpt lat="47.797504" lon="13.309166">
 <ele>643.32</ele>
 <time>2011-09-13T12:53:25Z</time>
 </trkpt>
 <trkpt lat="47.797394" lon="13.308999">
 <ele>643.28</ele>
 <time>2011-09-13T12:53:28Z</time>
 </trkpt>
 <trkpt lat="47.797291" lon="13.308840">
 <ele>642.88</ele>
 <time>2011-09-13T12:53:32Z</time>
 </trkpt>
 <trkpt lat="47.797230" lon="13.308750">
 <ele>642.54</ele>
 <time>2011-09-13T12:53:37Z</time>
 </trkpt>
 <trkpt lat="47.797153" lon="13.308645">
 <ele>642.63</ele>
 <time>2011-09-13T12:53:41Z</time>
 </trkpt>
 <trkpt lat="47.796947" lon="13.308386">
 <ele>641.76</ele>
 <time>2011-09-13T12:53:47Z</time>
 </trkpt>
 <trkpt lat="47.796616" lon="13.307887">
 <ele>639.76</ele>
 <time>2011-09-13T12:53:55Z</time>
 </trkpt>
 <trkpt lat="47.796360" lon="13.307317">
 <ele>637.99</ele>
 <time>2011-09-13T12:54:02Z</time>
 </trkpt>
 <trkpt lat="47.796143" lon="13.306551">
 <ele>635.19</ele>
 <time>2011-09-13T12:54:10Z</time>
 </trkpt>
 <trkpt lat="47.795925" lon="13.305575">
 <ele>632.98</ele>
 <time>2011-09-13T12:54:20Z</time>
 </trkpt>
 <trkpt lat="47.795692" lon="13.304824">
 <ele>631.65</ele>
 <time>2011-09-13T12:54:28Z</time>
 </trkpt>
 <trkpt lat="47.795410" lon="13.304237">
 <ele>630.81</ele>
 <time>2011-09-13T12:54:35Z</time>
 </trkpt>
 <trkpt lat="47.795094" lon="13.303825">
 <ele>629.37</ele>
 <time>2011-09-13T12:54:41Z</time>
 </trkpt>
 <trkpt lat="47.794613" lon="13.303393">
 <ele>628.44</ele>
 <time>2011-09-13T12:54:49Z</time>
 </trkpt>
 <trkpt lat="47.794014" lon="13.302953">
 <ele>626.75</ele>
 <time>2011-09-13T12:54:58Z</time>
 </trkpt>
 <trkpt lat="47.793556" lon="13.302536">
 <ele>625.63</ele>
 <time>2011-09-13T12:55:05Z</time>
 </trkpt>
 <trkpt lat="47.793137" lon="13.302029">
 <ele>625.17</ele>
 <time>2011-09-13T12:55:13Z</time>
 </trkpt>
 <trkpt lat="47.792744" lon="13.301368">
 <ele>624.52</ele>
 <time>2011-09-13T12:55:22Z</time>
 </trkpt>
 <trkpt lat="47.792500" lon="13.300743">
 <ele>624.00</ele>
 <time>2011-09-13T12:55:30Z</time>
 </trkpt>
 <trkpt lat="47.792248" lon="13.299966">
 <ele>624.81</ele>
 <time>2011-09-13T12:55:40Z</time>
 </trkpt>
 <trkpt lat="47.792057" lon="13.299129">
 <ele>625.95</ele>
 <time>2011-09-13T12:55:51Z</time>
 </trkpt>
 <trkpt lat="47.791981" lon="13.298768">
 <ele>626.43</ele>
 <time>2011-09-13T12:55:56Z</time>
 </trkpt>
 <trkpt lat="47.791908" lon="13.298374">
 <ele>626.81</ele>
 <time>2011-09-13T12:56:02Z</time>
 </trkpt>
 <trkpt lat="47.791874" lon="13.298111">
 <ele>627.36</ele>
 <time>2011-09-13T12:56:08Z</time>
 </trkpt>
 <trkpt lat="47.791817" lon="13.297768">
 <ele>627.56</ele>
 <time>2011-09-13T12:56:14Z</time>
 </trkpt>
 <trkpt lat="47.791786" lon="13.297252">
 <ele>628.32</ele>
 <time>2011-09-13T12:56:23Z</time>
 </trkpt>
 <trkpt lat="47.791771" lon="13.296694">
 <ele>629.55</ele>
 <time>2011-09-13T12:56:33Z</time>
 </trkpt>
 <trkpt lat="47.791771" lon="13.296116">
 <ele>630.83</ele>
 <time>2011-09-13T12:56:44Z</time>
 </trkpt>
 <trkpt lat="47.791771" lon="13.295581">
 <ele>631.63</ele>
 <time>2011-09-13T12:56:54Z</time>
 </trkpt>
 <trkpt lat="47.791771" lon="13.295020">
 <ele>632.52</ele>
 <time>2011-09-13T12:57:05Z</time>
 </trkpt>
 <trkpt lat="47.791763" lon="13.294808">
 <ele>633.28</ele>
 <time>2011-09-13T12:57:11Z</time>
 </trkpt>
 <trkpt lat="47.791763" lon="13.294786">
 <ele>633.77</ele>
 <time>2011-09-13T12:57:14Z</time>
 </trkpt>
 <trkpt lat="47.791721" lon="13.295029">
 <ele>633.68</ele>
 <time>2011-09-13T12:57:25Z</time>
 </trkpt>
 <trkpt lat="47.791756" lon="13.294650">
 <ele>633.59</ele>
 <time>2011-09-13T12:57:26Z</time>
 </trkpt>
 <trkpt lat="47.791725" lon="13.294272">
 <ele>633.64</ele>
 <time>2011-09-13T12:57:34Z</time>
 </trkpt>
 <trkpt lat="47.791668" lon="13.293804">
 <ele>634.66</ele>
 <time>2011-09-13T12:57:43Z</time>
 </trkpt>
 <trkpt lat="47.791565" lon="13.293418">
 <ele>635.35</ele>
 <time>2011-09-13T12:57:51Z</time>
 </trkpt>
 <trkpt lat="47.791431" lon="13.292928">
 <ele>636.31</ele>
 <time>2011-09-13T12:58:01Z</time>
 </trkpt>
 <trkpt lat="47.791283" lon="13.292363">
 <ele>637.22</ele>
 <time>2011-09-13T12:58:13Z</time>
 </trkpt>
 <trkpt lat="47.791176" lon="13.291932">
 <ele>637.93</ele>
 <time>2011-09-13T12:58:22Z</time>
 </trkpt>
 <trkpt lat="47.791100" lon="13.291507">
 <ele>638.53</ele>
 <time>2011-09-13T12:58:31Z</time>
 </trkpt>
 <trkpt lat="47.791042" lon="13.291124">
 <ele>639.41</ele>
 <time>2011-09-13T12:58:39Z</time>
 </trkpt>
 <trkpt lat="47.791042" lon="13.290724">
 <ele>640.12</ele>
 <time>2011-09-13T12:58:47Z</time>
 </trkpt>
 <trkpt lat="47.791050" lon="13.290332">
 <ele>641.14</ele>
 <time>2011-09-13T12:58:55Z</time>
 </trkpt>
 <trkpt lat="47.791100" lon="13.289949">
 <ele>641.83</ele>
 <time>2011-09-13T12:59:03Z</time>
 </trkpt>
 <trkpt lat="47.791180" lon="13.289659">
 <ele>642.44</ele>
 <time>2011-09-13T12:59:10Z</time>
 </trkpt>
 <trkpt lat="47.791283" lon="13.289304">
 <ele>643.13</ele>
 <time>2011-09-13T12:59:18Z</time>
 </trkpt>
 <trkpt lat="47.791416" lon="13.288936">
 <ele>644.10</ele>
 <time>2011-09-13T12:59:27Z</time>
 </trkpt>
 <trkpt lat="47.791588" lon="13.288533">
 <ele>645.25</ele>
 <time>2011-09-13T12:59:37Z</time>
 </trkpt>
 <trkpt lat="47.791779" lon="13.288071">
 <ele>646.36</ele>
 <time>2011-09-13T12:59:48Z</time>
 </trkpt>
 <trkpt lat="47.791946" lon="13.287579">
 <ele>647.72</ele>
 <time>2011-09-13T13:00:00Z</time>
 </trkpt>
 <trkpt lat="47.792061" lon="13.287255">
 <ele>649.13</ele>
 <time>2011-09-13T13:00:08Z</time>
 </trkpt>
 <trkpt lat="47.792137" lon="13.286861">
 <ele>650.68</ele>
 <time>2011-09-13T13:00:18Z</time>
 </trkpt>
 <trkpt lat="47.792213" lon="13.286473">
 <ele>652.06</ele>
 <time>2011-09-13T13:00:28Z</time>
 </trkpt>
 <trkpt lat="47.792263" lon="13.286164">
 <ele>653.17</ele>
 <time>2011-09-13T13:00:36Z</time>
 </trkpt>
 <trkpt lat="47.792320" lon="13.285773">
 <ele>654.49</ele>
 <time>2011-09-13T13:00:46Z</time>
 </trkpt>
 <trkpt lat="47.792374" lon="13.285397">
 <ele>655.59</ele>
 <time>2011-09-13T13:00:56Z</time>
 </trkpt>
 <trkpt lat="47.792461" lon="13.285067">
 <ele>656.72</ele>
 <time>2011-09-13T13:01:05Z</time>
 </trkpt>
 <trkpt lat="47.792503" lon="13.284917">
 <ele>658.29</ele>
 <time>2011-09-13T13:01:15Z</time>
 </trkpt>
 <trkpt lat="47.792679" lon="13.284417">
 <ele>659.24</ele>
 <time>2011-09-13T13:01:24Z</time>
 </trkpt>
 <trkpt lat="47.792812" lon="13.284127">
 <ele>660.43</ele>
 <time>2011-09-13T13:01:33Z</time>
 </trkpt>
 <trkpt lat="47.792843" lon="13.284060">
 <ele>660.83</ele>
 <time>2011-09-13T13:01:37Z</time>
 </trkpt>
 <trkpt lat="47.792873" lon="13.283985">
 <ele>660.78</ele>
 <time>2011-09-13T13:01:44Z</time>
 </trkpt>
 <trkpt lat="47.792919" lon="13.283897">
 <ele>660.75</ele>
 <time>2011-09-13T13:01:49Z</time>
 </trkpt>
 <trkpt lat="47.792801" lon="13.283411">
 <ele>660.37</ele>
 <time>2011-09-13T13:01:56Z</time>
 </trkpt>
 <trkpt lat="47.792782" lon="13.283031">
 <ele>658.54</ele>
 <time>2011-09-13T13:02:01Z</time>
 </trkpt>
 <trkpt lat="47.792816" lon="13.282510">
 <ele>656.97</ele>
 <time>2011-09-13T13:02:07Z</time>
 </trkpt>
 <trkpt lat="47.792854" lon="13.282257">
 <ele>658.52</ele>
 <time>2011-09-13T13:02:12Z</time>
 </trkpt>
 <trkpt lat="47.792927" lon="13.281983">
 <ele>660.20</ele>
 <time>2011-09-13T13:02:19Z</time>
 </trkpt>
 <trkpt lat="47.793049" lon="13.281690">
 <ele>661.65</ele>
 <time>2011-09-13T13:02:28Z</time>
 </trkpt>
 <trkpt lat="47.793201" lon="13.281547">
 <ele>663.75</ele>
 <time>2011-09-13T13:02:36Z</time>
 </trkpt>
 <trkpt lat="47.793354" lon="13.281465">
 <ele>665.45</ele>
 <time>2011-09-13T13:02:44Z</time>
 </trkpt>
 <trkpt lat="47.793503" lon="13.281341">
 <ele>667.45</ele>
 <time>2011-09-13T13:02:53Z</time>
 </trkpt>
 <trkpt lat="47.793606" lon="13.281227">
 <ele>669.56</ele>
 <time>2011-09-13T13:03:00Z</time>
 </trkpt>
 <trkpt lat="47.793720" lon="13.281061">
 <ele>671.51</ele>
 <time>2011-09-13T13:03:09Z</time>
 </trkpt>
 <trkpt lat="47.793793" lon="13.280921">
 <ele>673.18</ele>
 <time>2011-09-13T13:03:16Z</time>
 </trkpt>
 <trkpt lat="47.793800" lon="13.280908">
 <ele>673.46</ele>
 <time>2011-09-13T13:03:17Z</time>
 </trkpt>
 <trkpt lat="47.793858" lon="13.280787">
 <ele>674.97</ele>
 <time>2011-09-13T13:03:25Z</time>
 </trkpt>
 <trkpt lat="47.793884" lon="13.280738">
 <ele>675.44</ele>
 <time>2011-09-13T13:03:28Z</time>
 </trkpt>
 <trkpt lat="47.793907" lon="13.280687">
 <ele>675.84</ele>
 <time>2011-09-13T13:03:32Z</time>
 </trkpt>
 <trkpt lat="47.793957" lon="13.280589">
 <ele>676.98</ele>
 <time>2011-09-13T13:03:39Z</time>
 </trkpt>
 <trkpt lat="47.794006" lon="13.280495">
 <ele>678.24</ele>
 <time>2011-09-13T13:03:46Z</time>
 </trkpt>
 <trkpt lat="47.794056" lon="13.280392">
 <ele>679.54</ele>
 <time>2011-09-13T13:03:54Z</time>
 </trkpt>
 <trkpt lat="47.794079" lon="13.280351">
 <ele>679.98</ele>
 <time>2011-09-13T13:03:58Z</time>
 </trkpt>
 <trkpt lat="47.794132" lon="13.280230">
 <ele>681.17</ele>
 <time>2011-09-13T13:04:06Z</time>
 </trkpt>
 <trkpt lat="47.794201" lon="13.280066">
 <ele>682.59</ele>
 <time>2011-09-13T13:04:16Z</time>
 </trkpt>
 <trkpt lat="47.794258" lon="13.279919">
 <ele>683.81</ele>
 <time>2011-09-13T13:04:25Z</time>
 </trkpt>
 <trkpt lat="47.794327" lon="13.279744">
 <ele>684.83</ele>
 <time>2011-09-13T13:04:35Z</time>
 </trkpt>
 <trkpt lat="47.794399" lon="13.279540">
 <ele>686.33</ele>
 <time>2011-09-13T13:04:46Z</time>
 </trkpt>
 <trkpt lat="47.794464" lon="13.279355">
 <ele>687.60</ele>
 <time>2011-09-13T13:04:56Z</time>
 </trkpt>
 <trkpt lat="47.794537" lon="13.279175">
 <ele>688.41</ele>
 <time>2011-09-13T13:05:05Z</time>
 </trkpt>
 <trkpt lat="47.794621" lon="13.278964">
 <ele>689.25</ele>
 <time>2011-09-13T13:05:14Z</time>
 </trkpt>
 <trkpt lat="47.794708" lon="13.278788">
 <ele>689.90</ele>
 <time>2011-09-13T13:05:22Z</time>
 </trkpt>
 <trkpt lat="47.794788" lon="13.278561">
 <ele>690.61</ele>
 <time>2011-09-13T13:05:31Z</time>
 </trkpt>
 <trkpt lat="47.794846" lon="13.278303">
 <ele>691.16</ele>
 <time>2011-09-13T13:05:39Z</time>
 </trkpt>
 <trkpt lat="47.794918" lon="13.277922">
 <ele>690.34</ele>
 <time>2011-09-13T13:05:46Z</time>
 </trkpt>
 <trkpt lat="47.794979" lon="13.277723">
 <ele>689.48</ele>
 <time>2011-09-13T13:05:49Z</time>
 </trkpt>
 <trkpt lat="47.795048" lon="13.277508">
 <ele>688.44</ele>
 <time>2011-09-13T13:05:52Z</time>
 </trkpt>
 <trkpt lat="47.795170" lon="13.277197">
 <ele>687.30</ele>
 <time>2011-09-13T13:05:56Z</time>
 </trkpt>
 <trkpt lat="47.795425" lon="13.276927">
 <ele>686.69</ele>
 <time>2011-09-13T13:06:01Z</time>
 </trkpt>
 <trkpt lat="47.795715" lon="13.276753">
 <ele>687.75</ele>
 <time>2011-09-13T13:06:08Z</time>
 </trkpt>
 <trkpt lat="47.795998" lon="13.276529">
 <ele>688.49</ele>
 <time>2011-09-13T13:06:16Z</time>
 </trkpt>
 <trkpt lat="47.796066" lon="13.276450">
 <ele>688.65</ele>
 <time>2011-09-13T13:06:18Z</time>
 </trkpt>
 <trkpt lat="47.796165" lon="13.276299">
 <ele>688.52</ele>
 <time>2011-09-13T13:06:21Z</time>
 </trkpt>
 <trkpt lat="47.796204" lon="13.276190">
 <ele>688.20</ele>
 <time>2011-09-13T13:06:23Z</time>
 </trkpt>
 <trkpt lat="47.796310" lon="13.275837">
 <ele>686.29</ele>
 <time>2011-09-13T13:06:28Z</time>
 </trkpt>
 <trkpt lat="47.796387" lon="13.275553">
 <ele>684.99</ele>
 <time>2011-09-13T13:06:30Z</time>
 </trkpt>
 <trkpt lat="47.796600" lon="13.275037">
 <ele>682.03</ele>
 <time>2011-09-13T13:06:35Z</time>
 </trkpt>
 <trkpt lat="47.796696" lon="13.274917">
 <ele>681.58</ele>
 <time>2011-09-13T13:06:37Z</time>
 </trkpt>
 <trkpt lat="47.796867" lon="13.274701">
 <ele>681.24</ele>
 <time>2011-09-13T13:06:41Z</time>
 </trkpt>
 <trkpt lat="47.797237" lon="13.274158">
 <ele>681.13</ele>
 <time>2011-09-13T13:06:47Z</time>
 </trkpt>
 <trkpt lat="47.797340" lon="13.273983">
 <ele>681.98</ele>
 <time>2011-09-13T13:06:50Z</time>
 </trkpt>
 <trkpt lat="47.797501" lon="13.273713">
 <ele>683.33</ele>
 <time>2011-09-13T13:06:56Z</time>
 </trkpt>
 <trkpt lat="47.797649" lon="13.273457">
 <ele>684.03</ele>
 <time>2011-09-13T13:07:02Z</time>
 </trkpt>
 <trkpt lat="47.797760" lon="13.273271">
 <ele>684.77</ele>
 <time>2011-09-13T13:07:07Z</time>
 </trkpt>
 <trkpt lat="47.797939" lon="13.272964">
 <ele>686.09</ele>
 <time>2011-09-13T13:07:15Z</time>
 </trkpt>
 <trkpt lat="47.798073" lon="13.272647">
 <ele>687.09</ele>
 <time>2011-09-13T13:07:22Z</time>
 </trkpt>
 <trkpt lat="47.798244" lon="13.272210">
 <ele>688.37</ele>
 <time>2011-09-13T13:07:32Z</time>
 </trkpt>
 <trkpt lat="47.798401" lon="13.271827">
 <ele>689.36</ele>
 <time>2011-09-13T13:07:41Z</time>
 </trkpt>
 <trkpt lat="47.798508" lon="13.271582">
 <ele>690.29</ele>
 <time>2011-09-13T13:07:47Z</time>
 </trkpt>
 <trkpt lat="47.798676" lon="13.271264">
 <ele>691.28</ele>
 <time>2011-09-13T13:07:55Z</time>
 </trkpt>
 <trkpt lat="47.798847" lon="13.270933">
 <ele>692.01</ele>
 <time>2011-09-13T13:08:03Z</time>
 </trkpt>
 <trkpt lat="47.799057" lon="13.270537">
 <ele>692.49</ele>
 <time>2011-09-13T13:08:13Z</time>
 </trkpt>
 <trkpt lat="47.799175" lon="13.270303">
 <ele>692.79</ele>
 <time>2011-09-13T13:08:19Z</time>
 </trkpt>
 <trkpt lat="47.799355" lon="13.269945">
 <ele>692.93</ele>
 <time>2011-09-13T13:08:28Z</time>
 </trkpt>
 <trkpt lat="47.799507" lon="13.269640">
 <ele>693.47</ele>
 <time>2011-09-13T13:08:36Z</time>
 </trkpt>
 <trkpt lat="47.799679" lon="13.269244">
 <ele>693.99</ele>
 <time>2011-09-13T13:08:45Z</time>
 </trkpt>
 <trkpt lat="47.799862" lon="13.268779">
 <ele>694.26</ele>
 <time>2011-09-13T13:08:55Z</time>
 </trkpt>
 <trkpt lat="47.800083" lon="13.268217">
 <ele>695.20</ele>
 <time>2011-09-13T13:09:07Z</time>
 </trkpt>
 <trkpt lat="47.800220" lon="13.267776">
 <ele>695.46</ele>
 <time>2011-09-13T13:09:16Z</time>
 </trkpt>
 <trkpt lat="47.800362" lon="13.267298">
 <ele>695.78</ele>
 <time>2011-09-13T13:09:26Z</time>
 </trkpt>
 <trkpt lat="47.800510" lon="13.266807">
 <ele>696.17</ele>
 <time>2011-09-13T13:09:36Z</time>
 </trkpt>
 <trkpt lat="47.800617" lon="13.266298">
 <ele>697.03</ele>
 <time>2011-09-13T13:09:46Z</time>
 </trkpt>
 <trkpt lat="47.800705" lon="13.265824">
 <ele>697.39</ele>
 <time>2011-09-13T13:09:55Z</time>
 </trkpt>
 <trkpt lat="47.800789" lon="13.265358">
 <ele>697.88</ele>
 <time>2011-09-13T13:10:04Z</time>
 </trkpt>
 <trkpt lat="47.800846" lon="13.265026">
 <ele>698.63</ele>
 <time>2011-09-13T13:10:11Z</time>
 </trkpt>
 <trkpt lat="47.800896" lon="13.264747">
 <ele>698.84</ele>
 <time>2011-09-13T13:10:17Z</time>
 </trkpt>
 <trkpt lat="47.800934" lon="13.264508">
 <ele>699.12</ele>
 <time>2011-09-13T13:10:21Z</time>
 </trkpt>
 <trkpt lat="47.800972" lon="13.264292">
 <ele>699.35</ele>
 <time>2011-09-13T13:10:26Z</time>
 </trkpt>
 <trkpt lat="47.801018" lon="13.264022">
 <ele>699.42</ele>
 <time>2011-09-13T13:10:31Z</time>
 </trkpt>
 <trkpt lat="47.801067" lon="13.263767">
 <ele>699.63</ele>
 <time>2011-09-13T13:10:36Z</time>
 </trkpt>
 <trkpt lat="47.801125" lon="13.263466">
 <ele>699.84</ele>
 <time>2011-09-13T13:10:41Z</time>
 </trkpt>
 <trkpt lat="47.801243" lon="13.263012">
 <ele>700.04</ele>
 <time>2011-09-13T13:10:48Z</time>
 </trkpt>
 <trkpt lat="47.801426" lon="13.262426">
 <ele>699.64</ele>
 <time>2011-09-13T13:10:57Z</time>
 </trkpt>
 <trkpt lat="47.801678" lon="13.261707">
 <ele>698.47</ele>
 <time>2011-09-13T13:11:07Z</time>
 </trkpt>
 <trkpt lat="47.801929" lon="13.260977">
 <ele>697.55</ele>
 <time>2011-09-13T13:11:16Z</time>
 </trkpt>
 <trkpt lat="47.802029" lon="13.260449">
 <ele>697.17</ele>
 <time>2011-09-13T13:11:22Z</time>
 </trkpt>
 <trkpt lat="47.802101" lon="13.260211">
 <ele>697.10</ele>
 <time>2011-09-13T13:11:25Z</time>
 </trkpt>
 <trkpt lat="47.802223" lon="13.259927">
 <ele>696.96</ele>
 <time>2011-09-13T13:11:30Z</time>
 </trkpt>
 <trkpt lat="47.802361" lon="13.259616">
 <ele>696.77</ele>
 <time>2011-09-13T13:11:35Z</time>
 </trkpt>
 <trkpt lat="47.802448" lon="13.259409">
 <ele>696.51</ele>
 <time>2011-09-13T13:11:38Z</time>
 </trkpt>
 <trkpt lat="47.802662" lon="13.258805">
 <ele>695.89</ele>
 <time>2011-09-13T13:11:45Z</time>
 </trkpt>
 <trkpt lat="47.802753" lon="13.258341">
 <ele>695.15</ele>
 <time>2011-09-13T13:11:50Z</time>
 </trkpt>
 <trkpt lat="47.802795" lon="13.258007">
 <ele>694.79</ele>
 <time>2011-09-13T13:11:54Z</time>
 </trkpt>
 <trkpt lat="47.802818" lon="13.257824">
 <ele>694.54</ele>
 <time>2011-09-13T13:11:56Z</time>
 </trkpt>
 <trkpt lat="47.802841" lon="13.257442">
 <ele>694.06</ele>
 <time>2011-09-13T13:12:01Z</time>
 </trkpt>
 <trkpt lat="47.802887" lon="13.256888">
 <ele>693.67</ele>
 <time>2011-09-13T13:12:07Z</time>
 </trkpt>
 <trkpt lat="47.802986" lon="13.256359">
 <ele>693.23</ele>
 <time>2011-09-13T13:12:13Z</time>
 </trkpt>
 <trkpt lat="47.803108" lon="13.255953">
 <ele>692.89</ele>
 <time>2011-09-13T13:12:18Z</time>
 </trkpt>
 <trkpt lat="47.803234" lon="13.255570">
 <ele>692.76</ele>
 <time>2011-09-13T13:12:23Z</time>
 </trkpt>
 <trkpt lat="47.803539" lon="13.254869">
 <ele>691.89</ele>
 <time>2011-09-13T13:12:31Z</time>
 </trkpt>
 <trkpt lat="47.803730" lon="13.254334">
 <ele>691.08</ele>
 <time>2011-09-13T13:12:37Z</time>
 </trkpt>
 <trkpt lat="47.803871" lon="13.253748">
 <ele>690.36</ele>
 <time>2011-09-13T13:12:43Z</time>
 </trkpt>
 <trkpt lat="47.803974" lon="13.253223">
 <ele>690.17</ele>
 <time>2011-09-13T13:12:49Z</time>
 </trkpt>
 <trkpt lat="47.804070" lon="13.252798">
 <ele>690.35</ele>
 <time>2011-09-13T13:12:54Z</time>
 </trkpt>
 <trkpt lat="47.804352" lon="13.252033">
 <ele>689.45</ele>
 <time>2011-09-13T13:13:04Z</time>
 </trkpt>
 <trkpt lat="47.804634" lon="13.251461">
 <ele>689.20</ele>
 <time>2011-09-13T13:13:12Z</time>
 </trkpt>
 <trkpt lat="47.804993" lon="13.250968">
 <ele>688.18</ele>
 <time>2011-09-13T13:13:20Z</time>
 </trkpt>
 <trkpt lat="47.805328" lon="13.250572">
 <ele>686.93</ele>
 <time>2011-09-13T13:13:27Z</time>
 </trkpt>
 <trkpt lat="47.805748" lon="13.250059">
 <ele>686.18</ele>
 <time>2011-09-13T13:13:35Z</time>
 </trkpt>
 <trkpt lat="47.806213" lon="13.249320">
 <ele>685.03</ele>
 <time>2011-09-13T13:13:46Z</time>
 </trkpt>
 <trkpt lat="47.806458" lon="13.248831">
 <ele>684.78</ele>
 <time>2011-09-13T13:13:53Z</time>
 </trkpt>
 <trkpt lat="47.806679" lon="13.248422">
 <ele>685.17</ele>
 <time>2011-09-13T13:14:00Z</time>
 </trkpt>
 <trkpt lat="47.806950" lon="13.248008">
 <ele>685.16</ele>
 <time>2011-09-13T13:14:08Z</time>
 </trkpt>
 <trkpt lat="47.807327" lon="13.247660">
 <ele>684.28</ele>
 <time>2011-09-13T13:14:16Z</time>
 </trkpt>
 <trkpt lat="47.807648" lon="13.247448">
 <ele>683.79</ele>
 <time>2011-09-13T13:14:23Z</time>
 </trkpt>
 <trkpt lat="47.807941" lon="13.247299">
 <ele>683.50</ele>
 <time>2011-09-13T13:14:30Z</time>
 </trkpt>
 <trkpt lat="47.808300" lon="13.247200">
 <ele>683.20</ele>
 <time>2011-09-13T13:14:38Z</time>
 </trkpt>
 <trkpt lat="47.808777" lon="13.247118">
 <ele>683.20</ele>
 <time>2011-09-13T13:14:47Z</time>
 </trkpt>
 <trkpt lat="47.809021" lon="13.247077">
 <ele>682.89</ele>
 <time>2011-09-13T13:14:52Z</time>
 </trkpt>
 <trkpt lat="47.808811" lon="13.247495">
 <ele>683.03</ele>
 <time>2011-09-13T13:14:56Z</time>
 </trkpt>
 <trkpt lat="47.809139" lon="13.247056">
 <ele>683.12</ele>
 <time>2011-09-13T13:14:59Z</time>
 </trkpt>
 <trkpt lat="47.809174" lon="13.247050">
 <ele>683.06</ele>
 <time>2011-09-13T13:15:00Z</time>
 </trkpt>
 <trkpt lat="47.809528" lon="13.246990">
 <ele>681.73</ele>
 <time>2011-09-13T13:15:08Z</time>
 </trkpt>
 <trkpt lat="47.809711" lon="13.246958">
 <ele>681.37</ele>
 <time>2011-09-13T13:15:17Z</time>
 </trkpt>
 <trkpt lat="47.810410" lon="13.246590">
 <ele>681.61</ele>
 <time>2011-09-13T13:15:27Z</time>
 </trkpt>
 <trkpt lat="47.810692" lon="13.246355">
 <ele>681.28</ele>
 <time>2011-09-13T13:15:34Z</time>
 </trkpt>
 <trkpt lat="47.811085" lon="13.245905">
 <ele>681.35</ele>
 <time>2011-09-13T13:15:43Z</time>
 </trkpt>
 <trkpt lat="47.811451" lon="13.245342">
 <ele>681.72</ele>
 <time>2011-09-13T13:15:54Z</time>
 </trkpt>
 <trkpt lat="47.811676" lon="13.244858">
 <ele>682.18</ele>
 <time>2011-09-13T13:16:03Z</time>
 </trkpt>
 <trkpt lat="47.811966" lon="13.244169">
 <ele>682.32</ele>
 <time>2011-09-13T13:16:15Z</time>
 </trkpt>
 <trkpt lat="47.812214" lon="13.243495">
 <ele>682.81</ele>
 <time>2011-09-13T13:16:27Z</time>
 </trkpt>
 <trkpt lat="47.812408" lon="13.242951">
 <ele>683.23</ele>
 <time>2011-09-13T13:16:36Z</time>
 </trkpt>
 <trkpt lat="47.812622" lon="13.242351">
 <ele>683.85</ele>
 <time>2011-09-13T13:16:46Z</time>
 </trkpt>
 <trkpt lat="47.812843" lon="13.241729">
 <ele>684.96</ele>
 <time>2011-09-13T13:16:57Z</time>
 </trkpt>
 <trkpt lat="47.813068" lon="13.241091">
 <ele>686.95</ele>
 <time>2011-09-13T13:17:09Z</time>
 </trkpt>
 <trkpt lat="47.813232" lon="13.240630">
 <ele>688.72</ele>
 <time>2011-09-13T13:17:19Z</time>
 </trkpt>
 <trkpt lat="47.813396" lon="13.240171">
 <ele>690.13</ele>
 <time>2011-09-13T13:17:30Z</time>
 </trkpt>
 <trkpt lat="47.813507" lon="13.239763">
 <ele>691.37</ele>
 <time>2011-09-13T13:17:40Z</time>
 </trkpt>
 <trkpt lat="47.813614" lon="13.239365">
 <ele>692.35</ele>
 <time>2011-09-13T13:17:49Z</time>
 </trkpt>
 <trkpt lat="47.813744" lon="13.238878">
 <ele>693.09</ele>
 <time>2011-09-13T13:18:00Z</time>
 </trkpt>
 <trkpt lat="47.813877" lon="13.238382">
 <ele>695.02</ele>
 <time>2011-09-13T13:18:11Z</time>
 </trkpt>
 <trkpt lat="47.813984" lon="13.237936">
 <ele>695.44</ele>
 <time>2011-09-13T13:18:21Z</time>
 </trkpt>
 <trkpt lat="47.814098" lon="13.237464">
 <ele>696.46</ele>
 <time>2011-09-13T13:18:31Z</time>
 </trkpt>
 <trkpt lat="47.814217" lon="13.236813">
 <ele>696.92</ele>
 <time>2011-09-13T13:18:44Z</time>
 </trkpt>
 <trkpt lat="47.814255" lon="13.236604">
 <ele>696.75</ele>
 <time>2011-09-13T13:18:48Z</time>
 </trkpt>
 <trkpt lat="47.814320" lon="13.236353">
 <ele>696.53</ele>
 <time>2011-09-13T13:18:53Z</time>
 </trkpt>
 <trkpt lat="47.814400" lon="13.236032">
 <ele>696.97</ele>
 <time>2011-09-13T13:19:00Z</time>
 </trkpt>
 <trkpt lat="47.814495" lon="13.235622">
 <ele>697.30</ele>
 <time>2011-09-13T13:19:08Z</time>
 </trkpt>
 <trkpt lat="47.814629" lon="13.235059">
 <ele>698.06</ele>
 <time>2011-09-13T13:19:19Z</time>
 </trkpt>
 <trkpt lat="47.814754" lon="13.234597">
 <ele>698.34</ele>
 <time>2011-09-13T13:19:28Z</time>
 </trkpt>
 <trkpt lat="47.814899" lon="13.234071">
 <ele>698.86</ele>
 <time>2011-09-13T13:19:38Z</time>
 </trkpt>
 <trkpt lat="47.815033" lon="13.233589">
 <ele>699.20</ele>
 <time>2011-09-13T13:19:47Z</time>
 </trkpt>
 <trkpt lat="47.815182" lon="13.233045">
 <ele>699.82</ele>
 <time>2011-09-13T13:19:57Z</time>
 </trkpt>
 <trkpt lat="47.815304" lon="13.232594">
 <ele>699.89</ele>
 <time>2011-09-13T13:20:05Z</time>
 </trkpt>
 <trkpt lat="47.815483" lon="13.231996">
 <ele>700.33</ele>
 <time>2011-09-13T13:20:16Z</time>
 </trkpt>
 <trkpt lat="47.815643" lon="13.231538">
 <ele>700.82</ele>
 <time>2011-09-13T13:20:25Z</time>
 </trkpt>
 <trkpt lat="47.815853" lon="13.230949">
 <ele>701.39</ele>
 <time>2011-09-13T13:20:36Z</time>
 </trkpt>
 <trkpt lat="47.816048" lon="13.230430">
 <ele>702.05</ele>
 <time>2011-09-13T13:20:46Z</time>
 </trkpt>
 <trkpt lat="47.816242" lon="13.229754">
 <ele>702.54</ele>
 <time>2011-09-13T13:20:58Z</time>
 </trkpt>
 <trkpt lat="47.816399" lon="13.229199">
 <ele>703.31</ele>
 <time>2011-09-13T13:21:08Z</time>
 </trkpt>
 <trkpt lat="47.816483" lon="13.228838">
 <ele>703.64</ele>
 <time>2011-09-13T13:21:15Z</time>
 </trkpt>
 <trkpt lat="47.816597" lon="13.228354">
 <ele>703.67</ele>
 <time>2011-09-13T13:21:24Z</time>
 </trkpt>
 <trkpt lat="47.816677" lon="13.228088">
 <ele>704.04</ele>
 <time>2011-09-13T13:21:30Z</time>
 </trkpt>
 <trkpt lat="47.816730" lon="13.227945">
 <ele>704.51</ele>
 <time>2011-09-13T13:21:35Z</time>
 </trkpt>
 <trkpt lat="47.816746" lon="13.227904">
 <ele>704.96</ele>
 <time>2011-09-13T13:21:41Z</time>
 </trkpt>
 <trkpt lat="47.816746" lon="13.227904">
 <ele>704.29</ele>
 <time>2011-09-13T13:23:32Z</time>
 </trkpt>
 <trkpt lat="47.816746" lon="13.227904">
 <ele>704.23</ele>
 <time>2011-09-13T13:23:33Z</time>
 </trkpt>
 <trkpt lat="47.816746" lon="13.227904">
 <ele>704.06</ele>
 <time>2011-09-13T13:23:37Z</time>
 </trkpt>
 <trkpt lat="47.816818" lon="13.227702">
 <ele>702.51</ele>
 <time>2011-09-13T13:30:15Z</time>
 </trkpt>
 <trkpt lat="47.816868" lon="13.227567">
 <ele>702.05</ele>
 <time>2011-09-13T13:30:20Z</time>
 </trkpt>
 <trkpt lat="47.816895" lon="13.227492">
 <ele>701.88</ele>
 <time>2011-09-13T13:30:22Z</time>
 </trkpt>
 <trkpt lat="47.817039" lon="13.227114">
 <ele>701.02</ele>
 <time>2011-09-13T13:30:30Z</time>
 </trkpt>
 <trkpt lat="47.817184" lon="13.226738">
 <ele>699.98</ele>
 <time>2011-09-13T13:30:37Z</time>
 </trkpt>
 <trkpt lat="47.817341" lon="13.226341">
 <ele>699.35</ele>
 <time>2011-09-13T13:30:44Z</time>
 </trkpt>
 <trkpt lat="47.817413" lon="13.226164">
 <ele>699.24</ele>
 <time>2011-09-13T13:30:47Z</time>
 </trkpt>
 <trkpt lat="47.817459" lon="13.226052">
 <ele>699.33</ele>
 <time>2011-09-13T13:30:49Z</time>
 </trkpt>
 <trkpt lat="47.817673" lon="13.225520">
 <ele>698.93</ele>
 <time>2011-09-13T13:30:58Z</time>
 </trkpt>
 <trkpt lat="47.817883" lon="13.224942">
 <ele>697.35</ele>
 <time>2011-09-13T13:31:06Z</time>
 </trkpt>
 <trkpt lat="47.818054" lon="13.224393">
 <ele>695.93</ele>
 <time>2011-09-13T13:31:13Z</time>
 </trkpt>
 <trkpt lat="47.818279" lon="13.223669">
 <ele>694.98</ele>
 <time>2011-09-13T13:31:22Z</time>
 </trkpt>
 <trkpt lat="47.818443" lon="13.223003">
 <ele>694.51</ele>
 <time>2011-09-13T13:31:30Z</time>
 </trkpt>
 <trkpt lat="47.818626" lon="13.222100">
 <ele>693.49</ele>
 <time>2011-09-13T13:31:41Z</time>
 </trkpt>
 <trkpt lat="47.818733" lon="13.221376">
 <ele>693.78</ele>
 <time>2011-09-13T13:31:50Z</time>
 </trkpt>
 <trkpt lat="47.818840" lon="13.220516">
 <ele>692.94</ele>
 <time>2011-09-13T13:32:01Z</time>
 </trkpt>
 <trkpt lat="47.818890" lon="13.219732">
 <ele>692.67</ele>
 <time>2011-09-13T13:32:11Z</time>
 </trkpt>
 <trkpt lat="47.818928" lon="13.218971">
 <ele>692.20</ele>
 <time>2011-09-13T13:32:21Z</time>
 </trkpt>
 <trkpt lat="47.818947" lon="13.218213">
 <ele>692.44</ele>
 <time>2011-09-13T13:32:31Z</time>
 </trkpt>
 <trkpt lat="47.818958" lon="13.217508">
 <ele>691.94</ele>
 <time>2011-09-13T13:32:40Z</time>
 </trkpt>
 <trkpt lat="47.818962" lon="13.217416">
 <ele>691.85</ele>
 <time>2011-09-13T13:32:41Z</time>
 </trkpt>
 <trkpt lat="47.819004" lon="13.216744">
 <ele>691.75</ele>
 <time>2011-09-13T13:32:50Z</time>
 </trkpt>
 <trkpt lat="47.819019" lon="13.216540">
 <ele>692.00</ele>
 <time>2011-09-13T13:32:54Z</time>
 </trkpt>
 <trkpt lat="47.819046" lon="13.216098">
 <ele>691.65</ele>
 <time>2011-09-13T13:33:00Z</time>
 </trkpt>
 <trkpt lat="47.819092" lon="13.215435">
 <ele>690.82</ele>
 <time>2011-09-13T13:33:08Z</time>
 </trkpt>
 <trkpt lat="47.819145" lon="13.214739">
 <ele>690.79</ele>
 <time>2011-09-13T13:33:16Z</time>
 </trkpt>
 <trkpt lat="47.819187" lon="13.213861">
 <ele>690.34</ele>
 <time>2011-09-13T13:33:26Z</time>
 </trkpt>
 <trkpt lat="47.819206" lon="13.213600">
 <ele>689.80</ele>
 <time>2011-09-13T13:33:29Z</time>
 </trkpt>
 <trkpt lat="47.819241" lon="13.213311">
 <ele>689.51</ele>
 <time>2011-09-13T13:33:33Z</time>
 </trkpt>
 <trkpt lat="47.819260" lon="13.213122">
 <ele>689.73</ele>
 <time>2011-09-13T13:33:36Z</time>
 </trkpt>
 <trkpt lat="47.819298" lon="13.212797">
 <ele>690.44</ele>
 <time>2011-09-13T13:33:41Z</time>
 </trkpt>
 <trkpt lat="47.819351" lon="13.212374">
 <ele>690.69</ele>
 <time>2011-09-13T13:33:47Z</time>
 </trkpt>
 <trkpt lat="47.819450" lon="13.211785">
 <ele>690.72</ele>
 <time>2011-09-13T13:33:55Z</time>
 </trkpt>
 <trkpt lat="47.819557" lon="13.211134">
 <ele>691.19</ele>
 <time>2011-09-13T13:34:04Z</time>
 </trkpt>
 <trkpt lat="47.819672" lon="13.210460">
 <ele>691.23</ele>
 <time>2011-09-13T13:34:13Z</time>
 </trkpt>
 <trkpt lat="47.819801" lon="13.209694">
 <ele>690.99</ele>
 <time>2011-09-13T13:34:23Z</time>
 </trkpt>
 <trkpt lat="47.819916" lon="13.209010">
 <ele>690.76</ele>
 <time>2011-09-13T13:34:32Z</time>
 </trkpt>
 <trkpt lat="47.819988" lon="13.208403">
 <ele>690.99</ele>
 <time>2011-09-13T13:34:40Z</time>
 </trkpt>
 <trkpt lat="47.820042" lon="13.207613">
 <ele>690.54</ele>
 <time>2011-09-13T13:34:50Z</time>
 </trkpt>
 <trkpt lat="47.820053" lon="13.206997">
 <ele>690.83</ele>
 <time>2011-09-13T13:34:58Z</time>
 </trkpt>
 <trkpt lat="47.820011" lon="13.206344">
 <ele>689.94</ele>
 <time>2011-09-13T13:35:06Z</time>
 </trkpt>
 <trkpt lat="47.819942" lon="13.205606">
 <ele>688.70</ele>
 <time>2011-09-13T13:35:14Z</time>
 </trkpt>
 <trkpt lat="47.819855" lon="13.204781">
 <ele>686.93</ele>
 <time>2011-09-13T13:35:22Z</time>
 </trkpt>
 <trkpt lat="47.819748" lon="13.203999">
 <ele>684.44</ele>
 <time>2011-09-13T13:35:29Z</time>
 </trkpt>
 <trkpt lat="47.819626" lon="13.202941">
 <ele>681.23</ele>
 <time>2011-09-13T13:35:38Z</time>
 </trkpt>
 <trkpt lat="47.819576" lon="13.202240">
 <ele>679.89</ele>
 <time>2011-09-13T13:35:44Z</time>
 </trkpt>
 <trkpt lat="47.819561" lon="13.202026">
 <ele>679.71</ele>
 <time>2011-09-13T13:35:48Z</time>
 </trkpt>
 <trkpt lat="47.819668" lon="13.201724">
 <ele>679.34</ele>
 <time>2011-09-13T13:35:52Z</time>
 </trkpt>
 <trkpt lat="47.819660" lon="13.201592">
 <ele>678.95</ele>
 <time>2011-09-13T13:35:56Z</time>
 </trkpt>
 <trkpt lat="47.819645" lon="13.201511">
 <ele>678.91</ele>
 <time>2011-09-13T13:35:58Z</time>
 </trkpt>
 <trkpt lat="47.819473" lon="13.201361">
 <ele>678.72</ele>
 <time>2011-09-13T13:36:04Z</time>
 </trkpt>
 <trkpt lat="47.819450" lon="13.201361">
 <ele>678.73</ele>
 <time>2011-09-13T13:36:05Z</time>
 </trkpt>
 <trkpt lat="47.819347" lon="13.200803">
 <ele>678.38</ele>
 <time>2011-09-13T13:36:11Z</time>
 </trkpt>
 <trkpt lat="47.819302" lon="13.200166">
 <ele>677.94</ele>
 <time>2011-09-13T13:36:19Z</time>
 </trkpt>
 <trkpt lat="47.819233" lon="13.199400">
 <ele>678.23</ele>
 <time>2011-09-13T13:36:29Z</time>
 </trkpt>
 <trkpt lat="47.819180" lon="13.198808">
 <ele>678.08</ele>
 <time>2011-09-13T13:36:37Z</time>
 </trkpt>
 <trkpt lat="47.819118" lon="13.198176">
 <ele>678.56</ele>
 <time>2011-09-13T13:36:46Z</time>
 </trkpt>
 <trkpt lat="47.819050" lon="13.197453">
 <ele>678.74</ele>
 <time>2011-09-13T13:36:57Z</time>
 </trkpt>
 <trkpt lat="47.818993" lon="13.196725">
 <ele>679.72</ele>
 <time>2011-09-13T13:37:08Z</time>
 </trkpt>
 <trkpt lat="47.818932" lon="13.195978">
 <ele>679.53</ele>
 <time>2011-09-13T13:37:19Z</time>
 </trkpt>
 <trkpt lat="47.818855" lon="13.195199">
 <ele>679.80</ele>
 <time>2011-09-13T13:37:30Z</time>
 </trkpt>
 <trkpt lat="47.818771" lon="13.194453">
 <ele>678.58</ele>
 <time>2011-09-13T13:37:40Z</time>
 </trkpt>
 <trkpt lat="47.818768" lon="13.193814">
 <ele>678.85</ele>
 <time>2011-09-13T13:37:48Z</time>
 </trkpt>
 <trkpt lat="47.818768" lon="13.193629">
 <ele>678.90</ele>
 <time>2011-09-13T13:37:51Z</time>
 </trkpt>
 <trkpt lat="47.818768" lon="13.193500">
 <ele>679.36</ele>
 <time>2011-09-13T13:37:55Z</time>
 </trkpt>
 <trkpt lat="47.818771" lon="13.193108">
 <ele>679.06</ele>
 <time>2011-09-13T13:38:01Z</time>
 </trkpt>
 <trkpt lat="47.818802" lon="13.192542">
 <ele>679.01</ele>
 <time>2011-09-13T13:38:08Z</time>
 </trkpt>
 <trkpt lat="47.818928" lon="13.191767">
 <ele>677.48</ele>
 <time>2011-09-13T13:38:16Z</time>
 </trkpt>
 <trkpt lat="47.819027" lon="13.190788">
 <ele>674.48</ele>
 <time>2011-09-13T13:38:25Z</time>
 </trkpt>
 <trkpt lat="47.819057" lon="13.189932">
 <ele>673.15</ele>
 <time>2011-09-13T13:38:32Z</time>
 </trkpt>
 <trkpt lat="47.819038" lon="13.189208">
 <ele>671.58</ele>
 <time>2011-09-13T13:38:38Z</time>
 </trkpt>
 <trkpt lat="47.818871" lon="13.188554">
 <ele>671.10</ele>
 <time>2011-09-13T13:38:44Z</time>
 </trkpt>
 <trkpt lat="47.818653" lon="13.187976">
 <ele>671.98</ele>
 <time>2011-09-13T13:38:50Z</time>
 </trkpt>
 <trkpt lat="47.818390" lon="13.187287">
 <ele>672.16</ele>
 <time>2011-09-13T13:38:58Z</time>
 </trkpt>
 <trkpt lat="47.818138" lon="13.186613">
 <ele>673.58</ele>
 <time>2011-09-13T13:39:07Z</time>
 </trkpt>
 <trkpt lat="47.817936" lon="13.185891">
 <ele>674.97</ele>
 <time>2011-09-13T13:39:17Z</time>
 </trkpt>
 <trkpt lat="47.817806" lon="13.185132">
 <ele>674.90</ele>
 <time>2011-09-13T13:39:27Z</time>
 </trkpt>
 <trkpt lat="47.817776" lon="13.184530">
 <ele>674.34</ele>
 <time>2011-09-13T13:39:34Z</time>
 </trkpt>
 <trkpt lat="47.817738" lon="13.183638">
 <ele>672.65</ele>
 <time>2011-09-13T13:39:43Z</time>
 </trkpt>
 <trkpt lat="47.817684" lon="13.183063">
 <ele>670.65</ele>
 <time>2011-09-13T13:39:48Z</time>
 </trkpt>
 <trkpt lat="47.817482" lon="13.182503">
 <ele>668.32</ele>
 <time>2011-09-13T13:39:53Z</time>
 </trkpt>
 <trkpt lat="47.817215" lon="13.181931">
 <ele>666.10</ele>
 <time>2011-09-13T13:39:58Z</time>
 </trkpt>
 <trkpt lat="47.816868" lon="13.181450">
 <ele>663.09</ele>
 <time>2011-09-13T13:40:03Z</time>
 </trkpt>
 <trkpt lat="47.816414" lon="13.181132">
 <ele>660.20</ele>
 <time>2011-09-13T13:40:08Z</time>
 </trkpt>
 <trkpt lat="47.816010" lon="13.180995">
 <ele>657.67</ele>
 <time>2011-09-13T13:40:12Z</time>
 </trkpt>
 <trkpt lat="47.815578" lon="13.180979">
 <ele>654.99</ele>
 <time>2011-09-13T13:40:16Z</time>
 </trkpt>
 <trkpt lat="47.815140" lon="13.181097">
 <ele>653.09</ele>
 <time>2011-09-13T13:40:20Z</time>
 </trkpt>
 <trkpt lat="47.814545" lon="13.181229">
 <ele>650.13</ele>
 <time>2011-09-13T13:40:25Z</time>
 </trkpt>
 <trkpt lat="47.814426" lon="13.181222">
 <ele>649.55</ele>
 <time>2011-09-13T13:40:26Z</time>
 </trkpt>
 <trkpt lat="47.813988" lon="13.181086">
 <ele>647.40</ele>
 <time>2011-09-13T13:40:30Z</time>
 </trkpt>
 <trkpt lat="47.813812" lon="13.180914">
 <ele>646.66</ele>
 <time>2011-09-13T13:40:32Z</time>
 </trkpt>
 <trkpt lat="47.813679" lon="13.180722">
 <ele>646.28</ele>
 <time>2011-09-13T13:40:34Z</time>
 </trkpt>
 <trkpt lat="47.813519" lon="13.180452">
 <ele>646.52</ele>
 <time>2011-09-13T13:40:37Z</time>
 </trkpt>
 <trkpt lat="47.813438" lon="13.180245">
 <ele>647.50</ele>
 <time>2011-09-13T13:40:40Z</time>
 </trkpt>
 <trkpt lat="47.813366" lon="13.180048">
 <ele>648.79</ele>
 <time>2011-09-13T13:40:44Z</time>
 </trkpt>
 <trkpt lat="47.813232" lon="13.180111">
 <ele>648.94</ele>
 <time>2011-09-13T13:40:46Z</time>
 </trkpt>
 <trkpt lat="47.813126" lon="13.180304">
 <ele>649.14</ele>
 <time>2011-09-13T13:40:50Z</time>
 </trkpt>
 <trkpt lat="47.813061" lon="13.180424">
 <ele>648.97</ele>
 <time>2011-09-13T13:40:52Z</time>
 </trkpt>
 <trkpt lat="47.812904" lon="13.180863">
 <ele>648.35</ele>
 <time>2011-09-13T13:40:57Z</time>
 </trkpt>
 <trkpt lat="47.812794" lon="13.181394">
 <ele>647.51</ele>
 <time>2011-09-13T13:41:02Z</time>
 </trkpt>
 <trkpt lat="47.812778" lon="13.181489">
 <ele>647.33</ele>
 <time>2011-09-13T13:41:03Z</time>
 </trkpt>
 <trkpt lat="47.812725" lon="13.181784">
 <ele>646.64</ele>
 <time>2011-09-13T13:41:07Z</time>
 </trkpt>
 <trkpt lat="47.812645" lon="13.182147">
 <ele>645.78</ele>
 <time>2011-09-13T13:41:12Z</time>
 </trkpt>
 <trkpt lat="47.812592" lon="13.182287">
 <ele>645.54</ele>
 <time>2011-09-13T13:41:13Z</time>
 </trkpt>
 <trkpt lat="47.812466" lon="13.182621">
 <ele>644.04</ele>
 <time>2011-09-13T13:41:17Z</time>
 </trkpt>
 <trkpt lat="47.812332" lon="13.182978">
 <ele>642.52</ele>
 <time>2011-09-13T13:41:21Z</time>
 </trkpt>
 <trkpt lat="47.812199" lon="13.184069">
 <ele>640.07</ele>
 <time>2011-09-13T13:41:27Z</time>
 </trkpt>
 <trkpt lat="47.812199" lon="13.184431">
 <ele>639.40</ele>
 <time>2011-09-13T13:41:31Z</time>
 </trkpt>
 <trkpt lat="47.812046" lon="13.184665">
 <ele>639.86</ele>
 <time>2011-09-13T13:41:36Z</time>
 </trkpt>
 <trkpt lat="47.811623" lon="13.185403">
 <ele>641.66</ele>
 <time>2011-09-13T13:41:43Z</time>
 </trkpt>
 <trkpt lat="47.811558" lon="13.185562">
 <ele>642.37</ele>
 <time>2011-09-13T13:41:45Z</time>
 </trkpt>
 <trkpt lat="47.811390" lon="13.185959">
 <ele>643.66</ele>
 <time>2011-09-13T13:41:50Z</time>
 </trkpt>
 <trkpt lat="47.811249" lon="13.186366">
 <ele>644.50</ele>
 <time>2011-09-13T13:41:54Z</time>
 </trkpt>
 <trkpt lat="47.811188" lon="13.186661">
 <ele>644.85</ele>
 <time>2011-09-13T13:41:56Z</time>
 </trkpt>
 <trkpt lat="47.811111" lon="13.187107">
 <ele>646.03</ele>
 <time>2011-09-13T13:42:01Z</time>
 </trkpt>
 <trkpt lat="47.811092" lon="13.187258">
 <ele>646.31</ele>
 <time>2011-09-13T13:42:03Z</time>
 </trkpt>
 <trkpt lat="47.811016" lon="13.187948">
 <ele>646.87</ele>
 <time>2011-09-13T13:42:13Z</time>
 </trkpt>
 <trkpt lat="47.810913" lon="13.188686">
 <ele>647.47</ele>
 <time>2011-09-13T13:42:23Z</time>
 </trkpt>
 <trkpt lat="47.810772" lon="13.189364">
 <ele>647.82</ele>
 <time>2011-09-13T13:42:33Z</time>
 </trkpt>
 <trkpt lat="47.810738" lon="13.189472">
 <ele>647.93</ele>
 <time>2011-09-13T13:42:35Z</time>
 </trkpt>
 <trkpt lat="47.810677" lon="13.189657">
 <ele>648.06</ele>
 <time>2011-09-13T13:42:38Z</time>
 </trkpt>
 <trkpt lat="47.810486" lon="13.190266">
 <ele>648.59</ele>
 <time>2011-09-13T13:42:47Z</time>
 </trkpt>
 <trkpt lat="47.810341" lon="13.190723">
 <ele>648.66</ele>
 <time>2011-09-13T13:42:54Z</time>
 </trkpt>
 <trkpt lat="47.810150" lon="13.191291">
 <ele>649.30</ele>
 <time>2011-09-13T13:43:03Z</time>
 </trkpt>
 <trkpt lat="47.809906" lon="13.191988">
 <ele>650.41</ele>
 <time>2011-09-13T13:43:14Z</time>
 </trkpt>
 <trkpt lat="47.809669" lon="13.192653">
 <ele>650.93</ele>
 <time>2011-09-13T13:43:24Z</time>
 </trkpt>
 <trkpt lat="47.809429" lon="13.193339">
 <ele>650.30</ele>
 <time>2011-09-13T13:43:33Z</time>
 </trkpt>
 <trkpt lat="47.809181" lon="13.194008">
 <ele>649.09</ele>
 <time>2011-09-13T13:43:41Z</time>
 </trkpt>
 <trkpt lat="47.808910" lon="13.194847">
 <ele>647.72</ele>
 <time>2011-09-13T13:43:50Z</time>
 </trkpt>
 <trkpt lat="47.808754" lon="13.195335">
 <ele>646.64</ele>
 <time>2011-09-13T13:43:55Z</time>
 </trkpt>
 <trkpt lat="47.808495" lon="13.196022">
 <ele>645.26</ele>
 <time>2011-09-13T13:44:02Z</time>
 </trkpt>
 <trkpt lat="47.808208" lon="13.196559">
 <ele>644.61</ele>
 <time>2011-09-13T13:44:08Z</time>
 </trkpt>
 <trkpt lat="47.807915" lon="13.196950">
 <ele>644.29</ele>
 <time>2011-09-13T13:44:13Z</time>
 </trkpt>
 <trkpt lat="47.807571" lon="13.197196">
 <ele>643.42</ele>
 <time>2011-09-13T13:44:18Z</time>
 </trkpt>
 <trkpt lat="47.807178" lon="13.197292">
 <ele>642.52</ele>
 <time>2011-09-13T13:44:23Z</time>
 </trkpt>
 <trkpt lat="47.806751" lon="13.197260">
 <ele>641.21</ele>
 <time>2011-09-13T13:44:28Z</time>
 </trkpt>
 <trkpt lat="47.806358" lon="13.197056">
 <ele>639.37</ele>
 <time>2011-09-13T13:44:33Z</time>
 </trkpt>
 <trkpt lat="47.805946" lon="13.196782">
 <ele>636.91</ele>
 <time>2011-09-13T13:44:38Z</time>
 </trkpt>
 <trkpt lat="47.805359" lon="13.196322">
 <ele>631.84</ele>
 <time>2011-09-13T13:44:45Z</time>
 </trkpt>
 <trkpt lat="47.804886" lon="13.196113">
 <ele>629.55</ele>
 <time>2011-09-13T13:44:50Z</time>
 </trkpt>
 <trkpt lat="47.804806" lon="13.196090">
 <ele>629.24</ele>
 <time>2011-09-13T13:44:51Z</time>
 </trkpt>
 <trkpt lat="47.804226" lon="13.196042">
 <ele>627.72</ele>
 <time>2011-09-13T13:44:57Z</time>
 </trkpt>
 <trkpt lat="47.803638" lon="13.196048">
 <ele>625.37</ele>
 <time>2011-09-13T13:45:03Z</time>
 </trkpt>
 <trkpt lat="47.802608" lon="13.196082">
 <ele>621.89</ele>
 <time>2011-09-13T13:45:14Z</time>
 </trkpt>
 <trkpt lat="47.802044" lon="13.196011">
 <ele>619.59</ele>
 <time>2011-09-13T13:45:20Z</time>
 </trkpt>
 <trkpt lat="47.801575" lon="13.195812">
 <ele>618.04</ele>
 <time>2011-09-13T13:45:25Z</time>
 </trkpt>
 <trkpt lat="47.801132" lon="13.195443">
 <ele>616.35</ele>
 <time>2011-09-13T13:45:30Z</time>
 </trkpt>
 <trkpt lat="47.800674" lon="13.194823">
 <ele>613.63</ele>
 <time>2011-09-13T13:45:36Z</time>
 </trkpt>
 <trkpt lat="47.800365" lon="13.194180">
 <ele>610.61</ele>
 <time>2011-09-13T13:45:41Z</time>
 </trkpt>
 <trkpt lat="47.800175" lon="13.193492">
 <ele>608.73</ele>
 <time>2011-09-13T13:45:46Z</time>
 </trkpt>
 <trkpt lat="47.800053" lon="13.192483">
 <ele>606.44</ele>
 <time>2011-09-13T13:45:53Z</time>
 </trkpt>
 <trkpt lat="47.799904" lon="13.191473">
 <ele>604.47</ele>
 <time>2011-09-13T13:46:00Z</time>
 </trkpt>
 <trkpt lat="47.799721" lon="13.190734">
 <ele>601.70</ele>
 <time>2011-09-13T13:46:05Z</time>
 </trkpt>
 <trkpt lat="47.799416" lon="13.190054">
 <ele>598.96</ele>
 <time>2011-09-13T13:46:10Z</time>
 </trkpt>
 <trkpt lat="47.798843" lon="13.188819">
 <ele>595.54</ele>
 <time>2011-09-13T13:46:19Z</time>
 </trkpt>
 <trkpt lat="47.798618" lon="13.188056">
 <ele>593.57</ele>
 <time>2011-09-13T13:46:24Z</time>
 </trkpt>
 <trkpt lat="47.798508" lon="13.187275">
 <ele>591.72</ele>
 <time>2011-09-13T13:46:29Z</time>
 </trkpt>
 <trkpt lat="47.798386" lon="13.186082">
 <ele>589.91</ele>
 <time>2011-09-13T13:46:37Z</time>
 </trkpt>
 <trkpt lat="47.798122" lon="13.185067">
 <ele>587.63</ele>
 <time>2011-09-13T13:46:45Z</time>
 </trkpt>
 <trkpt lat="47.797970" lon="13.184493">
 <ele>586.79</ele>
 <time>2011-09-13T13:46:50Z</time>
 </trkpt>
 <trkpt lat="47.797733" lon="13.183810">
 <ele>585.16</ele>
 <time>2011-09-13T13:46:56Z</time>
 </trkpt>
 <trkpt lat="47.797504" lon="13.183153">
 <ele>584.02</ele>
 <time>2011-09-13T13:47:02Z</time>
 </trkpt>
 <trkpt lat="47.797123" lon="13.182110">
 <ele>582.58</ele>
 <time>2011-09-13T13:47:12Z</time>
 </trkpt>
 <trkpt lat="47.796974" lon="13.181701">
 <ele>583.02</ele>
 <time>2011-09-13T13:47:16Z</time>
 </trkpt>
 <trkpt lat="47.796734" lon="13.181057">
 <ele>583.28</ele>
 <time>2011-09-13T13:47:23Z</time>
 </trkpt>
 <trkpt lat="47.796471" lon="13.180428">
 <ele>583.98</ele>
 <time>2011-09-13T13:47:31Z</time>
 </trkpt>
 <trkpt lat="47.796139" lon="13.180005">
 <ele>583.52</ele>
 <time>2011-09-13T13:47:38Z</time>
 </trkpt>
 <trkpt lat="47.795788" lon="13.179452">
 <ele>582.57</ele>
 <time>2011-09-13T13:47:45Z</time>
 </trkpt>
 <trkpt lat="47.795494" lon="13.178869">
 <ele>580.04</ele>
 <time>2011-09-13T13:47:51Z</time>
 </trkpt>
 <trkpt lat="47.795246" lon="13.178115">
 <ele>578.48</ele>
 <time>2011-09-13T13:47:58Z</time>
 </trkpt>
 <trkpt lat="47.795120" lon="13.177623">
 <ele>577.57</ele>
 <time>2011-09-13T13:48:03Z</time>
 </trkpt>
 <trkpt lat="47.795086" lon="13.177463">
 <ele>577.39</ele>
 <time>2011-09-13T13:48:05Z</time>
 </trkpt>
 <trkpt lat="47.795010" lon="13.176902">
 <ele>576.99</ele>
 <time>2011-09-13T13:48:12Z</time>
 </trkpt>
 <trkpt lat="47.794872" lon="13.176022">
 <ele>575.70</ele>
 <time>2011-09-13T13:48:21Z</time>
 </trkpt>
 <trkpt lat="47.794724" lon="13.175393">
 <ele>575.32</ele>
 <time>2011-09-13T13:48:27Z</time>
 </trkpt>
 <trkpt lat="47.794441" lon="13.174791">
 <ele>573.77</ele>
 <time>2011-09-13T13:48:33Z</time>
 </trkpt>
 <trkpt lat="47.794125" lon="13.174380">
 <ele>571.88</ele>
 <time>2011-09-13T13:48:38Z</time>
 </trkpt>
 <trkpt lat="47.793606" lon="13.173936">
 <ele>570.79</ele>
 <time>2011-09-13T13:48:45Z</time>
 </trkpt>
 <trkpt lat="47.793110" lon="13.173670">
 <ele>569.45</ele>
 <time>2011-09-13T13:48:51Z</time>
 </trkpt>
 <trkpt lat="47.792595" lon="13.173518">
 <ele>566.77</ele>
 <time>2011-09-13T13:48:57Z</time>
 </trkpt>
 <trkpt lat="47.791916" lon="13.173396">
 <ele>564.84</ele>
 <time>2011-09-13T13:49:05Z</time>
 </trkpt>
 <trkpt lat="47.791298" lon="13.173494">
 <ele>563.26</ele>
 <time>2011-09-13T13:49:12Z</time>
 </trkpt>
 <trkpt lat="47.790764" lon="13.173677">
 <ele>561.47</ele>
 <time>2011-09-13T13:49:18Z</time>
 </trkpt>
 <trkpt lat="47.790333" lon="13.173992">
 <ele>559.48</ele>
 <time>2011-09-13T13:49:23Z</time>
 </trkpt>
 <trkpt lat="47.789925" lon="13.174411">
 <ele>556.99</ele>
 <time>2011-09-13T13:49:28Z</time>
 </trkpt>
 <trkpt lat="47.789616" lon="13.174993">
 <ele>554.82</ele>
 <time>2011-09-13T13:49:33Z</time>
 </trkpt>
 <trkpt lat="47.789207" lon="13.175952">
 <ele>553.95</ele>
 <time>2011-09-13T13:49:41Z</time>
 </trkpt>
 <trkpt lat="47.788860" lon="13.176676">
 <ele>554.66</ele>
 <time>2011-09-13T13:49:48Z</time>
 </trkpt>
 <trkpt lat="47.788570" lon="13.177187">
 <ele>555.67</ele>
 <time>2011-09-13T13:49:54Z</time>
 </trkpt>
 <trkpt lat="47.788120" lon="13.177688">
 <ele>556.20</ele>
 <time>2011-09-13T13:50:02Z</time>
 </trkpt>
 <trkpt lat="47.787868" lon="13.177886">
 <ele>557.09</ele>
 <time>2011-09-13T13:50:10Z</time>
 </trkpt>
 <trkpt lat="47.787189" lon="13.178179">
 <ele>557.18</ele>
 <time>2011-09-13T13:50:18Z</time>
 </trkpt>
 <trkpt lat="47.786636" lon="13.178311">
 <ele>558.30</ele>
 <time>2011-09-13T13:50:28Z</time>
 </trkpt>
 <trkpt lat="47.785789" lon="13.178479">
 <ele>558.04</ele>
 <time>2011-09-13T13:50:43Z</time>
 </trkpt>
 <trkpt lat="47.785034" lon="13.178609">
 <ele>557.34</ele>
 <time>2011-09-13T13:50:56Z</time>
 </trkpt>
 <trkpt lat="47.784218" lon="13.178737">
 <ele>556.86</ele>
 <time>2011-09-13T13:51:09Z</time>
 </trkpt>
 <trkpt lat="47.783543" lon="13.178909">
 <ele>556.18</ele>
 <time>2011-09-13T13:51:19Z</time>
 </trkpt>
 <trkpt lat="47.782845" lon="13.179239">
 <ele>554.87</ele>
 <time>2011-09-13T13:51:29Z</time>
 </trkpt>
 <trkpt lat="47.782234" lon="13.179675">
 <ele>554.38</ele>
 <time>2011-09-13T13:51:38Z</time>
 </trkpt>
 <trkpt lat="47.781620" lon="13.180206">
 <ele>553.50</ele>
 <time>2011-09-13T13:51:47Z</time>
 </trkpt>
 <trkpt lat="47.781090" lon="13.180755">
 <ele>552.14</ele>
 <time>2011-09-13T13:51:55Z</time>
 </trkpt>
 <trkpt lat="47.780628" lon="13.181127">
 <ele>551.09</ele>
 <time>2011-09-13T13:52:02Z</time>
 </trkpt>
 <trkpt lat="47.780136" lon="13.181329">
 <ele>549.32</ele>
 <time>2011-09-13T13:52:08Z</time>
 </trkpt>
 <trkpt lat="47.779686" lon="13.181384">
 <ele>546.91</ele>
 <time>2011-09-13T13:52:13Z</time>
 </trkpt>
 <trkpt lat="47.779190" lon="13.181352">
 <ele>543.84</ele>
 <time>2011-09-13T13:52:18Z</time>
 </trkpt>
 <trkpt lat="47.778561" lon="13.181298">
 <ele>538.60</ele>
 <time>2011-09-13T13:52:24Z</time>
 </trkpt>
 <trkpt lat="47.778008" lon="13.181298">
 <ele>535.77</ele>
 <time>2011-09-13T13:52:29Z</time>
 </trkpt>
 <trkpt lat="47.777325" lon="13.181258">
 <ele>533.33</ele>
 <time>2011-09-13T13:52:35Z</time>
 </trkpt>
 <trkpt lat="47.776806" lon="13.181174">
 <ele>532.60</ele>
 <time>2011-09-13T13:52:40Z</time>
 </trkpt>
 <trkpt lat="47.776264" lon="13.180943">
 <ele>533.39</ele>
 <time>2011-09-13T13:52:46Z</time>
 </trkpt>
 <trkpt lat="47.775703" lon="13.180702">
 <ele>534.89</ele>
 <time>2011-09-13T13:52:53Z</time>
 </trkpt>
 <trkpt lat="47.775219" lon="13.180504">
 <ele>534.38</ele>
 <time>2011-09-13T13:52:59Z</time>
 </trkpt>
 <trkpt lat="47.774658" lon="13.180552">
 <ele>532.09</ele>
 <time>2011-09-13T13:53:05Z</time>
 </trkpt>
 <trkpt lat="47.773960" lon="13.180923">
 <ele>530.05</ele>
 <time>2011-09-13T13:53:13Z</time>
 </trkpt>
 <trkpt lat="47.773254" lon="13.181280">
 <ele>528.29</ele>
 <time>2011-09-13T13:53:21Z</time>
 </trkpt>
 <trkpt lat="47.772594" lon="13.181617">
 <ele>527.30</ele>
 <time>2011-09-13T13:53:29Z</time>
 </trkpt>
 <trkpt lat="47.772137" lon="13.181771">
 <ele>527.90</ele>
 <time>2011-09-13T13:53:35Z</time>
 </trkpt>
 <trkpt lat="47.771702" lon="13.181866">
 <ele>527.86</ele>
 <time>2011-09-13T13:53:41Z</time>
 </trkpt>
 <trkpt lat="47.771198" lon="13.181920">
 <ele>527.77</ele>
 <time>2011-09-13T13:53:48Z</time>
 </trkpt>
 <trkpt lat="47.770741" lon="13.181884">
 <ele>527.02</ele>
 <time>2011-09-13T13:53:54Z</time>
 </trkpt>
 <trkpt lat="47.770664" lon="13.181870">
 <ele>526.90</ele>
 <time>2011-09-13T13:53:55Z</time>
 </trkpt>
 <trkpt lat="47.770107" lon="13.181763">
 <ele>526.15</ele>
 <time>2011-09-13T13:54:02Z</time>
 </trkpt>
 <trkpt lat="47.769474" lon="13.181478">
 <ele>524.28</ele>
 <time>2011-09-13T13:54:10Z</time>
 </trkpt>
 <trkpt lat="47.768955" lon="13.181153">
 <ele>523.71</ele>
 <time>2011-09-13T13:54:17Z</time>
 </trkpt>
 <trkpt lat="47.768463" lon="13.180672">
 <ele>524.25</ele>
 <time>2011-09-13T13:54:25Z</time>
 </trkpt>
 <trkpt lat="47.768047" lon="13.180240">
 <ele>524.48</ele>
 <time>2011-09-13T13:54:32Z</time>
 </trkpt>
 <trkpt lat="47.767647" lon="13.179816">
 <ele>523.96</ele>
 <time>2011-09-13T13:54:39Z</time>
 </trkpt>
 <trkpt lat="47.767120" lon="13.179268">
 <ele>523.55</ele>
 <time>2011-09-13T13:54:49Z</time>
 </trkpt>
 <trkpt lat="47.766827" lon="13.178923">
 <ele>523.77</ele>
 <time>2011-09-13T13:54:55Z</time>
 </trkpt>
 <trkpt lat="47.766487" lon="13.178509">
 <ele>523.72</ele>
 <time>2011-09-13T13:55:02Z</time>
 </trkpt>
 <trkpt lat="47.766117" lon="13.178169">
 <ele>523.63</ele>
 <time>2011-09-13T13:55:09Z</time>
 </trkpt>
 <trkpt lat="47.765743" lon="13.178006">
 <ele>523.62</ele>
 <time>2011-09-13T13:55:15Z</time>
 </trkpt>
 <trkpt lat="47.765366" lon="13.178044">
 <ele>523.90</ele>
 <time>2011-09-13T13:55:21Z</time>
 </trkpt>
 <trkpt lat="47.765011" lon="13.178257">
 <ele>523.78</ele>
 <time>2011-09-13T13:55:27Z</time>
 </trkpt>
 <trkpt lat="47.764668" lon="13.178542">
 <ele>523.24</ele>
 <time>2011-09-13T13:55:33Z</time>
 </trkpt>
 <trkpt lat="47.764324" lon="13.179152">
 <ele>522.61</ele>
 <time>2011-09-13T13:55:41Z</time>
 </trkpt>
 <trkpt lat="47.764244" lon="13.179300">
 <ele>522.55</ele>
 <time>2011-09-13T13:55:43Z</time>
 </trkpt>
 <trkpt lat="47.764072" lon="13.179572">
 <ele>522.52</ele>
 <time>2011-09-13T13:55:47Z</time>
 </trkpt>
 <trkpt lat="47.763988" lon="13.179705">
 <ele>522.76</ele>
 <time>2011-09-13T13:55:49Z</time>
 </trkpt>
 <trkpt lat="47.763653" lon="13.180036">
 <ele>522.67</ele>
 <time>2011-09-13T13:55:55Z</time>
 </trkpt>
 <trkpt lat="47.763302" lon="13.180145">
 <ele>522.44</ele>
 <time>2011-09-13T13:56:00Z</time>
 </trkpt>
 <trkpt lat="47.762680" lon="13.180116">
 <ele>522.38</ele>
 <time>2011-09-13T13:56:09Z</time>
 </trkpt>
 <trkpt lat="47.762302" lon="13.180225">
 <ele>522.06</ele>
 <time>2011-09-13T13:56:15Z</time>
 </trkpt>
 <trkpt lat="47.761856" lon="13.180612">
 <ele>522.11</ele>
 <time>2011-09-13T13:56:23Z</time>
 </trkpt>
 <trkpt lat="47.761284" lon="13.181174">
 <ele>522.83</ele>
 <time>2011-09-13T13:56:34Z</time>
 </trkpt>
 <trkpt lat="47.760841" lon="13.181612">
 <ele>523.40</ele>
 <time>2011-09-13T13:56:43Z</time>
 </trkpt>
 <trkpt lat="47.760551" lon="13.181766">
 <ele>523.08</ele>
 <time>2011-09-13T13:56:48Z</time>
 </trkpt>
 <trkpt lat="47.760288" lon="13.181695">
 <ele>522.58</ele>
 <time>2011-09-13T13:56:52Z</time>
 </trkpt>
 <trkpt lat="47.759758" lon="13.181247">
 <ele>523.62</ele>
 <time>2011-09-13T13:57:02Z</time>
 </trkpt>
 <trkpt lat="47.759369" lon="13.180930">
 <ele>524.57</ele>
 <time>2011-09-13T13:57:10Z</time>
 </trkpt>
 <trkpt lat="47.758923" lon="13.180734">
 <ele>525.59</ele>
 <time>2011-09-13T13:57:19Z</time>
 </trkpt>
 <trkpt lat="47.758633" lon="13.180605">
 <ele>525.80</ele>
 <time>2011-09-13T13:57:25Z</time>
 </trkpt>
 <trkpt lat="47.758389" lon="13.180498">
 <ele>525.45</ele>
 <time>2011-09-13T13:57:30Z</time>
 </trkpt>
 <trkpt lat="47.757957" lon="13.180240">
 <ele>525.84</ele>
 <time>2011-09-13T13:57:39Z</time>
 </trkpt>
 <trkpt lat="47.757553" lon="13.179960">
 <ele>526.81</ele>
 <time>2011-09-13T13:57:48Z</time>
 </trkpt>
 <trkpt lat="47.757198" lon="13.179837">
 <ele>526.94</ele>
 <time>2011-09-13T13:57:55Z</time>
 </trkpt>
 <trkpt lat="47.756657" lon="13.179649">
 <ele>527.49</ele>
 <time>2011-09-13T13:58:05Z</time>
 </trkpt>
 <trkpt lat="47.756088" lon="13.179430">
 <ele>527.10</ele>
 <time>2011-09-13T13:58:15Z</time>
 </trkpt>
 <trkpt lat="47.755699" lon="13.179170">
 <ele>527.06</ele>
 <time>2011-09-13T13:58:22Z</time>
 </trkpt>
 <trkpt lat="47.755260" lon="13.178875">
 <ele>526.81</ele>
 <time>2011-09-13T13:58:30Z</time>
 </trkpt>
 <trkpt lat="47.755108" lon="13.178771">
 <ele>526.85</ele>
 <time>2011-09-13T13:58:33Z</time>
 </trkpt>
 <trkpt lat="47.754772" lon="13.178584">
 <ele>527.01</ele>
 <time>2011-09-13T13:58:39Z</time>
 </trkpt>
 <trkpt lat="47.754642" lon="13.178565">
 <ele>526.91</ele>
 <time>2011-09-13T13:58:41Z</time>
 </trkpt>
 <trkpt lat="47.754204" lon="13.178481">
 <ele>526.30</ele>
 <time>2011-09-13T13:58:48Z</time>
 </trkpt>
 <trkpt lat="47.753864" lon="13.178256">
 <ele>526.06</ele>
 <time>2011-09-13T13:58:54Z</time>
 </trkpt>
 <trkpt lat="47.753349" lon="13.177897">
 <ele>525.75</ele>
 <time>2011-09-13T13:59:03Z</time>
 </trkpt>
 <trkpt lat="47.752995" lon="13.177555">
 <ele>525.44</ele>
 <time>2011-09-13T13:59:10Z</time>
 </trkpt>
 <trkpt lat="47.752899" lon="13.177463">
 <ele>525.36</ele>
 <time>2011-09-13T13:59:12Z</time>
 </trkpt>
 <trkpt lat="47.752693" lon="13.177062">
 <ele>525.35</ele>
 <time>2011-09-13T13:59:17Z</time>
 </trkpt>
 <trkpt lat="47.752705" lon="13.176485">
 <ele>525.35</ele>
 <time>2011-09-13T13:59:23Z</time>
 </trkpt>
 <trkpt lat="47.752773" lon="13.175952">
 <ele>525.49</ele>
 <time>2011-09-13T13:59:29Z</time>
 </trkpt>
 <trkpt lat="47.752773" lon="13.175536">
 <ele>526.64</ele>
 <time>2011-09-13T13:59:34Z</time>
 </trkpt>
 <trkpt lat="47.752632" lon="13.175311">
 <ele>527.00</ele>
 <time>2011-09-13T13:59:38Z</time>
 </trkpt>
 <trkpt lat="47.752560" lon="13.175289">
 <ele>527.09</ele>
 <time>2011-09-13T13:59:39Z</time>
 </trkpt>
 <trkpt lat="47.752224" lon="13.175234">
 <ele>526.60</ele>
 <time>2011-09-13T13:59:44Z</time>
 </trkpt>
 <trkpt lat="47.752079" lon="13.175211">
 <ele>526.37</ele>
 <time>2011-09-13T13:59:46Z</time>
 </trkpt>
 <trkpt lat="47.751633" lon="13.174865">
 <ele>526.02</ele>
 <time>2011-09-13T13:59:54Z</time>
 </trkpt>
 <trkpt lat="47.751572" lon="13.174839">
 <ele>526.05</ele>
 <time>2011-09-13T13:59:55Z</time>
 </trkpt>
 <trkpt lat="47.751144" lon="13.174649">
 <ele>525.78</ele>
 <time>2011-09-13T14:00:02Z</time>
 </trkpt>
 <trkpt lat="47.750679" lon="13.174493">
 <ele>525.56</ele>
 <time>2011-09-13T14:00:09Z</time>
 </trkpt>
 <trkpt lat="47.750420" lon="13.174439">
 <ele>525.35</ele>
 <time>2011-09-13T14:00:13Z</time>
 </trkpt>
 <trkpt lat="47.749969" lon="13.174312">
 <ele>524.82</ele>
 <time>2011-09-13T14:00:20Z</time>
 </trkpt>
 <trkpt lat="47.749664" lon="13.174124">
 <ele>524.56</ele>
 <time>2011-09-13T14:00:25Z</time>
 </trkpt>
 <trkpt lat="47.749348" lon="13.173729">
 <ele>524.82</ele>
 <time>2011-09-13T14:00:31Z</time>
 </trkpt>
 <trkpt lat="47.749073" lon="13.173345">
 <ele>525.10</ele>
 <time>2011-09-13T14:00:37Z</time>
 </trkpt>
 <trkpt lat="47.748692" lon="13.173211">
 <ele>524.83</ele>
 <time>2011-09-13T14:00:43Z</time>
 </trkpt>
 <trkpt lat="47.748215" lon="13.173150">
 <ele>525.28</ele>
 <time>2011-09-13T14:00:50Z</time>
 </trkpt>
 <trkpt lat="47.747818" lon="13.173098">
 <ele>525.38</ele>
 <time>2011-09-13T14:00:56Z</time>
 </trkpt>
 <trkpt lat="47.746983" lon="13.172825">
 <ele>525.44</ele>
 <time>2011-09-13T14:01:09Z</time>
 </trkpt>
 <trkpt lat="47.746452" lon="13.172747">
 <ele>525.18</ele>
 <time>2011-09-13T14:01:17Z</time>
 </trkpt>
 <trkpt lat="47.746113" lon="13.172692">
 <ele>524.68</ele>
 <time>2011-09-13T14:01:22Z</time>
 </trkpt>
 <trkpt lat="47.745686" lon="13.172248">
 <ele>524.47</ele>
 <time>2011-09-13T14:01:30Z</time>
 </trkpt>
 <trkpt lat="47.745457" lon="13.171916">
 <ele>524.58</ele>
 <time>2011-09-13T14:01:35Z</time>
 </trkpt>
 <trkpt lat="47.745274" lon="13.171650">
 <ele>524.73</ele>
 <time>2011-09-13T14:01:39Z</time>
 </trkpt>
 <trkpt lat="47.745090" lon="13.171410">
 <ele>525.03</ele>
 <time>2011-09-13T14:01:43Z</time>
 </trkpt>
 <trkpt lat="47.744591" lon="13.171185">
 <ele>525.18</ele>
 <time>2011-09-13T14:01:51Z</time>
 </trkpt>
 <trkpt lat="47.744091" lon="13.171019">
 <ele>524.86</ele>
 <time>2011-09-13T14:01:59Z</time>
 </trkpt>
 <trkpt lat="47.743637" lon="13.170637">
 <ele>524.58</ele>
 <time>2011-09-13T14:02:07Z</time>
 </trkpt>
 <trkpt lat="47.743538" lon="13.170536">
 <ele>524.76</ele>
 <time>2011-09-13T14:02:09Z</time>
 </trkpt>
 <trkpt lat="47.743202" lon="13.170300">
 <ele>525.44</ele>
 <time>2011-09-13T14:02:15Z</time>
 </trkpt>
 <trkpt lat="47.742996" lon="13.170387">
 <ele>526.27</ele>
 <time>2011-09-13T14:02:19Z</time>
 </trkpt>
 <trkpt lat="47.742737" lon="13.170495">
 <ele>527.07</ele>
 <time>2011-09-13T14:02:24Z</time>
 </trkpt>
 <trkpt lat="47.742638" lon="13.170537">
 <ele>527.24</ele>
 <time>2011-09-13T14:02:26Z</time>
 </trkpt>
 <trkpt lat="47.742348" lon="13.170660">
 <ele>527.38</ele>
 <time>2011-09-13T14:02:32Z</time>
 </trkpt>
 <trkpt lat="47.742008" lon="13.170622">
 <ele>527.35</ele>
 <time>2011-09-13T14:02:37Z</time>
 </trkpt>
 <trkpt lat="47.741932" lon="13.170491">
 <ele>527.39</ele>
 <time>2011-09-13T14:02:38Z</time>
 </trkpt>
 <trkpt lat="47.741871" lon="13.170267">
 <ele>527.75</ele>
 <time>2011-09-13T14:02:41Z</time>
 </trkpt>
 <trkpt lat="47.741737" lon="13.169771">
 <ele>528.32</ele>
 <time>2011-09-13T14:02:48Z</time>
 </trkpt>
 <trkpt lat="47.741589" lon="13.169216">
 <ele>528.73</ele>
 <time>2011-09-13T14:02:56Z</time>
 </trkpt>
 <trkpt lat="47.741333" lon="13.168279">
 <ele>529.71</ele>
 <time>2011-09-13T14:03:09Z</time>
 </trkpt>
 <trkpt lat="47.741081" lon="13.167362">
 <ele>530.65</ele>
 <time>2011-09-13T14:03:22Z</time>
 </trkpt>
 <trkpt lat="47.740955" lon="13.166915">
 <ele>531.89</ele>
 <time>2011-09-13T14:03:29Z</time>
 </trkpt>
 <trkpt lat="47.740906" lon="13.166735">
 <ele>532.45</ele>
 <time>2011-09-13T14:03:32Z</time>
 </trkpt>
 <trkpt lat="47.740776" lon="13.166259">
 <ele>533.99</ele>
 <time>2011-09-13T14:03:40Z</time>
 </trkpt>
 <trkpt lat="47.740604" lon="13.165739">
 <ele>535.69</ele>
 <time>2011-09-13T14:03:50Z</time>
 </trkpt>
 <trkpt lat="47.740463" lon="13.165364">
 <ele>536.79</ele>
 <time>2011-09-13T14:03:58Z</time>
 </trkpt>
 <trkpt lat="47.740307" lon="13.164967">
 <ele>538.20</ele>
 <time>2011-09-13T14:04:08Z</time>
 </trkpt>
 <trkpt lat="47.740116" lon="13.164617">
 <ele>539.02</ele>
 <time>2011-09-13T14:04:17Z</time>
 </trkpt>
 <trkpt lat="47.739941" lon="13.164382">
 <ele>540.28</ele>
 <time>2011-09-13T14:04:24Z</time>
 </trkpt>
 <trkpt lat="47.739719" lon="13.164121">
 <ele>541.33</ele>
 <time>2011-09-13T14:04:33Z</time>
 </trkpt>
 <trkpt lat="47.739483" lon="13.163840">
 <ele>542.41</ele>
 <time>2011-09-13T14:04:43Z</time>
 </trkpt>
 <trkpt lat="47.739292" lon="13.163614">
 <ele>543.34</ele>
 <time>2011-09-13T14:04:51Z</time>
 </trkpt>
 <trkpt lat="47.739120" lon="13.163412">
 <ele>544.08</ele>
 <time>2011-09-13T14:04:59Z</time>
 </trkpt>
 <trkpt lat="47.739002" lon="13.163251">
 <ele>544.60</ele>
 <time>2011-09-13T14:05:05Z</time>
 </trkpt>
 <trkpt lat="47.738918" lon="13.163126">
 <ele>545.18</ele>
 <time>2011-09-13T14:05:09Z</time>
 </trkpt>
 <trkpt lat="47.738808" lon="13.162967">
 <ele>545.97</ele>
 <time>2011-09-13T14:05:15Z</time>
 </trkpt>
 <trkpt lat="47.738697" lon="13.162752">
 <ele>546.54</ele>
 <time>2011-09-13T14:05:20Z</time>
 </trkpt>
 <trkpt lat="47.738632" lon="13.162582">
 <ele>546.81</ele>
 <time>2011-09-13T14:05:24Z</time>
 </trkpt>
 <trkpt lat="47.738533" lon="13.162329">
 <ele>546.99</ele>
 <time>2011-09-13T14:05:30Z</time>
 </trkpt>
 <trkpt lat="47.738461" lon="13.162145">
 <ele>546.78</ele>
 <time>2011-09-13T14:05:34Z</time>
 </trkpt>
 <trkpt lat="47.738392" lon="13.161748">
 <ele>546.54</ele>
 <time>2011-09-13T14:05:39Z</time>
 </trkpt>
 <trkpt lat="47.738388" lon="13.161687">
 <ele>546.54</ele>
 <time>2011-09-13T14:05:40Z</time>
 </trkpt>
 <trkpt lat="47.738369" lon="13.161375">
 <ele>546.17</ele>
 <time>2011-09-13T14:05:44Z</time>
 </trkpt>
 <trkpt lat="47.738312" lon="13.160805">
 <ele>544.74</ele>
 <time>2011-09-13T14:05:50Z</time>
 </trkpt>
 <trkpt lat="47.738106" lon="13.160233">
 <ele>542.59</ele>
 <time>2011-09-13T14:05:56Z</time>
 </trkpt>
 <trkpt lat="47.737938" lon="13.159767">
 <ele>539.48</ele>
 <time>2011-09-13T14:06:00Z</time>
 </trkpt>
 <trkpt lat="47.737724" lon="13.159033">
 <ele>533.56</ele>
 <time>2011-09-13T14:06:05Z</time>
 </trkpt>
 <trkpt lat="47.737473" lon="13.157998">
 <ele>526.05</ele>
 <time>2011-09-13T14:06:11Z</time>
 </trkpt>
 <trkpt lat="47.737190" lon="13.157383">
 <ele>523.59</ele>
 <time>2011-09-13T14:06:15Z</time>
 </trkpt>
 <trkpt lat="47.736977" lon="13.157234">
 <ele>523.30</ele>
 <time>2011-09-13T14:06:17Z</time>
 </trkpt>
 <trkpt lat="47.736385" lon="13.156876">
 <ele>522.72</ele>
 <time>2011-09-13T14:06:23Z</time>
 </trkpt>
 <trkpt lat="47.735874" lon="13.156476">
 <ele>522.12</ele>
 <time>2011-09-13T14:06:29Z</time>
 </trkpt>
 <trkpt lat="47.735470" lon="13.155971">
 <ele>522.19</ele>
 <time>2011-09-13T14:06:35Z</time>
 </trkpt>
 <trkpt lat="47.735207" lon="13.155542">
 <ele>522.19</ele>
 <time>2011-09-13T14:06:40Z</time>
 </trkpt>
 <trkpt lat="47.735012" lon="13.154880">
 <ele>522.07</ele>
 <time>2011-09-13T14:06:46Z</time>
 </trkpt>
 <trkpt lat="47.734913" lon="13.154451">
 <ele>522.55</ele>
 <time>2011-09-13T14:06:50Z</time>
 </trkpt>
 <trkpt lat="47.734791" lon="13.154054">
 <ele>523.55</ele>
 <time>2011-09-13T14:06:54Z</time>
 </trkpt>
 <trkpt lat="47.734566" lon="13.153668">
 <ele>524.40</ele>
 <time>2011-09-13T14:06:59Z</time>
 </trkpt>
 <trkpt lat="47.734447" lon="13.153552">
 <ele>524.52</ele>
 <time>2011-09-13T14:07:01Z</time>
 </trkpt>
 <trkpt lat="47.734032" lon="13.153382">
 <ele>525.41</ele>
 <time>2011-09-13T14:07:08Z</time>
 </trkpt>
 <trkpt lat="47.733765" lon="13.153204">
 <ele>525.92</ele>
 <time>2011-09-13T14:07:13Z</time>
 </trkpt>
 <trkpt lat="47.733498" lon="13.153027">
 <ele>525.64</ele>
 <time>2011-09-13T14:07:18Z</time>
 </trkpt>
 <trkpt lat="47.733334" lon="13.152918">
 <ele>525.14</ele>
 <time>2011-09-13T14:07:21Z</time>
 </trkpt>
 <trkpt lat="47.733078" lon="13.152747">
 <ele>524.64</ele>
 <time>2011-09-13T14:07:25Z</time>
 </trkpt>
 <trkpt lat="47.732639" lon="13.152386">
 <ele>523.98</ele>
 <time>2011-09-13T14:07:32Z</time>
 </trkpt>
 <trkpt lat="47.732494" lon="13.152187">
 <ele>523.71</ele>
 <time>2011-09-13T14:07:35Z</time>
 </trkpt>
 <trkpt lat="47.732403" lon="13.152066">
 <ele>523.40</ele>
 <time>2011-09-13T14:07:37Z</time>
 </trkpt>
 <trkpt lat="47.732227" lon="13.151842">
 <ele>523.11</ele>
 <time>2011-09-13T14:07:41Z</time>
 </trkpt>
 <trkpt lat="47.732063" lon="13.151711">
 <ele>523.30</ele>
 <time>2011-09-13T14:07:44Z</time>
 </trkpt>
 <trkpt lat="47.731758" lon="13.151467">
 <ele>524.13</ele>
 <time>2011-09-13T14:07:50Z</time>
 </trkpt>
 <trkpt lat="47.731445" lon="13.151216">
 <ele>524.95</ele>
 <time>2011-09-13T14:07:56Z</time>
 </trkpt>
 <trkpt lat="47.731182" lon="13.150998">
 <ele>525.65</ele>
 <time>2011-09-13T14:08:02Z</time>
 </trkpt>
 <trkpt lat="47.731045" lon="13.150884">
 <ele>525.57</ele>
 <time>2011-09-13T14:08:05Z</time>
 </trkpt>
 <trkpt lat="47.730858" lon="13.150450">
 <ele>525.36</ele>
 <time>2011-09-13T14:08:09Z</time>
 </trkpt>
 <trkpt lat="47.730801" lon="13.150017">
 <ele>525.04</ele>
 <time>2011-09-13T14:08:14Z</time>
 </trkpt>
 <trkpt lat="47.730770" lon="13.149775">
 <ele>524.71</ele>
 <time>2011-09-13T14:08:17Z</time>
 </trkpt>
 <trkpt lat="47.730728" lon="13.149610">
 <ele>524.27</ele>
 <time>2011-09-13T14:08:19Z</time>
 </trkpt>
 <trkpt lat="47.730602" lon="13.149132">
 <ele>523.05</ele>
 <time>2011-09-13T14:08:24Z</time>
 </trkpt>
 <trkpt lat="47.730576" lon="13.149034">
 <ele>522.67</ele>
 <time>2011-09-13T14:08:25Z</time>
 </trkpt>
 <trkpt lat="47.730560" lon="13.148518">
 <ele>520.98</ele>
 <time>2011-09-13T14:08:29Z</time>
 </trkpt>
 <trkpt lat="47.730747" lon="13.148044">
 <ele>518.81</ele>
 <time>2011-09-13T14:08:33Z</time>
 </trkpt>
 <trkpt lat="47.730927" lon="13.147533">
 <ele>516.06</ele>
 <time>2011-09-13T14:08:37Z</time>
 </trkpt>
 <trkpt lat="47.731003" lon="13.146746">
 <ele>511.70</ele>
 <time>2011-09-13T14:08:42Z</time>
 </trkpt>
 <trkpt lat="47.730911" lon="13.146235">
 <ele>509.03</ele>
 <time>2011-09-13T14:08:46Z</time>
 </trkpt>
 <trkpt lat="47.730824" lon="13.146079">
 <ele>508.49</ele>
 <time>2011-09-13T14:08:48Z</time>
 </trkpt>
 <trkpt lat="47.730320" lon="13.145625">
 <ele>504.09</ele>
 <time>2011-09-13T14:08:54Z</time>
 </trkpt>
 <trkpt lat="47.729694" lon="13.145188">
 <ele>497.14</ele>
 <time>2011-09-13T14:09:00Z</time>
 </trkpt>
 <trkpt lat="47.729156" lon="13.144815">
 <ele>491.37</ele>
 <time>2011-09-13T14:09:05Z</time>
 </trkpt>
 <trkpt lat="47.728592" lon="13.144420">
 <ele>486.03</ele>
 <time>2011-09-13T14:09:10Z</time>
 </trkpt>
 <trkpt lat="47.728333" lon="13.144316">
 <ele>484.97</ele>
 <time>2011-09-13T14:09:12Z</time>
 </trkpt>
 <trkpt lat="47.727772" lon="13.144099">
 <ele>480.51</ele>
 <time>2011-09-13T14:09:17Z</time>
 </trkpt>
 <trkpt lat="47.727306" lon="13.143919">
 <ele>477.37</ele>
 <time>2011-09-13T14:09:21Z</time>
 </trkpt>
 <trkpt lat="47.727077" lon="13.143923">
 <ele>475.88</ele>
 <time>2011-09-13T14:09:23Z</time>
 </trkpt>
 <trkpt lat="47.726498" lon="13.144012">
 <ele>471.78</ele>
 <time>2011-09-13T14:09:28Z</time>
 </trkpt>
 <trkpt lat="47.726139" lon="13.143928">
 <ele>468.38</ele>
 <time>2011-09-13T14:09:31Z</time>
 </trkpt>
 <trkpt lat="47.725903" lon="13.143856">
 <ele>466.20</ele>
 <time>2011-09-13T14:09:33Z</time>
 </trkpt>
 <trkpt lat="47.725372" lon="13.143675">
 <ele>461.67</ele>
 <time>2011-09-13T14:09:38Z</time>
 </trkpt>
 <trkpt lat="47.725021" lon="13.143557">
 <ele>458.92</ele>
 <time>2011-09-13T14:09:41Z</time>
 </trkpt>
 <trkpt lat="47.724789" lon="13.143473">
 <ele>456.81</ele>
 <time>2011-09-13T14:09:43Z</time>
 </trkpt>
 <trkpt lat="47.724419" lon="13.143302">
 <ele>453.78</ele>
 <time>2011-09-13T14:09:46Z</time>
 </trkpt>
 <trkpt lat="47.723961" lon="13.143065">
 <ele>449.04</ele>
 <time>2011-09-13T14:09:50Z</time>
 </trkpt>
 <trkpt lat="47.723629" lon="13.142592">
 <ele>445.27</ele>
 <time>2011-09-13T14:09:54Z</time>
 </trkpt>
 <trkpt lat="47.723373" lon="13.141874">
 <ele>443.30</ele>
 <time>2011-09-13T14:09:59Z</time>
 </trkpt>
 <trkpt lat="47.723213" lon="13.141297">
 <ele>443.24</ele>
 <time>2011-09-13T14:10:03Z</time>
 </trkpt>
 <trkpt lat="47.723038" lon="13.140618">
 <ele>443.35</ele>
 <time>2011-09-13T14:10:08Z</time>
 </trkpt>
 <trkpt lat="47.722778" lon="13.139600">
 <ele>442.61</ele>
 <time>2011-09-13T14:10:16Z</time>
 </trkpt>
 <trkpt lat="47.722527" lon="13.138730">
 <ele>442.54</ele>
 <time>2011-09-13T14:10:23Z</time>
 </trkpt>
 <trkpt lat="47.722244" lon="13.138103">
 <ele>443.02</ele>
 <time>2011-09-13T14:10:28Z</time>
 </trkpt>
 <trkpt lat="47.721912" lon="13.137567">
 <ele>443.17</ele>
 <time>2011-09-13T14:10:34Z</time>
 </trkpt>
 <trkpt lat="47.721516" lon="13.137136">
 <ele>442.81</ele>
 <time>2011-09-13T14:10:40Z</time>
 </trkpt>
 <trkpt lat="47.721127" lon="13.136841">
 <ele>443.03</ele>
 <time>2011-09-13T14:10:46Z</time>
 </trkpt>
 <trkpt lat="47.720573" lon="13.136537">
 <ele>442.91</ele>
 <time>2011-09-13T14:10:54Z</time>
 </trkpt>
 <trkpt lat="47.720245" lon="13.136355">
 <ele>442.21</ele>
 <time>2011-09-13T14:10:59Z</time>
 </trkpt>
 <trkpt lat="47.719818" lon="13.136247">
 <ele>442.43</ele>
 <time>2011-09-13T14:11:06Z</time>
 </trkpt>
 <trkpt lat="47.719402" lon="13.136219">
 <ele>442.89</ele>
 <time>2011-09-13T14:11:13Z</time>
 </trkpt>
 <trkpt lat="47.719032" lon="13.136309">
 <ele>442.89</ele>
 <time>2011-09-13T14:11:19Z</time>
 </trkpt>
 <trkpt lat="47.718643" lon="13.136403">
 <ele>442.78</ele>
 <time>2011-09-13T14:11:25Z</time>
 </trkpt>
 <trkpt lat="47.718014" lon="13.136421">
 <ele>440.50</ele>
 <time>2011-09-13T14:11:34Z</time>
 </trkpt>
 <trkpt lat="47.717457" lon="13.136412">
 <ele>438.25</ele>
 <time>2011-09-13T14:11:41Z</time>
 </trkpt>
 <trkpt lat="47.716747" lon="13.136275">
 <ele>436.71</ele>
 <time>2011-09-13T14:11:50Z</time>
 </trkpt>
 <trkpt lat="47.716091" lon="13.136169">
 <ele>436.92</ele>
 <time>2011-09-13T14:11:59Z</time>
 </trkpt>
 <trkpt lat="47.715389" lon="13.136091">
 <ele>437.26</ele>
 <time>2011-09-13T14:12:09Z</time>
 </trkpt>
 <trkpt lat="47.714977" lon="13.136107">
 <ele>436.59</ele>
 <time>2011-09-13T14:12:15Z</time>
 </trkpt>
 <trkpt lat="47.714748" lon="13.136052">
 <ele>436.36</ele>
 <time>2011-09-13T14:12:18Z</time>
 </trkpt>
 <trkpt lat="47.714214" lon="13.135542">
 <ele>436.40</ele>
 <time>2011-09-13T14:12:26Z</time>
 </trkpt>
 <trkpt lat="47.713757" lon="13.135083">
 <ele>437.48</ele>
 <time>2011-09-13T14:12:34Z</time>
 </trkpt>
 <trkpt lat="47.713299" lon="13.134623">
 <ele>436.66</ele>
 <time>2011-09-13T14:12:42Z</time>
 </trkpt>
 <trkpt lat="47.713043" lon="13.134459">
 <ele>436.78</ele>
 <time>2011-09-13T14:12:46Z</time>
 </trkpt>
 <trkpt lat="47.712540" lon="13.134388">
 <ele>436.46</ele>
 <time>2011-09-13T14:12:53Z</time>
 </trkpt>
 <trkpt lat="47.711956" lon="13.134176">
 <ele>435.06</ele>
 <time>2011-09-13T14:13:01Z</time>
 </trkpt>
 <trkpt lat="47.711395" lon="13.133872">
 <ele>433.60</ele>
 <time>2011-09-13T14:13:09Z</time>
 </trkpt>
 <trkpt lat="47.710690" lon="13.133472">
 <ele>433.00</ele>
 <time>2011-09-13T14:13:19Z</time>
 </trkpt>
 <trkpt lat="47.709988" lon="13.133073">
 <ele>431.86</ele>
 <time>2011-09-13T14:13:29Z</time>
 </trkpt>
 <trkpt lat="47.709301" lon="13.132638">
 <ele>430.16</ele>
 <time>2011-09-13T14:13:39Z</time>
 </trkpt>
 <trkpt lat="47.708714" lon="13.132184">
 <ele>429.94</ele>
 <time>2011-09-13T14:13:48Z</time>
 </trkpt>
 <trkpt lat="47.708218" lon="13.131586">
 <ele>429.31</ele>
 <time>2011-09-13T14:13:57Z</time>
 </trkpt>
 <trkpt lat="47.707668" lon="13.130829">
 <ele>429.42</ele>
 <time>2011-09-13T14:14:08Z</time>
 </trkpt>
 <trkpt lat="47.707340" lon="13.130281">
 <ele>429.46</ele>
 <time>2011-09-13T14:14:16Z</time>
 </trkpt>
 <trkpt lat="47.707100" lon="13.129835">
 <ele>429.83</ele>
 <time>2011-09-13T14:14:22Z</time>
 </trkpt>
 <trkpt lat="47.706886" lon="13.129082">
 <ele>429.55</ele>
 <time>2011-09-13T14:14:30Z</time>
 </trkpt>
 <trkpt lat="47.706734" lon="13.128519">
 <ele>429.62</ele>
 <time>2011-09-13T14:14:36Z</time>
 </trkpt>
 <trkpt lat="47.706673" lon="13.127947">
 <ele>429.55</ele>
 <time>2011-09-13T14:14:42Z</time>
 </trkpt>
 <trkpt lat="47.706596" lon="13.127255">
 <ele>428.88</ele>
 <time>2011-09-13T14:14:49Z</time>
 </trkpt>
 <trkpt lat="47.706654" lon="13.126498">
 <ele>428.57</ele>
 <time>2011-09-13T14:14:57Z</time>
 </trkpt>
 <trkpt lat="47.706715" lon="13.125916">
 <ele>429.09</ele>
 <time>2011-09-13T14:15:04Z</time>
 </trkpt>
 <trkpt lat="47.706703" lon="13.125353">
 <ele>429.44</ele>
 <time>2011-09-13T14:15:11Z</time>
 </trkpt>
 <trkpt lat="47.706669" lon="13.124585">
 <ele>429.33</ele>
 <time>2011-09-13T14:15:20Z</time>
 </trkpt>
 <trkpt lat="47.706516" lon="13.123798">
 <ele>429.23</ele>
 <time>2011-09-13T14:15:30Z</time>
 </trkpt>
 <trkpt lat="47.706230" lon="13.123234">
 <ele>429.47</ele>
 <time>2011-09-13T14:15:38Z</time>
 </trkpt>
 <trkpt lat="47.705921" lon="13.122855">
 <ele>429.99</ele>
 <time>2011-09-13T14:15:45Z</time>
 </trkpt>
 <trkpt lat="47.705658" lon="13.122679">
 <ele>430.73</ele>
 <time>2011-09-13T14:15:50Z</time>
 </trkpt>
 <trkpt lat="47.705322" lon="13.122525">
 <ele>430.23</ele>
 <time>2011-09-13T14:15:56Z</time>
 </trkpt>
 <trkpt lat="47.704914" lon="13.122525">
 <ele>429.42</ele>
 <time>2011-09-13T14:16:03Z</time>
 </trkpt>
 <trkpt lat="47.704365" lon="13.122545">
 <ele>429.10</ele>
 <time>2011-09-13T14:16:12Z</time>
 </trkpt>
 <trkpt lat="47.703857" lon="13.122573">
 <ele>429.08</ele>
 <time>2011-09-13T14:16:20Z</time>
 </trkpt>
 <trkpt lat="47.703121" lon="13.122619">
 <ele>428.48</ele>
 <time>2011-09-13T14:16:31Z</time>
 </trkpt>
 <trkpt lat="47.702579" lon="13.122655">
 <ele>427.88</ele>
 <time>2011-09-13T14:16:39Z</time>
 </trkpt>
 <trkpt lat="47.701828" lon="13.122705">
 <ele>427.22</ele>
 <time>2011-09-13T14:16:50Z</time>
 </trkpt>
 <trkpt lat="47.701229" lon="13.122745">
 <ele>426.79</ele>
 <time>2011-09-13T14:16:59Z</time>
 </trkpt>
 <trkpt lat="47.700848" lon="13.122690">
 <ele>426.68</ele>
 <time>2011-09-13T14:17:05Z</time>
 </trkpt>
 <trkpt lat="47.700432" lon="13.122475">
 <ele>426.55</ele>
 <time>2011-09-13T14:17:12Z</time>
 </trkpt>
 <trkpt lat="47.700249" lon="13.122328">
 <ele>426.14</ele>
 <time>2011-09-13T14:17:15Z</time>
 </trkpt>
 <trkpt lat="47.699860" lon="13.121835">
 <ele>425.64</ele>
 <time>2011-09-13T14:17:23Z</time>
 </trkpt>
 <trkpt lat="47.699635" lon="13.121362">
 <ele>425.35</ele>
 <time>2011-09-13T14:17:29Z</time>
 </trkpt>
 <trkpt lat="47.699455" lon="13.120919">
 <ele>425.47</ele>
 <time>2011-09-13T14:17:34Z</time>
 </trkpt>
 <trkpt lat="47.699253" lon="13.120192">
 <ele>425.77</ele>
 <time>2011-09-13T14:17:42Z</time>
 </trkpt>
 <trkpt lat="47.699150" lon="13.119538">
 <ele>425.24</ele>
 <time>2011-09-13T14:17:49Z</time>
 </trkpt>
 <trkpt lat="47.699120" lon="13.118842">
 <ele>425.27</ele>
 <time>2011-09-13T14:17:56Z</time>
 </trkpt>
 <trkpt lat="47.699181" lon="13.117930">
 <ele>425.03</ele>
 <time>2011-09-13T14:18:05Z</time>
 </trkpt>
 <trkpt lat="47.699291" lon="13.117298">
 <ele>424.31</ele>
 <time>2011-09-13T14:18:12Z</time>
 </trkpt>
 <trkpt lat="47.699463" lon="13.116551">
 <ele>423.29</ele>
 <time>2011-09-13T14:18:21Z</time>
 </trkpt>
 <trkpt lat="47.699730" lon="13.115901">
 <ele>424.38</ele>
 <time>2011-09-13T14:18:29Z</time>
 </trkpt>
 <trkpt lat="47.700058" lon="13.115385">
 <ele>424.20</ele>
 <time>2011-09-13T14:18:37Z</time>
 </trkpt>
 <trkpt lat="47.700268" lon="13.115093">
 <ele>423.73</ele>
 <time>2011-09-13T14:18:42Z</time>
 </trkpt>
 <trkpt lat="47.700348" lon="13.114995">
 <ele>423.88</ele>
 <time>2011-09-13T14:18:44Z</time>
 </trkpt>
 <trkpt lat="47.700661" lon="13.114491">
 <ele>425.03</ele>
 <time>2011-09-13T14:18:54Z</time>
 </trkpt>
 <trkpt lat="47.700851" lon="13.113938">
 <ele>426.30</ele>
 <time>2011-09-13T14:19:03Z</time>
 </trkpt>
 <trkpt lat="47.700882" lon="13.113719">
 <ele>426.29</ele>
 <time>2011-09-13T14:19:06Z</time>
 </trkpt>
 <trkpt lat="47.700916" lon="13.113009">
 <ele>425.76</ele>
 <time>2011-09-13T14:19:16Z</time>
 </trkpt>
 <trkpt lat="47.700855" lon="13.112843">
 <ele>425.74</ele>
 <time>2011-09-13T14:19:19Z</time>
 </trkpt>
 <trkpt lat="47.700680" lon="13.112385">
 <ele>424.83</ele>
 <time>2011-09-13T14:19:26Z</time>
 </trkpt>
 <trkpt lat="47.700481" lon="13.111957">
 <ele>424.26</ele>
 <time>2011-09-13T14:19:32Z</time>
 </trkpt>
 <trkpt lat="47.700157" lon="13.111633">
 <ele>423.34</ele>
 <time>2011-09-13T14:19:39Z</time>
 </trkpt>
 <trkpt lat="47.700016" lon="13.111493">
 <ele>423.24</ele>
 <time>2011-09-13T14:19:42Z</time>
 </trkpt>
 <trkpt lat="47.699623" lon="13.111266">
 <ele>423.00</ele>
 <time>2011-09-13T14:19:49Z</time>
 </trkpt>
 <trkpt lat="47.699291" lon="13.111099">
 <ele>422.41</ele>
 <time>2011-09-13T14:19:54Z</time>
 </trkpt>
 <trkpt lat="47.698803" lon="13.110702">
 <ele>420.40</ele>
 <time>2011-09-13T14:20:01Z</time>
 </trkpt>
 <trkpt lat="47.698383" lon="13.110440">
 <ele>419.81</ele>
 <time>2011-09-13T14:20:07Z</time>
 </trkpt>
 <trkpt lat="47.697952" lon="13.110364">
 <ele>420.03</ele>
 <time>2011-09-13T14:20:13Z</time>
 </trkpt>
 <trkpt lat="47.697887" lon="13.110409">
 <ele>420.13</ele>
 <time>2011-09-13T14:20:14Z</time>
 </trkpt>
 <trkpt lat="47.697342" lon="13.110779">
 <ele>419.17</ele>
 <time>2011-09-13T14:20:22Z</time>
 </trkpt>
 <trkpt lat="47.696877" lon="13.111093">
 <ele>419.66</ele>
 <time>2011-09-13T14:20:29Z</time>
 </trkpt>
 <trkpt lat="47.696465" lon="13.111257">
 <ele>420.08</ele>
 <time>2011-09-13T14:20:35Z</time>
 </trkpt>
 <trkpt lat="47.696102" lon="13.111406">
 <ele>420.57</ele>
 <time>2011-09-13T14:20:41Z</time>
 </trkpt>
 <trkpt lat="47.695778" lon="13.111469">
 <ele>421.30</ele>
 <time>2011-09-13T14:20:46Z</time>
 </trkpt>
 <trkpt lat="47.695305" lon="13.111506">
 <ele>421.71</ele>
 <time>2011-09-13T14:20:54Z</time>
 </trkpt>
 <trkpt lat="47.694897" lon="13.111537">
 <ele>421.36</ele>
 <time>2011-09-13T14:21:01Z</time>
 </trkpt>
 <trkpt lat="47.694839" lon="13.111542">
 <ele>421.23</ele>
 <time>2011-09-13T14:21:02Z</time>
 </trkpt>
 <trkpt lat="47.694424" lon="13.111388">
 <ele>420.13</ele>
 <time>2011-09-13T14:21:08Z</time>
 </trkpt>
 <trkpt lat="47.694073" lon="13.111028">
 <ele>418.97</ele>
 <time>2011-09-13T14:21:14Z</time>
 </trkpt>
 <trkpt lat="47.693550" lon="13.110480">
 <ele>418.22</ele>
 <time>2011-09-13T14:21:23Z</time>
 </trkpt>
 <trkpt lat="47.693310" lon="13.110248">
 <ele>417.97</ele>
 <time>2011-09-13T14:21:27Z</time>
 </trkpt>
 <trkpt lat="47.692997" lon="13.109959">
 <ele>417.41</ele>
 <time>2011-09-13T14:21:32Z</time>
 </trkpt>
 <trkpt lat="47.692490" lon="13.109717">
 <ele>416.84</ele>
 <time>2011-09-13T14:21:39Z</time>
 </trkpt>
 <trkpt lat="47.691948" lon="13.109462">
 <ele>416.98</ele>
 <time>2011-09-13T14:21:47Z</time>
 </trkpt>
 <trkpt lat="47.691586" lon="13.109221">
 <ele>417.80</ele>
 <time>2011-09-13T14:21:53Z</time>
 </trkpt>
 <trkpt lat="47.691372" lon="13.108878">
 <ele>419.13</ele>
 <time>2011-09-13T14:22:01Z</time>
 </trkpt>
 <trkpt lat="47.691051" lon="13.108406">
 <ele>418.46</ele>
 <time>2011-09-13T14:22:09Z</time>
 </trkpt>
 <trkpt lat="47.690449" lon="13.107601">
 <ele>417.18</ele>
 <time>2011-09-13T14:22:17Z</time>
 </trkpt>
 <trkpt lat="47.690090" lon="13.107390">
 <ele>415.79</ele>
 <time>2011-09-13T14:22:23Z</time>
 </trkpt>
 <trkpt lat="47.689789" lon="13.107214">
 <ele>414.10</ele>
 <time>2011-09-13T14:22:29Z</time>
 </trkpt>
 <trkpt lat="47.689529" lon="13.107060">
 <ele>413.13</ele>
 <time>2011-09-13T14:22:34Z</time>
 </trkpt>
 <trkpt lat="47.689323" lon="13.106941">
 <ele>412.57</ele>
 <time>2011-09-13T14:22:40Z</time>
 </trkpt>
 <trkpt lat="47.689167" lon="13.106817">
 <ele>411.86</ele>
 <time>2011-09-13T14:22:45Z</time>
 </trkpt>
 <trkpt lat="47.688931" lon="13.106556">
 <ele>410.72</ele>
 <time>2011-09-13T14:22:52Z</time>
 </trkpt>
 <trkpt lat="47.688622" lon="13.106131">
 <ele>409.91</ele>
 <time>2011-09-13T14:23:00Z</time>
 </trkpt>
 <trkpt lat="47.688362" lon="13.105719">
 <ele>409.68</ele>
 <time>2011-09-13T14:23:06Z</time>
 </trkpt>
 <trkpt lat="47.688320" lon="13.105654">
 <ele>409.77</ele>
 <time>2011-09-13T14:23:07Z</time>
 </trkpt>
 <trkpt lat="47.688141" lon="13.105424">
 <ele>410.13</ele>
 <time>2011-09-13T14:23:12Z</time>
 </trkpt>
 <trkpt lat="47.688110" lon="13.105424">
 <ele>410.13</ele>
 <time>2011-09-13T14:23:13Z</time>
 </trkpt>
 <trkpt lat="47.687889" lon="13.104913">
 <ele>409.47</ele>
 <time>2011-09-13T14:23:20Z</time>
 </trkpt>
 <trkpt lat="47.687553" lon="13.104350">
 <ele>408.62</ele>
 <time>2011-09-13T14:23:28Z</time>
 </trkpt>
 <trkpt lat="47.687176" lon="13.103814">
 <ele>408.50</ele>
 <time>2011-09-13T14:23:36Z</time>
 </trkpt>
 <trkpt lat="47.686798" lon="13.103328">
 <ele>407.97</ele>
 <time>2011-09-13T14:23:44Z</time>
 </trkpt>
 <trkpt lat="47.686398" lon="13.102877">
 <ele>407.56</ele>
 <time>2011-09-13T14:23:52Z</time>
 </trkpt>
 <trkpt lat="47.686031" lon="13.102518">
 <ele>407.45</ele>
 <time>2011-09-13T14:23:59Z</time>
 </trkpt>
 <trkpt lat="47.685726" lon="13.102177">
 <ele>407.52</ele>
 <time>2011-09-13T14:24:05Z</time>
 </trkpt>
 <trkpt lat="47.685360" lon="13.101751">
 <ele>407.37</ele>
 <time>2011-09-13T14:24:13Z</time>
 </trkpt>
 <trkpt lat="47.685249" lon="13.101621">
 <ele>407.70</ele>
 <time>2011-09-13T14:24:17Z</time>
 </trkpt>
 <trkpt lat="47.685219" lon="13.101596">
 <ele>408.15</ele>
 <time>2011-09-13T14:24:20Z</time>
 </trkpt>
 <trkpt lat="47.685169" lon="13.101561">
 <ele>408.19</ele>
 <time>2011-09-13T14:24:24Z</time>
 </trkpt>
 <trkpt lat="47.685169" lon="13.101561">
 <ele>407.72</ele>
 <time>2011-09-13T14:24:30Z</time>
 </trkpt>
 <trkpt lat="47.684692" lon="13.101293">
 <ele>407.06</ele>
 <time>2011-09-13T14:24:36Z</time>
 </trkpt>
 <trkpt lat="47.684559" lon="13.101204">
 <ele>407.26</ele>
 <time>2011-09-13T14:24:40Z</time>
 </trkpt>
 <trkpt lat="47.684490" lon="13.101023">
 <ele>407.51</ele>
 <time>2011-09-13T14:24:44Z</time>
 </trkpt>
 <trkpt lat="47.684475" lon="13.100978">
 <ele>407.42</ele>
 <time>2011-09-13T14:24:45Z</time>
 </trkpt>
 <trkpt lat="47.684574" lon="13.100734">
 <ele>407.02</ele>
 <time>2011-09-13T14:24:51Z</time>
 </trkpt>
 <trkpt lat="47.684792" lon="13.100451">
 <ele>406.61</ele>
 <time>2011-09-13T14:24:59Z</time>
 </trkpt>
 <trkpt lat="47.684933" lon="13.100336">
 <ele>406.85</ele>
 <time>2011-09-13T14:25:05Z</time>
 </trkpt>
 <trkpt lat="47.684944" lon="13.100330">
 <ele>407.36</ele>
 <time>2011-09-13T14:25:09Z</time>
 </trkpt>
 <trkpt lat="47.684944" lon="13.100330">
 <ele>407.54</ele>
 <time>2011-09-13T14:25:17Z</time>
 </trkpt>
 </trkseg>
 </trk>
</gpx>
